<?xml version="1.0" encoding="UTF-8" standalone="no" ?>
<gpx xmlns="http://www.topografix.com/GPX/1/1" xmlns:xsi="http://www.w3.org/2001/XMLSchema-instance" xsi:schemaLocation="http://www.topografix.com/GPX/1/1 http://www.topografix.com/GPX/1/1/gpx.xsd" version="1.1" creator="VisuGPX - https://www.visugpx.com">
  <metadata>
    <name>31-JUIL-22 16:01:58</name>
    <desc><![CDATA[Bourbach-le-Haut, ferme des Buissonnets par la route, puis Baeselbach et col du Hundsruck à gauche route forestière vers la Place Zundel et descente sur Willer-sur-Thur, piste cyclable qui longe la Thur jusqu'à la tourbière près de Fellering, passer Schliffels, continuer sur la piste cyclable à l'arrière d'Oderen puis Kruth enfin passer au barrage et rester sur la D143 pendant 700 mètres environ avant de prendre la route forestière qui monte à gauche vers l'abri du Tal puis la cabane du Bockloch rester sur triangle rouge jusqu'à la route forestière de la Vierge. Rester sur cette route jusqu'au refuge de la Chaume du Grand Ventron et poursuivre vers le col d'Oderen. Traverser le col et après le parking à droite prendre triangle jaune "Chemin des Alliés"
descente sur Langenbach puis Langmatt pour rejoindre Schliffels, retour par la piste cyclable jusqu'au lieu dit Gehren . Au niveau de la déchèterie prendre à droite vers la route forestière rectangle rouge et blanc pour rejoindre le Blaufels. descente vers la route de l'Altrain et monter vers la place Zundel. Retour comme à l'aller par le col du Hundsruck , Baeselbach, Buissonnets et B-L-H.]]></desc>
  </metadata>
  <trk>
    <name><![CDATA[31-JUIL-22 16:01:58]]></name>
    <trkseg>
      <trkpt lat="47.7938" lon="7.02994">
        <ele>461.57</ele>
        <time>2022-07-31T07:16:26Z</time>
      </trkpt>
      <trkpt lat="47.7938" lon="7.02994">
        <ele>461.57</ele>
        <time>2022-07-31T07:16:27Z</time>
      </trkpt>
      <trkpt lat="47.79385" lon="7.03003">
        <ele>461.57</ele>
        <time>2022-07-31T07:16:47Z</time>
      </trkpt>
      <trkpt lat="47.79384" lon="7.03">
        <ele>465.9</ele>
        <time>2022-07-31T07:17:09Z</time>
      </trkpt>
      <trkpt lat="47.79384" lon="7.03002">
        <ele>470.22</ele>
        <time>2022-07-31T07:17:11Z</time>
      </trkpt>
      <trkpt lat="47.79385" lon="7.03002">
        <ele>474.55</ele>
        <time>2022-07-31T07:17:13Z</time>
      </trkpt>
      <trkpt lat="47.79386" lon="7.03003">
        <ele>478.39</ele>
        <time>2022-07-31T07:17:15Z</time>
      </trkpt>
      <trkpt lat="47.79388" lon="7.03004">
        <ele>482.24</ele>
        <time>2022-07-31T07:17:17Z</time>
      </trkpt>
      <trkpt lat="47.79389" lon="7.03005">
        <ele>485.6</ele>
        <time>2022-07-31T07:17:19Z</time>
      </trkpt>
      <trkpt lat="47.7939" lon="7.03005">
        <ele>488.97</ele>
        <time>2022-07-31T07:17:21Z</time>
      </trkpt>
      <trkpt lat="47.79389" lon="7.03005">
        <ele>491.85</ele>
        <time>2022-07-31T07:17:23Z</time>
      </trkpt>
      <trkpt lat="47.79389" lon="7.03004">
        <ele>496.18</ele>
        <time>2022-07-31T07:17:26Z</time>
      </trkpt>
      <trkpt lat="47.79388" lon="7.03004">
        <ele>500.02</ele>
        <time>2022-07-31T07:17:29Z</time>
      </trkpt>
      <trkpt lat="47.79388" lon="7.03004">
        <ele>503.39</ele>
        <time>2022-07-31T07:17:32Z</time>
      </trkpt>
      <trkpt lat="47.79388" lon="7.03004">
        <ele>506.27</ele>
        <time>2022-07-31T07:17:35Z</time>
      </trkpt>
      <trkpt lat="47.79387" lon="7.03005">
        <ele>510.12</ele>
        <time>2022-07-31T07:17:39Z</time>
      </trkpt>
      <trkpt lat="47.79387" lon="7.03006">
        <ele>511.08</ele>
        <time>2022-07-31T07:17:40Z</time>
      </trkpt>
      <trkpt lat="47.79384" lon="7.03008">
        <ele>513</ele>
        <time>2022-07-31T07:17:42Z</time>
      </trkpt>
      <trkpt lat="47.79382" lon="7.03015">
        <ele>516.37</ele>
        <time>2022-07-31T07:17:46Z</time>
      </trkpt>
      <trkpt lat="47.79384" lon="7.03024">
        <ele>520.69</ele>
        <time>2022-07-31T07:17:51Z</time>
      </trkpt>
      <trkpt lat="47.79388" lon="7.03021">
        <ele>522.61</ele>
        <time>2022-07-31T07:17:54Z</time>
      </trkpt>
      <trkpt lat="47.79395" lon="7.03014">
        <ele>525.02</ele>
        <time>2022-07-31T07:17:59Z</time>
      </trkpt>
      <trkpt lat="47.79405" lon="7.03009">
        <ele>529.34</ele>
        <time>2022-07-31T07:18:07Z</time>
      </trkpt>
      <trkpt lat="47.79408" lon="7.03011">
        <ele>531.27</ele>
        <time>2022-07-31T07:18:16Z</time>
      </trkpt>
      <trkpt lat="47.79412" lon="7.03012">
        <ele>534.63</ele>
        <time>2022-07-31T07:18:32Z</time>
      </trkpt>
      <trkpt lat="47.79415" lon="7.03012">
        <ele>536.55</ele>
        <time>2022-07-31T07:18:44Z</time>
      </trkpt>
      <trkpt lat="47.79418" lon="7.03023">
        <ele>537.51</ele>
        <time>2022-07-31T07:18:50Z</time>
      </trkpt>
      <trkpt lat="47.79437" lon="7.03057">
        <ele>540.88</ele>
        <time>2022-07-31T07:19:06Z</time>
      </trkpt>
      <trkpt lat="47.79452" lon="7.03089">
        <ele>544.24</ele>
        <time>2022-07-31T07:19:20Z</time>
      </trkpt>
      <trkpt lat="47.79475" lon="7.03122">
        <ele>547.13</ele>
        <time>2022-07-31T07:19:35Z</time>
      </trkpt>
      <trkpt lat="47.79498" lon="7.03118">
        <ele>549.05</ele>
        <time>2022-07-31T07:19:46Z</time>
      </trkpt>
      <trkpt lat="47.79502" lon="7.03076">
        <ele>550.97</ele>
        <time>2022-07-31T07:19:57Z</time>
      </trkpt>
      <trkpt lat="47.7951" lon="7.03027">
        <ele>553.86</ele>
        <time>2022-07-31T07:20:11Z</time>
      </trkpt>
      <trkpt lat="47.79529" lon="7.02989">
        <ele>556.26</ele>
        <time>2022-07-31T07:20:25Z</time>
      </trkpt>
      <trkpt lat="47.79548" lon="7.02963">
        <ele>559.14</ele>
        <time>2022-07-31T07:20:37Z</time>
      </trkpt>
      <trkpt lat="47.79586" lon="7.02942">
        <ele>560.59</ele>
        <time>2022-07-31T07:20:52Z</time>
      </trkpt>
      <trkpt lat="47.79621" lon="7.02912">
        <ele>562.99</ele>
        <time>2022-07-31T07:21:06Z</time>
      </trkpt>
      <trkpt lat="47.79658" lon="7.0289">
        <ele>564.43</ele>
        <time>2022-07-31T07:21:21Z</time>
      </trkpt>
      <trkpt lat="47.79693" lon="7.02881">
        <ele>566.83</ele>
        <time>2022-07-31T07:21:34Z</time>
      </trkpt>
      <trkpt lat="47.79708" lon="7.02872">
        <ele>567.8</ele>
        <time>2022-07-31T07:21:40Z</time>
      </trkpt>
      <trkpt lat="47.79715" lon="7.02863">
        <ele>568.76</ele>
        <time>2022-07-31T07:21:44Z</time>
      </trkpt>
      <trkpt lat="47.79747" lon="7.02818">
        <ele>570.68</ele>
        <time>2022-07-31T07:21:59Z</time>
      </trkpt>
      <trkpt lat="47.7979" lon="7.02784">
        <ele>573.56</ele>
        <time>2022-07-31T07:22:15Z</time>
      </trkpt>
      <trkpt lat="47.79821" lon="7.02761">
        <ele>577.41</ele>
        <time>2022-07-31T07:22:27Z</time>
      </trkpt>
      <trkpt lat="47.79824" lon="7.02707">
        <ele>575.49</ele>
        <time>2022-07-31T07:22:38Z</time>
      </trkpt>
      <trkpt lat="47.79824" lon="7.02689">
        <ele>575.01</ele>
        <time>2022-07-31T07:22:41Z</time>
      </trkpt>
      <trkpt lat="47.79825" lon="7.02682">
        <ele>574.53</ele>
        <time>2022-07-31T07:22:42Z</time>
      </trkpt>
      <trkpt lat="47.79829" lon="7.02658">
        <ele>573.56</ele>
        <time>2022-07-31T07:22:45Z</time>
      </trkpt>
      <trkpt lat="47.79831" lon="7.02651">
        <ele>573.08</ele>
        <time>2022-07-31T07:22:46Z</time>
      </trkpt>
      <trkpt lat="47.79839" lon="7.02635">
        <ele>572.6</ele>
        <time>2022-07-31T07:22:48Z</time>
      </trkpt>
      <trkpt lat="47.79843" lon="7.02629">
        <ele>572.6</ele>
        <time>2022-07-31T07:22:49Z</time>
      </trkpt>
      <trkpt lat="47.79847" lon="7.02623">
        <ele>572.12</ele>
        <time>2022-07-31T07:22:50Z</time>
      </trkpt>
      <trkpt lat="47.79853" lon="7.02618">
        <ele>572.12</ele>
        <time>2022-07-31T07:22:51Z</time>
      </trkpt>
      <trkpt lat="47.79858" lon="7.02614">
        <ele>572.12</ele>
        <time>2022-07-31T07:22:52Z</time>
      </trkpt>
      <trkpt lat="47.79899" lon="7.0259">
        <ele>571.64</ele>
        <time>2022-07-31T07:23:00Z</time>
      </trkpt>
      <trkpt lat="47.79903" lon="7.02587">
        <ele>572.12</ele>
        <time>2022-07-31T07:23:01Z</time>
      </trkpt>
      <trkpt lat="47.79935" lon="7.02561">
        <ele>574.04</ele>
        <time>2022-07-31T07:23:13Z</time>
      </trkpt>
      <trkpt lat="47.79953" lon="7.02544">
        <ele>577.41</ele>
        <time>2022-07-31T07:23:22Z</time>
      </trkpt>
      <trkpt lat="47.79986" lon="7.02518">
        <ele>580.77</ele>
        <time>2022-07-31T07:23:36Z</time>
      </trkpt>
      <trkpt lat="47.80018" lon="7.02498">
        <ele>583.18</ele>
        <time>2022-07-31T07:23:49Z</time>
      </trkpt>
      <trkpt lat="47.80044" lon="7.02477">
        <ele>586.06</ele>
        <time>2022-07-31T07:24:02Z</time>
      </trkpt>
      <trkpt lat="47.80071" lon="7.02434">
        <ele>587.02</ele>
        <time>2022-07-31T07:24:16Z</time>
      </trkpt>
      <trkpt lat="47.80101" lon="7.02423">
        <ele>589.91</ele>
        <time>2022-07-31T07:24:28Z</time>
      </trkpt>
      <trkpt lat="47.80139" lon="7.02432">
        <ele>591.83</ele>
        <time>2022-07-31T07:24:43Z</time>
      </trkpt>
      <trkpt lat="47.80169" lon="7.02447">
        <ele>594.71</ele>
        <time>2022-07-31T07:24:56Z</time>
      </trkpt>
      <trkpt lat="47.80192" lon="7.02451">
        <ele>597.12</ele>
        <time>2022-07-31T07:25:09Z</time>
      </trkpt>
      <trkpt lat="47.80203" lon="7.02451">
        <ele>599.04</ele>
        <time>2022-07-31T07:25:15Z</time>
      </trkpt>
      <trkpt lat="47.80223" lon="7.02464">
        <ele>602.4</ele>
        <time>2022-07-31T07:25:26Z</time>
      </trkpt>
      <trkpt lat="47.8023" lon="7.02469">
        <ele>603.36</ele>
        <time>2022-07-31T07:25:31Z</time>
      </trkpt>
      <trkpt lat="47.8025" lon="7.02483">
        <ele>606.73</ele>
        <time>2022-07-31T07:25:41Z</time>
      </trkpt>
      <trkpt lat="47.80277" lon="7.02499">
        <ele>609.61</ele>
        <time>2022-07-31T07:25:51Z</time>
      </trkpt>
      <trkpt lat="47.80308" lon="7.02518">
        <ele>612.02</ele>
        <time>2022-07-31T07:26:04Z</time>
      </trkpt>
      <trkpt lat="47.80334" lon="7.0254">
        <ele>613.94</ele>
        <time>2022-07-31T07:26:15Z</time>
      </trkpt>
      <trkpt lat="47.80356" lon="7.0258">
        <ele>616.34</ele>
        <time>2022-07-31T07:26:29Z</time>
      </trkpt>
      <trkpt lat="47.80362" lon="7.02605">
        <ele>617.78</ele>
        <time>2022-07-31T07:26:37Z</time>
      </trkpt>
      <trkpt lat="47.80363" lon="7.02609">
        <ele>618.26</ele>
        <time>2022-07-31T07:26:38Z</time>
      </trkpt>
      <trkpt lat="47.80364" lon="7.02612">
        <ele>618.26</ele>
        <time>2022-07-31T07:26:39Z</time>
      </trkpt>
      <trkpt lat="47.80365" lon="7.02614">
        <ele>618.75</ele>
        <time>2022-07-31T07:26:40Z</time>
      </trkpt>
      <trkpt lat="47.80365" lon="7.02617">
        <ele>618.75</ele>
        <time>2022-07-31T07:26:41Z</time>
      </trkpt>
      <trkpt lat="47.80366" lon="7.0262">
        <ele>618.75</ele>
        <time>2022-07-31T07:26:42Z</time>
      </trkpt>
      <trkpt lat="47.80372" lon="7.02641">
        <ele>621.15</ele>
        <time>2022-07-31T07:26:50Z</time>
      </trkpt>
      <trkpt lat="47.80385" lon="7.02663">
        <ele>624.51</ele>
        <time>2022-07-31T07:26:59Z</time>
      </trkpt>
      <trkpt lat="47.80407" lon="7.02689">
        <ele>627.4</ele>
        <time>2022-07-31T07:27:11Z</time>
      </trkpt>
      <trkpt lat="47.80431" lon="7.02698">
        <ele>630.76</ele>
        <time>2022-07-31T07:27:22Z</time>
      </trkpt>
      <trkpt lat="47.80452" lon="7.02697">
        <ele>633.65</ele>
        <time>2022-07-31T07:27:33Z</time>
      </trkpt>
      <trkpt lat="47.80472" lon="7.02687">
        <ele>636.53</ele>
        <time>2022-07-31T07:27:44Z</time>
      </trkpt>
      <trkpt lat="47.80501" lon="7.02671">
        <ele>644.7</ele>
        <time>2022-07-31T07:27:56Z</time>
      </trkpt>
      <trkpt lat="47.80503" lon="7.02669">
        <ele>638.93</ele>
        <time>2022-07-31T07:27:57Z</time>
      </trkpt>
      <trkpt lat="47.80523" lon="7.02652">
        <ele>641.82</ele>
        <time>2022-07-31T07:28:08Z</time>
      </trkpt>
      <trkpt lat="47.80551" lon="7.02629">
        <ele>644.22</ele>
        <time>2022-07-31T07:28:20Z</time>
      </trkpt>
      <trkpt lat="47.80575" lon="7.02603">
        <ele>648.55</ele>
        <time>2022-07-31T07:28:31Z</time>
      </trkpt>
      <trkpt lat="47.80578" lon="7.02601">
        <ele>647.59</ele>
        <time>2022-07-31T07:28:32Z</time>
      </trkpt>
      <trkpt lat="47.80586" lon="7.02596">
        <ele>648.55</ele>
        <time>2022-07-31T07:28:35Z</time>
      </trkpt>
      <trkpt lat="47.80588" lon="7.02597">
        <ele>649.03</ele>
        <time>2022-07-31T07:28:36Z</time>
      </trkpt>
      <trkpt lat="47.8059" lon="7.026">
        <ele>649.03</ele>
        <time>2022-07-31T07:28:37Z</time>
      </trkpt>
      <trkpt lat="47.8059" lon="7.02602">
        <ele>649.51</ele>
        <time>2022-07-31T07:28:38Z</time>
      </trkpt>
      <trkpt lat="47.80589" lon="7.02605">
        <ele>649.99</ele>
        <time>2022-07-31T07:28:39Z</time>
      </trkpt>
      <trkpt lat="47.80588" lon="7.02608">
        <ele>650.47</ele>
        <time>2022-07-31T07:28:40Z</time>
      </trkpt>
      <trkpt lat="47.80587" lon="7.0261">
        <ele>650.47</ele>
        <time>2022-07-31T07:28:41Z</time>
      </trkpt>
      <trkpt lat="47.80585" lon="7.02612">
        <ele>650.95</ele>
        <time>2022-07-31T07:28:42Z</time>
      </trkpt>
      <trkpt lat="47.80567" lon="7.02634">
        <ele>654.31</ele>
        <time>2022-07-31T07:28:53Z</time>
      </trkpt>
      <trkpt lat="47.80561" lon="7.02661">
        <ele>656.72</ele>
        <time>2022-07-31T07:29:04Z</time>
      </trkpt>
      <trkpt lat="47.80548" lon="7.02688">
        <ele>659.6</ele>
        <time>2022-07-31T07:29:15Z</time>
      </trkpt>
      <trkpt lat="47.80537" lon="7.02721">
        <ele>662.97</ele>
        <time>2022-07-31T07:29:26Z</time>
      </trkpt>
      <trkpt lat="47.80532" lon="7.02737">
        <ele>663.93</ele>
        <time>2022-07-31T07:29:31Z</time>
      </trkpt>
      <trkpt lat="47.80525" lon="7.02759">
        <ele>665.85</ele>
        <time>2022-07-31T07:29:38Z</time>
      </trkpt>
      <trkpt lat="47.80531" lon="7.02765">
        <ele>665.85</ele>
        <time>2022-07-31T07:29:42Z</time>
      </trkpt>
      <trkpt lat="47.80552" lon="7.02748">
        <ele>669.22</ele>
        <time>2022-07-31T07:29:55Z</time>
      </trkpt>
      <trkpt lat="47.80577" lon="7.02724">
        <ele>672.58</ele>
        <time>2022-07-31T07:30:09Z</time>
      </trkpt>
      <trkpt lat="47.80578" lon="7.02723">
        <ele>672.58</ele>
        <time>2022-07-31T07:30:10Z</time>
      </trkpt>
      <trkpt lat="47.80602" lon="7.02703">
        <ele>675.46</ele>
        <time>2022-07-31T07:30:22Z</time>
      </trkpt>
      <trkpt lat="47.80623" lon="7.02682">
        <ele>678.83</ele>
        <time>2022-07-31T07:30:32Z</time>
      </trkpt>
      <trkpt lat="47.80625" lon="7.0268">
        <ele>677.87</ele>
        <time>2022-07-31T07:30:33Z</time>
      </trkpt>
      <trkpt lat="47.80658" lon="7.02675">
        <ele>681.23</ele>
        <time>2022-07-31T07:30:46Z</time>
      </trkpt>
      <trkpt lat="47.80692" lon="7.02684">
        <ele>684.12</ele>
        <time>2022-07-31T07:30:59Z</time>
      </trkpt>
      <trkpt lat="47.80726" lon="7.02705">
        <ele>687</ele>
        <time>2022-07-31T07:31:14Z</time>
      </trkpt>
      <trkpt lat="47.80743" lon="7.02711">
        <ele>688.92</ele>
        <time>2022-07-31T07:31:22Z</time>
      </trkpt>
      <trkpt lat="47.80743" lon="7.02718">
        <ele>689.4</ele>
        <time>2022-07-31T07:31:25Z</time>
      </trkpt>
      <trkpt lat="47.80736" lon="7.02724">
        <ele>690.84</ele>
        <time>2022-07-31T07:31:29Z</time>
      </trkpt>
      <trkpt lat="47.80701" lon="7.02712">
        <ele>692.77</ele>
        <time>2022-07-31T07:31:42Z</time>
      </trkpt>
      <trkpt lat="47.80656" lon="7.02716">
        <ele>693.73</ele>
        <time>2022-07-31T07:31:56Z</time>
      </trkpt>
      <trkpt lat="47.80646" lon="7.02724">
        <ele>694.69</ele>
        <time>2022-07-31T07:32:00Z</time>
      </trkpt>
      <trkpt lat="47.80656" lon="7.02739">
        <ele>696.13</ele>
        <time>2022-07-31T07:32:06Z</time>
      </trkpt>
      <trkpt lat="47.80687" lon="7.02748">
        <ele>699.5</ele>
        <time>2022-07-31T07:32:19Z</time>
      </trkpt>
      <trkpt lat="47.80709" lon="7.02764">
        <ele>702.38</ele>
        <time>2022-07-31T07:32:30Z</time>
      </trkpt>
      <trkpt lat="47.80717" lon="7.02773">
        <ele>704.3</ele>
        <time>2022-07-31T07:32:34Z</time>
      </trkpt>
      <trkpt lat="47.80737" lon="7.02796">
        <ele>707.67</ele>
        <time>2022-07-31T07:32:45Z</time>
      </trkpt>
      <trkpt lat="47.80757" lon="7.02816">
        <ele>710.55</ele>
        <time>2022-07-31T07:32:55Z</time>
      </trkpt>
      <trkpt lat="47.80778" lon="7.02831">
        <ele>713.92</ele>
        <time>2022-07-31T07:33:05Z</time>
      </trkpt>
      <trkpt lat="47.80784" lon="7.02832">
        <ele>714.88</ele>
        <time>2022-07-31T07:33:08Z</time>
      </trkpt>
      <trkpt lat="47.80803" lon="7.02833">
        <ele>718.72</ele>
        <time>2022-07-31T07:33:19Z</time>
      </trkpt>
      <trkpt lat="47.8082" lon="7.02833">
        <ele>722.09</ele>
        <time>2022-07-31T07:33:28Z</time>
      </trkpt>
      <trkpt lat="47.80834" lon="7.0283">
        <ele>724.97</ele>
        <time>2022-07-31T07:33:37Z</time>
      </trkpt>
      <trkpt lat="47.8085" lon="7.02826">
        <ele>728.34</ele>
        <time>2022-07-31T07:33:45Z</time>
      </trkpt>
      <trkpt lat="47.80865" lon="7.02817">
        <ele>731.22</ele>
        <time>2022-07-31T07:33:54Z</time>
      </trkpt>
      <trkpt lat="47.80884" lon="7.02805">
        <ele>734.58</ele>
        <time>2022-07-31T07:34:04Z</time>
      </trkpt>
      <trkpt lat="47.80906" lon="7.02797">
        <ele>737.47</ele>
        <time>2022-07-31T07:34:14Z</time>
      </trkpt>
      <trkpt lat="47.8093" lon="7.02801">
        <ele>740.35</ele>
        <time>2022-07-31T07:34:27Z</time>
      </trkpt>
      <trkpt lat="47.80932" lon="7.02801">
        <ele>740.83</ele>
        <time>2022-07-31T07:34:28Z</time>
      </trkpt>
      <trkpt lat="47.80939" lon="7.02805">
        <ele>742.28</ele>
        <time>2022-07-31T07:34:32Z</time>
      </trkpt>
      <trkpt lat="47.80946" lon="7.02807">
        <ele>743.72</ele>
        <time>2022-07-31T07:34:36Z</time>
      </trkpt>
      <trkpt lat="47.80956" lon="7.0283">
        <ele>745.64</ele>
        <time>2022-07-31T07:34:45Z</time>
      </trkpt>
      <trkpt lat="47.80939" lon="7.02849">
        <ele>747.56</ele>
        <time>2022-07-31T07:34:57Z</time>
      </trkpt>
      <trkpt lat="47.8092" lon="7.02868">
        <ele>748.52</ele>
        <time>2022-07-31T07:35:08Z</time>
      </trkpt>
      <trkpt lat="47.80914" lon="7.0288">
        <ele>749</ele>
        <time>2022-07-31T07:35:11Z</time>
      </trkpt>
      <trkpt lat="47.80897" lon="7.02923">
        <ele>750.93</ele>
        <time>2022-07-31T07:35:23Z</time>
      </trkpt>
      <trkpt lat="47.80881" lon="7.02956">
        <ele>753.33</ele>
        <time>2022-07-31T07:35:33Z</time>
      </trkpt>
      <trkpt lat="47.80873" lon="7.02981">
        <ele>755.25</ele>
        <time>2022-07-31T07:35:41Z</time>
      </trkpt>
      <trkpt lat="47.80869" lon="7.02995">
        <ele>756.69</ele>
        <time>2022-07-31T07:35:45Z</time>
      </trkpt>
      <trkpt lat="47.80861" lon="7.03024">
        <ele>759.58</ele>
        <time>2022-07-31T07:35:53Z</time>
      </trkpt>
      <trkpt lat="47.80843" lon="7.03059">
        <ele>762.94</ele>
        <time>2022-07-31T07:36:05Z</time>
      </trkpt>
      <trkpt lat="47.80826" lon="7.031">
        <ele>765.83</ele>
        <time>2022-07-31T07:36:14Z</time>
      </trkpt>
      <trkpt lat="47.80817" lon="7.03134">
        <ele>768.71</ele>
        <time>2022-07-31T07:36:22Z</time>
      </trkpt>
      <trkpt lat="47.80805" lon="7.03164">
        <ele>771.6</ele>
        <time>2022-07-31T07:36:31Z</time>
      </trkpt>
      <trkpt lat="47.80801" lon="7.03181">
        <ele>774.96</ele>
        <time>2022-07-31T07:36:36Z</time>
      </trkpt>
      <trkpt lat="47.80801" lon="7.03183">
        <ele>774</ele>
        <time>2022-07-31T07:36:37Z</time>
      </trkpt>
      <trkpt lat="47.808" lon="7.03189">
        <ele>774</ele>
        <time>2022-07-31T07:36:39Z</time>
      </trkpt>
      <trkpt lat="47.80797" lon="7.03199">
        <ele>774.96</ele>
        <time>2022-07-31T07:36:43Z</time>
      </trkpt>
      <trkpt lat="47.80795" lon="7.03244">
        <ele>775.44</ele>
        <time>2022-07-31T07:36:53Z</time>
      </trkpt>
      <trkpt lat="47.80797" lon="7.0325">
        <ele>775.44</ele>
        <time>2022-07-31T07:36:54Z</time>
      </trkpt>
      <trkpt lat="47.80798" lon="7.03255">
        <ele>774.96</ele>
        <time>2022-07-31T07:36:55Z</time>
      </trkpt>
      <trkpt lat="47.808" lon="7.03261">
        <ele>774.96</ele>
        <time>2022-07-31T07:36:56Z</time>
      </trkpt>
      <trkpt lat="47.80803" lon="7.03267">
        <ele>774.96</ele>
        <time>2022-07-31T07:36:57Z</time>
      </trkpt>
      <trkpt lat="47.80805" lon="7.03273">
        <ele>774.48</ele>
        <time>2022-07-31T07:36:58Z</time>
      </trkpt>
      <trkpt lat="47.80808" lon="7.03278">
        <ele>774.48</ele>
        <time>2022-07-31T07:36:59Z</time>
      </trkpt>
      <trkpt lat="47.80811" lon="7.03283">
        <ele>774</ele>
        <time>2022-07-31T07:37:00Z</time>
      </trkpt>
      <trkpt lat="47.80844" lon="7.03325">
        <ele>771.11</ele>
        <time>2022-07-31T07:37:07Z</time>
      </trkpt>
      <trkpt lat="47.80848" lon="7.03332">
        <ele>770.63</ele>
        <time>2022-07-31T07:37:08Z</time>
      </trkpt>
      <trkpt lat="47.80863" lon="7.03372">
        <ele>769.19</ele>
        <time>2022-07-31T07:37:13Z</time>
      </trkpt>
      <trkpt lat="47.80864" lon="7.0338">
        <ele>769.19</ele>
        <time>2022-07-31T07:37:14Z</time>
      </trkpt>
      <trkpt lat="47.80864" lon="7.03388">
        <ele>769.19</ele>
        <time>2022-07-31T07:37:15Z</time>
      </trkpt>
      <trkpt lat="47.80863" lon="7.03395">
        <ele>768.71</ele>
        <time>2022-07-31T07:37:16Z</time>
      </trkpt>
      <trkpt lat="47.8086" lon="7.03401">
        <ele>768.71</ele>
        <time>2022-07-31T07:37:17Z</time>
      </trkpt>
      <trkpt lat="47.80857" lon="7.03407">
        <ele>768.71</ele>
        <time>2022-07-31T07:37:18Z</time>
      </trkpt>
      <trkpt lat="47.80854" lon="7.03412">
        <ele>768.23</ele>
        <time>2022-07-31T07:37:19Z</time>
      </trkpt>
      <trkpt lat="47.8085" lon="7.03417">
        <ele>768.23</ele>
        <time>2022-07-31T07:37:20Z</time>
      </trkpt>
      <trkpt lat="47.80846" lon="7.03422">
        <ele>767.75</ele>
        <time>2022-07-31T07:37:21Z</time>
      </trkpt>
      <trkpt lat="47.80831" lon="7.03442">
        <ele>766.79</ele>
        <time>2022-07-31T07:37:25Z</time>
      </trkpt>
      <trkpt lat="47.80827" lon="7.03449">
        <ele>766.79</ele>
        <time>2022-07-31T07:37:26Z</time>
      </trkpt>
      <trkpt lat="47.80815" lon="7.03475">
        <ele>765.35</ele>
        <time>2022-07-31T07:37:30Z</time>
      </trkpt>
      <trkpt lat="47.80812" lon="7.03483">
        <ele>765.35</ele>
        <time>2022-07-31T07:37:31Z</time>
      </trkpt>
      <trkpt lat="47.80809" lon="7.0349">
        <ele>764.87</ele>
        <time>2022-07-31T07:37:32Z</time>
      </trkpt>
      <trkpt lat="47.80807" lon="7.03497">
        <ele>764.87</ele>
        <time>2022-07-31T07:37:33Z</time>
      </trkpt>
      <trkpt lat="47.80804" lon="7.03505">
        <ele>764.39</ele>
        <time>2022-07-31T07:37:34Z</time>
      </trkpt>
      <trkpt lat="47.80795" lon="7.03539">
        <ele>763.42</ele>
        <time>2022-07-31T07:37:38Z</time>
      </trkpt>
      <trkpt lat="47.80783" lon="7.03583">
        <ele>762.46</ele>
        <time>2022-07-31T07:37:43Z</time>
      </trkpt>
      <trkpt lat="47.80778" lon="7.03589">
        <ele>761.98</ele>
        <time>2022-07-31T07:37:44Z</time>
      </trkpt>
      <trkpt lat="47.80772" lon="7.03593">
        <ele>761.5</ele>
        <time>2022-07-31T07:37:45Z</time>
      </trkpt>
      <trkpt lat="47.80742" lon="7.03618">
        <ele>761.02</ele>
        <time>2022-07-31T07:37:51Z</time>
      </trkpt>
      <trkpt lat="47.80737" lon="7.03622">
        <ele>761.02</ele>
        <time>2022-07-31T07:37:52Z</time>
      </trkpt>
      <trkpt lat="47.80733" lon="7.03625">
        <ele>761.02</ele>
        <time>2022-07-31T07:37:53Z</time>
      </trkpt>
      <trkpt lat="47.80729" lon="7.03629">
        <ele>761.02</ele>
        <time>2022-07-31T07:37:54Z</time>
      </trkpt>
      <trkpt lat="47.80724" lon="7.03632">
        <ele>760.54</ele>
        <time>2022-07-31T07:37:55Z</time>
      </trkpt>
      <trkpt lat="47.8072" lon="7.03636">
        <ele>760.54</ele>
        <time>2022-07-31T07:37:56Z</time>
      </trkpt>
      <trkpt lat="47.80716" lon="7.0364">
        <ele>760.54</ele>
        <time>2022-07-31T07:37:57Z</time>
      </trkpt>
      <trkpt lat="47.80712" lon="7.03644">
        <ele>760.54</ele>
        <time>2022-07-31T07:37:58Z</time>
      </trkpt>
      <trkpt lat="47.807" lon="7.03655">
        <ele>760.06</ele>
        <time>2022-07-31T07:38:01Z</time>
      </trkpt>
      <trkpt lat="47.80697" lon="7.03659">
        <ele>760.06</ele>
        <time>2022-07-31T07:38:02Z</time>
      </trkpt>
      <trkpt lat="47.8067" lon="7.03682">
        <ele>759.58</ele>
        <time>2022-07-31T07:38:09Z</time>
      </trkpt>
      <trkpt lat="47.80666" lon="7.03685">
        <ele>759.58</ele>
        <time>2022-07-31T07:38:10Z</time>
      </trkpt>
      <trkpt lat="47.80663" lon="7.03687">
        <ele>759.58</ele>
        <time>2022-07-31T07:38:11Z</time>
      </trkpt>
      <trkpt lat="47.80659" lon="7.03689">
        <ele>759.58</ele>
        <time>2022-07-31T07:38:12Z</time>
      </trkpt>
      <trkpt lat="47.80655" lon="7.03692">
        <ele>759.58</ele>
        <time>2022-07-31T07:38:13Z</time>
      </trkpt>
      <trkpt lat="47.80651" lon="7.03695">
        <ele>759.58</ele>
        <time>2022-07-31T07:38:14Z</time>
      </trkpt>
      <trkpt lat="47.80646" lon="7.03697">
        <ele>759.58</ele>
        <time>2022-07-31T07:38:15Z</time>
      </trkpt>
      <trkpt lat="47.80642" lon="7.03699">
        <ele>759.58</ele>
        <time>2022-07-31T07:38:16Z</time>
      </trkpt>
      <trkpt lat="47.80638" lon="7.03701">
        <ele>759.58</ele>
        <time>2022-07-31T07:38:17Z</time>
      </trkpt>
      <trkpt lat="47.80589" lon="7.03723">
        <ele>758.14</ele>
        <time>2022-07-31T07:38:29Z</time>
      </trkpt>
      <trkpt lat="47.8058" lon="7.03729">
        <ele>758.62</ele>
        <time>2022-07-31T07:38:31Z</time>
      </trkpt>
      <trkpt lat="47.80547" lon="7.03761">
        <ele>758.14</ele>
        <time>2022-07-31T07:38:38Z</time>
      </trkpt>
      <trkpt lat="47.80532" lon="7.03782">
        <ele>757.66</ele>
        <time>2022-07-31T07:38:42Z</time>
      </trkpt>
      <trkpt lat="47.8053" lon="7.03789">
        <ele>757.18</ele>
        <time>2022-07-31T07:38:43Z</time>
      </trkpt>
      <trkpt lat="47.80527" lon="7.03803">
        <ele>756.69</ele>
        <time>2022-07-31T07:38:45Z</time>
      </trkpt>
      <trkpt lat="47.80522" lon="7.03833">
        <ele>756.21</ele>
        <time>2022-07-31T07:38:49Z</time>
      </trkpt>
      <trkpt lat="47.80521" lon="7.0384">
        <ele>756.21</ele>
        <time>2022-07-31T07:38:50Z</time>
      </trkpt>
      <trkpt lat="47.80522" lon="7.03848">
        <ele>756.21</ele>
        <time>2022-07-31T07:38:51Z</time>
      </trkpt>
      <trkpt lat="47.80522" lon="7.03855">
        <ele>756.21</ele>
        <time>2022-07-31T07:38:52Z</time>
      </trkpt>
      <trkpt lat="47.80523" lon="7.03863">
        <ele>755.73</ele>
        <time>2022-07-31T07:38:53Z</time>
      </trkpt>
      <trkpt lat="47.80524" lon="7.03869">
        <ele>755.73</ele>
        <time>2022-07-31T07:38:54Z</time>
      </trkpt>
      <trkpt lat="47.80557" lon="7.03965">
        <ele>753.33</ele>
        <time>2022-07-31T07:39:08Z</time>
      </trkpt>
      <trkpt lat="47.80579" lon="7.04018">
        <ele>750.45</ele>
        <time>2022-07-31T07:39:15Z</time>
      </trkpt>
      <trkpt lat="47.80592" lon="7.04088">
        <ele>747.56</ele>
        <time>2022-07-31T07:39:23Z</time>
      </trkpt>
      <trkpt lat="47.80603" lon="7.04141">
        <ele>745.16</ele>
        <time>2022-07-31T07:39:29Z</time>
      </trkpt>
      <trkpt lat="47.80623" lon="7.04209">
        <ele>741.79</ele>
        <time>2022-07-31T07:39:37Z</time>
      </trkpt>
      <trkpt lat="47.80626" lon="7.04215">
        <ele>741.31</ele>
        <time>2022-07-31T07:39:38Z</time>
      </trkpt>
      <trkpt lat="47.80629" lon="7.04221">
        <ele>741.31</ele>
        <time>2022-07-31T07:39:39Z</time>
      </trkpt>
      <trkpt lat="47.80653" lon="7.04253">
        <ele>738.91</ele>
        <time>2022-07-31T07:39:46Z</time>
      </trkpt>
      <trkpt lat="47.80656" lon="7.04259">
        <ele>738.43</ele>
        <time>2022-07-31T07:39:47Z</time>
      </trkpt>
      <trkpt lat="47.80659" lon="7.04264">
        <ele>737.95</ele>
        <time>2022-07-31T07:39:48Z</time>
      </trkpt>
      <trkpt lat="47.80664" lon="7.04266">
        <ele>737.47</ele>
        <time>2022-07-31T07:39:49Z</time>
      </trkpt>
      <trkpt lat="47.8067" lon="7.04266">
        <ele>736.99</ele>
        <time>2022-07-31T07:39:50Z</time>
      </trkpt>
      <trkpt lat="47.80675" lon="7.04264">
        <ele>736.51</ele>
        <time>2022-07-31T07:39:51Z</time>
      </trkpt>
      <trkpt lat="47.8068" lon="7.04261">
        <ele>736.03</ele>
        <time>2022-07-31T07:39:52Z</time>
      </trkpt>
      <trkpt lat="47.80685" lon="7.04259">
        <ele>736.03</ele>
        <time>2022-07-31T07:39:53Z</time>
      </trkpt>
      <trkpt lat="47.80712" lon="7.04242">
        <ele>734.58</ele>
        <time>2022-07-31T07:40:00Z</time>
      </trkpt>
      <trkpt lat="47.80725" lon="7.04234">
        <ele>733.14</ele>
        <time>2022-07-31T07:40:03Z</time>
      </trkpt>
      <trkpt lat="47.80741" lon="7.04224">
        <ele>732.18</ele>
        <time>2022-07-31T07:40:06Z</time>
      </trkpt>
      <trkpt lat="47.80746" lon="7.0422">
        <ele>731.22</ele>
        <time>2022-07-31T07:40:07Z</time>
      </trkpt>
      <trkpt lat="47.80752" lon="7.04215">
        <ele>730.74</ele>
        <time>2022-07-31T07:40:08Z</time>
      </trkpt>
      <trkpt lat="47.80758" lon="7.04209">
        <ele>730.26</ele>
        <time>2022-07-31T07:40:09Z</time>
      </trkpt>
      <trkpt lat="47.80764" lon="7.04203">
        <ele>729.78</ele>
        <time>2022-07-31T07:40:10Z</time>
      </trkpt>
      <trkpt lat="47.80782" lon="7.04186">
        <ele>727.37</ele>
        <time>2022-07-31T07:40:13Z</time>
      </trkpt>
      <trkpt lat="47.80804" lon="7.04164">
        <ele>725.45</ele>
        <time>2022-07-31T07:40:17Z</time>
      </trkpt>
      <trkpt lat="47.80828" lon="7.04146">
        <ele>723.53</ele>
        <time>2022-07-31T07:40:21Z</time>
      </trkpt>
      <trkpt lat="47.80835" lon="7.04146">
        <ele>723.05</ele>
        <time>2022-07-31T07:40:22Z</time>
      </trkpt>
      <trkpt lat="47.80859" lon="7.04151">
        <ele>721.13</ele>
        <time>2022-07-31T07:40:25Z</time>
      </trkpt>
      <trkpt lat="47.80867" lon="7.04151">
        <ele>720.65</ele>
        <time>2022-07-31T07:40:26Z</time>
      </trkpt>
      <trkpt lat="47.80882" lon="7.04147">
        <ele>720.16</ele>
        <time>2022-07-31T07:40:28Z</time>
      </trkpt>
      <trkpt lat="47.80888" lon="7.04143">
        <ele>719.68</ele>
        <time>2022-07-31T07:40:29Z</time>
      </trkpt>
      <trkpt lat="47.80894" lon="7.04138">
        <ele>719.2</ele>
        <time>2022-07-31T07:40:30Z</time>
      </trkpt>
      <trkpt lat="47.809" lon="7.04132">
        <ele>718.72</ele>
        <time>2022-07-31T07:40:31Z</time>
      </trkpt>
      <trkpt lat="47.80905" lon="7.04125">
        <ele>718.72</ele>
        <time>2022-07-31T07:40:32Z</time>
      </trkpt>
      <trkpt lat="47.8091" lon="7.04118">
        <ele>718.24</ele>
        <time>2022-07-31T07:40:33Z</time>
      </trkpt>
      <trkpt lat="47.8092" lon="7.04098">
        <ele>717.28</ele>
        <time>2022-07-31T07:40:36Z</time>
      </trkpt>
      <trkpt lat="47.80925" lon="7.04082">
        <ele>718.24</ele>
        <time>2022-07-31T07:40:38Z</time>
      </trkpt>
      <trkpt lat="47.80928" lon="7.04072">
        <ele>716.8</ele>
        <time>2022-07-31T07:40:39Z</time>
      </trkpt>
      <trkpt lat="47.80931" lon="7.04061">
        <ele>716.32</ele>
        <time>2022-07-31T07:40:40Z</time>
      </trkpt>
      <trkpt lat="47.80935" lon="7.04052">
        <ele>716.32</ele>
        <time>2022-07-31T07:40:41Z</time>
      </trkpt>
      <trkpt lat="47.80939" lon="7.04043">
        <ele>715.84</ele>
        <time>2022-07-31T07:40:42Z</time>
      </trkpt>
      <trkpt lat="47.80943" lon="7.04034">
        <ele>715.84</ele>
        <time>2022-07-31T07:40:43Z</time>
      </trkpt>
      <trkpt lat="47.80948" lon="7.04027">
        <ele>715.84</ele>
        <time>2022-07-31T07:40:44Z</time>
      </trkpt>
      <trkpt lat="47.80953" lon="7.04021">
        <ele>715.84</ele>
        <time>2022-07-31T07:40:45Z</time>
      </trkpt>
      <trkpt lat="47.80958" lon="7.04016">
        <ele>715.36</ele>
        <time>2022-07-31T07:40:46Z</time>
      </trkpt>
      <trkpt lat="47.80964" lon="7.04014">
        <ele>715.36</ele>
        <time>2022-07-31T07:40:47Z</time>
      </trkpt>
      <trkpt lat="47.80969" lon="7.04014">
        <ele>715.36</ele>
        <time>2022-07-31T07:40:48Z</time>
      </trkpt>
      <trkpt lat="47.80974" lon="7.04014">
        <ele>715.36</ele>
        <time>2022-07-31T07:40:49Z</time>
      </trkpt>
      <trkpt lat="47.80979" lon="7.04014">
        <ele>714.88</ele>
        <time>2022-07-31T07:40:50Z</time>
      </trkpt>
      <trkpt lat="47.81" lon="7.04012">
        <ele>714.88</ele>
        <time>2022-07-31T07:40:54Z</time>
      </trkpt>
      <trkpt lat="47.81005" lon="7.04012">
        <ele>714.88</ele>
        <time>2022-07-31T07:40:55Z</time>
      </trkpt>
      <trkpt lat="47.81021" lon="7.04013">
        <ele>714.4</ele>
        <time>2022-07-31T07:40:58Z</time>
      </trkpt>
      <trkpt lat="47.81031" lon="7.04015">
        <ele>714.4</ele>
        <time>2022-07-31T07:41:00Z</time>
      </trkpt>
      <trkpt lat="47.81036" lon="7.04016">
        <ele>714.4</ele>
        <time>2022-07-31T07:41:01Z</time>
      </trkpt>
      <trkpt lat="47.81051" lon="7.04023">
        <ele>713.92</ele>
        <time>2022-07-31T07:41:04Z</time>
      </trkpt>
      <trkpt lat="47.81073" lon="7.04032">
        <ele>713.92</ele>
        <time>2022-07-31T07:41:09Z</time>
      </trkpt>
      <trkpt lat="47.81078" lon="7.04029">
        <ele>713.92</ele>
        <time>2022-07-31T07:41:10Z</time>
      </trkpt>
      <trkpt lat="47.81082" lon="7.04025">
        <ele>713.44</ele>
        <time>2022-07-31T07:41:11Z</time>
      </trkpt>
      <trkpt lat="47.81086" lon="7.0402">
        <ele>713.44</ele>
        <time>2022-07-31T07:41:12Z</time>
      </trkpt>
      <trkpt lat="47.8109" lon="7.04017">
        <ele>713.44</ele>
        <time>2022-07-31T07:41:13Z</time>
      </trkpt>
      <trkpt lat="47.81095" lon="7.04012">
        <ele>713.44</ele>
        <time>2022-07-31T07:41:14Z</time>
      </trkpt>
      <trkpt lat="47.81099" lon="7.04006">
        <ele>713.44</ele>
        <time>2022-07-31T07:41:15Z</time>
      </trkpt>
      <trkpt lat="47.81103" lon="7.04001">
        <ele>713.44</ele>
        <time>2022-07-31T07:41:16Z</time>
      </trkpt>
      <trkpt lat="47.81106" lon="7.03995">
        <ele>713.44</ele>
        <time>2022-07-31T07:41:17Z</time>
      </trkpt>
      <trkpt lat="47.8111" lon="7.03988">
        <ele>713.44</ele>
        <time>2022-07-31T07:41:18Z</time>
      </trkpt>
      <trkpt lat="47.81141" lon="7.03923">
        <ele>712.47</ele>
        <time>2022-07-31T07:41:28Z</time>
      </trkpt>
      <trkpt lat="47.81152" lon="7.03906">
        <ele>711.99</ele>
        <time>2022-07-31T07:41:31Z</time>
      </trkpt>
      <trkpt lat="47.8117" lon="7.03866">
        <ele>711.51</ele>
        <time>2022-07-31T07:41:37Z</time>
      </trkpt>
      <trkpt lat="47.81173" lon="7.03859">
        <ele>711.51</ele>
        <time>2022-07-31T07:41:38Z</time>
      </trkpt>
      <trkpt lat="47.81176" lon="7.03853">
        <ele>711.51</ele>
        <time>2022-07-31T07:41:39Z</time>
      </trkpt>
      <trkpt lat="47.81183" lon="7.03842">
        <ele>711.51</ele>
        <time>2022-07-31T07:41:41Z</time>
      </trkpt>
      <trkpt lat="47.81197" lon="7.03811">
        <ele>711.51</ele>
        <time>2022-07-31T07:41:46Z</time>
      </trkpt>
      <trkpt lat="47.81203" lon="7.038">
        <ele>711.03</ele>
        <time>2022-07-31T07:41:48Z</time>
      </trkpt>
      <trkpt lat="47.81206" lon="7.03795">
        <ele>711.03</ele>
        <time>2022-07-31T07:41:49Z</time>
      </trkpt>
      <trkpt lat="47.81221" lon="7.03776">
        <ele>710.55</ele>
        <time>2022-07-31T07:41:53Z</time>
      </trkpt>
      <trkpt lat="47.81225" lon="7.03772">
        <ele>711.03</ele>
        <time>2022-07-31T07:41:54Z</time>
      </trkpt>
      <trkpt lat="47.8123" lon="7.03771">
        <ele>710.55</ele>
        <time>2022-07-31T07:41:55Z</time>
      </trkpt>
      <trkpt lat="47.81236" lon="7.03772">
        <ele>710.55</ele>
        <time>2022-07-31T07:41:56Z</time>
      </trkpt>
      <trkpt lat="47.81241" lon="7.03774">
        <ele>710.55</ele>
        <time>2022-07-31T07:41:57Z</time>
      </trkpt>
      <trkpt lat="47.81245" lon="7.03778">
        <ele>710.55</ele>
        <time>2022-07-31T07:41:58Z</time>
      </trkpt>
      <trkpt lat="47.81275" lon="7.03811">
        <ele>709.11</ele>
        <time>2022-07-31T07:42:05Z</time>
      </trkpt>
      <trkpt lat="47.81278" lon="7.03816">
        <ele>709.11</ele>
        <time>2022-07-31T07:42:06Z</time>
      </trkpt>
      <trkpt lat="47.81301" lon="7.0384">
        <ele>708.15</ele>
        <time>2022-07-31T07:42:11Z</time>
      </trkpt>
      <trkpt lat="47.81306" lon="7.03845">
        <ele>708.15</ele>
        <time>2022-07-31T07:42:12Z</time>
      </trkpt>
      <trkpt lat="47.81356" lon="7.03918">
        <ele>705.26</ele>
        <time>2022-07-31T07:42:23Z</time>
      </trkpt>
      <trkpt lat="47.81376" lon="7.03948">
        <ele>703.82</ele>
        <time>2022-07-31T07:42:27Z</time>
      </trkpt>
      <trkpt lat="47.8139" lon="7.03974">
        <ele>702.38</ele>
        <time>2022-07-31T07:42:30Z</time>
      </trkpt>
      <trkpt lat="47.81395" lon="7.03984">
        <ele>702.38</ele>
        <time>2022-07-31T07:42:31Z</time>
      </trkpt>
      <trkpt lat="47.81403" lon="7.04005">
        <ele>700.94</ele>
        <time>2022-07-31T07:42:33Z</time>
      </trkpt>
      <trkpt lat="47.81406" lon="7.04016">
        <ele>700.94</ele>
        <time>2022-07-31T07:42:34Z</time>
      </trkpt>
      <trkpt lat="47.8141" lon="7.04026">
        <ele>700.46</ele>
        <time>2022-07-31T07:42:35Z</time>
      </trkpt>
      <trkpt lat="47.81425" lon="7.04052">
        <ele>699.98</ele>
        <time>2022-07-31T07:42:38Z</time>
      </trkpt>
      <trkpt lat="47.8143" lon="7.04058">
        <ele>700.94</ele>
        <time>2022-07-31T07:42:39Z</time>
      </trkpt>
      <trkpt lat="47.81436" lon="7.04065">
        <ele>699.5</ele>
        <time>2022-07-31T07:42:40Z</time>
      </trkpt>
      <trkpt lat="47.81442" lon="7.04071">
        <ele>699.02</ele>
        <time>2022-07-31T07:42:41Z</time>
      </trkpt>
      <trkpt lat="47.81448" lon="7.04076">
        <ele>699.02</ele>
        <time>2022-07-31T07:42:42Z</time>
      </trkpt>
      <trkpt lat="47.81454" lon="7.04081">
        <ele>699.02</ele>
        <time>2022-07-31T07:42:43Z</time>
      </trkpt>
      <trkpt lat="47.8146" lon="7.04085">
        <ele>698.53</ele>
        <time>2022-07-31T07:42:44Z</time>
      </trkpt>
      <trkpt lat="47.81466" lon="7.04087">
        <ele>698.53</ele>
        <time>2022-07-31T07:42:45Z</time>
      </trkpt>
      <trkpt lat="47.81472" lon="7.04088">
        <ele>698.53</ele>
        <time>2022-07-31T07:42:46Z</time>
      </trkpt>
      <trkpt lat="47.81478" lon="7.04088">
        <ele>698.53</ele>
        <time>2022-07-31T07:42:47Z</time>
      </trkpt>
      <trkpt lat="47.81484" lon="7.04088">
        <ele>698.53</ele>
        <time>2022-07-31T07:42:48Z</time>
      </trkpt>
      <trkpt lat="47.8149" lon="7.04087">
        <ele>698.53</ele>
        <time>2022-07-31T07:42:49Z</time>
      </trkpt>
      <trkpt lat="47.81495" lon="7.04087">
        <ele>698.53</ele>
        <time>2022-07-31T07:42:50Z</time>
      </trkpt>
      <trkpt lat="47.81501" lon="7.04087">
        <ele>698.53</ele>
        <time>2022-07-31T07:42:51Z</time>
      </trkpt>
      <trkpt lat="47.81506" lon="7.04088">
        <ele>698.53</ele>
        <time>2022-07-31T07:42:52Z</time>
      </trkpt>
      <trkpt lat="47.81512" lon="7.04088">
        <ele>698.53</ele>
        <time>2022-07-31T07:42:53Z</time>
      </trkpt>
      <trkpt lat="47.81517" lon="7.04088">
        <ele>698.05</ele>
        <time>2022-07-31T07:42:54Z</time>
      </trkpt>
      <trkpt lat="47.81522" lon="7.04086">
        <ele>698.53</ele>
        <time>2022-07-31T07:42:55Z</time>
      </trkpt>
      <trkpt lat="47.81526" lon="7.04085">
        <ele>698.53</ele>
        <time>2022-07-31T07:42:56Z</time>
      </trkpt>
      <trkpt lat="47.81531" lon="7.04084">
        <ele>698.05</ele>
        <time>2022-07-31T07:42:57Z</time>
      </trkpt>
      <trkpt lat="47.81537" lon="7.04084">
        <ele>698.05</ele>
        <time>2022-07-31T07:42:58Z</time>
      </trkpt>
      <trkpt lat="47.81542" lon="7.04088">
        <ele>698.05</ele>
        <time>2022-07-31T07:42:59Z</time>
      </trkpt>
      <trkpt lat="47.81546" lon="7.04094">
        <ele>698.05</ele>
        <time>2022-07-31T07:43:00Z</time>
      </trkpt>
      <trkpt lat="47.81547" lon="7.04102">
        <ele>698.05</ele>
        <time>2022-07-31T07:43:01Z</time>
      </trkpt>
      <trkpt lat="47.81549" lon="7.0411">
        <ele>698.05</ele>
        <time>2022-07-31T07:43:02Z</time>
      </trkpt>
      <trkpt lat="47.81552" lon="7.04128">
        <ele>697.09</ele>
        <time>2022-07-31T07:43:04Z</time>
      </trkpt>
      <trkpt lat="47.81554" lon="7.04138">
        <ele>696.61</ele>
        <time>2022-07-31T07:43:05Z</time>
      </trkpt>
      <trkpt lat="47.81556" lon="7.04148">
        <ele>695.65</ele>
        <time>2022-07-31T07:43:06Z</time>
      </trkpt>
      <trkpt lat="47.8156" lon="7.04158">
        <ele>695.17</ele>
        <time>2022-07-31T07:43:07Z</time>
      </trkpt>
      <trkpt lat="47.81563" lon="7.04168">
        <ele>694.69</ele>
        <time>2022-07-31T07:43:08Z</time>
      </trkpt>
      <trkpt lat="47.81592" lon="7.04229">
        <ele>691.81</ele>
        <time>2022-07-31T07:43:14Z</time>
      </trkpt>
      <trkpt lat="47.81598" lon="7.04238">
        <ele>691.33</ele>
        <time>2022-07-31T07:43:15Z</time>
      </trkpt>
      <trkpt lat="47.81604" lon="7.04246">
        <ele>690.84</ele>
        <time>2022-07-31T07:43:16Z</time>
      </trkpt>
      <trkpt lat="47.81629" lon="7.04276">
        <ele>690.36</ele>
        <time>2022-07-31T07:43:20Z</time>
      </trkpt>
      <trkpt lat="47.81636" lon="7.04281">
        <ele>690.36</ele>
        <time>2022-07-31T07:43:21Z</time>
      </trkpt>
      <trkpt lat="47.81643" lon="7.04285">
        <ele>690.36</ele>
        <time>2022-07-31T07:43:22Z</time>
      </trkpt>
      <trkpt lat="47.8167" lon="7.04299">
        <ele>689.88</ele>
        <time>2022-07-31T07:43:26Z</time>
      </trkpt>
      <trkpt lat="47.81698" lon="7.04308">
        <ele>689.88</ele>
        <time>2022-07-31T07:43:31Z</time>
      </trkpt>
      <trkpt lat="47.81702" lon="7.04314">
        <ele>689.4</ele>
        <time>2022-07-31T07:43:32Z</time>
      </trkpt>
      <trkpt lat="47.81706" lon="7.04321">
        <ele>689.4</ele>
        <time>2022-07-31T07:43:33Z</time>
      </trkpt>
      <trkpt lat="47.81708" lon="7.04329">
        <ele>688.92</ele>
        <time>2022-07-31T07:43:34Z</time>
      </trkpt>
      <trkpt lat="47.8171" lon="7.04336">
        <ele>689.4</ele>
        <time>2022-07-31T07:43:35Z</time>
      </trkpt>
      <trkpt lat="47.81711" lon="7.04345">
        <ele>688.92</ele>
        <time>2022-07-31T07:43:36Z</time>
      </trkpt>
      <trkpt lat="47.81712" lon="7.04353">
        <ele>688.92</ele>
        <time>2022-07-31T07:43:37Z</time>
      </trkpt>
      <trkpt lat="47.81709" lon="7.04404">
        <ele>687.96</ele>
        <time>2022-07-31T07:43:43Z</time>
      </trkpt>
      <trkpt lat="47.81709" lon="7.04411">
        <ele>687.96</ele>
        <time>2022-07-31T07:43:44Z</time>
      </trkpt>
      <trkpt lat="47.81709" lon="7.04419">
        <ele>687.96</ele>
        <time>2022-07-31T07:43:45Z</time>
      </trkpt>
      <trkpt lat="47.81708" lon="7.04463">
        <ele>686.52</ele>
        <time>2022-07-31T07:43:53Z</time>
      </trkpt>
      <trkpt lat="47.81709" lon="7.04467">
        <ele>687</ele>
        <time>2022-07-31T07:43:54Z</time>
      </trkpt>
      <trkpt lat="47.81715" lon="7.04456">
        <ele>687.96</ele>
        <time>2022-07-31T07:44:03Z</time>
      </trkpt>
      <trkpt lat="47.81715" lon="7.04451">
        <ele>688.44</ele>
        <time>2022-07-31T07:44:05Z</time>
      </trkpt>
      <trkpt lat="47.81715" lon="7.04446">
        <ele>689.4</ele>
        <time>2022-07-31T07:44:07Z</time>
      </trkpt>
      <trkpt lat="47.81717" lon="7.04441">
        <ele>689.88</ele>
        <time>2022-07-31T07:44:10Z</time>
      </trkpt>
      <trkpt lat="47.8172" lon="7.04425">
        <ele>692.29</ele>
        <time>2022-07-31T07:44:17Z</time>
      </trkpt>
      <trkpt lat="47.81726" lon="7.04389">
        <ele>695.65</ele>
        <time>2022-07-31T07:44:30Z</time>
      </trkpt>
      <trkpt lat="47.81734" lon="7.04353">
        <ele>699.5</ele>
        <time>2022-07-31T07:44:41Z</time>
      </trkpt>
      <trkpt lat="47.81734" lon="7.0435">
        <ele>698.53</ele>
        <time>2022-07-31T07:44:42Z</time>
      </trkpt>
      <trkpt lat="47.81736" lon="7.04341">
        <ele>699.5</ele>
        <time>2022-07-31T07:44:45Z</time>
      </trkpt>
      <trkpt lat="47.81743" lon="7.04309">
        <ele>700.94</ele>
        <time>2022-07-31T07:44:53Z</time>
      </trkpt>
      <trkpt lat="47.81756" lon="7.04288">
        <ele>702.86</ele>
        <time>2022-07-31T07:45:01Z</time>
      </trkpt>
      <trkpt lat="47.81765" lon="7.04269">
        <ele>703.82</ele>
        <time>2022-07-31T07:45:08Z</time>
      </trkpt>
      <trkpt lat="47.81767" lon="7.04245">
        <ele>704.3</ele>
        <time>2022-07-31T07:45:14Z</time>
      </trkpt>
      <trkpt lat="47.81784" lon="7.04198">
        <ele>705.26</ele>
        <time>2022-07-31T07:45:24Z</time>
      </trkpt>
      <trkpt lat="47.81807" lon="7.04185">
        <ele>705.75</ele>
        <time>2022-07-31T07:45:32Z</time>
      </trkpt>
      <trkpt lat="47.81835" lon="7.04166">
        <ele>706.23</ele>
        <time>2022-07-31T07:45:41Z</time>
      </trkpt>
      <trkpt lat="47.81867" lon="7.04131">
        <ele>707.67</ele>
        <time>2022-07-31T07:45:52Z</time>
      </trkpt>
      <trkpt lat="47.81901" lon="7.0413">
        <ele>709.59</ele>
        <time>2022-07-31T07:46:02Z</time>
      </trkpt>
      <trkpt lat="47.81941" lon="7.04142">
        <ele>711.51</ele>
        <time>2022-07-31T07:46:13Z</time>
      </trkpt>
      <trkpt lat="47.81986" lon="7.04129">
        <ele>713.44</ele>
        <time>2022-07-31T07:46:26Z</time>
      </trkpt>
      <trkpt lat="47.82016" lon="7.04102">
        <ele>715.36</ele>
        <time>2022-07-31T07:46:38Z</time>
      </trkpt>
      <trkpt lat="47.82029" lon="7.04087">
        <ele>716.8</ele>
        <time>2022-07-31T07:46:42Z</time>
      </trkpt>
      <trkpt lat="47.82056" lon="7.04047">
        <ele>718.72</ele>
        <time>2022-07-31T07:46:54Z</time>
      </trkpt>
      <trkpt lat="47.8208" lon="7.04009">
        <ele>720.65</ele>
        <time>2022-07-31T07:47:04Z</time>
      </trkpt>
      <trkpt lat="47.82108" lon="7.03999">
        <ele>721.61</ele>
        <time>2022-07-31T07:47:14Z</time>
      </trkpt>
      <trkpt lat="47.82136" lon="7.04016">
        <ele>723.53</ele>
        <time>2022-07-31T07:47:25Z</time>
      </trkpt>
      <trkpt lat="47.82171" lon="7.04021">
        <ele>724.49</ele>
        <time>2022-07-31T07:47:34Z</time>
      </trkpt>
      <trkpt lat="47.82195" lon="7.04022">
        <ele>725.93</ele>
        <time>2022-07-31T07:47:41Z</time>
      </trkpt>
      <trkpt lat="47.82214" lon="7.04001">
        <ele>727.86</ele>
        <time>2022-07-31T07:47:50Z</time>
      </trkpt>
      <trkpt lat="47.82248" lon="7.03983">
        <ele>729.3</ele>
        <time>2022-07-31T07:48:02Z</time>
      </trkpt>
      <trkpt lat="47.82284" lon="7.03992">
        <ele>730.74</ele>
        <time>2022-07-31T07:48:11Z</time>
      </trkpt>
      <trkpt lat="47.82306" lon="7.03996">
        <ele>732.18</ele>
        <time>2022-07-31T07:48:17Z</time>
      </trkpt>
      <trkpt lat="47.82338" lon="7.0397">
        <ele>734.1</ele>
        <time>2022-07-31T07:48:29Z</time>
      </trkpt>
      <trkpt lat="47.82347" lon="7.03966">
        <ele>734.58</ele>
        <time>2022-07-31T07:48:33Z</time>
      </trkpt>
      <trkpt lat="47.82361" lon="7.03977">
        <ele>736.03</ele>
        <time>2022-07-31T07:48:38Z</time>
      </trkpt>
      <trkpt lat="47.8237" lon="7.03996">
        <ele>737.95</ele>
        <time>2022-07-31T07:48:44Z</time>
      </trkpt>
      <trkpt lat="47.82379" lon="7.0405">
        <ele>740.83</ele>
        <time>2022-07-31T07:48:56Z</time>
      </trkpt>
      <trkpt lat="47.82379" lon="7.04107">
        <ele>742.28</ele>
        <time>2022-07-31T07:49:07Z</time>
      </trkpt>
      <trkpt lat="47.82377" lon="7.04157">
        <ele>743.24</ele>
        <time>2022-07-31T07:49:17Z</time>
      </trkpt>
      <trkpt lat="47.82376" lon="7.04211">
        <ele>744.2</ele>
        <time>2022-07-31T07:49:27Z</time>
      </trkpt>
      <trkpt lat="47.82369" lon="7.04282">
        <ele>744.2</ele>
        <time>2022-07-31T07:49:39Z</time>
      </trkpt>
      <trkpt lat="47.82375" lon="7.04339">
        <ele>744.68</ele>
        <time>2022-07-31T07:49:50Z</time>
      </trkpt>
      <trkpt lat="47.8239" lon="7.04343">
        <ele>744.68</ele>
        <time>2022-07-31T07:49:54Z</time>
      </trkpt>
      <trkpt lat="47.82433" lon="7.04326">
        <ele>745.64</ele>
        <time>2022-07-31T07:50:06Z</time>
      </trkpt>
      <trkpt lat="47.82471" lon="7.04316">
        <ele>746.6</ele>
        <time>2022-07-31T07:50:17Z</time>
      </trkpt>
      <trkpt lat="47.82479" lon="7.04312">
        <ele>747.08</ele>
        <time>2022-07-31T07:50:20Z</time>
      </trkpt>
      <trkpt lat="47.82514" lon="7.0429">
        <ele>748.52</ele>
        <time>2022-07-31T07:50:31Z</time>
      </trkpt>
      <trkpt lat="47.82548" lon="7.04263">
        <ele>750.45</ele>
        <time>2022-07-31T07:50:43Z</time>
      </trkpt>
      <trkpt lat="47.8255" lon="7.04261">
        <ele>752.37</ele>
        <time>2022-07-31T07:50:44Z</time>
      </trkpt>
      <trkpt lat="47.82584" lon="7.04245">
        <ele>751.89</ele>
        <time>2022-07-31T07:50:54Z</time>
      </trkpt>
      <trkpt lat="47.82624" lon="7.04215">
        <ele>753.81</ele>
        <time>2022-07-31T07:51:05Z</time>
      </trkpt>
      <trkpt lat="47.82657" lon="7.04184">
        <ele>755.73</ele>
        <time>2022-07-31T07:51:15Z</time>
      </trkpt>
      <trkpt lat="47.82685" lon="7.04158">
        <ele>756.69</ele>
        <time>2022-07-31T07:51:26Z</time>
      </trkpt>
      <trkpt lat="47.8272" lon="7.04149">
        <ele>757.66</ele>
        <time>2022-07-31T07:51:36Z</time>
      </trkpt>
      <trkpt lat="47.82762" lon="7.04169">
        <ele>759.58</ele>
        <time>2022-07-31T07:51:47Z</time>
      </trkpt>
      <trkpt lat="47.828" lon="7.04179">
        <ele>761.02</ele>
        <time>2022-07-31T07:51:59Z</time>
      </trkpt>
      <trkpt lat="47.82807" lon="7.04177">
        <ele>761.5</ele>
        <time>2022-07-31T07:52:02Z</time>
      </trkpt>
      <trkpt lat="47.82821" lon="7.04164">
        <ele>761.98</ele>
        <time>2022-07-31T07:52:06Z</time>
      </trkpt>
      <trkpt lat="47.82848" lon="7.04134">
        <ele>762.94</ele>
        <time>2022-07-31T07:52:16Z</time>
      </trkpt>
      <trkpt lat="47.82876" lon="7.04114">
        <ele>763.9</ele>
        <time>2022-07-31T07:52:25Z</time>
      </trkpt>
      <trkpt lat="47.82885" lon="7.04107">
        <ele>764.39</ele>
        <time>2022-07-31T07:52:28Z</time>
      </trkpt>
      <trkpt lat="47.82916" lon="7.04084">
        <ele>765.35</ele>
        <time>2022-07-31T07:52:41Z</time>
      </trkpt>
      <trkpt lat="47.82928" lon="7.04058">
        <ele>762.46</ele>
        <time>2022-07-31T07:52:49Z</time>
      </trkpt>
      <trkpt lat="47.82935" lon="7.0403">
        <ele>759.58</ele>
        <time>2022-07-31T07:52:55Z</time>
      </trkpt>
      <trkpt lat="47.82937" lon="7.04024">
        <ele>758.62</ele>
        <time>2022-07-31T07:52:56Z</time>
      </trkpt>
      <trkpt lat="47.82943" lon="7.04007">
        <ele>756.69</ele>
        <time>2022-07-31T07:52:59Z</time>
      </trkpt>
      <trkpt lat="47.82945" lon="7.04">
        <ele>756.21</ele>
        <time>2022-07-31T07:53:00Z</time>
      </trkpt>
      <trkpt lat="47.82947" lon="7.03994">
        <ele>755.25</ele>
        <time>2022-07-31T07:53:01Z</time>
      </trkpt>
      <trkpt lat="47.82957" lon="7.03965">
        <ele>751.89</ele>
        <time>2022-07-31T07:53:06Z</time>
      </trkpt>
      <trkpt lat="47.82959" lon="7.03958">
        <ele>751.41</ele>
        <time>2022-07-31T07:53:07Z</time>
      </trkpt>
      <trkpt lat="47.82964" lon="7.03932">
        <ele>749.49</ele>
        <time>2022-07-31T07:53:10Z</time>
      </trkpt>
      <trkpt lat="47.82966" lon="7.03924">
        <ele>747.56</ele>
        <time>2022-07-31T07:53:11Z</time>
      </trkpt>
      <trkpt lat="47.82967" lon="7.03915">
        <ele>747.08</ele>
        <time>2022-07-31T07:53:12Z</time>
      </trkpt>
      <trkpt lat="47.82975" lon="7.0388">
        <ele>743.72</ele>
        <time>2022-07-31T07:53:16Z</time>
      </trkpt>
      <trkpt lat="47.82977" lon="7.03872">
        <ele>742.76</ele>
        <time>2022-07-31T07:53:17Z</time>
      </trkpt>
      <trkpt lat="47.82979" lon="7.03863">
        <ele>742.28</ele>
        <time>2022-07-31T07:53:18Z</time>
      </trkpt>
      <trkpt lat="47.82988" lon="7.0383">
        <ele>738.91</ele>
        <time>2022-07-31T07:53:22Z</time>
      </trkpt>
      <trkpt lat="47.82996" lon="7.03797">
        <ele>735.55</ele>
        <time>2022-07-31T07:53:26Z</time>
      </trkpt>
      <trkpt lat="47.82997" lon="7.03789">
        <ele>734.58</ele>
        <time>2022-07-31T07:53:27Z</time>
      </trkpt>
      <trkpt lat="47.82998" lon="7.03781">
        <ele>734.58</ele>
        <time>2022-07-31T07:53:28Z</time>
      </trkpt>
      <trkpt lat="47.82999" lon="7.03773">
        <ele>733.62</ele>
        <time>2022-07-31T07:53:29Z</time>
      </trkpt>
      <trkpt lat="47.83004" lon="7.0373">
        <ele>730.26</ele>
        <time>2022-07-31T07:53:34Z</time>
      </trkpt>
      <trkpt lat="47.83008" lon="7.03698">
        <ele>726.41</ele>
        <time>2022-07-31T07:53:38Z</time>
      </trkpt>
      <trkpt lat="47.83009" lon="7.0369">
        <ele>725.93</ele>
        <time>2022-07-31T07:53:39Z</time>
      </trkpt>
      <trkpt lat="47.83012" lon="7.03672">
        <ele>724.01</ele>
        <time>2022-07-31T07:53:41Z</time>
      </trkpt>
      <trkpt lat="47.83015" lon="7.03664">
        <ele>723.53</ele>
        <time>2022-07-31T07:53:42Z</time>
      </trkpt>
      <trkpt lat="47.83017" lon="7.03656">
        <ele>722.57</ele>
        <time>2022-07-31T07:53:43Z</time>
      </trkpt>
      <trkpt lat="47.83019" lon="7.03649">
        <ele>721.61</ele>
        <time>2022-07-31T07:53:44Z</time>
      </trkpt>
      <trkpt lat="47.83021" lon="7.03643">
        <ele>721.13</ele>
        <time>2022-07-31T07:53:45Z</time>
      </trkpt>
      <trkpt lat="47.83033" lon="7.03622">
        <ele>717.76</ele>
        <time>2022-07-31T07:53:49Z</time>
      </trkpt>
      <trkpt lat="47.83046" lon="7.03618">
        <ele>715.36</ele>
        <time>2022-07-31T07:53:54Z</time>
      </trkpt>
      <trkpt lat="47.83071" lon="7.03614">
        <ele>711.99</ele>
        <time>2022-07-31T07:53:59Z</time>
      </trkpt>
      <trkpt lat="47.83084" lon="7.03617">
        <ele>711.03</ele>
        <time>2022-07-31T07:54:01Z</time>
      </trkpt>
      <trkpt lat="47.83089" lon="7.0362">
        <ele>710.55</ele>
        <time>2022-07-31T07:54:02Z</time>
      </trkpt>
      <trkpt lat="47.83097" lon="7.03631">
        <ele>709.59</ele>
        <time>2022-07-31T07:54:05Z</time>
      </trkpt>
      <trkpt lat="47.83096" lon="7.03634">
        <ele>709.59</ele>
        <time>2022-07-31T07:54:06Z</time>
      </trkpt>
      <trkpt lat="47.83096" lon="7.03638">
        <ele>709.59</ele>
        <time>2022-07-31T07:54:07Z</time>
      </trkpt>
      <trkpt lat="47.83095" lon="7.03641">
        <ele>709.11</ele>
        <time>2022-07-31T07:54:08Z</time>
      </trkpt>
      <trkpt lat="47.83095" lon="7.03643">
        <ele>708.63</ele>
        <time>2022-07-31T07:54:09Z</time>
      </trkpt>
      <trkpt lat="47.83095" lon="7.03647">
        <ele>708.15</ele>
        <time>2022-07-31T07:54:10Z</time>
      </trkpt>
      <trkpt lat="47.83095" lon="7.0365">
        <ele>707.67</ele>
        <time>2022-07-31T07:54:11Z</time>
      </trkpt>
      <trkpt lat="47.83096" lon="7.03653">
        <ele>707.19</ele>
        <time>2022-07-31T07:54:12Z</time>
      </trkpt>
      <trkpt lat="47.83096" lon="7.03656">
        <ele>706.23</ele>
        <time>2022-07-31T07:54:13Z</time>
      </trkpt>
      <trkpt lat="47.83096" lon="7.0366">
        <ele>706.23</ele>
        <time>2022-07-31T07:54:14Z</time>
      </trkpt>
      <trkpt lat="47.83096" lon="7.03664">
        <ele>705.75</ele>
        <time>2022-07-31T07:54:15Z</time>
      </trkpt>
      <trkpt lat="47.83094" lon="7.03697">
        <ele>702.38</ele>
        <time>2022-07-31T07:54:21Z</time>
      </trkpt>
      <trkpt lat="47.83102" lon="7.03721">
        <ele>699.02</ele>
        <time>2022-07-31T07:54:26Z</time>
      </trkpt>
      <trkpt lat="47.83104" lon="7.03733">
        <ele>697.57</ele>
        <time>2022-07-31T07:54:28Z</time>
      </trkpt>
      <trkpt lat="47.83105" lon="7.0374">
        <ele>697.09</ele>
        <time>2022-07-31T07:54:29Z</time>
      </trkpt>
      <trkpt lat="47.83104" lon="7.03767">
        <ele>694.69</ele>
        <time>2022-07-31T07:54:32Z</time>
      </trkpt>
      <trkpt lat="47.83102" lon="7.03786">
        <ele>693.25</ele>
        <time>2022-07-31T07:54:34Z</time>
      </trkpt>
      <trkpt lat="47.83098" lon="7.03825">
        <ele>690.36</ele>
        <time>2022-07-31T07:54:38Z</time>
      </trkpt>
      <trkpt lat="47.83099" lon="7.03833">
        <ele>689.88</ele>
        <time>2022-07-31T07:54:39Z</time>
      </trkpt>
      <trkpt lat="47.831" lon="7.0384">
        <ele>689.4</ele>
        <time>2022-07-31T07:54:40Z</time>
      </trkpt>
      <trkpt lat="47.831" lon="7.03851">
        <ele>688.92</ele>
        <time>2022-07-31T07:54:41Z</time>
      </trkpt>
      <trkpt lat="47.83101" lon="7.03859">
        <ele>688.44</ele>
        <time>2022-07-31T07:54:42Z</time>
      </trkpt>
      <trkpt lat="47.83102" lon="7.0387">
        <ele>687.48</ele>
        <time>2022-07-31T07:54:43Z</time>
      </trkpt>
      <trkpt lat="47.83103" lon="7.03886">
        <ele>687</ele>
        <time>2022-07-31T07:54:45Z</time>
      </trkpt>
      <trkpt lat="47.83103" lon="7.03905">
        <ele>686.04</ele>
        <time>2022-07-31T07:54:47Z</time>
      </trkpt>
      <trkpt lat="47.83099" lon="7.03935">
        <ele>682.19</ele>
        <time>2022-07-31T07:54:50Z</time>
      </trkpt>
      <trkpt lat="47.83093" lon="7.03967">
        <ele>680.27</ele>
        <time>2022-07-31T07:54:53Z</time>
      </trkpt>
      <trkpt lat="47.83094" lon="7.03977">
        <ele>679.79</ele>
        <time>2022-07-31T07:54:54Z</time>
      </trkpt>
      <trkpt lat="47.83096" lon="7.03983">
        <ele>679.79</ele>
        <time>2022-07-31T07:54:55Z</time>
      </trkpt>
      <trkpt lat="47.83097" lon="7.03991">
        <ele>679.31</ele>
        <time>2022-07-31T07:54:56Z</time>
      </trkpt>
      <trkpt lat="47.83098" lon="7.03997">
        <ele>679.31</ele>
        <time>2022-07-31T07:54:57Z</time>
      </trkpt>
      <trkpt lat="47.83097" lon="7.04015">
        <ele>679.31</ele>
        <time>2022-07-31T07:54:59Z</time>
      </trkpt>
      <trkpt lat="47.83098" lon="7.04018">
        <ele>678.83</ele>
        <time>2022-07-31T07:55:00Z</time>
      </trkpt>
      <trkpt lat="47.83098" lon="7.04017">
        <ele>678.83</ele>
        <time>2022-07-31T07:55:01Z</time>
      </trkpt>
      <trkpt lat="47.83099" lon="7.04016">
        <ele>678.35</ele>
        <time>2022-07-31T07:55:02Z</time>
      </trkpt>
      <trkpt lat="47.831" lon="7.04015">
        <ele>677.87</ele>
        <time>2022-07-31T07:55:03Z</time>
      </trkpt>
      <trkpt lat="47.83116" lon="7.03979">
        <ele>674.98</ele>
        <time>2022-07-31T07:55:11Z</time>
      </trkpt>
      <trkpt lat="47.83123" lon="7.03957">
        <ele>673.54</ele>
        <time>2022-07-31T07:55:15Z</time>
      </trkpt>
      <trkpt lat="47.83127" lon="7.03952">
        <ele>673.54</ele>
        <time>2022-07-31T07:55:16Z</time>
      </trkpt>
      <trkpt lat="47.8313" lon="7.0395">
        <ele>673.54</ele>
        <time>2022-07-31T07:55:17Z</time>
      </trkpt>
      <trkpt lat="47.83139" lon="7.03953">
        <ele>672.58</ele>
        <time>2022-07-31T07:55:19Z</time>
      </trkpt>
      <trkpt lat="47.83142" lon="7.03957">
        <ele>672.58</ele>
        <time>2022-07-31T07:55:20Z</time>
      </trkpt>
      <trkpt lat="47.83143" lon="7.03962">
        <ele>672.1</ele>
        <time>2022-07-31T07:55:21Z</time>
      </trkpt>
      <trkpt lat="47.83142" lon="7.03968">
        <ele>672.1</ele>
        <time>2022-07-31T07:55:22Z</time>
      </trkpt>
      <trkpt lat="47.83141" lon="7.03976">
        <ele>671.14</ele>
        <time>2022-07-31T07:55:23Z</time>
      </trkpt>
      <trkpt lat="47.83139" lon="7.0399">
        <ele>669.7</ele>
        <time>2022-07-31T07:55:25Z</time>
      </trkpt>
      <trkpt lat="47.83138" lon="7.03997">
        <ele>669.22</ele>
        <time>2022-07-31T07:55:26Z</time>
      </trkpt>
      <trkpt lat="47.83136" lon="7.04004">
        <ele>668.73</ele>
        <time>2022-07-31T07:55:27Z</time>
      </trkpt>
      <trkpt lat="47.83135" lon="7.04012">
        <ele>667.77</ele>
        <time>2022-07-31T07:55:28Z</time>
      </trkpt>
      <trkpt lat="47.83133" lon="7.0402">
        <ele>667.29</ele>
        <time>2022-07-31T07:55:29Z</time>
      </trkpt>
      <trkpt lat="47.83128" lon="7.04043">
        <ele>665.37</ele>
        <time>2022-07-31T07:55:32Z</time>
      </trkpt>
      <trkpt lat="47.83127" lon="7.04051">
        <ele>665.37</ele>
        <time>2022-07-31T07:55:33Z</time>
      </trkpt>
      <trkpt lat="47.83127" lon="7.04057">
        <ele>664.89</ele>
        <time>2022-07-31T07:55:34Z</time>
      </trkpt>
      <trkpt lat="47.83127" lon="7.04063">
        <ele>664.41</ele>
        <time>2022-07-31T07:55:35Z</time>
      </trkpt>
      <trkpt lat="47.83128" lon="7.04067">
        <ele>664.41</ele>
        <time>2022-07-31T07:55:36Z</time>
      </trkpt>
      <trkpt lat="47.83129" lon="7.04068">
        <ele>663.93</ele>
        <time>2022-07-31T07:55:37Z</time>
      </trkpt>
      <trkpt lat="47.83131" lon="7.0407">
        <ele>663.93</ele>
        <time>2022-07-31T07:55:38Z</time>
      </trkpt>
      <trkpt lat="47.83133" lon="7.04071">
        <ele>663.93</ele>
        <time>2022-07-31T07:55:39Z</time>
      </trkpt>
      <trkpt lat="47.83142" lon="7.04071">
        <ele>663.93</ele>
        <time>2022-07-31T07:55:54Z</time>
      </trkpt>
      <trkpt lat="47.83143" lon="7.0407">
        <ele>663.93</ele>
        <time>2022-07-31T07:55:56Z</time>
      </trkpt>
      <trkpt lat="47.83145" lon="7.04067">
        <ele>663.45</ele>
        <time>2022-07-31T07:55:58Z</time>
      </trkpt>
      <trkpt lat="47.83147" lon="7.04065">
        <ele>663.45</ele>
        <time>2022-07-31T07:55:59Z</time>
      </trkpt>
      <trkpt lat="47.83148" lon="7.04063">
        <ele>662.97</ele>
        <time>2022-07-31T07:56:00Z</time>
      </trkpt>
      <trkpt lat="47.8315" lon="7.04059">
        <ele>662.97</ele>
        <time>2022-07-31T07:56:01Z</time>
      </trkpt>
      <trkpt lat="47.83152" lon="7.04055">
        <ele>662.49</ele>
        <time>2022-07-31T07:56:02Z</time>
      </trkpt>
      <trkpt lat="47.83154" lon="7.04052">
        <ele>662.01</ele>
        <time>2022-07-31T07:56:03Z</time>
      </trkpt>
      <trkpt lat="47.83164" lon="7.04038">
        <ele>660.08</ele>
        <time>2022-07-31T07:56:08Z</time>
      </trkpt>
      <trkpt lat="47.83178" lon="7.04029">
        <ele>658.16</ele>
        <time>2022-07-31T07:56:12Z</time>
      </trkpt>
      <trkpt lat="47.83183" lon="7.04028">
        <ele>657.68</ele>
        <time>2022-07-31T07:56:13Z</time>
      </trkpt>
      <trkpt lat="47.83187" lon="7.04027">
        <ele>657.2</ele>
        <time>2022-07-31T07:56:14Z</time>
      </trkpt>
      <trkpt lat="47.83191" lon="7.04028">
        <ele>656.72</ele>
        <time>2022-07-31T07:56:15Z</time>
      </trkpt>
      <trkpt lat="47.83195" lon="7.04029">
        <ele>655.76</ele>
        <time>2022-07-31T07:56:16Z</time>
      </trkpt>
      <trkpt lat="47.83198" lon="7.04032">
        <ele>655.28</ele>
        <time>2022-07-31T07:56:17Z</time>
      </trkpt>
      <trkpt lat="47.83201" lon="7.04034">
        <ele>654.8</ele>
        <time>2022-07-31T07:56:18Z</time>
      </trkpt>
      <trkpt lat="47.83208" lon="7.04039">
        <ele>653.35</ele>
        <time>2022-07-31T07:56:20Z</time>
      </trkpt>
      <trkpt lat="47.83211" lon="7.04043">
        <ele>653.35</ele>
        <time>2022-07-31T07:56:21Z</time>
      </trkpt>
      <trkpt lat="47.83214" lon="7.04046">
        <ele>652.39</ele>
        <time>2022-07-31T07:56:22Z</time>
      </trkpt>
      <trkpt lat="47.83219" lon="7.04049">
        <ele>651.91</ele>
        <time>2022-07-31T07:56:23Z</time>
      </trkpt>
      <trkpt lat="47.83225" lon="7.04052">
        <ele>650.95</ele>
        <time>2022-07-31T07:56:24Z</time>
      </trkpt>
      <trkpt lat="47.83229" lon="7.04055">
        <ele>650.47</ele>
        <time>2022-07-31T07:56:25Z</time>
      </trkpt>
      <trkpt lat="47.83234" lon="7.04057">
        <ele>649.99</ele>
        <time>2022-07-31T07:56:26Z</time>
      </trkpt>
      <trkpt lat="47.83239" lon="7.0406">
        <ele>649.51</ele>
        <time>2022-07-31T07:56:27Z</time>
      </trkpt>
      <trkpt lat="47.83243" lon="7.04065">
        <ele>648.55</ele>
        <time>2022-07-31T07:56:28Z</time>
      </trkpt>
      <trkpt lat="47.83248" lon="7.0407">
        <ele>648.07</ele>
        <time>2022-07-31T07:56:29Z</time>
      </trkpt>
      <trkpt lat="47.83263" lon="7.04093">
        <ele>644.7</ele>
        <time>2022-07-31T07:56:33Z</time>
      </trkpt>
      <trkpt lat="47.83275" lon="7.04112">
        <ele>642.3</ele>
        <time>2022-07-31T07:56:36Z</time>
      </trkpt>
      <trkpt lat="47.8328" lon="7.04116">
        <ele>641.82</ele>
        <time>2022-07-31T07:56:37Z</time>
      </trkpt>
      <trkpt lat="47.83283" lon="7.04119">
        <ele>640.86</ele>
        <time>2022-07-31T07:56:38Z</time>
      </trkpt>
      <trkpt lat="47.83287" lon="7.04123">
        <ele>640.38</ele>
        <time>2022-07-31T07:56:39Z</time>
      </trkpt>
      <trkpt lat="47.83291" lon="7.04128">
        <ele>639.89</ele>
        <time>2022-07-31T07:56:40Z</time>
      </trkpt>
      <trkpt lat="47.83295" lon="7.04132">
        <ele>639.41</ele>
        <time>2022-07-31T07:56:41Z</time>
      </trkpt>
      <trkpt lat="47.833" lon="7.04137">
        <ele>638.93</ele>
        <time>2022-07-31T07:56:42Z</time>
      </trkpt>
      <trkpt lat="47.83304" lon="7.04141">
        <ele>637.97</ele>
        <time>2022-07-31T07:56:43Z</time>
      </trkpt>
      <trkpt lat="47.83317" lon="7.04153">
        <ele>636.53</ele>
        <time>2022-07-31T07:56:46Z</time>
      </trkpt>
      <trkpt lat="47.83321" lon="7.04158">
        <ele>636.05</ele>
        <time>2022-07-31T07:56:47Z</time>
      </trkpt>
      <trkpt lat="47.8333" lon="7.04166">
        <ele>634.13</ele>
        <time>2022-07-31T07:56:49Z</time>
      </trkpt>
      <trkpt lat="47.83338" lon="7.04174">
        <ele>632.68</ele>
        <time>2022-07-31T07:56:51Z</time>
      </trkpt>
      <trkpt lat="47.83343" lon="7.04178">
        <ele>632.2</ele>
        <time>2022-07-31T07:56:52Z</time>
      </trkpt>
      <trkpt lat="47.83347" lon="7.04184">
        <ele>631.24</ele>
        <time>2022-07-31T07:56:53Z</time>
      </trkpt>
      <trkpt lat="47.83355" lon="7.04192">
        <ele>630.28</ele>
        <time>2022-07-31T07:56:55Z</time>
      </trkpt>
      <trkpt lat="47.83358" lon="7.04194">
        <ele>629.8</ele>
        <time>2022-07-31T07:56:56Z</time>
      </trkpt>
      <trkpt lat="47.83386" lon="7.04213">
        <ele>626.92</ele>
        <time>2022-07-31T07:57:06Z</time>
      </trkpt>
      <trkpt lat="47.83394" lon="7.04216">
        <ele>627.4</ele>
        <time>2022-07-31T07:57:24Z</time>
      </trkpt>
      <trkpt lat="47.83396" lon="7.04218">
        <ele>627.88</ele>
        <time>2022-07-31T07:57:41Z</time>
      </trkpt>
      <trkpt lat="47.83397" lon="7.0422">
        <ele>627.4</ele>
        <time>2022-07-31T07:57:42Z</time>
      </trkpt>
      <trkpt lat="47.83417" lon="7.04231">
        <ele>624.99</ele>
        <time>2022-07-31T07:57:51Z</time>
      </trkpt>
      <trkpt lat="47.83432" lon="7.04222">
        <ele>621.63</ele>
        <time>2022-07-31T07:57:58Z</time>
      </trkpt>
      <trkpt lat="47.83435" lon="7.04218">
        <ele>621.15</ele>
        <time>2022-07-31T07:57:59Z</time>
      </trkpt>
      <trkpt lat="47.83439" lon="7.04213">
        <ele>620.67</ele>
        <time>2022-07-31T07:58:00Z</time>
      </trkpt>
      <trkpt lat="47.83446" lon="7.04204">
        <ele>619.23</ele>
        <time>2022-07-31T07:58:02Z</time>
      </trkpt>
      <trkpt lat="47.83452" lon="7.04198">
        <ele>618.75</ele>
        <time>2022-07-31T07:58:03Z</time>
      </trkpt>
      <trkpt lat="47.83475" lon="7.0417">
        <ele>615.38</ele>
        <time>2022-07-31T07:58:08Z</time>
      </trkpt>
      <trkpt lat="47.83503" lon="7.04141">
        <ele>612.02</ele>
        <time>2022-07-31T07:58:13Z</time>
      </trkpt>
      <trkpt lat="47.83515" lon="7.0413">
        <ele>610.09</ele>
        <time>2022-07-31T07:58:15Z</time>
      </trkpt>
      <trkpt lat="47.83526" lon="7.04117">
        <ele>608.65</ele>
        <time>2022-07-31T07:58:17Z</time>
      </trkpt>
      <trkpt lat="47.83531" lon="7.0411">
        <ele>607.69</ele>
        <time>2022-07-31T07:58:18Z</time>
      </trkpt>
      <trkpt lat="47.83536" lon="7.04102">
        <ele>607.21</ele>
        <time>2022-07-31T07:58:19Z</time>
      </trkpt>
      <trkpt lat="47.83541" lon="7.04093">
        <ele>606.25</ele>
        <time>2022-07-31T07:58:20Z</time>
      </trkpt>
      <trkpt lat="47.83546" lon="7.04081">
        <ele>605.29</ele>
        <time>2022-07-31T07:58:21Z</time>
      </trkpt>
      <trkpt lat="47.83562" lon="7.04036">
        <ele>601.44</ele>
        <time>2022-07-31T07:58:25Z</time>
      </trkpt>
      <trkpt lat="47.83576" lon="7.03993">
        <ele>598.08</ele>
        <time>2022-07-31T07:58:29Z</time>
      </trkpt>
      <trkpt lat="47.83591" lon="7.03953">
        <ele>594.71</ele>
        <time>2022-07-31T07:58:33Z</time>
      </trkpt>
      <trkpt lat="47.83598" lon="7.03936">
        <ele>593.27</ele>
        <time>2022-07-31T07:58:35Z</time>
      </trkpt>
      <trkpt lat="47.83606" lon="7.03907">
        <ele>589.91</ele>
        <time>2022-07-31T07:58:38Z</time>
      </trkpt>
      <trkpt lat="47.8361" lon="7.03884">
        <ele>588.46</ele>
        <time>2022-07-31T07:58:40Z</time>
      </trkpt>
      <trkpt lat="47.83611" lon="7.03872">
        <ele>587.02</ele>
        <time>2022-07-31T07:58:41Z</time>
      </trkpt>
      <trkpt lat="47.83614" lon="7.0385">
        <ele>585.58</ele>
        <time>2022-07-31T07:58:43Z</time>
      </trkpt>
      <trkpt lat="47.83615" lon="7.03811">
        <ele>583.18</ele>
        <time>2022-07-31T07:58:47Z</time>
      </trkpt>
      <trkpt lat="47.83617" lon="7.03793">
        <ele>582.7</ele>
        <time>2022-07-31T07:58:49Z</time>
      </trkpt>
      <trkpt lat="47.83619" lon="7.03785">
        <ele>580.77</ele>
        <time>2022-07-31T07:58:50Z</time>
      </trkpt>
      <trkpt lat="47.83623" lon="7.0378">
        <ele>579.81</ele>
        <time>2022-07-31T07:58:51Z</time>
      </trkpt>
      <trkpt lat="47.83635" lon="7.03765">
        <ele>577.89</ele>
        <time>2022-07-31T07:58:54Z</time>
      </trkpt>
      <trkpt lat="47.83644" lon="7.03757">
        <ele>576.45</ele>
        <time>2022-07-31T07:58:56Z</time>
      </trkpt>
      <trkpt lat="47.83648" lon="7.03754">
        <ele>575.97</ele>
        <time>2022-07-31T07:58:57Z</time>
      </trkpt>
      <trkpt lat="47.83654" lon="7.03755">
        <ele>575.49</ele>
        <time>2022-07-31T07:58:58Z</time>
      </trkpt>
      <trkpt lat="47.83658" lon="7.03757">
        <ele>575.01</ele>
        <time>2022-07-31T07:58:59Z</time>
      </trkpt>
      <trkpt lat="47.83661" lon="7.03759">
        <ele>575.01</ele>
        <time>2022-07-31T07:59:00Z</time>
      </trkpt>
      <trkpt lat="47.83664" lon="7.03762">
        <ele>574.53</ele>
        <time>2022-07-31T07:59:01Z</time>
      </trkpt>
      <trkpt lat="47.8367" lon="7.03769">
        <ele>574.04</ele>
        <time>2022-07-31T07:59:03Z</time>
      </trkpt>
      <trkpt lat="47.83671" lon="7.03773">
        <ele>574.04</ele>
        <time>2022-07-31T07:59:04Z</time>
      </trkpt>
      <trkpt lat="47.83672" lon="7.03777">
        <ele>573.56</ele>
        <time>2022-07-31T07:59:05Z</time>
      </trkpt>
      <trkpt lat="47.83673" lon="7.03789">
        <ele>571.64</ele>
        <time>2022-07-31T07:59:08Z</time>
      </trkpt>
      <trkpt lat="47.83678" lon="7.03823">
        <ele>568.28</ele>
        <time>2022-07-31T07:59:16Z</time>
      </trkpt>
      <trkpt lat="47.83681" lon="7.0384">
        <ele>566.35</ele>
        <time>2022-07-31T07:59:19Z</time>
      </trkpt>
      <trkpt lat="47.83684" lon="7.03869">
        <ele>562.99</ele>
        <time>2022-07-31T07:59:24Z</time>
      </trkpt>
      <trkpt lat="47.83685" lon="7.03899">
        <ele>559.62</ele>
        <time>2022-07-31T07:59:29Z</time>
      </trkpt>
      <trkpt lat="47.83681" lon="7.03924">
        <ele>556.74</ele>
        <time>2022-07-31T07:59:34Z</time>
      </trkpt>
      <trkpt lat="47.83672" lon="7.03957">
        <ele>553.38</ele>
        <time>2022-07-31T07:59:43Z</time>
      </trkpt>
      <trkpt lat="47.83669" lon="7.03981">
        <ele>551.45</ele>
        <time>2022-07-31T07:59:48Z</time>
      </trkpt>
      <trkpt lat="47.83667" lon="7.03989">
        <ele>550.49</ele>
        <time>2022-07-31T07:59:49Z</time>
      </trkpt>
      <trkpt lat="47.83659" lon="7.04033">
        <ele>546.65</ele>
        <time>2022-07-31T07:59:54Z</time>
      </trkpt>
      <trkpt lat="47.83658" lon="7.04041">
        <ele>545.69</ele>
        <time>2022-07-31T07:59:55Z</time>
      </trkpt>
      <trkpt lat="47.83657" lon="7.04063">
        <ele>543.28</ele>
        <time>2022-07-31T07:59:58Z</time>
      </trkpt>
      <trkpt lat="47.83657" lon="7.04071">
        <ele>542.32</ele>
        <time>2022-07-31T07:59:59Z</time>
      </trkpt>
      <trkpt lat="47.83657" lon="7.04078">
        <ele>541.84</ele>
        <time>2022-07-31T08:00:00Z</time>
      </trkpt>
      <trkpt lat="47.83657" lon="7.04085">
        <ele>540.88</ele>
        <time>2022-07-31T08:00:01Z</time>
      </trkpt>
      <trkpt lat="47.83657" lon="7.04092">
        <ele>540.4</ele>
        <time>2022-07-31T08:00:02Z</time>
      </trkpt>
      <trkpt lat="47.83655" lon="7.04129">
        <ele>537.99</ele>
        <time>2022-07-31T08:00:09Z</time>
      </trkpt>
      <trkpt lat="47.83638" lon="7.04176">
        <ele>534.63</ele>
        <time>2022-07-31T08:00:17Z</time>
      </trkpt>
      <trkpt lat="47.83627" lon="7.04204">
        <ele>532.23</ele>
        <time>2022-07-31T08:00:21Z</time>
      </trkpt>
      <trkpt lat="47.83611" lon="7.04248">
        <ele>528.86</ele>
        <time>2022-07-31T08:00:27Z</time>
      </trkpt>
      <trkpt lat="47.83606" lon="7.04268">
        <ele>527.42</ele>
        <time>2022-07-31T08:00:30Z</time>
      </trkpt>
      <trkpt lat="47.83604" lon="7.04275">
        <ele>526.94</ele>
        <time>2022-07-31T08:00:31Z</time>
      </trkpt>
      <trkpt lat="47.836" lon="7.04303">
        <ele>524.54</ele>
        <time>2022-07-31T08:00:35Z</time>
      </trkpt>
      <trkpt lat="47.83599" lon="7.0431">
        <ele>524.06</ele>
        <time>2022-07-31T08:00:36Z</time>
      </trkpt>
      <trkpt lat="47.836" lon="7.04339">
        <ele>521.65</ele>
        <time>2022-07-31T08:00:40Z</time>
      </trkpt>
      <trkpt lat="47.83602" lon="7.04354">
        <ele>520.69</ele>
        <time>2022-07-31T08:00:42Z</time>
      </trkpt>
      <trkpt lat="47.83602" lon="7.04361">
        <ele>519.73</ele>
        <time>2022-07-31T08:00:43Z</time>
      </trkpt>
      <trkpt lat="47.83602" lon="7.04368">
        <ele>519.25</ele>
        <time>2022-07-31T08:00:44Z</time>
      </trkpt>
      <trkpt lat="47.83607" lon="7.04427">
        <ele>516.37</ele>
        <time>2022-07-31T08:00:51Z</time>
      </trkpt>
      <trkpt lat="47.83611" lon="7.04442">
        <ele>513</ele>
        <time>2022-07-31T08:00:53Z</time>
      </trkpt>
      <trkpt lat="47.8362" lon="7.04466">
        <ele>511.08</ele>
        <time>2022-07-31T08:00:56Z</time>
      </trkpt>
      <trkpt lat="47.83624" lon="7.04473">
        <ele>510.6</ele>
        <time>2022-07-31T08:00:57Z</time>
      </trkpt>
      <trkpt lat="47.83635" lon="7.04497">
        <ele>509.16</ele>
        <time>2022-07-31T08:01:00Z</time>
      </trkpt>
      <trkpt lat="47.83642" lon="7.04513">
        <ele>508.19</ele>
        <time>2022-07-31T08:01:02Z</time>
      </trkpt>
      <trkpt lat="47.83647" lon="7.04521">
        <ele>507.71</ele>
        <time>2022-07-31T08:01:03Z</time>
      </trkpt>
      <trkpt lat="47.83664" lon="7.04553">
        <ele>505.31</ele>
        <time>2022-07-31T08:01:07Z</time>
      </trkpt>
      <trkpt lat="47.83668" lon="7.04559">
        <ele>504.83</ele>
        <time>2022-07-31T08:01:08Z</time>
      </trkpt>
      <trkpt lat="47.83673" lon="7.04566">
        <ele>504.35</ele>
        <time>2022-07-31T08:01:09Z</time>
      </trkpt>
      <trkpt lat="47.83677" lon="7.04573">
        <ele>503.39</ele>
        <time>2022-07-31T08:01:10Z</time>
      </trkpt>
      <trkpt lat="47.83681" lon="7.04581">
        <ele>502.91</ele>
        <time>2022-07-31T08:01:11Z</time>
      </trkpt>
      <trkpt lat="47.83686" lon="7.0459">
        <ele>502.43</ele>
        <time>2022-07-31T08:01:12Z</time>
      </trkpt>
      <trkpt lat="47.83689" lon="7.04599">
        <ele>501.95</ele>
        <time>2022-07-31T08:01:13Z</time>
      </trkpt>
      <trkpt lat="47.83697" lon="7.04626">
        <ele>499.06</ele>
        <time>2022-07-31T08:01:16Z</time>
      </trkpt>
      <trkpt lat="47.83699" lon="7.04635">
        <ele>498.58</ele>
        <time>2022-07-31T08:01:17Z</time>
      </trkpt>
      <trkpt lat="47.83704" lon="7.04653">
        <ele>497.14</ele>
        <time>2022-07-31T08:01:19Z</time>
      </trkpt>
      <trkpt lat="47.83717" lon="7.04694">
        <ele>494.26</ele>
        <time>2022-07-31T08:01:25Z</time>
      </trkpt>
      <trkpt lat="47.83726" lon="7.04725">
        <ele>491.85</ele>
        <time>2022-07-31T08:01:30Z</time>
      </trkpt>
      <trkpt lat="47.83732" lon="7.04738">
        <ele>490.89</ele>
        <time>2022-07-31T08:01:32Z</time>
      </trkpt>
      <trkpt lat="47.83738" lon="7.0475">
        <ele>489.45</ele>
        <time>2022-07-31T08:01:34Z</time>
      </trkpt>
      <trkpt lat="47.8374" lon="7.04757">
        <ele>488.97</ele>
        <time>2022-07-31T08:01:35Z</time>
      </trkpt>
      <trkpt lat="47.83744" lon="7.04765">
        <ele>488.01</ele>
        <time>2022-07-31T08:01:36Z</time>
      </trkpt>
      <trkpt lat="47.83748" lon="7.04772">
        <ele>487.53</ele>
        <time>2022-07-31T08:01:37Z</time>
      </trkpt>
      <trkpt lat="47.83752" lon="7.04779">
        <ele>486.08</ele>
        <time>2022-07-31T08:01:38Z</time>
      </trkpt>
      <trkpt lat="47.83756" lon="7.04787">
        <ele>486.08</ele>
        <time>2022-07-31T08:01:39Z</time>
      </trkpt>
      <trkpt lat="47.83772" lon="7.04821">
        <ele>482.72</ele>
        <time>2022-07-31T08:01:44Z</time>
      </trkpt>
      <trkpt lat="47.83783" lon="7.0485">
        <ele>480.32</ele>
        <time>2022-07-31T08:01:52Z</time>
      </trkpt>
      <trkpt lat="47.83795" lon="7.04897">
        <ele>476.95</ele>
        <time>2022-07-31T08:02:00Z</time>
      </trkpt>
      <trkpt lat="47.83797" lon="7.04905">
        <ele>476.47</ele>
        <time>2022-07-31T08:02:01Z</time>
      </trkpt>
      <trkpt lat="47.838" lon="7.04912">
        <ele>475.99</ele>
        <time>2022-07-31T08:02:02Z</time>
      </trkpt>
      <trkpt lat="47.83805" lon="7.04939">
        <ele>473.59</ele>
        <time>2022-07-31T08:02:05Z</time>
      </trkpt>
      <trkpt lat="47.83811" lon="7.04972">
        <ele>471.18</ele>
        <time>2022-07-31T08:02:09Z</time>
      </trkpt>
      <trkpt lat="47.83811" lon="7.0498">
        <ele>470.7</ele>
        <time>2022-07-31T08:02:10Z</time>
      </trkpt>
      <trkpt lat="47.83812" lon="7.04988">
        <ele>470.22</ele>
        <time>2022-07-31T08:02:11Z</time>
      </trkpt>
      <trkpt lat="47.83814" lon="7.04996">
        <ele>469.74</ele>
        <time>2022-07-31T08:02:12Z</time>
      </trkpt>
      <trkpt lat="47.83816" lon="7.05004">
        <ele>469.26</ele>
        <time>2022-07-31T08:02:13Z</time>
      </trkpt>
      <trkpt lat="47.8382" lon="7.05017">
        <ele>467.82</ele>
        <time>2022-07-31T08:02:15Z</time>
      </trkpt>
      <trkpt lat="47.83821" lon="7.05025">
        <ele>466.86</ele>
        <time>2022-07-31T08:02:16Z</time>
      </trkpt>
      <trkpt lat="47.83823" lon="7.05034">
        <ele>466.38</ele>
        <time>2022-07-31T08:02:17Z</time>
      </trkpt>
      <trkpt lat="47.83826" lon="7.05053">
        <ele>465.42</ele>
        <time>2022-07-31T08:02:19Z</time>
      </trkpt>
      <trkpt lat="47.8383" lon="7.05084">
        <ele>463.01</ele>
        <time>2022-07-31T08:02:22Z</time>
      </trkpt>
      <trkpt lat="47.83832" lon="7.05099">
        <ele>461.57</ele>
        <time>2022-07-31T08:02:24Z</time>
      </trkpt>
      <trkpt lat="47.83834" lon="7.05106">
        <ele>461.09</ele>
        <time>2022-07-31T08:02:25Z</time>
      </trkpt>
      <trkpt lat="47.83836" lon="7.05114">
        <ele>460.61</ele>
        <time>2022-07-31T08:02:26Z</time>
      </trkpt>
      <trkpt lat="47.83838" lon="7.05123">
        <ele>460.13</ele>
        <time>2022-07-31T08:02:27Z</time>
      </trkpt>
      <trkpt lat="47.83842" lon="7.05131">
        <ele>459.17</ele>
        <time>2022-07-31T08:02:28Z</time>
      </trkpt>
      <trkpt lat="47.83846" lon="7.05139">
        <ele>458.69</ele>
        <time>2022-07-31T08:02:29Z</time>
      </trkpt>
      <trkpt lat="47.83852" lon="7.05148">
        <ele>458.21</ele>
        <time>2022-07-31T08:02:30Z</time>
      </trkpt>
      <trkpt lat="47.83861" lon="7.05169">
        <ele>457.24</ele>
        <time>2022-07-31T08:02:32Z</time>
      </trkpt>
      <trkpt lat="47.83865" lon="7.05178">
        <ele>456.76</ele>
        <time>2022-07-31T08:02:33Z</time>
      </trkpt>
      <trkpt lat="47.83888" lon="7.05227">
        <ele>455.32</ele>
        <time>2022-07-31T08:02:38Z</time>
      </trkpt>
      <trkpt lat="47.83893" lon="7.05237">
        <ele>454.84</ele>
        <time>2022-07-31T08:02:39Z</time>
      </trkpt>
      <trkpt lat="47.83923" lon="7.05288">
        <ele>451.48</ele>
        <time>2022-07-31T08:02:45Z</time>
      </trkpt>
      <trkpt lat="47.83937" lon="7.05313">
        <ele>450.52</ele>
        <time>2022-07-31T08:02:48Z</time>
      </trkpt>
      <trkpt lat="47.83942" lon="7.05321">
        <ele>449.55</ele>
        <time>2022-07-31T08:02:49Z</time>
      </trkpt>
      <trkpt lat="47.83969" lon="7.05358">
        <ele>445.71</ele>
        <time>2022-07-31T08:02:54Z</time>
      </trkpt>
      <trkpt lat="47.83981" lon="7.05375">
        <ele>444.27</ele>
        <time>2022-07-31T08:02:56Z</time>
      </trkpt>
      <trkpt lat="47.84004" lon="7.05411">
        <ele>440.9</ele>
        <time>2022-07-31T08:03:00Z</time>
      </trkpt>
      <trkpt lat="47.84049" lon="7.05464">
        <ele>437.54</ele>
        <time>2022-07-31T08:03:06Z</time>
      </trkpt>
      <trkpt lat="47.84077" lon="7.05496">
        <ele>435.61</ele>
        <time>2022-07-31T08:03:10Z</time>
      </trkpt>
      <trkpt lat="47.84087" lon="7.0551">
        <ele>434.65</ele>
        <time>2022-07-31T08:03:12Z</time>
      </trkpt>
      <trkpt lat="47.84092" lon="7.05517">
        <ele>434.17</ele>
        <time>2022-07-31T08:03:13Z</time>
      </trkpt>
      <trkpt lat="47.84115" lon="7.05554">
        <ele>432.73</ele>
        <time>2022-07-31T08:03:19Z</time>
      </trkpt>
      <trkpt lat="47.84118" lon="7.05561">
        <ele>432.73</ele>
        <time>2022-07-31T08:03:20Z</time>
      </trkpt>
      <trkpt lat="47.8412" lon="7.05569">
        <ele>432.73</ele>
        <time>2022-07-31T08:03:21Z</time>
      </trkpt>
      <trkpt lat="47.84125" lon="7.05596">
        <ele>431.77</ele>
        <time>2022-07-31T08:03:25Z</time>
      </trkpt>
      <trkpt lat="47.84131" lon="7.05624">
        <ele>430.81</ele>
        <time>2022-07-31T08:03:29Z</time>
      </trkpt>
      <trkpt lat="47.84132" lon="7.05632">
        <ele>430.81</ele>
        <time>2022-07-31T08:03:30Z</time>
      </trkpt>
      <trkpt lat="47.84134" lon="7.05639">
        <ele>430.81</ele>
        <time>2022-07-31T08:03:31Z</time>
      </trkpt>
      <trkpt lat="47.84136" lon="7.05645">
        <ele>430.33</ele>
        <time>2022-07-31T08:03:32Z</time>
      </trkpt>
      <trkpt lat="47.84136" lon="7.05652">
        <ele>430.33</ele>
        <time>2022-07-31T08:03:33Z</time>
      </trkpt>
      <trkpt lat="47.84137" lon="7.05658">
        <ele>430.33</ele>
        <time>2022-07-31T08:03:34Z</time>
      </trkpt>
      <trkpt lat="47.84139" lon="7.05664">
        <ele>429.85</ele>
        <time>2022-07-31T08:03:35Z</time>
      </trkpt>
      <trkpt lat="47.8414" lon="7.05669">
        <ele>429.85</ele>
        <time>2022-07-31T08:03:36Z</time>
      </trkpt>
      <trkpt lat="47.84141" lon="7.05676">
        <ele>429.85</ele>
        <time>2022-07-31T08:03:37Z</time>
      </trkpt>
      <trkpt lat="47.84141" lon="7.05684">
        <ele>429.85</ele>
        <time>2022-07-31T08:03:38Z</time>
      </trkpt>
      <trkpt lat="47.8414" lon="7.05692">
        <ele>429.37</ele>
        <time>2022-07-31T08:03:39Z</time>
      </trkpt>
      <trkpt lat="47.84139" lon="7.05699">
        <ele>429.37</ele>
        <time>2022-07-31T08:03:40Z</time>
      </trkpt>
      <trkpt lat="47.84138" lon="7.05706">
        <ele>429.37</ele>
        <time>2022-07-31T08:03:41Z</time>
      </trkpt>
      <trkpt lat="47.84137" lon="7.05713">
        <ele>429.37</ele>
        <time>2022-07-31T08:03:42Z</time>
      </trkpt>
      <trkpt lat="47.84137" lon="7.0572">
        <ele>428.89</ele>
        <time>2022-07-31T08:03:43Z</time>
      </trkpt>
      <trkpt lat="47.84137" lon="7.05727">
        <ele>428.89</ele>
        <time>2022-07-31T08:03:44Z</time>
      </trkpt>
      <trkpt lat="47.84137" lon="7.05735">
        <ele>428.89</ele>
        <time>2022-07-31T08:03:45Z</time>
      </trkpt>
      <trkpt lat="47.84138" lon="7.05749">
        <ele>427.92</ele>
        <time>2022-07-31T08:03:47Z</time>
      </trkpt>
      <trkpt lat="47.84138" lon="7.05756">
        <ele>427.92</ele>
        <time>2022-07-31T08:03:48Z</time>
      </trkpt>
      <trkpt lat="47.84138" lon="7.05762">
        <ele>427.92</ele>
        <time>2022-07-31T08:03:49Z</time>
      </trkpt>
      <trkpt lat="47.84138" lon="7.05768">
        <ele>426.96</ele>
        <time>2022-07-31T08:03:50Z</time>
      </trkpt>
      <trkpt lat="47.84139" lon="7.05775">
        <ele>426.96</ele>
        <time>2022-07-31T08:03:51Z</time>
      </trkpt>
      <trkpt lat="47.84139" lon="7.05781">
        <ele>426.48</ele>
        <time>2022-07-31T08:03:52Z</time>
      </trkpt>
      <trkpt lat="47.84139" lon="7.05789">
        <ele>426</ele>
        <time>2022-07-31T08:03:53Z</time>
      </trkpt>
      <trkpt lat="47.84138" lon="7.05797">
        <ele>426</ele>
        <time>2022-07-31T08:03:54Z</time>
      </trkpt>
      <trkpt lat="47.84129" lon="7.05855">
        <ele>423.6</ele>
        <time>2022-07-31T08:04:02Z</time>
      </trkpt>
      <trkpt lat="47.84128" lon="7.05862">
        <ele>423.12</ele>
        <time>2022-07-31T08:04:03Z</time>
      </trkpt>
      <trkpt lat="47.84125" lon="7.05881">
        <ele>422.16</ele>
        <time>2022-07-31T08:04:06Z</time>
      </trkpt>
      <trkpt lat="47.84124" lon="7.059">
        <ele>421.68</ele>
        <time>2022-07-31T08:04:09Z</time>
      </trkpt>
      <trkpt lat="47.84125" lon="7.05913">
        <ele>421.19</ele>
        <time>2022-07-31T08:04:11Z</time>
      </trkpt>
      <trkpt lat="47.84125" lon="7.05919">
        <ele>421.19</ele>
        <time>2022-07-31T08:04:12Z</time>
      </trkpt>
      <trkpt lat="47.84125" lon="7.05926">
        <ele>421.19</ele>
        <time>2022-07-31T08:04:13Z</time>
      </trkpt>
      <trkpt lat="47.84114" lon="7.06022">
        <ele>417.83</ele>
        <time>2022-07-31T08:04:27Z</time>
      </trkpt>
      <trkpt lat="47.84107" lon="7.06067">
        <ele>416.39</ele>
        <time>2022-07-31T08:04:35Z</time>
      </trkpt>
      <trkpt lat="47.84106" lon="7.06073">
        <ele>416.39</ele>
        <time>2022-07-31T08:04:36Z</time>
      </trkpt>
      <trkpt lat="47.84105" lon="7.06079">
        <ele>415.91</ele>
        <time>2022-07-31T08:04:37Z</time>
      </trkpt>
      <trkpt lat="47.84101" lon="7.06099">
        <ele>415.43</ele>
        <time>2022-07-31T08:04:40Z</time>
      </trkpt>
      <trkpt lat="47.84094" lon="7.06157">
        <ele>413.5</ele>
        <time>2022-07-31T08:04:51Z</time>
      </trkpt>
      <trkpt lat="47.84092" lon="7.0619">
        <ele>412.06</ele>
        <time>2022-07-31T08:04:56Z</time>
      </trkpt>
      <trkpt lat="47.84095" lon="7.06257">
        <ele>410.14</ele>
        <time>2022-07-31T08:05:05Z</time>
      </trkpt>
      <trkpt lat="47.84097" lon="7.06271">
        <ele>409.66</ele>
        <time>2022-07-31T08:05:07Z</time>
      </trkpt>
      <trkpt lat="47.84108" lon="7.06361">
        <ele>406.29</ele>
        <time>2022-07-31T08:05:19Z</time>
      </trkpt>
      <trkpt lat="47.84115" lon="7.06388">
        <ele>405.33</ele>
        <time>2022-07-31T08:05:23Z</time>
      </trkpt>
      <trkpt lat="47.84117" lon="7.06394">
        <ele>404.85</ele>
        <time>2022-07-31T08:05:24Z</time>
      </trkpt>
      <trkpt lat="47.84119" lon="7.064">
        <ele>404.85</ele>
        <time>2022-07-31T08:05:25Z</time>
      </trkpt>
      <trkpt lat="47.84151" lon="7.06483">
        <ele>401.01</ele>
        <time>2022-07-31T08:05:37Z</time>
      </trkpt>
      <trkpt lat="47.84196" lon="7.06565">
        <ele>398.6</ele>
        <time>2022-07-31T08:05:50Z</time>
      </trkpt>
      <trkpt lat="47.84221" lon="7.06603">
        <ele>397.64</ele>
        <time>2022-07-31T08:05:57Z</time>
      </trkpt>
      <trkpt lat="47.84237" lon="7.06628">
        <ele>397.16</ele>
        <time>2022-07-31T08:06:02Z</time>
      </trkpt>
      <trkpt lat="47.84243" lon="7.06637">
        <ele>397.16</ele>
        <time>2022-07-31T08:06:04Z</time>
      </trkpt>
      <trkpt lat="47.84256" lon="7.06662">
        <ele>396.2</ele>
        <time>2022-07-31T08:06:09Z</time>
      </trkpt>
      <trkpt lat="47.84259" lon="7.06667">
        <ele>396.2</ele>
        <time>2022-07-31T08:06:10Z</time>
      </trkpt>
      <trkpt lat="47.84262" lon="7.06672">
        <ele>396.2</ele>
        <time>2022-07-31T08:06:11Z</time>
      </trkpt>
      <trkpt lat="47.84305" lon="7.06739">
        <ele>393.32</ele>
        <time>2022-07-31T08:06:22Z</time>
      </trkpt>
      <trkpt lat="47.84318" lon="7.06761">
        <ele>392.36</ele>
        <time>2022-07-31T08:06:26Z</time>
      </trkpt>
      <trkpt lat="47.84323" lon="7.0677">
        <ele>391.87</ele>
        <time>2022-07-31T08:06:28Z</time>
      </trkpt>
      <trkpt lat="47.84349" lon="7.06806">
        <ele>389.47</ele>
        <time>2022-07-31T08:06:37Z</time>
      </trkpt>
      <trkpt lat="47.84353" lon="7.06807">
        <ele>389.47</ele>
        <time>2022-07-31T08:06:38Z</time>
      </trkpt>
      <trkpt lat="47.84357" lon="7.06806">
        <ele>388.99</ele>
        <time>2022-07-31T08:06:39Z</time>
      </trkpt>
      <trkpt lat="47.8436" lon="7.06804">
        <ele>388.99</ele>
        <time>2022-07-31T08:06:40Z</time>
      </trkpt>
      <trkpt lat="47.84363" lon="7.068">
        <ele>388.99</ele>
        <time>2022-07-31T08:06:41Z</time>
      </trkpt>
      <trkpt lat="47.84399" lon="7.06762">
        <ele>391.87</ele>
        <time>2022-07-31T08:06:54Z</time>
      </trkpt>
      <trkpt lat="47.84421" lon="7.06738">
        <ele>390.91</ele>
        <time>2022-07-31T08:07:07Z</time>
      </trkpt>
      <trkpt lat="47.84422" lon="7.06739">
        <ele>390.91</ele>
        <time>2022-07-31T08:07:40Z</time>
      </trkpt>
      <trkpt lat="47.84422" lon="7.06739">
        <ele>390.91</ele>
        <time>2022-07-31T08:08:16Z</time>
      </trkpt>
      <trkpt lat="47.84423" lon="7.06739">
        <ele>391.39</ele>
        <time>2022-07-31T08:08:37Z</time>
      </trkpt>
      <trkpt lat="47.84423" lon="7.06739">
        <ele>390.91</ele>
        <time>2022-07-31T08:08:43Z</time>
      </trkpt>
      <trkpt lat="47.84428" lon="7.06733">
        <ele>390.91</ele>
        <time>2022-07-31T08:08:46Z</time>
      </trkpt>
      <trkpt lat="47.8443" lon="7.06731">
        <ele>390.91</ele>
        <time>2022-07-31T08:08:47Z</time>
      </trkpt>
      <trkpt lat="47.84432" lon="7.06728">
        <ele>390.91</ele>
        <time>2022-07-31T08:08:48Z</time>
      </trkpt>
      <trkpt lat="47.84435" lon="7.06725">
        <ele>390.91</ele>
        <time>2022-07-31T08:08:49Z</time>
      </trkpt>
      <trkpt lat="47.84437" lon="7.06722">
        <ele>390.91</ele>
        <time>2022-07-31T08:08:50Z</time>
      </trkpt>
      <trkpt lat="47.84484" lon="7.06661">
        <ele>390.43</ele>
        <time>2022-07-31T08:09:04Z</time>
      </trkpt>
      <trkpt lat="47.84544" lon="7.06601">
        <ele>391.39</ele>
        <time>2022-07-31T08:09:19Z</time>
      </trkpt>
      <trkpt lat="47.84593" lon="7.06556">
        <ele>390.43</ele>
        <time>2022-07-31T08:09:29Z</time>
      </trkpt>
      <trkpt lat="47.8467" lon="7.06489">
        <ele>391.39</ele>
        <time>2022-07-31T08:09:46Z</time>
      </trkpt>
      <trkpt lat="47.84733" lon="7.06432">
        <ele>391.87</ele>
        <time>2022-07-31T08:10:02Z</time>
      </trkpt>
      <trkpt lat="47.84737" lon="7.06428">
        <ele>391.39</ele>
        <time>2022-07-31T08:10:03Z</time>
      </trkpt>
      <trkpt lat="47.8475" lon="7.0641">
        <ele>391.87</ele>
        <time>2022-07-31T08:10:07Z</time>
      </trkpt>
      <trkpt lat="47.84753" lon="7.06404">
        <ele>391.87</ele>
        <time>2022-07-31T08:10:08Z</time>
      </trkpt>
      <trkpt lat="47.84755" lon="7.06398">
        <ele>391.87</ele>
        <time>2022-07-31T08:10:09Z</time>
      </trkpt>
      <trkpt lat="47.848" lon="7.06297">
        <ele>392.36</ele>
        <time>2022-07-31T08:10:25Z</time>
      </trkpt>
      <trkpt lat="47.84803" lon="7.06291">
        <ele>392.36</ele>
        <time>2022-07-31T08:10:26Z</time>
      </trkpt>
      <trkpt lat="47.84807" lon="7.06287">
        <ele>392.36</ele>
        <time>2022-07-31T08:10:27Z</time>
      </trkpt>
      <trkpt lat="47.84843" lon="7.06247">
        <ele>392.84</ele>
        <time>2022-07-31T08:10:36Z</time>
      </trkpt>
      <trkpt lat="47.84859" lon="7.06233">
        <ele>393.8</ele>
        <time>2022-07-31T08:10:40Z</time>
      </trkpt>
      <trkpt lat="47.84878" lon="7.0621">
        <ele>394.28</ele>
        <time>2022-07-31T08:10:45Z</time>
      </trkpt>
      <trkpt lat="47.8491" lon="7.06176">
        <ele>395.72</ele>
        <time>2022-07-31T08:10:53Z</time>
      </trkpt>
      <trkpt lat="47.84913" lon="7.06171">
        <ele>395.72</ele>
        <time>2022-07-31T08:10:54Z</time>
      </trkpt>
      <trkpt lat="47.84916" lon="7.06166">
        <ele>395.72</ele>
        <time>2022-07-31T08:10:55Z</time>
      </trkpt>
      <trkpt lat="47.84918" lon="7.0616">
        <ele>396.2</ele>
        <time>2022-07-31T08:10:56Z</time>
      </trkpt>
      <trkpt lat="47.8492" lon="7.06154">
        <ele>398.12</ele>
        <time>2022-07-31T08:10:57Z</time>
      </trkpt>
      <trkpt lat="47.84922" lon="7.06147">
        <ele>396.68</ele>
        <time>2022-07-31T08:10:58Z</time>
      </trkpt>
      <trkpt lat="47.84923" lon="7.06141">
        <ele>396.68</ele>
        <time>2022-07-31T08:10:59Z</time>
      </trkpt>
      <trkpt lat="47.84923" lon="7.06134">
        <ele>396.68</ele>
        <time>2022-07-31T08:11:00Z</time>
      </trkpt>
      <trkpt lat="47.84923" lon="7.0608">
        <ele>398.12</ele>
        <time>2022-07-31T08:11:08Z</time>
      </trkpt>
      <trkpt lat="47.8492" lon="7.06048">
        <ele>399.08</ele>
        <time>2022-07-31T08:11:13Z</time>
      </trkpt>
      <trkpt lat="47.84919" lon="7.06021">
        <ele>400.05</ele>
        <time>2022-07-31T08:11:17Z</time>
      </trkpt>
      <trkpt lat="47.84915" lon="7.05916">
        <ele>403.41</ele>
        <time>2022-07-31T08:11:32Z</time>
      </trkpt>
      <trkpt lat="47.84914" lon="7.05909">
        <ele>403.41</ele>
        <time>2022-07-31T08:11:33Z</time>
      </trkpt>
      <trkpt lat="47.84914" lon="7.05848">
        <ele>404.85</ele>
        <time>2022-07-31T08:11:42Z</time>
      </trkpt>
      <trkpt lat="47.8494" lon="7.05752">
        <ele>407.74</ele>
        <time>2022-07-31T08:11:56Z</time>
      </trkpt>
      <trkpt lat="47.84998" lon="7.0563">
        <ele>409.66</ele>
        <time>2022-07-31T08:12:16Z</time>
      </trkpt>
      <trkpt lat="47.85002" lon="7.05625">
        <ele>409.66</ele>
        <time>2022-07-31T08:12:17Z</time>
      </trkpt>
      <trkpt lat="47.85083" lon="7.05539">
        <ele>408.22</ele>
        <time>2022-07-31T08:12:35Z</time>
      </trkpt>
      <trkpt lat="47.85096" lon="7.05525">
        <ele>408.22</ele>
        <time>2022-07-31T08:12:38Z</time>
      </trkpt>
      <trkpt lat="47.851" lon="7.0552">
        <ele>408.22</ele>
        <time>2022-07-31T08:12:39Z</time>
      </trkpt>
      <trkpt lat="47.85133" lon="7.05482">
        <ele>408.7</ele>
        <time>2022-07-31T08:12:47Z</time>
      </trkpt>
      <trkpt lat="47.85203" lon="7.05373">
        <ele>408.7</ele>
        <time>2022-07-31T08:13:06Z</time>
      </trkpt>
      <trkpt lat="47.85222" lon="7.05352">
        <ele>408.22</ele>
        <time>2022-07-31T08:13:11Z</time>
      </trkpt>
      <trkpt lat="47.85251" lon="7.05322">
        <ele>407.74</ele>
        <time>2022-07-31T08:13:18Z</time>
      </trkpt>
      <trkpt lat="47.8531" lon="7.05243">
        <ele>405.81</ele>
        <time>2022-07-31T08:13:32Z</time>
      </trkpt>
      <trkpt lat="47.85327" lon="7.05228">
        <ele>403.89</ele>
        <time>2022-07-31T08:13:35Z</time>
      </trkpt>
      <trkpt lat="47.8534" lon="7.0522">
        <ele>403.41</ele>
        <time>2022-07-31T08:13:37Z</time>
      </trkpt>
      <trkpt lat="47.85345" lon="7.05215">
        <ele>402.93</ele>
        <time>2022-07-31T08:13:38Z</time>
      </trkpt>
      <trkpt lat="47.85351" lon="7.05209">
        <ele>402.45</ele>
        <time>2022-07-31T08:13:39Z</time>
      </trkpt>
      <trkpt lat="47.85361" lon="7.05197">
        <ele>402.45</ele>
        <time>2022-07-31T08:13:41Z</time>
      </trkpt>
      <trkpt lat="47.85403" lon="7.05131">
        <ele>402.45</ele>
        <time>2022-07-31T08:13:52Z</time>
      </trkpt>
      <trkpt lat="47.85407" lon="7.05126">
        <ele>402.45</ele>
        <time>2022-07-31T08:13:53Z</time>
      </trkpt>
      <trkpt lat="47.8546" lon="7.05043">
        <ele>402.93</ele>
        <time>2022-07-31T08:14:08Z</time>
      </trkpt>
      <trkpt lat="47.85473" lon="7.05023">
        <ele>403.41</ele>
        <time>2022-07-31T08:14:12Z</time>
      </trkpt>
      <trkpt lat="47.85476" lon="7.05019">
        <ele>403.41</ele>
        <time>2022-07-31T08:14:13Z</time>
      </trkpt>
      <trkpt lat="47.85479" lon="7.05014">
        <ele>403.41</ele>
        <time>2022-07-31T08:14:14Z</time>
      </trkpt>
      <trkpt lat="47.85488" lon="7.04999">
        <ele>403.89</ele>
        <time>2022-07-31T08:14:17Z</time>
      </trkpt>
      <trkpt lat="47.85544" lon="7.04937">
        <ele>403.89</ele>
        <time>2022-07-31T08:14:31Z</time>
      </trkpt>
      <trkpt lat="47.85551" lon="7.04928">
        <ele>403.89</ele>
        <time>2022-07-31T08:14:33Z</time>
      </trkpt>
      <trkpt lat="47.85583" lon="7.04877">
        <ele>404.85</ele>
        <time>2022-07-31T08:14:43Z</time>
      </trkpt>
      <trkpt lat="47.85654" lon="7.04826">
        <ele>406.29</ele>
        <time>2022-07-31T08:14:59Z</time>
      </trkpt>
      <trkpt lat="47.85686" lon="7.04808">
        <ele>404.85</ele>
        <time>2022-07-31T08:15:06Z</time>
      </trkpt>
      <trkpt lat="47.85691" lon="7.04806">
        <ele>405.33</ele>
        <time>2022-07-31T08:15:07Z</time>
      </trkpt>
      <trkpt lat="47.85696" lon="7.04804">
        <ele>404.85</ele>
        <time>2022-07-31T08:15:08Z</time>
      </trkpt>
      <trkpt lat="47.85716" lon="7.04791">
        <ele>404.85</ele>
        <time>2022-07-31T08:15:12Z</time>
      </trkpt>
      <trkpt lat="47.85721" lon="7.04787">
        <ele>404.85</ele>
        <time>2022-07-31T08:15:13Z</time>
      </trkpt>
      <trkpt lat="47.85771" lon="7.0474">
        <ele>403.89</ele>
        <time>2022-07-31T08:15:24Z</time>
      </trkpt>
      <trkpt lat="47.85775" lon="7.04735">
        <ele>403.89</ele>
        <time>2022-07-31T08:15:25Z</time>
      </trkpt>
      <trkpt lat="47.85779" lon="7.04729">
        <ele>403.41</ele>
        <time>2022-07-31T08:15:26Z</time>
      </trkpt>
      <trkpt lat="47.85782" lon="7.04722">
        <ele>403.41</ele>
        <time>2022-07-31T08:15:27Z</time>
      </trkpt>
      <trkpt lat="47.85785" lon="7.04715">
        <ele>402.93</ele>
        <time>2022-07-31T08:15:28Z</time>
      </trkpt>
      <trkpt lat="47.85794" lon="7.0469">
        <ele>401.97</ele>
        <time>2022-07-31T08:15:31Z</time>
      </trkpt>
      <trkpt lat="47.85802" lon="7.04653">
        <ele>401.97</ele>
        <time>2022-07-31T08:15:36Z</time>
      </trkpt>
      <trkpt lat="47.85803" lon="7.04639">
        <ele>401.97</ele>
        <time>2022-07-31T08:15:38Z</time>
      </trkpt>
      <trkpt lat="47.85805" lon="7.04616">
        <ele>401.97</ele>
        <time>2022-07-31T08:15:41Z</time>
      </trkpt>
      <trkpt lat="47.85807" lon="7.04608">
        <ele>401.97</ele>
        <time>2022-07-31T08:15:42Z</time>
      </trkpt>
      <trkpt lat="47.8581" lon="7.04601">
        <ele>401.97</ele>
        <time>2022-07-31T08:15:43Z</time>
      </trkpt>
      <trkpt lat="47.85846" lon="7.04503">
        <ele>402.45</ele>
        <time>2022-07-31T08:15:57Z</time>
      </trkpt>
      <trkpt lat="47.85884" lon="7.04384">
        <ele>403.41</ele>
        <time>2022-07-31T08:16:14Z</time>
      </trkpt>
      <trkpt lat="47.859" lon="7.04332">
        <ele>403.41</ele>
        <time>2022-07-31T08:16:21Z</time>
      </trkpt>
      <trkpt lat="47.85908" lon="7.04312">
        <ele>403.89</ele>
        <time>2022-07-31T08:16:24Z</time>
      </trkpt>
      <trkpt lat="47.85912" lon="7.04305">
        <ele>403.89</ele>
        <time>2022-07-31T08:16:25Z</time>
      </trkpt>
      <trkpt lat="47.85916" lon="7.043">
        <ele>403.41</ele>
        <time>2022-07-31T08:16:26Z</time>
      </trkpt>
      <trkpt lat="47.85921" lon="7.04295">
        <ele>403.41</ele>
        <time>2022-07-31T08:16:27Z</time>
      </trkpt>
      <trkpt lat="47.85926" lon="7.0429">
        <ele>403.41</ele>
        <time>2022-07-31T08:16:28Z</time>
      </trkpt>
      <trkpt lat="47.8593" lon="7.04285">
        <ele>403.41</ele>
        <time>2022-07-31T08:16:29Z</time>
      </trkpt>
      <trkpt lat="47.85934" lon="7.04279">
        <ele>403.89</ele>
        <time>2022-07-31T08:16:30Z</time>
      </trkpt>
      <trkpt lat="47.85949" lon="7.04257">
        <ele>403.89</ele>
        <time>2022-07-31T08:16:34Z</time>
      </trkpt>
      <trkpt lat="47.85953" lon="7.04251">
        <ele>403.89</ele>
        <time>2022-07-31T08:16:35Z</time>
      </trkpt>
      <trkpt lat="47.85956" lon="7.04244">
        <ele>403.89</ele>
        <time>2022-07-31T08:16:36Z</time>
      </trkpt>
      <trkpt lat="47.85965" lon="7.04214">
        <ele>403.89</ele>
        <time>2022-07-31T08:16:40Z</time>
      </trkpt>
      <trkpt lat="47.86003" lon="7.04074">
        <ele>404.37</ele>
        <time>2022-07-31T08:16:58Z</time>
      </trkpt>
      <trkpt lat="47.86028" lon="7.03991">
        <ele>405.33</ele>
        <time>2022-07-31T08:17:10Z</time>
      </trkpt>
      <trkpt lat="47.86059" lon="7.03895">
        <ele>405.33</ele>
        <time>2022-07-31T08:17:24Z</time>
      </trkpt>
      <trkpt lat="47.86074" lon="7.03865">
        <ele>405.33</ele>
        <time>2022-07-31T08:17:29Z</time>
      </trkpt>
      <trkpt lat="47.86077" lon="7.0386">
        <ele>405.81</ele>
        <time>2022-07-31T08:17:30Z</time>
      </trkpt>
      <trkpt lat="47.86124" lon="7.03793">
        <ele>405.81</ele>
        <time>2022-07-31T08:17:43Z</time>
      </trkpt>
      <trkpt lat="47.8613" lon="7.0378">
        <ele>405.81</ele>
        <time>2022-07-31T08:17:45Z</time>
      </trkpt>
      <trkpt lat="47.86138" lon="7.0376">
        <ele>406.29</ele>
        <time>2022-07-31T08:17:48Z</time>
      </trkpt>
      <trkpt lat="47.8615" lon="7.03716">
        <ele>406.29</ele>
        <time>2022-07-31T08:17:54Z</time>
      </trkpt>
      <trkpt lat="47.86158" lon="7.03696">
        <ele>406.77</ele>
        <time>2022-07-31T08:17:57Z</time>
      </trkpt>
      <trkpt lat="47.86161" lon="7.0369">
        <ele>406.77</ele>
        <time>2022-07-31T08:17:58Z</time>
      </trkpt>
      <trkpt lat="47.86188" lon="7.03655">
        <ele>406.77</ele>
        <time>2022-07-31T08:18:05Z</time>
      </trkpt>
      <trkpt lat="47.86207" lon="7.03641">
        <ele>407.26</ele>
        <time>2022-07-31T08:18:09Z</time>
      </trkpt>
      <trkpt lat="47.86212" lon="7.0364">
        <ele>407.26</ele>
        <time>2022-07-31T08:18:10Z</time>
      </trkpt>
      <trkpt lat="47.86218" lon="7.03638">
        <ele>407.26</ele>
        <time>2022-07-31T08:18:11Z</time>
      </trkpt>
      <trkpt lat="47.86245" lon="7.03637">
        <ele>407.26</ele>
        <time>2022-07-31T08:18:16Z</time>
      </trkpt>
      <trkpt lat="47.86261" lon="7.03639">
        <ele>407.74</ele>
        <time>2022-07-31T08:18:19Z</time>
      </trkpt>
      <trkpt lat="47.86266" lon="7.03638">
        <ele>407.74</ele>
        <time>2022-07-31T08:18:20Z</time>
      </trkpt>
      <trkpt lat="47.86272" lon="7.03637">
        <ele>407.74</ele>
        <time>2022-07-31T08:18:21Z</time>
      </trkpt>
      <trkpt lat="47.86277" lon="7.03636">
        <ele>407.74</ele>
        <time>2022-07-31T08:18:22Z</time>
      </trkpt>
      <trkpt lat="47.86281" lon="7.03633">
        <ele>407.74</ele>
        <time>2022-07-31T08:18:23Z</time>
      </trkpt>
      <trkpt lat="47.86286" lon="7.0363">
        <ele>407.74</ele>
        <time>2022-07-31T08:18:24Z</time>
      </trkpt>
      <trkpt lat="47.8629" lon="7.03628">
        <ele>407.74</ele>
        <time>2022-07-31T08:18:25Z</time>
      </trkpt>
      <trkpt lat="47.86322" lon="7.03616">
        <ele>408.22</ele>
        <time>2022-07-31T08:18:32Z</time>
      </trkpt>
      <trkpt lat="47.86327" lon="7.03613">
        <ele>408.22</ele>
        <time>2022-07-31T08:18:33Z</time>
      </trkpt>
      <trkpt lat="47.86361" lon="7.03587">
        <ele>408.22</ele>
        <time>2022-07-31T08:18:41Z</time>
      </trkpt>
      <trkpt lat="47.86401" lon="7.03555">
        <ele>409.18</ele>
        <time>2022-07-31T08:18:50Z</time>
      </trkpt>
      <trkpt lat="47.86405" lon="7.03551">
        <ele>409.18</ele>
        <time>2022-07-31T08:18:51Z</time>
      </trkpt>
      <trkpt lat="47.86452" lon="7.03507">
        <ele>410.62</ele>
        <time>2022-07-31T08:19:02Z</time>
      </trkpt>
      <trkpt lat="47.86456" lon="7.03504">
        <ele>410.62</ele>
        <time>2022-07-31T08:19:03Z</time>
      </trkpt>
      <trkpt lat="47.86461" lon="7.03501">
        <ele>410.62</ele>
        <time>2022-07-31T08:19:04Z</time>
      </trkpt>
      <trkpt lat="47.86519" lon="7.03477">
        <ele>411.58</ele>
        <time>2022-07-31T08:19:16Z</time>
      </trkpt>
      <trkpt lat="47.86524" lon="7.03477">
        <ele>411.58</ele>
        <time>2022-07-31T08:19:17Z</time>
      </trkpt>
      <trkpt lat="47.86529" lon="7.03476">
        <ele>412.06</ele>
        <time>2022-07-31T08:19:18Z</time>
      </trkpt>
      <trkpt lat="47.86557" lon="7.03475">
        <ele>412.54</ele>
        <time>2022-07-31T08:19:28Z</time>
      </trkpt>
      <trkpt lat="47.8657" lon="7.0348">
        <ele>412.06</ele>
        <time>2022-07-31T08:19:32Z</time>
      </trkpt>
      <trkpt lat="47.86574" lon="7.03481">
        <ele>412.06</ele>
        <time>2022-07-31T08:19:33Z</time>
      </trkpt>
      <trkpt lat="47.86578" lon="7.03481">
        <ele>412.06</ele>
        <time>2022-07-31T08:19:34Z</time>
      </trkpt>
      <trkpt lat="47.86596" lon="7.03479">
        <ele>411.58</ele>
        <time>2022-07-31T08:19:38Z</time>
      </trkpt>
      <trkpt lat="47.86601" lon="7.03475">
        <ele>411.58</ele>
        <time>2022-07-31T08:19:39Z</time>
      </trkpt>
      <trkpt lat="47.86636" lon="7.0343">
        <ele>410.14</ele>
        <time>2022-07-31T08:19:48Z</time>
      </trkpt>
      <trkpt lat="47.8664" lon="7.03424">
        <ele>410.14</ele>
        <time>2022-07-31T08:19:49Z</time>
      </trkpt>
      <trkpt lat="47.86645" lon="7.03419">
        <ele>410.14</ele>
        <time>2022-07-31T08:19:50Z</time>
      </trkpt>
      <trkpt lat="47.86663" lon="7.03401">
        <ele>410.14</ele>
        <time>2022-07-31T08:19:54Z</time>
      </trkpt>
      <trkpt lat="47.86669" lon="7.03398">
        <ele>410.14</ele>
        <time>2022-07-31T08:19:55Z</time>
      </trkpt>
      <trkpt lat="47.86674" lon="7.03395">
        <ele>409.66</ele>
        <time>2022-07-31T08:19:56Z</time>
      </trkpt>
      <trkpt lat="47.86679" lon="7.03391">
        <ele>410.14</ele>
        <time>2022-07-31T08:19:57Z</time>
      </trkpt>
      <trkpt lat="47.86683" lon="7.03386">
        <ele>410.14</ele>
        <time>2022-07-31T08:19:58Z</time>
      </trkpt>
      <trkpt lat="47.86686" lon="7.03381">
        <ele>410.14</ele>
        <time>2022-07-31T08:19:59Z</time>
      </trkpt>
      <trkpt lat="47.8669" lon="7.03375">
        <ele>410.14</ele>
        <time>2022-07-31T08:20:00Z</time>
      </trkpt>
      <trkpt lat="47.86693" lon="7.03369">
        <ele>410.14</ele>
        <time>2022-07-31T08:20:01Z</time>
      </trkpt>
      <trkpt lat="47.86743" lon="7.03282">
        <ele>411.58</ele>
        <time>2022-07-31T08:20:16Z</time>
      </trkpt>
      <trkpt lat="47.86757" lon="7.03259">
        <ele>411.58</ele>
        <time>2022-07-31T08:20:20Z</time>
      </trkpt>
      <trkpt lat="47.8676" lon="7.03252">
        <ele>411.58</ele>
        <time>2022-07-31T08:20:21Z</time>
      </trkpt>
      <trkpt lat="47.86762" lon="7.03245">
        <ele>411.58</ele>
        <time>2022-07-31T08:20:22Z</time>
      </trkpt>
      <trkpt lat="47.86768" lon="7.03222">
        <ele>411.58</ele>
        <time>2022-07-31T08:20:25Z</time>
      </trkpt>
      <trkpt lat="47.86771" lon="7.03216">
        <ele>411.58</ele>
        <time>2022-07-31T08:20:26Z</time>
      </trkpt>
      <trkpt lat="47.86774" lon="7.0321">
        <ele>412.06</ele>
        <time>2022-07-31T08:20:27Z</time>
      </trkpt>
      <trkpt lat="47.86785" lon="7.03189">
        <ele>411.58</ele>
        <time>2022-07-31T08:20:31Z</time>
      </trkpt>
      <trkpt lat="47.86788" lon="7.03184">
        <ele>412.06</ele>
        <time>2022-07-31T08:20:32Z</time>
      </trkpt>
      <trkpt lat="47.86792" lon="7.03178">
        <ele>412.06</ele>
        <time>2022-07-31T08:20:33Z</time>
      </trkpt>
      <trkpt lat="47.86795" lon="7.03172">
        <ele>411.58</ele>
        <time>2022-07-31T08:20:34Z</time>
      </trkpt>
      <trkpt lat="47.86798" lon="7.03164">
        <ele>411.58</ele>
        <time>2022-07-31T08:20:35Z</time>
      </trkpt>
      <trkpt lat="47.86801" lon="7.03156">
        <ele>411.58</ele>
        <time>2022-07-31T08:20:36Z</time>
      </trkpt>
      <trkpt lat="47.86812" lon="7.03118">
        <ele>411.58</ele>
        <time>2022-07-31T08:20:41Z</time>
      </trkpt>
      <trkpt lat="47.86815" lon="7.03111">
        <ele>411.58</ele>
        <time>2022-07-31T08:20:42Z</time>
      </trkpt>
      <trkpt lat="47.8682" lon="7.03099">
        <ele>412.06</ele>
        <time>2022-07-31T08:20:44Z</time>
      </trkpt>
      <trkpt lat="47.86823" lon="7.03093">
        <ele>412.06</ele>
        <time>2022-07-31T08:20:45Z</time>
      </trkpt>
      <trkpt lat="47.86825" lon="7.03088">
        <ele>412.06</ele>
        <time>2022-07-31T08:20:46Z</time>
      </trkpt>
      <trkpt lat="47.86827" lon="7.03082">
        <ele>412.06</ele>
        <time>2022-07-31T08:20:47Z</time>
      </trkpt>
      <trkpt lat="47.86828" lon="7.03076">
        <ele>412.54</ele>
        <time>2022-07-31T08:20:48Z</time>
      </trkpt>
      <trkpt lat="47.86828" lon="7.03069">
        <ele>412.54</ele>
        <time>2022-07-31T08:20:49Z</time>
      </trkpt>
      <trkpt lat="47.86827" lon="7.03061">
        <ele>412.54</ele>
        <time>2022-07-31T08:20:50Z</time>
      </trkpt>
      <trkpt lat="47.86827" lon="7.03054">
        <ele>413.02</ele>
        <time>2022-07-31T08:20:51Z</time>
      </trkpt>
      <trkpt lat="47.86828" lon="7.03046">
        <ele>413.02</ele>
        <time>2022-07-31T08:20:52Z</time>
      </trkpt>
      <trkpt lat="47.86829" lon="7.03038">
        <ele>413.02</ele>
        <time>2022-07-31T08:20:53Z</time>
      </trkpt>
      <trkpt lat="47.86834" lon="7.02984">
        <ele>413.5</ele>
        <time>2022-07-31T08:21:01Z</time>
      </trkpt>
      <trkpt lat="47.86835" lon="7.02977">
        <ele>413.98</ele>
        <time>2022-07-31T08:21:02Z</time>
      </trkpt>
      <trkpt lat="47.86835" lon="7.02969">
        <ele>415.43</ele>
        <time>2022-07-31T08:21:03Z</time>
      </trkpt>
      <trkpt lat="47.86836" lon="7.02961">
        <ele>413.98</ele>
        <time>2022-07-31T08:21:04Z</time>
      </trkpt>
      <trkpt lat="47.86837" lon="7.02953">
        <ele>413.98</ele>
        <time>2022-07-31T08:21:05Z</time>
      </trkpt>
      <trkpt lat="47.86838" lon="7.02946">
        <ele>413.98</ele>
        <time>2022-07-31T08:21:06Z</time>
      </trkpt>
      <trkpt lat="47.86841" lon="7.02939">
        <ele>413.98</ele>
        <time>2022-07-31T08:21:07Z</time>
      </trkpt>
      <trkpt lat="47.86858" lon="7.0287">
        <ele>413.98</ele>
        <time>2022-07-31T08:21:16Z</time>
      </trkpt>
      <trkpt lat="47.8686" lon="7.02863">
        <ele>413.98</ele>
        <time>2022-07-31T08:21:17Z</time>
      </trkpt>
      <trkpt lat="47.86869" lon="7.02841">
        <ele>413.98</ele>
        <time>2022-07-31T08:21:20Z</time>
      </trkpt>
      <trkpt lat="47.86875" lon="7.02827">
        <ele>413.98</ele>
        <time>2022-07-31T08:21:22Z</time>
      </trkpt>
      <trkpt lat="47.86914" lon="7.02756">
        <ele>413.5</ele>
        <time>2022-07-31T08:21:33Z</time>
      </trkpt>
      <trkpt lat="47.86943" lon="7.02689">
        <ele>413.5</ele>
        <time>2022-07-31T08:21:42Z</time>
      </trkpt>
      <trkpt lat="47.86946" lon="7.02681">
        <ele>413.02</ele>
        <time>2022-07-31T08:21:43Z</time>
      </trkpt>
      <trkpt lat="47.87003" lon="7.02585">
        <ele>413.02</ele>
        <time>2022-07-31T08:21:57Z</time>
      </trkpt>
      <trkpt lat="47.87033" lon="7.02565">
        <ele>413.5</ele>
        <time>2022-07-31T08:22:03Z</time>
      </trkpt>
      <trkpt lat="47.87049" lon="7.02558">
        <ele>413.02</ele>
        <time>2022-07-31T08:22:06Z</time>
      </trkpt>
      <trkpt lat="47.87095" lon="7.02534">
        <ele>413.5</ele>
        <time>2022-07-31T08:22:15Z</time>
      </trkpt>
      <trkpt lat="47.8711" lon="7.02526">
        <ele>413.5</ele>
        <time>2022-07-31T08:22:18Z</time>
      </trkpt>
      <trkpt lat="47.8717" lon="7.02476">
        <ele>414.47</ele>
        <time>2022-07-31T08:22:31Z</time>
      </trkpt>
      <trkpt lat="47.87192" lon="7.02458">
        <ele>415.43</ele>
        <time>2022-07-31T08:22:36Z</time>
      </trkpt>
      <trkpt lat="47.87197" lon="7.02455">
        <ele>415.43</ele>
        <time>2022-07-31T08:22:37Z</time>
      </trkpt>
      <trkpt lat="47.87205" lon="7.02447">
        <ele>414.95</ele>
        <time>2022-07-31T08:22:39Z</time>
      </trkpt>
      <trkpt lat="47.87223" lon="7.02429">
        <ele>414.47</ele>
        <time>2022-07-31T08:22:43Z</time>
      </trkpt>
      <trkpt lat="47.87231" lon="7.0242">
        <ele>414.47</ele>
        <time>2022-07-31T08:22:45Z</time>
      </trkpt>
      <trkpt lat="47.87235" lon="7.02416">
        <ele>414.47</ele>
        <time>2022-07-31T08:22:46Z</time>
      </trkpt>
      <trkpt lat="47.87243" lon="7.02408">
        <ele>414.47</ele>
        <time>2022-07-31T08:22:48Z</time>
      </trkpt>
      <trkpt lat="47.87303" lon="7.02333">
        <ele>414.95</ele>
        <time>2022-07-31T08:23:03Z</time>
      </trkpt>
      <trkpt lat="47.8735" lon="7.0227">
        <ele>415.43</ele>
        <time>2022-07-31T08:23:14Z</time>
      </trkpt>
      <trkpt lat="47.87354" lon="7.02265">
        <ele>415.91</ele>
        <time>2022-07-31T08:23:15Z</time>
      </trkpt>
      <trkpt lat="47.87368" lon="7.02251">
        <ele>415.43</ele>
        <time>2022-07-31T08:23:18Z</time>
      </trkpt>
      <trkpt lat="47.87372" lon="7.02247">
        <ele>415.43</ele>
        <time>2022-07-31T08:23:19Z</time>
      </trkpt>
      <trkpt lat="47.87377" lon="7.02242">
        <ele>415.91</ele>
        <time>2022-07-31T08:23:20Z</time>
      </trkpt>
      <trkpt lat="47.87381" lon="7.02237">
        <ele>415.91</ele>
        <time>2022-07-31T08:23:21Z</time>
      </trkpt>
      <trkpt lat="47.87385" lon="7.0223">
        <ele>415.91</ele>
        <time>2022-07-31T08:23:22Z</time>
      </trkpt>
      <trkpt lat="47.87404" lon="7.02194">
        <ele>415.91</ele>
        <time>2022-07-31T08:23:27Z</time>
      </trkpt>
      <trkpt lat="47.8741" lon="7.02179">
        <ele>415.91</ele>
        <time>2022-07-31T08:23:29Z</time>
      </trkpt>
      <trkpt lat="47.87417" lon="7.02156">
        <ele>415.91</ele>
        <time>2022-07-31T08:23:32Z</time>
      </trkpt>
      <trkpt lat="47.8742" lon="7.02148">
        <ele>415.91</ele>
        <time>2022-07-31T08:23:33Z</time>
      </trkpt>
      <trkpt lat="47.87474" lon="7.02031">
        <ele>416.87</ele>
        <time>2022-07-31T08:23:50Z</time>
      </trkpt>
      <trkpt lat="47.87544" lon="7.01912">
        <ele>418.79</ele>
        <time>2022-07-31T08:24:10Z</time>
      </trkpt>
      <trkpt lat="47.87587" lon="7.01805">
        <ele>419.75</ele>
        <time>2022-07-31T08:24:25Z</time>
      </trkpt>
      <trkpt lat="47.87608" lon="7.01716">
        <ele>420.71</ele>
        <time>2022-07-31T08:24:36Z</time>
      </trkpt>
      <trkpt lat="47.8761" lon="7.01673">
        <ele>421.19</ele>
        <time>2022-07-31T08:24:41Z</time>
      </trkpt>
      <trkpt lat="47.87609" lon="7.01665">
        <ele>421.68</ele>
        <time>2022-07-31T08:24:42Z</time>
      </trkpt>
      <trkpt lat="47.87608" lon="7.01656">
        <ele>421.68</ele>
        <time>2022-07-31T08:24:43Z</time>
      </trkpt>
      <trkpt lat="47.8761" lon="7.01494">
        <ele>422.64</ele>
        <time>2022-07-31T08:25:02Z</time>
      </trkpt>
      <trkpt lat="47.87622" lon="7.01449">
        <ele>423.12</ele>
        <time>2022-07-31T08:25:08Z</time>
      </trkpt>
      <trkpt lat="47.87624" lon="7.01441">
        <ele>423.12</ele>
        <time>2022-07-31T08:25:09Z</time>
      </trkpt>
      <trkpt lat="47.87626" lon="7.01434">
        <ele>423.12</ele>
        <time>2022-07-31T08:25:10Z</time>
      </trkpt>
      <trkpt lat="47.87639" lon="7.01384">
        <ele>423.6</ele>
        <time>2022-07-31T08:25:17Z</time>
      </trkpt>
      <trkpt lat="47.87646" lon="7.01328">
        <ele>422.64</ele>
        <time>2022-07-31T08:25:27Z</time>
      </trkpt>
      <trkpt lat="47.87692" lon="7.01211">
        <ele>422.16</ele>
        <time>2022-07-31T08:25:43Z</time>
      </trkpt>
      <trkpt lat="47.8773" lon="7.01105">
        <ele>423.12</ele>
        <time>2022-07-31T08:25:58Z</time>
      </trkpt>
      <trkpt lat="47.87761" lon="7.01005">
        <ele>423.6</ele>
        <time>2022-07-31T08:26:12Z</time>
      </trkpt>
      <trkpt lat="47.87763" lon="7.00982">
        <ele>424.08</ele>
        <time>2022-07-31T08:26:15Z</time>
      </trkpt>
      <trkpt lat="47.87763" lon="7.00973">
        <ele>423.6</ele>
        <time>2022-07-31T08:26:16Z</time>
      </trkpt>
      <trkpt lat="47.87763" lon="7.00965">
        <ele>423.6</ele>
        <time>2022-07-31T08:26:17Z</time>
      </trkpt>
      <trkpt lat="47.87762" lon="7.00957">
        <ele>424.08</ele>
        <time>2022-07-31T08:26:18Z</time>
      </trkpt>
      <trkpt lat="47.8776" lon="7.00948">
        <ele>424.08</ele>
        <time>2022-07-31T08:26:19Z</time>
      </trkpt>
      <trkpt lat="47.87757" lon="7.00932">
        <ele>423.6</ele>
        <time>2022-07-31T08:26:21Z</time>
      </trkpt>
      <trkpt lat="47.8774" lon="7.00819">
        <ele>425.04</ele>
        <time>2022-07-31T08:26:35Z</time>
      </trkpt>
      <trkpt lat="47.87748" lon="7.00713">
        <ele>426</ele>
        <time>2022-07-31T08:26:48Z</time>
      </trkpt>
      <trkpt lat="47.87763" lon="7.00648">
        <ele>426.48</ele>
        <time>2022-07-31T08:26:57Z</time>
      </trkpt>
      <trkpt lat="47.87771" lon="7.00628">
        <ele>426.96</ele>
        <time>2022-07-31T08:27:03Z</time>
      </trkpt>
      <trkpt lat="47.87772" lon="7.00625">
        <ele>426.96</ele>
        <time>2022-07-31T08:27:04Z</time>
      </trkpt>
      <trkpt lat="47.87773" lon="7.00621">
        <ele>426.96</ele>
        <time>2022-07-31T08:27:05Z</time>
      </trkpt>
      <trkpt lat="47.87774" lon="7.00616">
        <ele>428.4</ele>
        <time>2022-07-31T08:27:06Z</time>
      </trkpt>
      <trkpt lat="47.87776" lon="7.00611">
        <ele>427.92</ele>
        <time>2022-07-31T08:27:07Z</time>
      </trkpt>
      <trkpt lat="47.87777" lon="7.00605">
        <ele>427.92</ele>
        <time>2022-07-31T08:27:08Z</time>
      </trkpt>
      <trkpt lat="47.87777" lon="7.00599">
        <ele>427.92</ele>
        <time>2022-07-31T08:27:09Z</time>
      </trkpt>
      <trkpt lat="47.87797" lon="7.00544">
        <ele>429.37</ele>
        <time>2022-07-31T08:27:19Z</time>
      </trkpt>
      <trkpt lat="47.87817" lon="7.00499">
        <ele>430.81</ele>
        <time>2022-07-31T08:27:29Z</time>
      </trkpt>
      <trkpt lat="47.87822" lon="7.00487">
        <ele>431.29</ele>
        <time>2022-07-31T08:27:31Z</time>
      </trkpt>
      <trkpt lat="47.87824" lon="7.00481">
        <ele>431.77</ele>
        <time>2022-07-31T08:27:32Z</time>
      </trkpt>
      <trkpt lat="47.87833" lon="7.00464">
        <ele>432.73</ele>
        <time>2022-07-31T08:27:35Z</time>
      </trkpt>
      <trkpt lat="47.87835" lon="7.00458">
        <ele>432.73</ele>
        <time>2022-07-31T08:27:36Z</time>
      </trkpt>
      <trkpt lat="47.87837" lon="7.00451">
        <ele>432.73</ele>
        <time>2022-07-31T08:27:37Z</time>
      </trkpt>
      <trkpt lat="47.87861" lon="7.00403">
        <ele>433.69</ele>
        <time>2022-07-31T08:27:45Z</time>
      </trkpt>
      <trkpt lat="47.87871" lon="7.00386">
        <ele>433.69</ele>
        <time>2022-07-31T08:27:48Z</time>
      </trkpt>
      <trkpt lat="47.87874" lon="7.00381">
        <ele>433.69</ele>
        <time>2022-07-31T08:27:49Z</time>
      </trkpt>
      <trkpt lat="47.87884" lon="7.00316">
        <ele>434.17</ele>
        <time>2022-07-31T08:27:59Z</time>
      </trkpt>
      <trkpt lat="47.87885" lon="7.003">
        <ele>435.13</ele>
        <time>2022-07-31T08:28:01Z</time>
      </trkpt>
      <trkpt lat="47.87885" lon="7.00292">
        <ele>435.13</ele>
        <time>2022-07-31T08:28:02Z</time>
      </trkpt>
      <trkpt lat="47.87884" lon="7.00245">
        <ele>435.61</ele>
        <time>2022-07-31T08:28:08Z</time>
      </trkpt>
      <trkpt lat="47.87885" lon="7.00238">
        <ele>436.1</ele>
        <time>2022-07-31T08:28:09Z</time>
      </trkpt>
      <trkpt lat="47.87887" lon="7.0023">
        <ele>435.61</ele>
        <time>2022-07-31T08:28:10Z</time>
      </trkpt>
      <trkpt lat="47.8789" lon="7.00207">
        <ele>436.1</ele>
        <time>2022-07-31T08:28:13Z</time>
      </trkpt>
      <trkpt lat="47.87892" lon="7.002">
        <ele>436.1</ele>
        <time>2022-07-31T08:28:14Z</time>
      </trkpt>
      <trkpt lat="47.87896" lon="7.00183">
        <ele>436.58</ele>
        <time>2022-07-31T08:28:16Z</time>
      </trkpt>
      <trkpt lat="47.87933" lon="7.00046">
        <ele>438.02</ele>
        <time>2022-07-31T08:28:33Z</time>
      </trkpt>
      <trkpt lat="47.87962" lon="6.99911">
        <ele>437.06</ele>
        <time>2022-07-31T08:28:48Z</time>
      </trkpt>
      <trkpt lat="47.87975" lon="6.99851">
        <ele>437.06</ele>
        <time>2022-07-31T08:28:55Z</time>
      </trkpt>
      <trkpt lat="47.87978" lon="6.99843">
        <ele>437.06</ele>
        <time>2022-07-31T08:28:56Z</time>
      </trkpt>
      <trkpt lat="47.87982" lon="6.99836">
        <ele>437.06</ele>
        <time>2022-07-31T08:28:57Z</time>
      </trkpt>
      <trkpt lat="47.87986" lon="6.99829">
        <ele>437.06</ele>
        <time>2022-07-31T08:28:58Z</time>
      </trkpt>
      <trkpt lat="47.87991" lon="6.99823">
        <ele>437.06</ele>
        <time>2022-07-31T08:28:59Z</time>
      </trkpt>
      <trkpt lat="47.87996" lon="6.99818">
        <ele>437.06</ele>
        <time>2022-07-31T08:29:00Z</time>
      </trkpt>
      <trkpt lat="47.88051" lon="6.99763">
        <ele>437.06</ele>
        <time>2022-07-31T08:29:11Z</time>
      </trkpt>
      <trkpt lat="47.8811" lon="6.99685">
        <ele>439.46</ele>
        <time>2022-07-31T08:29:25Z</time>
      </trkpt>
      <trkpt lat="47.88171" lon="6.99564">
        <ele>439.46</ele>
        <time>2022-07-31T08:29:43Z</time>
      </trkpt>
      <trkpt lat="47.8821" lon="6.99509">
        <ele>440.42</ele>
        <time>2022-07-31T08:29:54Z</time>
      </trkpt>
      <trkpt lat="47.88262" lon="6.99455">
        <ele>439.94</ele>
        <time>2022-07-31T08:30:06Z</time>
      </trkpt>
      <trkpt lat="47.88302" lon="6.99424">
        <ele>439.46</ele>
        <time>2022-07-31T08:30:18Z</time>
      </trkpt>
      <trkpt lat="47.88341" lon="6.99398">
        <ele>441.38</ele>
        <time>2022-07-31T08:30:29Z</time>
      </trkpt>
      <trkpt lat="47.88355" lon="6.99392">
        <ele>441.86</ele>
        <time>2022-07-31T08:30:32Z</time>
      </trkpt>
      <trkpt lat="47.88402" lon="6.9939">
        <ele>444.75</ele>
        <time>2022-07-31T08:30:44Z</time>
      </trkpt>
      <trkpt lat="47.88418" lon="6.99385">
        <ele>444.75</ele>
        <time>2022-07-31T08:30:48Z</time>
      </trkpt>
      <trkpt lat="47.88427" lon="6.99379">
        <ele>444.75</ele>
        <time>2022-07-31T08:30:50Z</time>
      </trkpt>
      <trkpt lat="47.88476" lon="6.99303">
        <ele>444.27</ele>
        <time>2022-07-31T08:31:03Z</time>
      </trkpt>
      <trkpt lat="47.88493" lon="6.99266">
        <ele>444.75</ele>
        <time>2022-07-31T08:31:08Z</time>
      </trkpt>
      <trkpt lat="47.88558" lon="6.99167">
        <ele>445.71</ele>
        <time>2022-07-31T08:31:23Z</time>
      </trkpt>
      <trkpt lat="47.8863" lon="6.99098">
        <ele>442.34</ele>
        <time>2022-07-31T08:31:36Z</time>
      </trkpt>
      <trkpt lat="47.88656" lon="6.99083">
        <ele>441.38</ele>
        <time>2022-07-31T08:31:43Z</time>
      </trkpt>
      <trkpt lat="47.88663" lon="6.99074">
        <ele>441.86</ele>
        <time>2022-07-31T08:31:45Z</time>
      </trkpt>
      <trkpt lat="47.88694" lon="6.99041">
        <ele>445.23</ele>
        <time>2022-07-31T08:31:53Z</time>
      </trkpt>
      <trkpt lat="47.88698" lon="6.99037">
        <ele>445.23</ele>
        <time>2022-07-31T08:31:54Z</time>
      </trkpt>
      <trkpt lat="47.88703" lon="6.99035">
        <ele>445.71</ele>
        <time>2022-07-31T08:31:55Z</time>
      </trkpt>
      <trkpt lat="47.88708" lon="6.99032">
        <ele>446.19</ele>
        <time>2022-07-31T08:31:56Z</time>
      </trkpt>
      <trkpt lat="47.88761" lon="6.9901">
        <ele>449.07</ele>
        <time>2022-07-31T08:32:07Z</time>
      </trkpt>
      <trkpt lat="47.88789" lon="6.99004">
        <ele>450.03</ele>
        <time>2022-07-31T08:32:13Z</time>
      </trkpt>
      <trkpt lat="47.88794" lon="6.99003">
        <ele>450.03</ele>
        <time>2022-07-31T08:32:14Z</time>
      </trkpt>
      <trkpt lat="47.8881" lon="6.98997">
        <ele>450.03</ele>
        <time>2022-07-31T08:32:17Z</time>
      </trkpt>
      <trkpt lat="47.88816" lon="6.98995">
        <ele>450.03</ele>
        <time>2022-07-31T08:32:18Z</time>
      </trkpt>
      <trkpt lat="47.88833" lon="6.98987">
        <ele>449.55</ele>
        <time>2022-07-31T08:32:21Z</time>
      </trkpt>
      <trkpt lat="47.88847" lon="6.98976">
        <ele>449.55</ele>
        <time>2022-07-31T08:32:24Z</time>
      </trkpt>
      <trkpt lat="47.88851" lon="6.98971">
        <ele>449.55</ele>
        <time>2022-07-31T08:32:25Z</time>
      </trkpt>
      <trkpt lat="47.88855" lon="6.98965">
        <ele>449.07</ele>
        <time>2022-07-31T08:32:26Z</time>
      </trkpt>
      <trkpt lat="47.88863" lon="6.98952">
        <ele>448.59</ele>
        <time>2022-07-31T08:32:28Z</time>
      </trkpt>
      <trkpt lat="47.88873" lon="6.9893">
        <ele>448.59</ele>
        <time>2022-07-31T08:32:31Z</time>
      </trkpt>
      <trkpt lat="47.88875" lon="6.98922">
        <ele>448.59</ele>
        <time>2022-07-31T08:32:32Z</time>
      </trkpt>
      <trkpt lat="47.88887" lon="6.98872">
        <ele>449.07</ele>
        <time>2022-07-31T08:32:38Z</time>
      </trkpt>
      <trkpt lat="47.88891" lon="6.98845">
        <ele>449.07</ele>
        <time>2022-07-31T08:32:41Z</time>
      </trkpt>
      <trkpt lat="47.88895" lon="6.98826">
        <ele>449.07</ele>
        <time>2022-07-31T08:32:43Z</time>
      </trkpt>
      <trkpt lat="47.88905" lon="6.98793">
        <ele>449.07</ele>
        <time>2022-07-31T08:32:47Z</time>
      </trkpt>
      <trkpt lat="47.88907" lon="6.98785">
        <ele>449.07</ele>
        <time>2022-07-31T08:32:48Z</time>
      </trkpt>
      <trkpt lat="47.88912" lon="6.9877">
        <ele>449.07</ele>
        <time>2022-07-31T08:32:50Z</time>
      </trkpt>
      <trkpt lat="47.88914" lon="6.98762">
        <ele>449.07</ele>
        <time>2022-07-31T08:32:51Z</time>
      </trkpt>
      <trkpt lat="47.88923" lon="6.98739">
        <ele>449.07</ele>
        <time>2022-07-31T08:32:54Z</time>
      </trkpt>
      <trkpt lat="47.88934" lon="6.98708">
        <ele>449.07</ele>
        <time>2022-07-31T08:32:58Z</time>
      </trkpt>
      <trkpt lat="47.88937" lon="6.987">
        <ele>449.07</ele>
        <time>2022-07-31T08:32:59Z</time>
      </trkpt>
      <trkpt lat="47.88939" lon="6.98691">
        <ele>449.07</ele>
        <time>2022-07-31T08:33:00Z</time>
      </trkpt>
      <trkpt lat="47.88955" lon="6.98611">
        <ele>449.55</ele>
        <time>2022-07-31T08:33:09Z</time>
      </trkpt>
      <trkpt lat="47.88957" lon="6.98602">
        <ele>451.48</ele>
        <time>2022-07-31T08:33:10Z</time>
      </trkpt>
      <trkpt lat="47.88983" lon="6.98483">
        <ele>451.96</ele>
        <time>2022-07-31T08:33:24Z</time>
      </trkpt>
      <trkpt lat="47.88985" lon="6.98448">
        <ele>452.92</ele>
        <time>2022-07-31T08:33:28Z</time>
      </trkpt>
      <trkpt lat="47.88993" lon="6.98415">
        <ele>452.92</ele>
        <time>2022-07-31T08:33:32Z</time>
      </trkpt>
      <trkpt lat="47.88995" lon="6.98406">
        <ele>453.4</ele>
        <time>2022-07-31T08:33:33Z</time>
      </trkpt>
      <trkpt lat="47.89025" lon="6.98282">
        <ele>453.88</ele>
        <time>2022-07-31T08:33:48Z</time>
      </trkpt>
      <trkpt lat="47.89056" lon="6.98159">
        <ele>455.32</ele>
        <time>2022-07-31T08:34:03Z</time>
      </trkpt>
      <trkpt lat="47.89075" lon="6.98094">
        <ele>455.32</ele>
        <time>2022-07-31T08:34:11Z</time>
      </trkpt>
      <trkpt lat="47.89077" lon="6.98086">
        <ele>455.32</ele>
        <time>2022-07-31T08:34:12Z</time>
      </trkpt>
      <trkpt lat="47.89087" lon="6.98045">
        <ele>455.8</ele>
        <time>2022-07-31T08:34:17Z</time>
      </trkpt>
      <trkpt lat="47.89088" lon="6.98037">
        <ele>455.8</ele>
        <time>2022-07-31T08:34:18Z</time>
      </trkpt>
      <trkpt lat="47.89088" lon="6.98028">
        <ele>456.28</ele>
        <time>2022-07-31T08:34:19Z</time>
      </trkpt>
      <trkpt lat="47.89081" lon="6.97873">
        <ele>457.72</ele>
        <time>2022-07-31T08:34:37Z</time>
      </trkpt>
      <trkpt lat="47.89077" lon="6.97759">
        <ele>458.69</ele>
        <time>2022-07-31T08:34:50Z</time>
      </trkpt>
      <trkpt lat="47.89077" lon="6.97751">
        <ele>458.21</ele>
        <time>2022-07-31T08:34:51Z</time>
      </trkpt>
      <trkpt lat="47.89076" lon="6.97742">
        <ele>458.21</ele>
        <time>2022-07-31T08:34:52Z</time>
      </trkpt>
      <trkpt lat="47.89052" lon="6.9763">
        <ele>456.76</ele>
        <time>2022-07-31T08:35:05Z</time>
      </trkpt>
      <trkpt lat="47.8905" lon="6.9762">
        <ele>456.76</ele>
        <time>2022-07-31T08:35:06Z</time>
      </trkpt>
      <trkpt lat="47.89041" lon="6.97594">
        <ele>456.28</ele>
        <time>2022-07-31T08:35:09Z</time>
      </trkpt>
      <trkpt lat="47.89037" lon="6.97586">
        <ele>455.8</ele>
        <time>2022-07-31T08:35:10Z</time>
      </trkpt>
      <trkpt lat="47.89028" lon="6.97562">
        <ele>455.32</ele>
        <time>2022-07-31T08:35:13Z</time>
      </trkpt>
      <trkpt lat="47.89013" lon="6.97536">
        <ele>454.36</ele>
        <time>2022-07-31T08:35:17Z</time>
      </trkpt>
      <trkpt lat="47.89009" lon="6.97529">
        <ele>453.88</ele>
        <time>2022-07-31T08:35:18Z</time>
      </trkpt>
      <trkpt lat="47.88994" lon="6.97504">
        <ele>453.4</ele>
        <time>2022-07-31T08:35:22Z</time>
      </trkpt>
      <trkpt lat="47.88991" lon="6.97498">
        <ele>453.4</ele>
        <time>2022-07-31T08:35:23Z</time>
      </trkpt>
      <trkpt lat="47.88988" lon="6.97491">
        <ele>452.92</ele>
        <time>2022-07-31T08:35:24Z</time>
      </trkpt>
      <trkpt lat="47.88987" lon="6.97483">
        <ele>452.92</ele>
        <time>2022-07-31T08:35:25Z</time>
      </trkpt>
      <trkpt lat="47.88988" lon="6.97477">
        <ele>452.92</ele>
        <time>2022-07-31T08:35:26Z</time>
      </trkpt>
      <trkpt lat="47.8899" lon="6.97471">
        <ele>453.4</ele>
        <time>2022-07-31T08:35:27Z</time>
      </trkpt>
      <trkpt lat="47.88993" lon="6.97465">
        <ele>453.4</ele>
        <time>2022-07-31T08:35:28Z</time>
      </trkpt>
      <trkpt lat="47.8901" lon="6.97437">
        <ele>452.44</ele>
        <time>2022-07-31T08:35:32Z</time>
      </trkpt>
      <trkpt lat="47.89014" lon="6.97429">
        <ele>452.44</ele>
        <time>2022-07-31T08:35:33Z</time>
      </trkpt>
      <trkpt lat="47.89017" lon="6.97421">
        <ele>452.44</ele>
        <time>2022-07-31T08:35:34Z</time>
      </trkpt>
      <trkpt lat="47.89018" lon="6.97413">
        <ele>452.44</ele>
        <time>2022-07-31T08:35:35Z</time>
      </trkpt>
      <trkpt lat="47.8902" lon="6.97404">
        <ele>452.44</ele>
        <time>2022-07-31T08:35:36Z</time>
      </trkpt>
      <trkpt lat="47.89033" lon="6.97299">
        <ele>453.4</ele>
        <time>2022-07-31T08:35:48Z</time>
      </trkpt>
      <trkpt lat="47.89036" lon="6.97292">
        <ele>453.4</ele>
        <time>2022-07-31T08:35:49Z</time>
      </trkpt>
      <trkpt lat="47.89041" lon="6.97286">
        <ele>452.92</ele>
        <time>2022-07-31T08:35:50Z</time>
      </trkpt>
      <trkpt lat="47.89045" lon="6.9728">
        <ele>452.92</ele>
        <time>2022-07-31T08:35:51Z</time>
      </trkpt>
      <trkpt lat="47.89051" lon="6.97275">
        <ele>452.92</ele>
        <time>2022-07-31T08:35:52Z</time>
      </trkpt>
      <trkpt lat="47.89131" lon="6.97198">
        <ele>452.92</ele>
        <time>2022-07-31T08:36:08Z</time>
      </trkpt>
      <trkpt lat="47.89141" lon="6.97178">
        <ele>453.88</ele>
        <time>2022-07-31T08:36:11Z</time>
      </trkpt>
      <trkpt lat="47.89143" lon="6.97171">
        <ele>453.88</ele>
        <time>2022-07-31T08:36:12Z</time>
      </trkpt>
      <trkpt lat="47.89162" lon="6.97079">
        <ele>454.84</ele>
        <time>2022-07-31T08:36:24Z</time>
      </trkpt>
      <trkpt lat="47.89168" lon="6.97058">
        <ele>454.84</ele>
        <time>2022-07-31T08:36:27Z</time>
      </trkpt>
      <trkpt lat="47.89175" lon="6.97029">
        <ele>455.8</ele>
        <time>2022-07-31T08:36:31Z</time>
      </trkpt>
      <trkpt lat="47.89199" lon="6.96949">
        <ele>454.84</ele>
        <time>2022-07-31T08:36:42Z</time>
      </trkpt>
      <trkpt lat="47.89204" lon="6.96938">
        <ele>455.32</ele>
        <time>2022-07-31T08:36:44Z</time>
      </trkpt>
      <trkpt lat="47.89207" lon="6.96934">
        <ele>455.8</ele>
        <time>2022-07-31T08:36:45Z</time>
      </trkpt>
      <trkpt lat="47.89211" lon="6.96933">
        <ele>456.28</ele>
        <time>2022-07-31T08:36:46Z</time>
      </trkpt>
      <trkpt lat="47.89214" lon="6.96934">
        <ele>456.76</ele>
        <time>2022-07-31T08:36:47Z</time>
      </trkpt>
      <trkpt lat="47.89217" lon="6.96937">
        <ele>456.76</ele>
        <time>2022-07-31T08:36:48Z</time>
      </trkpt>
      <trkpt lat="47.89221" lon="6.96941">
        <ele>456.76</ele>
        <time>2022-07-31T08:36:49Z</time>
      </trkpt>
      <trkpt lat="47.89268" lon="6.97027">
        <ele>457.72</ele>
        <time>2022-07-31T08:37:03Z</time>
      </trkpt>
      <trkpt lat="47.893" lon="6.97095">
        <ele>459.65</ele>
        <time>2022-07-31T08:37:13Z</time>
      </trkpt>
      <trkpt lat="47.89304" lon="6.97101">
        <ele>458.69</ele>
        <time>2022-07-31T08:37:14Z</time>
      </trkpt>
      <trkpt lat="47.89355" lon="6.97208">
        <ele>459.17</ele>
        <time>2022-07-31T08:37:30Z</time>
      </trkpt>
      <trkpt lat="47.89403" lon="6.97308">
        <ele>460.61</ele>
        <time>2022-07-31T08:37:45Z</time>
      </trkpt>
      <trkpt lat="47.8945" lon="6.97413">
        <ele>459.65</ele>
        <time>2022-07-31T08:38:00Z</time>
      </trkpt>
      <trkpt lat="47.89506" lon="6.97521">
        <ele>458.69</ele>
        <time>2022-07-31T08:38:15Z</time>
      </trkpt>
      <trkpt lat="47.8954" lon="6.97583">
        <ele>457.72</ele>
        <time>2022-07-31T08:38:24Z</time>
      </trkpt>
      <trkpt lat="47.89587" lon="6.97712">
        <ele>455.8</ele>
        <time>2022-07-31T08:38:40Z</time>
      </trkpt>
      <trkpt lat="47.89617" lon="6.97789">
        <ele>454.36</ele>
        <time>2022-07-31T08:38:50Z</time>
      </trkpt>
      <trkpt lat="47.89622" lon="6.97794">
        <ele>453.88</ele>
        <time>2022-07-31T08:38:51Z</time>
      </trkpt>
      <trkpt lat="47.89628" lon="6.97797">
        <ele>453.88</ele>
        <time>2022-07-31T08:38:52Z</time>
      </trkpt>
      <trkpt lat="47.89634" lon="6.97797">
        <ele>453.4</ele>
        <time>2022-07-31T08:38:53Z</time>
      </trkpt>
      <trkpt lat="47.8964" lon="6.97795">
        <ele>452.92</ele>
        <time>2022-07-31T08:38:54Z</time>
      </trkpt>
      <trkpt lat="47.89647" lon="6.97793">
        <ele>452.44</ele>
        <time>2022-07-31T08:38:55Z</time>
      </trkpt>
      <trkpt lat="47.89674" lon="6.97784">
        <ele>451.48</ele>
        <time>2022-07-31T08:38:59Z</time>
      </trkpt>
      <trkpt lat="47.89681" lon="6.97784">
        <ele>451</ele>
        <time>2022-07-31T08:39:00Z</time>
      </trkpt>
      <trkpt lat="47.89688" lon="6.97784">
        <ele>451</ele>
        <time>2022-07-31T08:39:01Z</time>
      </trkpt>
      <trkpt lat="47.89695" lon="6.97785">
        <ele>450.52</ele>
        <time>2022-07-31T08:39:02Z</time>
      </trkpt>
      <trkpt lat="47.89702" lon="6.97787">
        <ele>450.52</ele>
        <time>2022-07-31T08:39:03Z</time>
      </trkpt>
      <trkpt lat="47.89715" lon="6.97792">
        <ele>450.03</ele>
        <time>2022-07-31T08:39:05Z</time>
      </trkpt>
      <trkpt lat="47.8972" lon="6.97797">
        <ele>449.55</ele>
        <time>2022-07-31T08:39:06Z</time>
      </trkpt>
      <trkpt lat="47.89726" lon="6.97802">
        <ele>450.03</ele>
        <time>2022-07-31T08:39:07Z</time>
      </trkpt>
      <trkpt lat="47.8973" lon="6.97808">
        <ele>449.55</ele>
        <time>2022-07-31T08:39:08Z</time>
      </trkpt>
      <trkpt lat="47.89734" lon="6.97813">
        <ele>449.55</ele>
        <time>2022-07-31T08:39:09Z</time>
      </trkpt>
      <trkpt lat="47.89738" lon="6.97816">
        <ele>450.03</ele>
        <time>2022-07-31T08:39:10Z</time>
      </trkpt>
      <trkpt lat="47.89743" lon="6.97815">
        <ele>449.55</ele>
        <time>2022-07-31T08:39:11Z</time>
      </trkpt>
      <trkpt lat="47.89747" lon="6.97812">
        <ele>449.55</ele>
        <time>2022-07-31T08:39:12Z</time>
      </trkpt>
      <trkpt lat="47.89751" lon="6.97806">
        <ele>449.55</ele>
        <time>2022-07-31T08:39:13Z</time>
      </trkpt>
      <trkpt lat="47.89754" lon="6.978">
        <ele>451</ele>
        <time>2022-07-31T08:39:14Z</time>
      </trkpt>
      <trkpt lat="47.89761" lon="6.97787">
        <ele>449.55</ele>
        <time>2022-07-31T08:39:16Z</time>
      </trkpt>
      <trkpt lat="47.89765" lon="6.97781">
        <ele>449.55</ele>
        <time>2022-07-31T08:39:17Z</time>
      </trkpt>
      <trkpt lat="47.89769" lon="6.97776">
        <ele>449.55</ele>
        <time>2022-07-31T08:39:18Z</time>
      </trkpt>
      <trkpt lat="47.89817" lon="6.97706">
        <ele>451.48</ele>
        <time>2022-07-31T08:39:30Z</time>
      </trkpt>
      <trkpt lat="47.89823" lon="6.97692">
        <ele>452.44</ele>
        <time>2022-07-31T08:39:32Z</time>
      </trkpt>
      <trkpt lat="47.89826" lon="6.97685">
        <ele>452.44</ele>
        <time>2022-07-31T08:39:33Z</time>
      </trkpt>
      <trkpt lat="47.89827" lon="6.97677">
        <ele>452.92</ele>
        <time>2022-07-31T08:39:34Z</time>
      </trkpt>
      <trkpt lat="47.89839" lon="6.97587">
        <ele>455.8</ele>
        <time>2022-07-31T08:39:45Z</time>
      </trkpt>
      <trkpt lat="47.89848" lon="6.97524">
        <ele>458.69</ele>
        <time>2022-07-31T08:39:53Z</time>
      </trkpt>
      <trkpt lat="47.89851" lon="6.97509">
        <ele>459.65</ele>
        <time>2022-07-31T08:39:55Z</time>
      </trkpt>
      <trkpt lat="47.89853" lon="6.97501">
        <ele>460.13</ele>
        <time>2022-07-31T08:39:56Z</time>
      </trkpt>
      <trkpt lat="47.89883" lon="6.97422">
        <ele>463.01</ele>
        <time>2022-07-31T08:40:08Z</time>
      </trkpt>
      <trkpt lat="47.89891" lon="6.97403">
        <ele>464.45</ele>
        <time>2022-07-31T08:40:11Z</time>
      </trkpt>
      <trkpt lat="47.89893" lon="6.97396">
        <ele>464.93</ele>
        <time>2022-07-31T08:40:12Z</time>
      </trkpt>
      <trkpt lat="47.89894" lon="6.97389">
        <ele>465.42</ele>
        <time>2022-07-31T08:40:13Z</time>
      </trkpt>
      <trkpt lat="47.89895" lon="6.97383">
        <ele>465.9</ele>
        <time>2022-07-31T08:40:14Z</time>
      </trkpt>
      <trkpt lat="47.89896" lon="6.97376">
        <ele>466.38</ele>
        <time>2022-07-31T08:40:15Z</time>
      </trkpt>
      <trkpt lat="47.89897" lon="6.97369">
        <ele>466.86</ele>
        <time>2022-07-31T08:40:16Z</time>
      </trkpt>
      <trkpt lat="47.89908" lon="6.97336">
        <ele>470.7</ele>
        <time>2022-07-31T08:40:22Z</time>
      </trkpt>
      <trkpt lat="47.89911" lon="6.97333">
        <ele>471.18</ele>
        <time>2022-07-31T08:40:23Z</time>
      </trkpt>
      <trkpt lat="47.89915" lon="6.97332">
        <ele>471.18</ele>
        <time>2022-07-31T08:40:24Z</time>
      </trkpt>
      <trkpt lat="47.89919" lon="6.97331">
        <ele>471.18</ele>
        <time>2022-07-31T08:40:25Z</time>
      </trkpt>
      <trkpt lat="47.89924" lon="6.97332">
        <ele>471.18</ele>
        <time>2022-07-31T08:40:26Z</time>
      </trkpt>
      <trkpt lat="47.89928" lon="6.97334">
        <ele>471.18</ele>
        <time>2022-07-31T08:40:27Z</time>
      </trkpt>
      <trkpt lat="47.89933" lon="6.97337">
        <ele>471.18</ele>
        <time>2022-07-31T08:40:28Z</time>
      </trkpt>
      <trkpt lat="47.89937" lon="6.97341">
        <ele>471.18</ele>
        <time>2022-07-31T08:40:29Z</time>
      </trkpt>
      <trkpt lat="47.89941" lon="6.97346">
        <ele>470.7</ele>
        <time>2022-07-31T08:40:30Z</time>
      </trkpt>
      <trkpt lat="47.89944" lon="6.97353">
        <ele>470.7</ele>
        <time>2022-07-31T08:40:31Z</time>
      </trkpt>
      <trkpt lat="47.89989" lon="6.97412">
        <ele>467.82</ele>
        <time>2022-07-31T08:40:40Z</time>
      </trkpt>
      <trkpt lat="47.89995" lon="6.97418">
        <ele>467.34</ele>
        <time>2022-07-31T08:40:41Z</time>
      </trkpt>
      <trkpt lat="47.90003" lon="6.97421">
        <ele>466.86</ele>
        <time>2022-07-31T08:40:42Z</time>
      </trkpt>
      <trkpt lat="47.90018" lon="6.97426">
        <ele>466.38</ele>
        <time>2022-07-31T08:40:44Z</time>
      </trkpt>
      <trkpt lat="47.90025" lon="6.97431">
        <ele>465.9</ele>
        <time>2022-07-31T08:40:45Z</time>
      </trkpt>
      <trkpt lat="47.90031" lon="6.97435">
        <ele>465.9</ele>
        <time>2022-07-31T08:40:46Z</time>
      </trkpt>
      <trkpt lat="47.90037" lon="6.97439">
        <ele>465.9</ele>
        <time>2022-07-31T08:40:47Z</time>
      </trkpt>
      <trkpt lat="47.90044" lon="6.97441">
        <ele>466.38</ele>
        <time>2022-07-31T08:40:48Z</time>
      </trkpt>
      <trkpt lat="47.90055" lon="6.97444">
        <ele>466.86</ele>
        <time>2022-07-31T08:40:50Z</time>
      </trkpt>
      <trkpt lat="47.9006" lon="6.97444">
        <ele>466.86</ele>
        <time>2022-07-31T08:40:51Z</time>
      </trkpt>
      <trkpt lat="47.9008" lon="6.97442">
        <ele>467.34</ele>
        <time>2022-07-31T08:40:55Z</time>
      </trkpt>
      <trkpt lat="47.90126" lon="6.97442">
        <ele>463.97</ele>
        <time>2022-07-31T08:41:03Z</time>
      </trkpt>
      <trkpt lat="47.90149" lon="6.97443">
        <ele>460.61</ele>
        <time>2022-07-31T08:41:06Z</time>
      </trkpt>
      <trkpt lat="47.90174" lon="6.97443">
        <ele>457.24</ele>
        <time>2022-07-31T08:41:09Z</time>
      </trkpt>
      <trkpt lat="47.90186" lon="6.97442">
        <ele>455.8</ele>
        <time>2022-07-31T08:41:11Z</time>
      </trkpt>
      <trkpt lat="47.90189" lon="6.97439">
        <ele>455.32</ele>
        <time>2022-07-31T08:41:12Z</time>
      </trkpt>
      <trkpt lat="47.9019" lon="6.97434">
        <ele>455.32</ele>
        <time>2022-07-31T08:41:13Z</time>
      </trkpt>
      <trkpt lat="47.9019" lon="6.97429">
        <ele>454.84</ele>
        <time>2022-07-31T08:41:14Z</time>
      </trkpt>
      <trkpt lat="47.90189" lon="6.97423">
        <ele>456.28</ele>
        <time>2022-07-31T08:41:15Z</time>
      </trkpt>
      <trkpt lat="47.90189" lon="6.97417">
        <ele>454.84</ele>
        <time>2022-07-31T08:41:16Z</time>
      </trkpt>
      <trkpt lat="47.9019" lon="6.97412">
        <ele>454.84</ele>
        <time>2022-07-31T08:41:17Z</time>
      </trkpt>
      <trkpt lat="47.90191" lon="6.97406">
        <ele>455.32</ele>
        <time>2022-07-31T08:41:18Z</time>
      </trkpt>
      <trkpt lat="47.90193" lon="6.97402">
        <ele>455.32</ele>
        <time>2022-07-31T08:41:19Z</time>
      </trkpt>
      <trkpt lat="47.90207" lon="6.97369">
        <ele>456.28</ele>
        <time>2022-07-31T08:41:26Z</time>
      </trkpt>
      <trkpt lat="47.90229" lon="6.97337">
        <ele>457.24</ele>
        <time>2022-07-31T08:41:32Z</time>
      </trkpt>
      <trkpt lat="47.90232" lon="6.97331">
        <ele>457.24</ele>
        <time>2022-07-31T08:41:33Z</time>
      </trkpt>
      <trkpt lat="47.90249" lon="6.97307">
        <ele>457.24</ele>
        <time>2022-07-31T08:41:37Z</time>
      </trkpt>
      <trkpt lat="47.90254" lon="6.97302">
        <ele>457.72</ele>
        <time>2022-07-31T08:41:38Z</time>
      </trkpt>
      <trkpt lat="47.90267" lon="6.97286">
        <ele>458.21</ele>
        <time>2022-07-31T08:41:41Z</time>
      </trkpt>
      <trkpt lat="47.9028" lon="6.97262">
        <ele>459.17</ele>
        <time>2022-07-31T08:41:45Z</time>
      </trkpt>
      <trkpt lat="47.90283" lon="6.97256">
        <ele>459.17</ele>
        <time>2022-07-31T08:41:46Z</time>
      </trkpt>
      <trkpt lat="47.90286" lon="6.97252">
        <ele>459.65</ele>
        <time>2022-07-31T08:41:47Z</time>
      </trkpt>
      <trkpt lat="47.90303" lon="6.97223">
        <ele>462.05</ele>
        <time>2022-07-31T08:41:53Z</time>
      </trkpt>
      <trkpt lat="47.90311" lon="6.97207">
        <ele>463.49</ele>
        <time>2022-07-31T08:41:56Z</time>
      </trkpt>
      <trkpt lat="47.90323" lon="6.97192">
        <ele>464.93</ele>
        <time>2022-07-31T08:42:00Z</time>
      </trkpt>
      <trkpt lat="47.90365" lon="6.97171">
        <ele>463.01</ele>
        <time>2022-07-31T08:42:09Z</time>
      </trkpt>
      <trkpt lat="47.90375" lon="6.97168">
        <ele>462.05</ele>
        <time>2022-07-31T08:42:11Z</time>
      </trkpt>
      <trkpt lat="47.9038" lon="6.9717">
        <ele>461.57</ele>
        <time>2022-07-31T08:42:12Z</time>
      </trkpt>
      <trkpt lat="47.90385" lon="6.97176">
        <ele>461.09</ele>
        <time>2022-07-31T08:42:13Z</time>
      </trkpt>
      <trkpt lat="47.9039" lon="6.97184">
        <ele>460.13</ele>
        <time>2022-07-31T08:42:14Z</time>
      </trkpt>
      <trkpt lat="47.90396" lon="6.97192">
        <ele>459.17</ele>
        <time>2022-07-31T08:42:15Z</time>
      </trkpt>
      <trkpt lat="47.90404" lon="6.972">
        <ele>457.24</ele>
        <time>2022-07-31T08:42:16Z</time>
      </trkpt>
      <trkpt lat="47.90413" lon="6.97206">
        <ele>456.28</ele>
        <time>2022-07-31T08:42:17Z</time>
      </trkpt>
      <trkpt lat="47.90422" lon="6.97209">
        <ele>456.28</ele>
        <time>2022-07-31T08:42:18Z</time>
      </trkpt>
      <trkpt lat="47.90429" lon="6.97208">
        <ele>455.8</ele>
        <time>2022-07-31T08:42:19Z</time>
      </trkpt>
      <trkpt lat="47.90436" lon="6.97204">
        <ele>455.8</ele>
        <time>2022-07-31T08:42:20Z</time>
      </trkpt>
      <trkpt lat="47.90443" lon="6.972">
        <ele>456.28</ele>
        <time>2022-07-31T08:42:21Z</time>
      </trkpt>
      <trkpt lat="47.90449" lon="6.97196">
        <ele>455.8</ele>
        <time>2022-07-31T08:42:22Z</time>
      </trkpt>
      <trkpt lat="47.90534" lon="6.97162">
        <ele>457.72</ele>
        <time>2022-07-31T08:42:37Z</time>
      </trkpt>
      <trkpt lat="47.90567" lon="6.9716">
        <ele>459.65</ele>
        <time>2022-07-31T08:42:45Z</time>
      </trkpt>
      <trkpt lat="47.9057" lon="6.97164">
        <ele>460.13</ele>
        <time>2022-07-31T08:42:46Z</time>
      </trkpt>
      <trkpt lat="47.90574" lon="6.97169">
        <ele>460.61</ele>
        <time>2022-07-31T08:42:47Z</time>
      </trkpt>
      <trkpt lat="47.90585" lon="6.97185">
        <ele>461.09</ele>
        <time>2022-07-31T08:42:50Z</time>
      </trkpt>
      <trkpt lat="47.90589" lon="6.97192">
        <ele>461.09</ele>
        <time>2022-07-31T08:42:51Z</time>
      </trkpt>
      <trkpt lat="47.90592" lon="6.972">
        <ele>460.61</ele>
        <time>2022-07-31T08:42:52Z</time>
      </trkpt>
      <trkpt lat="47.90596" lon="6.97208">
        <ele>460.61</ele>
        <time>2022-07-31T08:42:53Z</time>
      </trkpt>
      <trkpt lat="47.906" lon="6.97215">
        <ele>460.13</ele>
        <time>2022-07-31T08:42:54Z</time>
      </trkpt>
      <trkpt lat="47.90605" lon="6.97222">
        <ele>459.65</ele>
        <time>2022-07-31T08:42:55Z</time>
      </trkpt>
      <trkpt lat="47.90611" lon="6.97228">
        <ele>459.65</ele>
        <time>2022-07-31T08:42:56Z</time>
      </trkpt>
      <trkpt lat="47.90616" lon="6.97234">
        <ele>459.65</ele>
        <time>2022-07-31T08:42:57Z</time>
      </trkpt>
      <trkpt lat="47.90622" lon="6.97239">
        <ele>459.65</ele>
        <time>2022-07-31T08:42:58Z</time>
      </trkpt>
      <trkpt lat="47.90629" lon="6.97243">
        <ele>459.17</ele>
        <time>2022-07-31T08:42:59Z</time>
      </trkpt>
      <trkpt lat="47.90636" lon="6.97246">
        <ele>459.65</ele>
        <time>2022-07-31T08:43:00Z</time>
      </trkpt>
      <trkpt lat="47.90643" lon="6.97247">
        <ele>459.17</ele>
        <time>2022-07-31T08:43:01Z</time>
      </trkpt>
      <trkpt lat="47.9065" lon="6.97248">
        <ele>459.65</ele>
        <time>2022-07-31T08:43:02Z</time>
      </trkpt>
      <trkpt lat="47.90657" lon="6.97249">
        <ele>459.65</ele>
        <time>2022-07-31T08:43:03Z</time>
      </trkpt>
      <trkpt lat="47.90701" lon="6.97253">
        <ele>459.17</ele>
        <time>2022-07-31T08:43:10Z</time>
      </trkpt>
      <trkpt lat="47.90705" lon="6.97258">
        <ele>459.17</ele>
        <time>2022-07-31T08:43:11Z</time>
      </trkpt>
      <trkpt lat="47.90707" lon="6.97265">
        <ele>459.17</ele>
        <time>2022-07-31T08:43:12Z</time>
      </trkpt>
      <trkpt lat="47.90707" lon="6.97273">
        <ele>459.17</ele>
        <time>2022-07-31T08:43:13Z</time>
      </trkpt>
      <trkpt lat="47.90706" lon="6.97281">
        <ele>459.17</ele>
        <time>2022-07-31T08:43:14Z</time>
      </trkpt>
      <trkpt lat="47.90706" lon="6.9729">
        <ele>459.17</ele>
        <time>2022-07-31T08:43:15Z</time>
      </trkpt>
      <trkpt lat="47.90708" lon="6.97297">
        <ele>460.61</ele>
        <time>2022-07-31T08:43:16Z</time>
      </trkpt>
      <trkpt lat="47.90712" lon="6.97303">
        <ele>459.65</ele>
        <time>2022-07-31T08:43:17Z</time>
      </trkpt>
      <trkpt lat="47.90717" lon="6.97306">
        <ele>459.65</ele>
        <time>2022-07-31T08:43:18Z</time>
      </trkpt>
      <trkpt lat="47.90723" lon="6.97307">
        <ele>460.13</ele>
        <time>2022-07-31T08:43:19Z</time>
      </trkpt>
      <trkpt lat="47.90728" lon="6.97308">
        <ele>460.13</ele>
        <time>2022-07-31T08:43:20Z</time>
      </trkpt>
      <trkpt lat="47.90739" lon="6.97309">
        <ele>460.13</ele>
        <time>2022-07-31T08:43:22Z</time>
      </trkpt>
      <trkpt lat="47.90744" lon="6.97308">
        <ele>460.13</ele>
        <time>2022-07-31T08:43:23Z</time>
      </trkpt>
      <trkpt lat="47.9075" lon="6.97305">
        <ele>459.65</ele>
        <time>2022-07-31T08:43:24Z</time>
      </trkpt>
      <trkpt lat="47.90756" lon="6.97302">
        <ele>459.65</ele>
        <time>2022-07-31T08:43:25Z</time>
      </trkpt>
      <trkpt lat="47.90762" lon="6.97298">
        <ele>459.65</ele>
        <time>2022-07-31T08:43:26Z</time>
      </trkpt>
      <trkpt lat="47.90807" lon="6.97251">
        <ele>459.65</ele>
        <time>2022-07-31T08:43:35Z</time>
      </trkpt>
      <trkpt lat="47.90813" lon="6.97248">
        <ele>459.17</ele>
        <time>2022-07-31T08:43:36Z</time>
      </trkpt>
      <trkpt lat="47.90819" lon="6.97247">
        <ele>459.65</ele>
        <time>2022-07-31T08:43:37Z</time>
      </trkpt>
      <trkpt lat="47.90826" lon="6.97246">
        <ele>459.65</ele>
        <time>2022-07-31T08:43:38Z</time>
      </trkpt>
      <trkpt lat="47.90832" lon="6.97247">
        <ele>459.65</ele>
        <time>2022-07-31T08:43:39Z</time>
      </trkpt>
      <trkpt lat="47.90838" lon="6.97249">
        <ele>460.13</ele>
        <time>2022-07-31T08:43:40Z</time>
      </trkpt>
      <trkpt lat="47.90844" lon="6.97253">
        <ele>460.61</ele>
        <time>2022-07-31T08:43:41Z</time>
      </trkpt>
      <trkpt lat="47.90848" lon="6.97259">
        <ele>460.61</ele>
        <time>2022-07-31T08:43:42Z</time>
      </trkpt>
      <trkpt lat="47.90851" lon="6.97265">
        <ele>461.09</ele>
        <time>2022-07-31T08:43:43Z</time>
      </trkpt>
      <trkpt lat="47.90852" lon="6.97272">
        <ele>461.57</ele>
        <time>2022-07-31T08:43:44Z</time>
      </trkpt>
      <trkpt lat="47.90854" lon="6.97279">
        <ele>461.57</ele>
        <time>2022-07-31T08:43:45Z</time>
      </trkpt>
      <trkpt lat="47.90873" lon="6.97329">
        <ele>463.49</ele>
        <time>2022-07-31T08:43:56Z</time>
      </trkpt>
      <trkpt lat="47.90877" lon="6.97338">
        <ele>463.97</ele>
        <time>2022-07-31T08:43:58Z</time>
      </trkpt>
      <trkpt lat="47.90882" lon="6.9735">
        <ele>463.49</ele>
        <time>2022-07-31T08:44:00Z</time>
      </trkpt>
      <trkpt lat="47.90888" lon="6.97368">
        <ele>463.97</ele>
        <time>2022-07-31T08:44:03Z</time>
      </trkpt>
      <trkpt lat="47.90891" lon="6.97374">
        <ele>463.97</ele>
        <time>2022-07-31T08:44:04Z</time>
      </trkpt>
      <trkpt lat="47.90894" lon="6.97378">
        <ele>463.97</ele>
        <time>2022-07-31T08:44:05Z</time>
      </trkpt>
      <trkpt lat="47.90899" lon="6.9738">
        <ele>464.45</ele>
        <time>2022-07-31T08:44:06Z</time>
      </trkpt>
      <trkpt lat="47.90903" lon="6.9738">
        <ele>464.45</ele>
        <time>2022-07-31T08:44:07Z</time>
      </trkpt>
      <trkpt lat="47.90909" lon="6.9738">
        <ele>464.45</ele>
        <time>2022-07-31T08:44:08Z</time>
      </trkpt>
      <trkpt lat="47.90983" lon="6.97383">
        <ele>466.38</ele>
        <time>2022-07-31T08:44:21Z</time>
      </trkpt>
      <trkpt lat="47.91073" lon="6.97378">
        <ele>466.86</ele>
        <time>2022-07-31T08:44:36Z</time>
      </trkpt>
      <trkpt lat="47.91161" lon="6.97384">
        <ele>467.34</ele>
        <time>2022-07-31T08:44:50Z</time>
      </trkpt>
      <trkpt lat="47.91213" lon="6.97377">
        <ele>467.82</ele>
        <time>2022-07-31T08:44:59Z</time>
      </trkpt>
      <trkpt lat="47.9124" lon="6.97364">
        <ele>468.78</ele>
        <time>2022-07-31T08:45:04Z</time>
      </trkpt>
      <trkpt lat="47.91245" lon="6.97364">
        <ele>469.26</ele>
        <time>2022-07-31T08:45:05Z</time>
      </trkpt>
      <trkpt lat="47.91254" lon="6.97364">
        <ele>469.74</ele>
        <time>2022-07-31T08:45:07Z</time>
      </trkpt>
      <trkpt lat="47.91258" lon="6.97363">
        <ele>469.74</ele>
        <time>2022-07-31T08:45:08Z</time>
      </trkpt>
      <trkpt lat="47.91273" lon="6.97357">
        <ele>469.26</ele>
        <time>2022-07-31T08:45:11Z</time>
      </trkpt>
      <trkpt lat="47.91277" lon="6.97353">
        <ele>468.78</ele>
        <time>2022-07-31T08:45:12Z</time>
      </trkpt>
      <trkpt lat="47.91281" lon="6.97348">
        <ele>468.78</ele>
        <time>2022-07-31T08:45:13Z</time>
      </trkpt>
      <trkpt lat="47.91282" lon="6.97341">
        <ele>468.3</ele>
        <time>2022-07-31T08:45:14Z</time>
      </trkpt>
      <trkpt lat="47.91283" lon="6.97335">
        <ele>468.3</ele>
        <time>2022-07-31T08:45:15Z</time>
      </trkpt>
      <trkpt lat="47.91282" lon="6.97327">
        <ele>468.3</ele>
        <time>2022-07-31T08:45:16Z</time>
      </trkpt>
      <trkpt lat="47.91282" lon="6.9732">
        <ele>469.74</ele>
        <time>2022-07-31T08:45:17Z</time>
      </trkpt>
      <trkpt lat="47.91283" lon="6.97314">
        <ele>468.78</ele>
        <time>2022-07-31T08:45:18Z</time>
      </trkpt>
      <trkpt lat="47.91287" lon="6.97311">
        <ele>468.78</ele>
        <time>2022-07-31T08:45:19Z</time>
      </trkpt>
      <trkpt lat="47.91291" lon="6.9731">
        <ele>468.78</ele>
        <time>2022-07-31T08:45:20Z</time>
      </trkpt>
      <trkpt lat="47.91295" lon="6.97308">
        <ele>468.78</ele>
        <time>2022-07-31T08:45:21Z</time>
      </trkpt>
      <trkpt lat="47.913" lon="6.97306">
        <ele>468.78</ele>
        <time>2022-07-31T08:45:22Z</time>
      </trkpt>
      <trkpt lat="47.9132" lon="6.97297">
        <ele>468.78</ele>
        <time>2022-07-31T08:45:26Z</time>
      </trkpt>
      <trkpt lat="47.91326" lon="6.97295">
        <ele>468.78</ele>
        <time>2022-07-31T08:45:27Z</time>
      </trkpt>
      <trkpt lat="47.91414" lon="6.97248">
        <ele>469.26</ele>
        <time>2022-07-31T08:45:43Z</time>
      </trkpt>
      <trkpt lat="47.91512" lon="6.972">
        <ele>470.22</ele>
        <time>2022-07-31T08:46:00Z</time>
      </trkpt>
      <trkpt lat="47.91555" lon="6.97177">
        <ele>472.14</ele>
        <time>2022-07-31T08:46:08Z</time>
      </trkpt>
      <trkpt lat="47.91561" lon="6.97176">
        <ele>472.63</ele>
        <time>2022-07-31T08:46:09Z</time>
      </trkpt>
      <trkpt lat="47.91565" lon="6.97174">
        <ele>472.63</ele>
        <time>2022-07-31T08:46:10Z</time>
      </trkpt>
      <trkpt lat="47.9157" lon="6.97172">
        <ele>472.63</ele>
        <time>2022-07-31T08:46:11Z</time>
      </trkpt>
      <trkpt lat="47.91576" lon="6.97169">
        <ele>472.63</ele>
        <time>2022-07-31T08:46:12Z</time>
      </trkpt>
      <trkpt lat="47.91617" lon="6.97151">
        <ele>471.18</ele>
        <time>2022-07-31T08:46:19Z</time>
      </trkpt>
      <trkpt lat="47.91622" lon="6.97147">
        <ele>471.18</ele>
        <time>2022-07-31T08:46:20Z</time>
      </trkpt>
      <trkpt lat="47.91626" lon="6.97142">
        <ele>471.18</ele>
        <time>2022-07-31T08:46:21Z</time>
      </trkpt>
      <trkpt lat="47.9163" lon="6.97136">
        <ele>471.66</ele>
        <time>2022-07-31T08:46:22Z</time>
      </trkpt>
      <trkpt lat="47.91634" lon="6.9713">
        <ele>471.66</ele>
        <time>2022-07-31T08:46:23Z</time>
      </trkpt>
      <trkpt lat="47.9166" lon="6.97079">
        <ele>472.14</ele>
        <time>2022-07-31T08:46:31Z</time>
      </trkpt>
      <trkpt lat="47.91663" lon="6.97073">
        <ele>472.14</ele>
        <time>2022-07-31T08:46:32Z</time>
      </trkpt>
      <trkpt lat="47.91666" lon="6.97067">
        <ele>472.14</ele>
        <time>2022-07-31T08:46:33Z</time>
      </trkpt>
      <trkpt lat="47.91719" lon="6.96969">
        <ele>473.11</ele>
        <time>2022-07-31T08:46:48Z</time>
      </trkpt>
      <trkpt lat="47.91747" lon="6.96913">
        <ele>474.07</ele>
        <time>2022-07-31T08:46:56Z</time>
      </trkpt>
      <trkpt lat="47.91792" lon="6.96807">
        <ele>474.55</ele>
        <time>2022-07-31T08:47:10Z</time>
      </trkpt>
      <trkpt lat="47.91826" lon="6.96713">
        <ele>475.51</ele>
        <time>2022-07-31T08:47:22Z</time>
      </trkpt>
      <trkpt lat="47.91832" lon="6.96698">
        <ele>475.03</ele>
        <time>2022-07-31T08:47:24Z</time>
      </trkpt>
      <trkpt lat="47.91864" lon="6.96648">
        <ele>475.99</ele>
        <time>2022-07-31T08:47:32Z</time>
      </trkpt>
      <trkpt lat="47.91867" lon="6.96641">
        <ele>475.99</ele>
        <time>2022-07-31T08:47:33Z</time>
      </trkpt>
      <trkpt lat="47.91869" lon="6.96635">
        <ele>475.99</ele>
        <time>2022-07-31T08:47:34Z</time>
      </trkpt>
      <trkpt lat="47.91874" lon="6.9662">
        <ele>475.99</ele>
        <time>2022-07-31T08:47:36Z</time>
      </trkpt>
      <trkpt lat="47.91886" lon="6.9658">
        <ele>475.51</ele>
        <time>2022-07-31T08:47:41Z</time>
      </trkpt>
      <trkpt lat="47.9189" lon="6.96573">
        <ele>474.55</ele>
        <time>2022-07-31T08:47:42Z</time>
      </trkpt>
      <trkpt lat="47.91955" lon="6.96516">
        <ele>474.55</ele>
        <time>2022-07-31T08:47:54Z</time>
      </trkpt>
      <trkpt lat="47.92033" lon="6.96451">
        <ele>475.03</ele>
        <time>2022-07-31T08:48:10Z</time>
      </trkpt>
      <trkpt lat="47.92038" lon="6.96447">
        <ele>475.03</ele>
        <time>2022-07-31T08:48:11Z</time>
      </trkpt>
      <trkpt lat="47.92043" lon="6.96444">
        <ele>475.03</ele>
        <time>2022-07-31T08:48:12Z</time>
      </trkpt>
      <trkpt lat="47.92049" lon="6.96443">
        <ele>475.03</ele>
        <time>2022-07-31T08:48:13Z</time>
      </trkpt>
      <trkpt lat="47.92055" lon="6.96444">
        <ele>475.03</ele>
        <time>2022-07-31T08:48:14Z</time>
      </trkpt>
      <trkpt lat="47.9206" lon="6.96444">
        <ele>475.03</ele>
        <time>2022-07-31T08:48:15Z</time>
      </trkpt>
      <trkpt lat="47.92066" lon="6.96445">
        <ele>475.51</ele>
        <time>2022-07-31T08:48:16Z</time>
      </trkpt>
      <trkpt lat="47.92071" lon="6.96446">
        <ele>475.51</ele>
        <time>2022-07-31T08:48:17Z</time>
      </trkpt>
      <trkpt lat="47.92076" lon="6.96444">
        <ele>475.51</ele>
        <time>2022-07-31T08:48:18Z</time>
      </trkpt>
      <trkpt lat="47.9208" lon="6.9644">
        <ele>475.51</ele>
        <time>2022-07-31T08:48:19Z</time>
      </trkpt>
      <trkpt lat="47.92084" lon="6.96434">
        <ele>475.99</ele>
        <time>2022-07-31T08:48:20Z</time>
      </trkpt>
      <trkpt lat="47.92087" lon="6.96429">
        <ele>475.99</ele>
        <time>2022-07-31T08:48:21Z</time>
      </trkpt>
      <trkpt lat="47.92095" lon="6.96421">
        <ele>475.99</ele>
        <time>2022-07-31T08:48:23Z</time>
      </trkpt>
      <trkpt lat="47.92101" lon="6.9642">
        <ele>475.99</ele>
        <time>2022-07-31T08:48:24Z</time>
      </trkpt>
      <trkpt lat="47.92106" lon="6.9642">
        <ele>475.99</ele>
        <time>2022-07-31T08:48:25Z</time>
      </trkpt>
      <trkpt lat="47.92112" lon="6.96421">
        <ele>475.51</ele>
        <time>2022-07-31T08:48:26Z</time>
      </trkpt>
      <trkpt lat="47.92117" lon="6.96424">
        <ele>475.99</ele>
        <time>2022-07-31T08:48:27Z</time>
      </trkpt>
      <trkpt lat="47.92191" lon="6.96464">
        <ele>476.47</ele>
        <time>2022-07-31T08:48:40Z</time>
      </trkpt>
      <trkpt lat="47.92274" lon="6.96478">
        <ele>477.91</ele>
        <time>2022-07-31T08:48:54Z</time>
      </trkpt>
      <trkpt lat="47.92375" lon="6.96483">
        <ele>479.84</ele>
        <time>2022-07-31T08:49:11Z</time>
      </trkpt>
      <trkpt lat="47.92427" lon="6.96473">
        <ele>483.68</ele>
        <time>2022-07-31T08:49:20Z</time>
      </trkpt>
      <trkpt lat="47.92512" lon="6.96412">
        <ele>485.12</ele>
        <time>2022-07-31T08:49:36Z</time>
      </trkpt>
      <trkpt lat="47.92525" lon="6.96402">
        <ele>486.56</ele>
        <time>2022-07-31T08:49:39Z</time>
      </trkpt>
      <trkpt lat="47.9255" lon="6.96371">
        <ele>488.01</ele>
        <time>2022-07-31T08:49:46Z</time>
      </trkpt>
      <trkpt lat="47.92566" lon="6.9634">
        <ele>487.53</ele>
        <time>2022-07-31T08:49:51Z</time>
      </trkpt>
      <trkpt lat="47.92625" lon="6.96269">
        <ele>488.49</ele>
        <time>2022-07-31T08:50:06Z</time>
      </trkpt>
      <trkpt lat="47.92635" lon="6.96257">
        <ele>488.49</ele>
        <time>2022-07-31T08:50:09Z</time>
      </trkpt>
      <trkpt lat="47.92639" lon="6.96255">
        <ele>488.49</ele>
        <time>2022-07-31T08:50:10Z</time>
      </trkpt>
      <trkpt lat="47.92644" lon="6.96256">
        <ele>488.49</ele>
        <time>2022-07-31T08:50:11Z</time>
      </trkpt>
      <trkpt lat="47.92648" lon="6.96258">
        <ele>488.97</ele>
        <time>2022-07-31T08:50:12Z</time>
      </trkpt>
      <trkpt lat="47.92651" lon="6.96261">
        <ele>489.45</ele>
        <time>2022-07-31T08:50:13Z</time>
      </trkpt>
      <trkpt lat="47.92655" lon="6.96266">
        <ele>489.45</ele>
        <time>2022-07-31T08:50:14Z</time>
      </trkpt>
      <trkpt lat="47.92677" lon="6.96311">
        <ele>489.93</ele>
        <time>2022-07-31T08:50:22Z</time>
      </trkpt>
      <trkpt lat="47.92679" lon="6.96316">
        <ele>489.93</ele>
        <time>2022-07-31T08:50:23Z</time>
      </trkpt>
      <trkpt lat="47.92682" lon="6.9632">
        <ele>489.93</ele>
        <time>2022-07-31T08:50:24Z</time>
      </trkpt>
      <trkpt lat="47.92685" lon="6.9632">
        <ele>489.93</ele>
        <time>2022-07-31T08:50:25Z</time>
      </trkpt>
      <trkpt lat="47.92688" lon="6.96317">
        <ele>489.93</ele>
        <time>2022-07-31T08:50:26Z</time>
      </trkpt>
      <trkpt lat="47.92688" lon="6.96312">
        <ele>490.41</ele>
        <time>2022-07-31T08:50:27Z</time>
      </trkpt>
      <trkpt lat="47.92685" lon="6.96308">
        <ele>490.41</ele>
        <time>2022-07-31T08:50:28Z</time>
      </trkpt>
      <trkpt lat="47.92683" lon="6.96303">
        <ele>490.41</ele>
        <time>2022-07-31T08:50:29Z</time>
      </trkpt>
      <trkpt lat="47.92681" lon="6.96298">
        <ele>490.89</ele>
        <time>2022-07-31T08:50:30Z</time>
      </trkpt>
      <trkpt lat="47.92679" lon="6.96293">
        <ele>490.89</ele>
        <time>2022-07-31T08:50:31Z</time>
      </trkpt>
      <trkpt lat="47.92677" lon="6.96288">
        <ele>491.37</ele>
        <time>2022-07-31T08:50:32Z</time>
      </trkpt>
      <trkpt lat="47.9267" lon="6.96261">
        <ele>492.81</ele>
        <time>2022-07-31T08:50:37Z</time>
      </trkpt>
      <trkpt lat="47.92671" lon="6.96254">
        <ele>492.81</ele>
        <time>2022-07-31T08:50:38Z</time>
      </trkpt>
      <trkpt lat="47.92672" lon="6.96248">
        <ele>493.29</ele>
        <time>2022-07-31T08:50:39Z</time>
      </trkpt>
      <trkpt lat="47.92674" lon="6.96243">
        <ele>493.29</ele>
        <time>2022-07-31T08:50:40Z</time>
      </trkpt>
      <trkpt lat="47.92677" lon="6.96238">
        <ele>493.29</ele>
        <time>2022-07-31T08:50:41Z</time>
      </trkpt>
      <trkpt lat="47.9268" lon="6.96234">
        <ele>493.29</ele>
        <time>2022-07-31T08:50:42Z</time>
      </trkpt>
      <trkpt lat="47.92684" lon="6.9623">
        <ele>493.77</ele>
        <time>2022-07-31T08:50:43Z</time>
      </trkpt>
      <trkpt lat="47.92688" lon="6.96227">
        <ele>493.77</ele>
        <time>2022-07-31T08:50:44Z</time>
      </trkpt>
      <trkpt lat="47.92692" lon="6.96225">
        <ele>493.77</ele>
        <time>2022-07-31T08:50:45Z</time>
      </trkpt>
      <trkpt lat="47.92697" lon="6.96223">
        <ele>494.26</ele>
        <time>2022-07-31T08:50:46Z</time>
      </trkpt>
      <trkpt lat="47.92716" lon="6.96218">
        <ele>494.26</ele>
        <time>2022-07-31T08:50:50Z</time>
      </trkpt>
      <trkpt lat="47.92721" lon="6.96215">
        <ele>494.26</ele>
        <time>2022-07-31T08:50:51Z</time>
      </trkpt>
      <trkpt lat="47.92725" lon="6.9621">
        <ele>494.26</ele>
        <time>2022-07-31T08:50:52Z</time>
      </trkpt>
      <trkpt lat="47.92729" lon="6.96204">
        <ele>494.26</ele>
        <time>2022-07-31T08:50:53Z</time>
      </trkpt>
      <trkpt lat="47.92732" lon="6.96198">
        <ele>493.77</ele>
        <time>2022-07-31T08:50:54Z</time>
      </trkpt>
      <trkpt lat="47.92758" lon="6.96154">
        <ele>493.29</ele>
        <time>2022-07-31T08:51:01Z</time>
      </trkpt>
      <trkpt lat="47.92762" lon="6.96149">
        <ele>493.77</ele>
        <time>2022-07-31T08:51:02Z</time>
      </trkpt>
      <trkpt lat="47.92767" lon="6.96145">
        <ele>493.77</ele>
        <time>2022-07-31T08:51:03Z</time>
      </trkpt>
      <trkpt lat="47.92772" lon="6.96142">
        <ele>493.77</ele>
        <time>2022-07-31T08:51:04Z</time>
      </trkpt>
      <trkpt lat="47.92777" lon="6.9614">
        <ele>493.77</ele>
        <time>2022-07-31T08:51:05Z</time>
      </trkpt>
      <trkpt lat="47.92783" lon="6.96139">
        <ele>493.77</ele>
        <time>2022-07-31T08:51:06Z</time>
      </trkpt>
      <trkpt lat="47.92799" lon="6.96137">
        <ele>494.26</ele>
        <time>2022-07-31T08:51:09Z</time>
      </trkpt>
      <trkpt lat="47.92874" lon="6.96129">
        <ele>493.29</ele>
        <time>2022-07-31T08:51:22Z</time>
      </trkpt>
      <trkpt lat="47.92968" lon="6.96115">
        <ele>493.77</ele>
        <time>2022-07-31T08:51:38Z</time>
      </trkpt>
      <trkpt lat="47.92999" lon="6.96114">
        <ele>494.74</ele>
        <time>2022-07-31T08:51:48Z</time>
      </trkpt>
      <trkpt lat="47.93011" lon="6.9611">
        <ele>494.26</ele>
        <time>2022-07-31T08:51:51Z</time>
      </trkpt>
      <trkpt lat="47.93016" lon="6.96107">
        <ele>494.26</ele>
        <time>2022-07-31T08:51:52Z</time>
      </trkpt>
      <trkpt lat="47.93078" lon="6.96046">
        <ele>495.22</ele>
        <time>2022-07-31T08:52:06Z</time>
      </trkpt>
      <trkpt lat="47.93123" lon="6.95975">
        <ele>496.66</ele>
        <time>2022-07-31T08:52:19Z</time>
      </trkpt>
      <trkpt lat="47.93127" lon="6.9597">
        <ele>496.66</ele>
        <time>2022-07-31T08:52:20Z</time>
      </trkpt>
      <trkpt lat="47.9313" lon="6.95964">
        <ele>496.66</ele>
        <time>2022-07-31T08:52:21Z</time>
      </trkpt>
      <trkpt lat="47.93134" lon="6.95957">
        <ele>496.66</ele>
        <time>2022-07-31T08:52:22Z</time>
      </trkpt>
      <trkpt lat="47.93138" lon="6.95951">
        <ele>496.66</ele>
        <time>2022-07-31T08:52:23Z</time>
      </trkpt>
      <trkpt lat="47.93153" lon="6.95917">
        <ele>497.62</ele>
        <time>2022-07-31T08:52:28Z</time>
      </trkpt>
      <trkpt lat="47.9317" lon="6.95846">
        <ele>497.62</ele>
        <time>2022-07-31T08:52:37Z</time>
      </trkpt>
      <trkpt lat="47.93182" lon="6.95822">
        <ele>498.1</ele>
        <time>2022-07-31T08:52:41Z</time>
      </trkpt>
      <trkpt lat="47.93187" lon="6.95817">
        <ele>498.1</ele>
        <time>2022-07-31T08:52:42Z</time>
      </trkpt>
      <trkpt lat="47.93192" lon="6.95813">
        <ele>498.1</ele>
        <time>2022-07-31T08:52:43Z</time>
      </trkpt>
      <trkpt lat="47.93197" lon="6.9581">
        <ele>498.1</ele>
        <time>2022-07-31T08:52:44Z</time>
      </trkpt>
      <trkpt lat="47.93202" lon="6.95807">
        <ele>498.1</ele>
        <time>2022-07-31T08:52:45Z</time>
      </trkpt>
      <trkpt lat="47.93304" lon="6.95736">
        <ele>499.06</ele>
        <time>2022-07-31T08:53:04Z</time>
      </trkpt>
      <trkpt lat="47.93375" lon="6.95683">
        <ele>502.43</ele>
        <time>2022-07-31T08:53:19Z</time>
      </trkpt>
      <trkpt lat="47.93379" lon="6.95681">
        <ele>502.43</ele>
        <time>2022-07-31T08:53:20Z</time>
      </trkpt>
      <trkpt lat="47.93421" lon="6.95656">
        <ele>502.43</ele>
        <time>2022-07-31T08:53:28Z</time>
      </trkpt>
      <trkpt lat="47.9348" lon="6.95636">
        <ele>502.43</ele>
        <time>2022-07-31T08:53:38Z</time>
      </trkpt>
      <trkpt lat="47.93486" lon="6.95635">
        <ele>502.43</ele>
        <time>2022-07-31T08:53:39Z</time>
      </trkpt>
      <trkpt lat="47.93572" lon="6.95648">
        <ele>502.43</ele>
        <time>2022-07-31T08:53:54Z</time>
      </trkpt>
      <trkpt lat="47.93577" lon="6.9565">
        <ele>502.43</ele>
        <time>2022-07-31T08:53:55Z</time>
      </trkpt>
      <trkpt lat="47.93654" lon="6.9565">
        <ele>503.39</ele>
        <time>2022-07-31T08:54:10Z</time>
      </trkpt>
      <trkpt lat="47.93754" lon="6.95655">
        <ele>504.35</ele>
        <time>2022-07-31T08:54:29Z</time>
      </trkpt>
      <trkpt lat="47.93791" lon="6.95661">
        <ele>504.83</ele>
        <time>2022-07-31T08:54:36Z</time>
      </trkpt>
      <trkpt lat="47.93796" lon="6.95663">
        <ele>504.83</ele>
        <time>2022-07-31T08:54:37Z</time>
      </trkpt>
      <trkpt lat="47.93801" lon="6.95666">
        <ele>504.83</ele>
        <time>2022-07-31T08:54:38Z</time>
      </trkpt>
      <trkpt lat="47.93805" lon="6.9567">
        <ele>505.31</ele>
        <time>2022-07-31T08:54:39Z</time>
      </trkpt>
      <trkpt lat="47.93808" lon="6.95674">
        <ele>505.31</ele>
        <time>2022-07-31T08:54:40Z</time>
      </trkpt>
      <trkpt lat="47.93812" lon="6.95679">
        <ele>505.31</ele>
        <time>2022-07-31T08:54:41Z</time>
      </trkpt>
      <trkpt lat="47.93815" lon="6.95684">
        <ele>505.31</ele>
        <time>2022-07-31T08:54:42Z</time>
      </trkpt>
      <trkpt lat="47.93841" lon="6.95724">
        <ele>504.83</ele>
        <time>2022-07-31T08:54:49Z</time>
      </trkpt>
      <trkpt lat="47.93845" lon="6.95728">
        <ele>505.31</ele>
        <time>2022-07-31T08:54:50Z</time>
      </trkpt>
      <trkpt lat="47.9385" lon="6.95732">
        <ele>504.83</ele>
        <time>2022-07-31T08:54:51Z</time>
      </trkpt>
      <trkpt lat="47.93859" lon="6.95738">
        <ele>504.83</ele>
        <time>2022-07-31T08:54:53Z</time>
      </trkpt>
      <trkpt lat="47.93863" lon="6.95742">
        <ele>504.83</ele>
        <time>2022-07-31T08:54:54Z</time>
      </trkpt>
      <trkpt lat="47.93869" lon="6.95752">
        <ele>504.83</ele>
        <time>2022-07-31T08:54:56Z</time>
      </trkpt>
      <trkpt lat="47.93872" lon="6.95756">
        <ele>504.83</ele>
        <time>2022-07-31T08:54:57Z</time>
      </trkpt>
      <trkpt lat="47.93874" lon="6.95762">
        <ele>504.83</ele>
        <time>2022-07-31T08:54:58Z</time>
      </trkpt>
      <trkpt lat="47.93876" lon="6.95768">
        <ele>504.83</ele>
        <time>2022-07-31T08:54:59Z</time>
      </trkpt>
      <trkpt lat="47.93879" lon="6.95774">
        <ele>504.83</ele>
        <time>2022-07-31T08:55:00Z</time>
      </trkpt>
      <trkpt lat="47.93883" lon="6.95779">
        <ele>504.83</ele>
        <time>2022-07-31T08:55:01Z</time>
      </trkpt>
      <trkpt lat="47.93887" lon="6.95781">
        <ele>504.83</ele>
        <time>2022-07-31T08:55:02Z</time>
      </trkpt>
      <trkpt lat="47.93892" lon="6.95782">
        <ele>504.83</ele>
        <time>2022-07-31T08:55:03Z</time>
      </trkpt>
      <trkpt lat="47.93897" lon="6.95781">
        <ele>505.31</ele>
        <time>2022-07-31T08:55:04Z</time>
      </trkpt>
      <trkpt lat="47.93902" lon="6.9578">
        <ele>504.83</ele>
        <time>2022-07-31T08:55:05Z</time>
      </trkpt>
      <trkpt lat="47.93954" lon="6.95772">
        <ele>505.31</ele>
        <time>2022-07-31T08:55:15Z</time>
      </trkpt>
      <trkpt lat="47.9396" lon="6.95773">
        <ele>505.79</ele>
        <time>2022-07-31T08:55:16Z</time>
      </trkpt>
      <trkpt lat="47.93965" lon="6.95775">
        <ele>505.79</ele>
        <time>2022-07-31T08:55:17Z</time>
      </trkpt>
      <trkpt lat="47.93984" lon="6.95789">
        <ele>505.79</ele>
        <time>2022-07-31T08:55:21Z</time>
      </trkpt>
      <trkpt lat="47.93988" lon="6.95792">
        <ele>506.27</ele>
        <time>2022-07-31T08:55:22Z</time>
      </trkpt>
      <trkpt lat="47.93992" lon="6.95796">
        <ele>507.71</ele>
        <time>2022-07-31T08:55:23Z</time>
      </trkpt>
      <trkpt lat="47.93995" lon="6.95799">
        <ele>506.75</ele>
        <time>2022-07-31T08:55:24Z</time>
      </trkpt>
      <trkpt lat="47.93999" lon="6.95803">
        <ele>506.27</ele>
        <time>2022-07-31T08:55:25Z</time>
      </trkpt>
      <trkpt lat="47.94001" lon="6.95806">
        <ele>506.27</ele>
        <time>2022-07-31T08:55:26Z</time>
      </trkpt>
      <trkpt lat="47.94011" lon="6.95814">
        <ele>507.23</ele>
        <time>2022-07-31T08:55:30Z</time>
      </trkpt>
      <trkpt lat="47.94014" lon="6.95814">
        <ele>506.75</ele>
        <time>2022-07-31T08:55:31Z</time>
      </trkpt>
      <trkpt lat="47.94018" lon="6.95812">
        <ele>507.23</ele>
        <time>2022-07-31T08:55:32Z</time>
      </trkpt>
      <trkpt lat="47.94021" lon="6.95811">
        <ele>507.23</ele>
        <time>2022-07-31T08:55:33Z</time>
      </trkpt>
      <trkpt lat="47.94024" lon="6.95809">
        <ele>507.23</ele>
        <time>2022-07-31T08:55:34Z</time>
      </trkpt>
      <trkpt lat="47.94027" lon="6.95807">
        <ele>507.23</ele>
        <time>2022-07-31T08:55:35Z</time>
      </trkpt>
      <trkpt lat="47.94031" lon="6.95805">
        <ele>507.23</ele>
        <time>2022-07-31T08:55:36Z</time>
      </trkpt>
      <trkpt lat="47.9404" lon="6.95803">
        <ele>507.71</ele>
        <time>2022-07-31T08:55:41Z</time>
      </trkpt>
      <trkpt lat="47.94042" lon="6.95801">
        <ele>507.71</ele>
        <time>2022-07-31T08:55:42Z</time>
      </trkpt>
      <trkpt lat="47.94044" lon="6.95797">
        <ele>507.71</ele>
        <time>2022-07-31T08:55:43Z</time>
      </trkpt>
      <trkpt lat="47.94046" lon="6.95792">
        <ele>507.71</ele>
        <time>2022-07-31T08:55:44Z</time>
      </trkpt>
      <trkpt lat="47.94047" lon="6.95787">
        <ele>507.71</ele>
        <time>2022-07-31T08:55:45Z</time>
      </trkpt>
      <trkpt lat="47.94049" lon="6.95781">
        <ele>507.71</ele>
        <time>2022-07-31T08:55:46Z</time>
      </trkpt>
      <trkpt lat="47.94085" lon="6.95682">
        <ele>509.64</ele>
        <time>2022-07-31T08:56:03Z</time>
      </trkpt>
      <trkpt lat="47.94129" lon="6.95584">
        <ele>512.52</ele>
        <time>2022-07-31T08:56:21Z</time>
      </trkpt>
      <trkpt lat="47.94184" lon="6.95465">
        <ele>515.4</ele>
        <time>2022-07-31T08:56:42Z</time>
      </trkpt>
      <trkpt lat="47.94212" lon="6.95387">
        <ele>518.29</ele>
        <time>2022-07-31T08:56:54Z</time>
      </trkpt>
      <trkpt lat="47.94218" lon="6.95341">
        <ele>519.25</ele>
        <time>2022-07-31T08:57:01Z</time>
      </trkpt>
      <trkpt lat="47.9422" lon="6.95334">
        <ele>519.73</ele>
        <time>2022-07-31T08:57:02Z</time>
      </trkpt>
      <trkpt lat="47.9423" lon="6.95295">
        <ele>520.69</ele>
        <time>2022-07-31T08:57:08Z</time>
      </trkpt>
      <trkpt lat="47.94234" lon="6.95276">
        <ele>521.65</ele>
        <time>2022-07-31T08:57:11Z</time>
      </trkpt>
      <trkpt lat="47.94247" lon="6.95248">
        <ele>522.61</ele>
        <time>2022-07-31T08:57:16Z</time>
      </trkpt>
      <trkpt lat="47.9425" lon="6.95243">
        <ele>523.09</ele>
        <time>2022-07-31T08:57:17Z</time>
      </trkpt>
      <trkpt lat="47.94258" lon="6.95235">
        <ele>523.58</ele>
        <time>2022-07-31T08:57:19Z</time>
      </trkpt>
      <trkpt lat="47.94262" lon="6.95232">
        <ele>523.58</ele>
        <time>2022-07-31T08:57:20Z</time>
      </trkpt>
      <trkpt lat="47.94267" lon="6.95229">
        <ele>523.58</ele>
        <time>2022-07-31T08:57:21Z</time>
      </trkpt>
      <trkpt lat="47.94273" lon="6.95227">
        <ele>523.58</ele>
        <time>2022-07-31T08:57:22Z</time>
      </trkpt>
      <trkpt lat="47.94279" lon="6.95225">
        <ele>523.58</ele>
        <time>2022-07-31T08:57:23Z</time>
      </trkpt>
      <trkpt lat="47.9429" lon="6.95225">
        <ele>524.06</ele>
        <time>2022-07-31T08:57:25Z</time>
      </trkpt>
      <trkpt lat="47.94295" lon="6.95226">
        <ele>524.06</ele>
        <time>2022-07-31T08:57:26Z</time>
      </trkpt>
      <trkpt lat="47.94301" lon="6.95228">
        <ele>524.06</ele>
        <time>2022-07-31T08:57:27Z</time>
      </trkpt>
      <trkpt lat="47.94321" lon="6.95242">
        <ele>524.54</ele>
        <time>2022-07-31T08:57:31Z</time>
      </trkpt>
      <trkpt lat="47.94325" lon="6.95249">
        <ele>524.54</ele>
        <time>2022-07-31T08:57:32Z</time>
      </trkpt>
      <trkpt lat="47.94328" lon="6.95256">
        <ele>524.54</ele>
        <time>2022-07-31T08:57:33Z</time>
      </trkpt>
      <trkpt lat="47.9433" lon="6.95264">
        <ele>524.54</ele>
        <time>2022-07-31T08:57:34Z</time>
      </trkpt>
      <trkpt lat="47.94332" lon="6.95271">
        <ele>525.02</ele>
        <time>2022-07-31T08:57:35Z</time>
      </trkpt>
      <trkpt lat="47.94333" lon="6.95278">
        <ele>525.02</ele>
        <time>2022-07-31T08:57:36Z</time>
      </trkpt>
      <trkpt lat="47.94334" lon="6.95284">
        <ele>525.5</ele>
        <time>2022-07-31T08:57:37Z</time>
      </trkpt>
      <trkpt lat="47.94335" lon="6.9529">
        <ele>525.98</ele>
        <time>2022-07-31T08:57:38Z</time>
      </trkpt>
      <trkpt lat="47.94338" lon="6.95303">
        <ele>526.94</ele>
        <time>2022-07-31T08:57:40Z</time>
      </trkpt>
      <trkpt lat="47.94344" lon="6.9533">
        <ele>528.86</ele>
        <time>2022-07-31T08:57:45Z</time>
      </trkpt>
      <trkpt lat="47.94355" lon="6.95356">
        <ele>531.27</ele>
        <time>2022-07-31T08:57:52Z</time>
      </trkpt>
      <trkpt lat="47.94356" lon="6.95358">
        <ele>531.75</ele>
        <time>2022-07-31T08:57:53Z</time>
      </trkpt>
      <trkpt lat="47.94362" lon="6.95368">
        <ele>533.19</ele>
        <time>2022-07-31T08:57:58Z</time>
      </trkpt>
      <trkpt lat="47.94367" lon="6.95372">
        <ele>533.67</ele>
        <time>2022-07-31T08:57:59Z</time>
      </trkpt>
      <trkpt lat="47.9438" lon="6.95381">
        <ele>534.63</ele>
        <time>2022-07-31T08:58:01Z</time>
      </trkpt>
      <trkpt lat="47.94387" lon="6.95384">
        <ele>534.63</ele>
        <time>2022-07-31T08:58:02Z</time>
      </trkpt>
      <trkpt lat="47.94438" lon="6.9539">
        <ele>537.99</ele>
        <time>2022-07-31T08:58:12Z</time>
      </trkpt>
      <trkpt lat="47.94465" lon="6.95382">
        <ele>539.44</ele>
        <time>2022-07-31T08:58:18Z</time>
      </trkpt>
      <trkpt lat="47.9451" lon="6.95366">
        <ele>542.8</ele>
        <time>2022-07-31T08:58:30Z</time>
      </trkpt>
      <trkpt lat="47.94531" lon="6.95358">
        <ele>544.24</ele>
        <time>2022-07-31T08:58:35Z</time>
      </trkpt>
      <trkpt lat="47.94576" lon="6.9534">
        <ele>547.61</ele>
        <time>2022-07-31T08:58:47Z</time>
      </trkpt>
      <trkpt lat="47.94619" lon="6.95333">
        <ele>549.05</ele>
        <time>2022-07-31T08:59:00Z</time>
      </trkpt>
      <trkpt lat="47.94658" lon="6.95327">
        <ele>550.01</ele>
        <time>2022-07-31T08:59:12Z</time>
      </trkpt>
      <trkpt lat="47.94683" lon="6.95312">
        <ele>550.49</ele>
        <time>2022-07-31T08:59:19Z</time>
      </trkpt>
      <trkpt lat="47.94687" lon="6.95309">
        <ele>550.97</ele>
        <time>2022-07-31T08:59:20Z</time>
      </trkpt>
      <trkpt lat="47.94698" lon="6.95298">
        <ele>550.97</ele>
        <time>2022-07-31T08:59:23Z</time>
      </trkpt>
      <trkpt lat="47.94702" lon="6.95294">
        <ele>550.97</ele>
        <time>2022-07-31T08:59:24Z</time>
      </trkpt>
      <trkpt lat="47.94705" lon="6.95289">
        <ele>550.97</ele>
        <time>2022-07-31T08:59:25Z</time>
      </trkpt>
      <trkpt lat="47.94709" lon="6.95285">
        <ele>551.45</ele>
        <time>2022-07-31T08:59:26Z</time>
      </trkpt>
      <trkpt lat="47.94712" lon="6.9528">
        <ele>551.45</ele>
        <time>2022-07-31T08:59:27Z</time>
      </trkpt>
      <trkpt lat="47.94752" lon="6.95233">
        <ele>552.9</ele>
        <time>2022-07-31T08:59:41Z</time>
      </trkpt>
      <trkpt lat="47.94778" lon="6.9521">
        <ele>553.86</ele>
        <time>2022-07-31T08:59:50Z</time>
      </trkpt>
      <trkpt lat="47.94782" lon="6.95207">
        <ele>553.86</ele>
        <time>2022-07-31T08:59:51Z</time>
      </trkpt>
      <trkpt lat="47.94817" lon="6.95176">
        <ele>554.34</ele>
        <time>2022-07-31T09:00:00Z</time>
      </trkpt>
      <trkpt lat="47.94833" lon="6.9516">
        <ele>554.34</ele>
        <time>2022-07-31T09:00:04Z</time>
      </trkpt>
      <trkpt lat="47.94837" lon="6.95156">
        <ele>553.86</ele>
        <time>2022-07-31T09:00:05Z</time>
      </trkpt>
      <trkpt lat="47.94861" lon="6.95136">
        <ele>554.34</ele>
        <time>2022-07-31T09:00:10Z</time>
      </trkpt>
      <trkpt lat="47.94866" lon="6.95133">
        <ele>554.34</ele>
        <time>2022-07-31T09:00:11Z</time>
      </trkpt>
      <trkpt lat="47.94886" lon="6.95122">
        <ele>553.86</ele>
        <time>2022-07-31T09:00:15Z</time>
      </trkpt>
      <trkpt lat="47.9489" lon="6.95119">
        <ele>553.86</ele>
        <time>2022-07-31T09:00:16Z</time>
      </trkpt>
      <trkpt lat="47.94957" lon="6.95078">
        <ele>553.86</ele>
        <time>2022-07-31T09:00:29Z</time>
      </trkpt>
      <trkpt lat="47.94996" lon="6.95054">
        <ele>553.38</ele>
        <time>2022-07-31T09:00:37Z</time>
      </trkpt>
      <trkpt lat="47.95042" lon="6.95034">
        <ele>553.38</ele>
        <time>2022-07-31T09:00:46Z</time>
      </trkpt>
      <trkpt lat="47.95046" lon="6.95031">
        <ele>553.38</ele>
        <time>2022-07-31T09:00:47Z</time>
      </trkpt>
      <trkpt lat="47.95056" lon="6.95027">
        <ele>553.86</ele>
        <time>2022-07-31T09:00:49Z</time>
      </trkpt>
      <trkpt lat="47.95061" lon="6.95026">
        <ele>553.38</ele>
        <time>2022-07-31T09:00:50Z</time>
      </trkpt>
      <trkpt lat="47.95066" lon="6.95024">
        <ele>553.86</ele>
        <time>2022-07-31T09:00:51Z</time>
      </trkpt>
      <trkpt lat="47.95085" lon="6.9502">
        <ele>553.86</ele>
        <time>2022-07-31T09:00:55Z</time>
      </trkpt>
      <trkpt lat="47.95099" lon="6.95019">
        <ele>553.86</ele>
        <time>2022-07-31T09:00:58Z</time>
      </trkpt>
      <trkpt lat="47.95121" lon="6.95018">
        <ele>553.86</ele>
        <time>2022-07-31T09:01:02Z</time>
      </trkpt>
      <trkpt lat="47.95126" lon="6.95018">
        <ele>554.34</ele>
        <time>2022-07-31T09:01:03Z</time>
      </trkpt>
      <trkpt lat="47.95133" lon="6.95017">
        <ele>553.86</ele>
        <time>2022-07-31T09:01:04Z</time>
      </trkpt>
      <trkpt lat="47.95138" lon="6.95017">
        <ele>554.34</ele>
        <time>2022-07-31T09:01:05Z</time>
      </trkpt>
      <trkpt lat="47.95144" lon="6.95017">
        <ele>553.86</ele>
        <time>2022-07-31T09:01:06Z</time>
      </trkpt>
      <trkpt lat="47.9517" lon="6.95017">
        <ele>554.34</ele>
        <time>2022-07-31T09:01:11Z</time>
      </trkpt>
      <trkpt lat="47.95193" lon="6.95019">
        <ele>554.34</ele>
        <time>2022-07-31T09:01:15Z</time>
      </trkpt>
      <trkpt lat="47.95255" lon="6.95031">
        <ele>555.3</ele>
        <time>2022-07-31T09:01:27Z</time>
      </trkpt>
      <trkpt lat="47.95296" lon="6.95036">
        <ele>558.18</ele>
        <time>2022-07-31T09:01:39Z</time>
      </trkpt>
      <trkpt lat="47.95302" lon="6.95041">
        <ele>559.14</ele>
        <time>2022-07-31T09:01:43Z</time>
      </trkpt>
      <trkpt lat="47.95304" lon="6.95042">
        <ele>559.14</ele>
        <time>2022-07-31T09:01:44Z</time>
      </trkpt>
      <trkpt lat="47.95306" lon="6.95042">
        <ele>559.62</ele>
        <time>2022-07-31T09:01:45Z</time>
      </trkpt>
      <trkpt lat="47.95309" lon="6.95043">
        <ele>560.11</ele>
        <time>2022-07-31T09:01:47Z</time>
      </trkpt>
      <trkpt lat="47.95329" lon="6.95048">
        <ele>562.51</ele>
        <time>2022-07-31T09:01:58Z</time>
      </trkpt>
      <trkpt lat="47.95351" lon="6.95057">
        <ele>564.91</ele>
        <time>2022-07-31T09:02:08Z</time>
      </trkpt>
      <trkpt lat="47.95368" lon="6.95057">
        <ele>567.32</ele>
        <time>2022-07-31T09:02:18Z</time>
      </trkpt>
      <trkpt lat="47.9537" lon="6.95058">
        <ele>567.8</ele>
        <time>2022-07-31T09:02:19Z</time>
      </trkpt>
      <trkpt lat="47.95372" lon="6.95057">
        <ele>568.28</ele>
        <time>2022-07-31T09:02:20Z</time>
      </trkpt>
      <trkpt lat="47.95375" lon="6.95058">
        <ele>568.28</ele>
        <time>2022-07-31T09:02:21Z</time>
      </trkpt>
      <trkpt lat="47.95377" lon="6.95058">
        <ele>568.28</ele>
        <time>2022-07-31T09:02:22Z</time>
      </trkpt>
      <trkpt lat="47.95379" lon="6.95059">
        <ele>568.76</ele>
        <time>2022-07-31T09:02:23Z</time>
      </trkpt>
      <trkpt lat="47.9538" lon="6.9506">
        <ele>568.76</ele>
        <time>2022-07-31T09:02:24Z</time>
      </trkpt>
      <trkpt lat="47.95382" lon="6.9506">
        <ele>569.24</ele>
        <time>2022-07-31T09:02:25Z</time>
      </trkpt>
      <trkpt lat="47.95383" lon="6.95059">
        <ele>569.24</ele>
        <time>2022-07-31T09:02:26Z</time>
      </trkpt>
      <trkpt lat="47.95385" lon="6.95058">
        <ele>569.72</ele>
        <time>2022-07-31T09:02:27Z</time>
      </trkpt>
      <trkpt lat="47.95387" lon="6.95058">
        <ele>569.72</ele>
        <time>2022-07-31T09:02:28Z</time>
      </trkpt>
      <trkpt lat="47.95389" lon="6.95057">
        <ele>569.72</ele>
        <time>2022-07-31T09:02:29Z</time>
      </trkpt>
      <trkpt lat="47.95393" lon="6.95059">
        <ele>570.2</ele>
        <time>2022-07-31T09:02:30Z</time>
      </trkpt>
      <trkpt lat="47.95414" lon="6.95065">
        <ele>572.6</ele>
        <time>2022-07-31T09:02:38Z</time>
      </trkpt>
      <trkpt lat="47.9542" lon="6.95067">
        <ele>573.08</ele>
        <time>2022-07-31T09:02:41Z</time>
      </trkpt>
      <trkpt lat="47.9545" lon="6.95076">
        <ele>575.97</ele>
        <time>2022-07-31T09:02:52Z</time>
      </trkpt>
      <trkpt lat="47.95474" lon="6.95077">
        <ele>578.37</ele>
        <time>2022-07-31T09:03:03Z</time>
      </trkpt>
      <trkpt lat="47.95476" lon="6.95079">
        <ele>578.85</ele>
        <time>2022-07-31T09:03:04Z</time>
      </trkpt>
      <trkpt lat="47.95478" lon="6.95079">
        <ele>579.33</ele>
        <time>2022-07-31T09:03:05Z</time>
      </trkpt>
      <trkpt lat="47.9548" lon="6.9508">
        <ele>579.33</ele>
        <time>2022-07-31T09:03:06Z</time>
      </trkpt>
      <trkpt lat="47.95483" lon="6.9508">
        <ele>579.33</ele>
        <time>2022-07-31T09:03:07Z</time>
      </trkpt>
      <trkpt lat="47.95486" lon="6.95079">
        <ele>579.81</ele>
        <time>2022-07-31T09:03:08Z</time>
      </trkpt>
      <trkpt lat="47.95514" lon="6.95077">
        <ele>581.25</ele>
        <time>2022-07-31T09:03:17Z</time>
      </trkpt>
      <trkpt lat="47.95533" lon="6.95091">
        <ele>582.7</ele>
        <time>2022-07-31T09:03:26Z</time>
      </trkpt>
      <trkpt lat="47.95537" lon="6.95093">
        <ele>583.18</ele>
        <time>2022-07-31T09:03:27Z</time>
      </trkpt>
      <trkpt lat="47.95538" lon="6.95096">
        <ele>585.1</ele>
        <time>2022-07-31T09:03:28Z</time>
      </trkpt>
      <trkpt lat="47.9554" lon="6.95098">
        <ele>584.14</ele>
        <time>2022-07-31T09:03:29Z</time>
      </trkpt>
      <trkpt lat="47.95542" lon="6.95101">
        <ele>584.14</ele>
        <time>2022-07-31T09:03:30Z</time>
      </trkpt>
      <trkpt lat="47.95545" lon="6.95103">
        <ele>584.14</ele>
        <time>2022-07-31T09:03:31Z</time>
      </trkpt>
      <trkpt lat="47.95558" lon="6.95115">
        <ele>585.58</ele>
        <time>2022-07-31T09:03:37Z</time>
      </trkpt>
      <trkpt lat="47.9556" lon="6.95117">
        <ele>586.06</ele>
        <time>2022-07-31T09:03:38Z</time>
      </trkpt>
      <trkpt lat="47.9559" lon="6.95146">
        <ele>588.46</ele>
        <time>2022-07-31T09:03:51Z</time>
      </trkpt>
      <trkpt lat="47.95601" lon="6.95167">
        <ele>590.39</ele>
        <time>2022-07-31T09:03:59Z</time>
      </trkpt>
      <trkpt lat="47.95603" lon="6.95169">
        <ele>590.87</ele>
        <time>2022-07-31T09:04:00Z</time>
      </trkpt>
      <trkpt lat="47.95605" lon="6.95171">
        <ele>590.87</ele>
        <time>2022-07-31T09:04:01Z</time>
      </trkpt>
      <trkpt lat="47.95607" lon="6.95175">
        <ele>591.35</ele>
        <time>2022-07-31T09:04:02Z</time>
      </trkpt>
      <trkpt lat="47.95608" lon="6.95178">
        <ele>591.35</ele>
        <time>2022-07-31T09:04:03Z</time>
      </trkpt>
      <trkpt lat="47.9561" lon="6.95181">
        <ele>591.83</ele>
        <time>2022-07-31T09:04:04Z</time>
      </trkpt>
      <trkpt lat="47.95613" lon="6.95187">
        <ele>592.31</ele>
        <time>2022-07-31T09:04:06Z</time>
      </trkpt>
      <trkpt lat="47.95615" lon="6.9519">
        <ele>592.31</ele>
        <time>2022-07-31T09:04:07Z</time>
      </trkpt>
      <trkpt lat="47.95617" lon="6.95192">
        <ele>592.31</ele>
        <time>2022-07-31T09:04:08Z</time>
      </trkpt>
      <trkpt lat="47.95618" lon="6.95195">
        <ele>592.31</ele>
        <time>2022-07-31T09:04:09Z</time>
      </trkpt>
      <trkpt lat="47.95621" lon="6.95199">
        <ele>592.79</ele>
        <time>2022-07-31T09:04:10Z</time>
      </trkpt>
      <trkpt lat="47.95637" lon="6.95234">
        <ele>595.67</ele>
        <time>2022-07-31T09:04:22Z</time>
      </trkpt>
      <trkpt lat="47.95652" lon="6.95271">
        <ele>598.56</ele>
        <time>2022-07-31T09:04:34Z</time>
      </trkpt>
      <trkpt lat="47.95655" lon="6.95274">
        <ele>598.56</ele>
        <time>2022-07-31T09:04:48Z</time>
      </trkpt>
      <trkpt lat="47.95655" lon="6.95275">
        <ele>598.56</ele>
        <time>2022-07-31T09:05:03Z</time>
      </trkpt>
      <trkpt lat="47.95655" lon="6.95277">
        <ele>598.56</ele>
        <time>2022-07-31T09:05:27Z</time>
      </trkpt>
      <trkpt lat="47.95654" lon="6.95278">
        <ele>598.56</ele>
        <time>2022-07-31T09:05:48Z</time>
      </trkpt>
      <trkpt lat="47.95654" lon="6.95278">
        <ele>598.56</ele>
        <time>2022-07-31T09:06:15Z</time>
      </trkpt>
      <trkpt lat="47.95653" lon="6.9528">
        <ele>599.04</ele>
        <time>2022-07-31T09:06:41Z</time>
      </trkpt>
      <trkpt lat="47.95653" lon="6.95278">
        <ele>599.04</ele>
        <time>2022-07-31T09:07:16Z</time>
      </trkpt>
      <trkpt lat="47.95653" lon="6.95278">
        <ele>599.04</ele>
        <time>2022-07-31T09:07:42Z</time>
      </trkpt>
      <trkpt lat="47.95655" lon="6.95277">
        <ele>599.04</ele>
        <time>2022-07-31T09:07:52Z</time>
      </trkpt>
      <trkpt lat="47.95662" lon="6.95279">
        <ele>599.52</ele>
        <time>2022-07-31T09:07:56Z</time>
      </trkpt>
      <trkpt lat="47.95666" lon="6.95279">
        <ele>600</ele>
        <time>2022-07-31T09:07:58Z</time>
      </trkpt>
      <trkpt lat="47.95676" lon="6.9528">
        <ele>600.96</ele>
        <time>2022-07-31T09:08:02Z</time>
      </trkpt>
      <trkpt lat="47.95702" lon="6.95279">
        <ele>603.85</ele>
        <time>2022-07-31T09:08:14Z</time>
      </trkpt>
      <trkpt lat="47.95725" lon="6.95286">
        <ele>605.77</ele>
        <time>2022-07-31T09:08:24Z</time>
      </trkpt>
      <trkpt lat="47.95726" lon="6.95287">
        <ele>605.77</ele>
        <time>2022-07-31T09:08:25Z</time>
      </trkpt>
      <trkpt lat="47.95733" lon="6.95289">
        <ele>606.73</ele>
        <time>2022-07-31T09:08:28Z</time>
      </trkpt>
      <trkpt lat="47.95739" lon="6.95294">
        <ele>607.21</ele>
        <time>2022-07-31T09:08:32Z</time>
      </trkpt>
      <trkpt lat="47.95741" lon="6.95294">
        <ele>607.69</ele>
        <time>2022-07-31T09:08:34Z</time>
      </trkpt>
      <trkpt lat="47.95744" lon="6.95297">
        <ele>608.17</ele>
        <time>2022-07-31T09:08:36Z</time>
      </trkpt>
      <trkpt lat="47.95754" lon="6.95304">
        <ele>608.65</ele>
        <time>2022-07-31T09:08:40Z</time>
      </trkpt>
      <trkpt lat="47.95764" lon="6.95302">
        <ele>609.61</ele>
        <time>2022-07-31T09:08:44Z</time>
      </trkpt>
      <trkpt lat="47.95793" lon="6.95299">
        <ele>612.5</ele>
        <time>2022-07-31T09:08:56Z</time>
      </trkpt>
      <trkpt lat="47.95794" lon="6.95299">
        <ele>612.5</ele>
        <time>2022-07-31T09:08:57Z</time>
      </trkpt>
      <trkpt lat="47.95824" lon="6.95296">
        <ele>614.9</ele>
        <time>2022-07-31T09:09:08Z</time>
      </trkpt>
      <trkpt lat="47.95847" lon="6.95295">
        <ele>616.82</ele>
        <time>2022-07-31T09:09:18Z</time>
      </trkpt>
      <trkpt lat="47.95874" lon="6.95293">
        <ele>618.75</ele>
        <time>2022-07-31T09:09:29Z</time>
      </trkpt>
      <trkpt lat="47.9588" lon="6.95293">
        <ele>621.15</ele>
        <time>2022-07-31T09:09:31Z</time>
      </trkpt>
      <trkpt lat="47.9591" lon="6.95296">
        <ele>622.11</ele>
        <time>2022-07-31T09:09:44Z</time>
      </trkpt>
      <trkpt lat="47.95912" lon="6.95295">
        <ele>622.11</ele>
        <time>2022-07-31T09:09:45Z</time>
      </trkpt>
      <trkpt lat="47.95938" lon="6.95305">
        <ele>624.51</ele>
        <time>2022-07-31T09:09:57Z</time>
      </trkpt>
      <trkpt lat="47.95942" lon="6.95305">
        <ele>624.51</ele>
        <time>2022-07-31T09:09:58Z</time>
      </trkpt>
      <trkpt lat="47.95951" lon="6.95313">
        <ele>625.96</ele>
        <time>2022-07-31T09:10:02Z</time>
      </trkpt>
      <trkpt lat="47.95958" lon="6.95316">
        <ele>626.92</ele>
        <time>2022-07-31T09:10:06Z</time>
      </trkpt>
      <trkpt lat="47.9598" lon="6.95318">
        <ele>628.84</ele>
        <time>2022-07-31T09:10:16Z</time>
      </trkpt>
      <trkpt lat="47.96001" lon="6.95314">
        <ele>631.24</ele>
        <time>2022-07-31T09:10:25Z</time>
      </trkpt>
      <trkpt lat="47.9603" lon="6.95305">
        <ele>634.13</ele>
        <time>2022-07-31T09:10:38Z</time>
      </trkpt>
      <trkpt lat="47.96072" lon="6.953">
        <ele>636.53</ele>
        <time>2022-07-31T09:10:48Z</time>
      </trkpt>
      <trkpt lat="47.961" lon="6.95296">
        <ele>639.41</ele>
        <time>2022-07-31T09:11:00Z</time>
      </trkpt>
      <trkpt lat="47.9612" lon="6.95284">
        <ele>641.82</ele>
        <time>2022-07-31T09:11:10Z</time>
      </trkpt>
      <trkpt lat="47.96132" lon="6.95274">
        <ele>643.26</ele>
        <time>2022-07-31T09:11:16Z</time>
      </trkpt>
      <trkpt lat="47.96154" lon="6.9526">
        <ele>646.14</ele>
        <time>2022-07-31T09:11:26Z</time>
      </trkpt>
      <trkpt lat="47.96162" lon="6.95254">
        <ele>647.59</ele>
        <time>2022-07-31T09:11:30Z</time>
      </trkpt>
      <trkpt lat="47.96167" lon="6.95255">
        <ele>648.55</ele>
        <time>2022-07-31T09:11:34Z</time>
      </trkpt>
      <trkpt lat="47.96185" lon="6.95243">
        <ele>650.95</ele>
        <time>2022-07-31T09:11:41Z</time>
      </trkpt>
      <trkpt lat="47.96207" lon="6.95233">
        <ele>653.35</ele>
        <time>2022-07-31T09:11:51Z</time>
      </trkpt>
      <trkpt lat="47.96228" lon="6.95233">
        <ele>655.76</ele>
        <time>2022-07-31T09:12:01Z</time>
      </trkpt>
      <trkpt lat="47.96244" lon="6.95238">
        <ele>657.68</ele>
        <time>2022-07-31T09:12:08Z</time>
      </trkpt>
      <trkpt lat="47.96253" lon="6.95244">
        <ele>659.12</ele>
        <time>2022-07-31T09:12:12Z</time>
      </trkpt>
      <trkpt lat="47.96272" lon="6.95248">
        <ele>660.56</ele>
        <time>2022-07-31T09:12:19Z</time>
      </trkpt>
      <trkpt lat="47.96284" lon="6.95251">
        <ele>662.49</ele>
        <time>2022-07-31T09:12:24Z</time>
      </trkpt>
      <trkpt lat="47.96292" lon="6.95254">
        <ele>662.97</ele>
        <time>2022-07-31T09:12:27Z</time>
      </trkpt>
      <trkpt lat="47.96303" lon="6.9526">
        <ele>663.93</ele>
        <time>2022-07-31T09:12:31Z</time>
      </trkpt>
      <trkpt lat="47.96328" lon="6.95282">
        <ele>666.33</ele>
        <time>2022-07-31T09:12:42Z</time>
      </trkpt>
      <trkpt lat="47.96345" lon="6.95298">
        <ele>668.25</ele>
        <time>2022-07-31T09:12:52Z</time>
      </trkpt>
      <trkpt lat="47.96357" lon="6.95268">
        <ele>670.18</ele>
        <time>2022-07-31T09:13:05Z</time>
      </trkpt>
      <trkpt lat="47.96356" lon="6.95259">
        <ele>670.66</ele>
        <time>2022-07-31T09:13:08Z</time>
      </trkpt>
      <trkpt lat="47.96348" lon="6.95248">
        <ele>671.62</ele>
        <time>2022-07-31T09:13:15Z</time>
      </trkpt>
      <trkpt lat="47.96332" lon="6.95231">
        <ele>673.54</ele>
        <time>2022-07-31T09:13:25Z</time>
      </trkpt>
      <trkpt lat="47.96328" lon="6.95226">
        <ele>674.02</ele>
        <time>2022-07-31T09:13:29Z</time>
      </trkpt>
      <trkpt lat="47.96322" lon="6.95215">
        <ele>676.42</ele>
        <time>2022-07-31T09:13:34Z</time>
      </trkpt>
      <trkpt lat="47.96315" lon="6.95197">
        <ele>676.42</ele>
        <time>2022-07-31T09:13:41Z</time>
      </trkpt>
      <trkpt lat="47.96304" lon="6.95167">
        <ele>679.31</ele>
        <time>2022-07-31T09:13:53Z</time>
      </trkpt>
      <trkpt lat="47.96298" lon="6.95158">
        <ele>680.27</ele>
        <time>2022-07-31T09:13:57Z</time>
      </trkpt>
      <trkpt lat="47.96291" lon="6.95148">
        <ele>681.71</ele>
        <time>2022-07-31T09:14:03Z</time>
      </trkpt>
      <trkpt lat="47.96287" lon="6.95144">
        <ele>682.19</ele>
        <time>2022-07-31T09:14:06Z</time>
      </trkpt>
      <trkpt lat="47.96279" lon="6.95138">
        <ele>683.15</ele>
        <time>2022-07-31T09:14:10Z</time>
      </trkpt>
      <trkpt lat="47.96278" lon="6.95135">
        <ele>683.63</ele>
        <time>2022-07-31T09:14:12Z</time>
      </trkpt>
      <trkpt lat="47.96258" lon="6.95119">
        <ele>685.56</ele>
        <time>2022-07-31T09:14:21Z</time>
      </trkpt>
      <trkpt lat="47.96241" lon="6.95111">
        <ele>687.48</ele>
        <time>2022-07-31T09:14:28Z</time>
      </trkpt>
      <trkpt lat="47.96216" lon="6.95106">
        <ele>690.36</ele>
        <time>2022-07-31T09:14:40Z</time>
      </trkpt>
      <trkpt lat="47.96214" lon="6.95106">
        <ele>690.36</ele>
        <time>2022-07-31T09:14:41Z</time>
      </trkpt>
      <trkpt lat="47.96211" lon="6.95104">
        <ele>690.84</ele>
        <time>2022-07-31T09:14:42Z</time>
      </trkpt>
      <trkpt lat="47.96181" lon="6.95106">
        <ele>693.73</ele>
        <time>2022-07-31T09:14:53Z</time>
      </trkpt>
      <trkpt lat="47.96155" lon="6.95099">
        <ele>696.13</ele>
        <time>2022-07-31T09:15:04Z</time>
      </trkpt>
      <trkpt lat="47.96151" lon="6.95097">
        <ele>696.61</ele>
        <time>2022-07-31T09:15:06Z</time>
      </trkpt>
      <trkpt lat="47.9613" lon="6.95088">
        <ele>699.02</ele>
        <time>2022-07-31T09:15:18Z</time>
      </trkpt>
      <trkpt lat="47.96116" lon="6.95082">
        <ele>700.46</ele>
        <time>2022-07-31T09:15:25Z</time>
      </trkpt>
      <trkpt lat="47.961" lon="6.95075">
        <ele>703.82</ele>
        <time>2022-07-31T09:15:35Z</time>
      </trkpt>
      <trkpt lat="47.96094" lon="6.95074">
        <ele>703.34</ele>
        <time>2022-07-31T09:15:41Z</time>
      </trkpt>
      <trkpt lat="47.96087" lon="6.95075">
        <ele>704.3</ele>
        <time>2022-07-31T09:15:46Z</time>
      </trkpt>
      <trkpt lat="47.96067" lon="6.95081">
        <ele>705.75</ele>
        <time>2022-07-31T09:15:57Z</time>
      </trkpt>
      <trkpt lat="47.96064" lon="6.95084">
        <ele>706.71</ele>
        <time>2022-07-31T09:16:00Z</time>
      </trkpt>
      <trkpt lat="47.96055" lon="6.95091">
        <ele>707.67</ele>
        <time>2022-07-31T09:16:06Z</time>
      </trkpt>
      <trkpt lat="47.96037" lon="6.95105">
        <ele>709.59</ele>
        <time>2022-07-31T09:16:17Z</time>
      </trkpt>
      <trkpt lat="47.96024" lon="6.95127">
        <ele>711.03</ele>
        <time>2022-07-31T09:16:22Z</time>
      </trkpt>
      <trkpt lat="47.96012" lon="6.95144">
        <ele>711.99</ele>
        <time>2022-07-31T09:16:27Z</time>
      </trkpt>
      <trkpt lat="47.96006" lon="6.95147">
        <ele>711.99</ele>
        <time>2022-07-31T09:16:30Z</time>
      </trkpt>
      <trkpt lat="47.96005" lon="6.95147">
        <ele>712.47</ele>
        <time>2022-07-31T09:16:31Z</time>
      </trkpt>
      <trkpt lat="47.95981" lon="6.95157">
        <ele>714.4</ele>
        <time>2022-07-31T09:16:43Z</time>
      </trkpt>
      <trkpt lat="47.95983" lon="6.95157">
        <ele>714.4</ele>
        <time>2022-07-31T09:16:54Z</time>
      </trkpt>
      <trkpt lat="47.95979" lon="6.95158">
        <ele>714.4</ele>
        <time>2022-07-31T09:17:06Z</time>
      </trkpt>
      <trkpt lat="47.9598" lon="6.95157">
        <ele>714.88</ele>
        <time>2022-07-31T09:17:14Z</time>
      </trkpt>
      <trkpt lat="47.95981" lon="6.95157">
        <ele>714.88</ele>
        <time>2022-07-31T09:17:29Z</time>
      </trkpt>
      <trkpt lat="47.95984" lon="6.95156">
        <ele>714.88</ele>
        <time>2022-07-31T09:18:05Z</time>
      </trkpt>
      <trkpt lat="47.95982" lon="6.95156">
        <ele>715.36</ele>
        <time>2022-07-31T09:18:34Z</time>
      </trkpt>
      <trkpt lat="47.95982" lon="6.95159">
        <ele>715.84</ele>
        <time>2022-07-31T09:19:07Z</time>
      </trkpt>
      <trkpt lat="47.95981" lon="6.95157">
        <ele>715.36</ele>
        <time>2022-07-31T09:19:44Z</time>
      </trkpt>
      <trkpt lat="47.95981" lon="6.95158">
        <ele>715.84</ele>
        <time>2022-07-31T09:20:19Z</time>
      </trkpt>
      <trkpt lat="47.95982" lon="6.95157">
        <ele>715.84</ele>
        <time>2022-07-31T09:20:55Z</time>
      </trkpt>
      <trkpt lat="47.95982" lon="6.95157">
        <ele>715.84</ele>
        <time>2022-07-31T09:21:16Z</time>
      </trkpt>
      <trkpt lat="47.95981" lon="6.95157">
        <ele>715.84</ele>
        <time>2022-07-31T09:21:49Z</time>
      </trkpt>
      <trkpt lat="47.95981" lon="6.95157">
        <ele>716.32</ele>
        <time>2022-07-31T09:22:22Z</time>
      </trkpt>
      <trkpt lat="47.95982" lon="6.95154">
        <ele>716.32</ele>
        <time>2022-07-31T09:22:58Z</time>
      </trkpt>
      <trkpt lat="47.95982" lon="6.95156">
        <ele>716.32</ele>
        <time>2022-07-31T09:23:36Z</time>
      </trkpt>
      <trkpt lat="47.95982" lon="6.95159">
        <ele>716.8</ele>
        <time>2022-07-31T09:24:09Z</time>
      </trkpt>
      <trkpt lat="47.95981" lon="6.9516">
        <ele>716.8</ele>
        <time>2022-07-31T09:24:40Z</time>
      </trkpt>
      <trkpt lat="47.95982" lon="6.95158">
        <ele>716.8</ele>
        <time>2022-07-31T09:25:16Z</time>
      </trkpt>
      <trkpt lat="47.95982" lon="6.95159">
        <ele>717.28</ele>
        <time>2022-07-31T09:25:46Z</time>
      </trkpt>
      <trkpt lat="47.95982" lon="6.95158">
        <ele>717.28</ele>
        <time>2022-07-31T09:26:16Z</time>
      </trkpt>
      <trkpt lat="47.9598" lon="6.95157">
        <ele>717.28</ele>
        <time>2022-07-31T09:26:50Z</time>
      </trkpt>
      <trkpt lat="47.9598" lon="6.95155">
        <ele>718.24</ele>
        <time>2022-07-31T09:27:16Z</time>
      </trkpt>
      <trkpt lat="47.9598" lon="6.9515">
        <ele>718.72</ele>
        <time>2022-07-31T09:27:29Z</time>
      </trkpt>
      <trkpt lat="47.95977" lon="6.95146">
        <ele>718.72</ele>
        <time>2022-07-31T09:27:33Z</time>
      </trkpt>
      <trkpt lat="47.95972" lon="6.95137">
        <ele>719.68</ele>
        <time>2022-07-31T09:27:43Z</time>
      </trkpt>
      <trkpt lat="47.95971" lon="6.95136">
        <ele>719.2</ele>
        <time>2022-07-31T09:28:01Z</time>
      </trkpt>
      <trkpt lat="47.95974" lon="6.95135">
        <ele>719.68</ele>
        <time>2022-07-31T09:28:23Z</time>
      </trkpt>
      <trkpt lat="47.95975" lon="6.95135">
        <ele>719.68</ele>
        <time>2022-07-31T09:28:24Z</time>
      </trkpt>
      <trkpt lat="47.95976" lon="6.95134">
        <ele>719.68</ele>
        <time>2022-07-31T09:28:25Z</time>
      </trkpt>
      <trkpt lat="47.95977" lon="6.95133">
        <ele>719.68</ele>
        <time>2022-07-31T09:28:26Z</time>
      </trkpt>
      <trkpt lat="47.95978" lon="6.95132">
        <ele>719.68</ele>
        <time>2022-07-31T09:28:27Z</time>
      </trkpt>
      <trkpt lat="47.95979" lon="6.95131">
        <ele>719.68</ele>
        <time>2022-07-31T09:28:28Z</time>
      </trkpt>
      <trkpt lat="47.95986" lon="6.95127">
        <ele>720.65</ele>
        <time>2022-07-31T09:28:34Z</time>
      </trkpt>
      <trkpt lat="47.95987" lon="6.95126">
        <ele>720.65</ele>
        <time>2022-07-31T09:28:35Z</time>
      </trkpt>
      <trkpt lat="47.95988" lon="6.95124">
        <ele>720.65</ele>
        <time>2022-07-31T09:28:36Z</time>
      </trkpt>
      <trkpt lat="47.95993" lon="6.9512">
        <ele>721.61</ele>
        <time>2022-07-31T09:28:39Z</time>
      </trkpt>
      <trkpt lat="47.95994" lon="6.95119">
        <ele>721.61</ele>
        <time>2022-07-31T09:28:40Z</time>
      </trkpt>
      <trkpt lat="47.95995" lon="6.95118">
        <ele>722.09</ele>
        <time>2022-07-31T09:28:41Z</time>
      </trkpt>
      <trkpt lat="47.95996" lon="6.95116">
        <ele>722.09</ele>
        <time>2022-07-31T09:28:42Z</time>
      </trkpt>
      <trkpt lat="47.95998" lon="6.95115">
        <ele>722.57</ele>
        <time>2022-07-31T09:28:43Z</time>
      </trkpt>
      <trkpt lat="47.96" lon="6.95114">
        <ele>722.57</ele>
        <time>2022-07-31T09:28:44Z</time>
      </trkpt>
      <trkpt lat="47.96001" lon="6.95113">
        <ele>722.57</ele>
        <time>2022-07-31T09:28:45Z</time>
      </trkpt>
      <trkpt lat="47.96001" lon="6.95111">
        <ele>722.57</ele>
        <time>2022-07-31T09:28:46Z</time>
      </trkpt>
      <trkpt lat="47.96001" lon="6.95108">
        <ele>723.05</ele>
        <time>2022-07-31T09:28:47Z</time>
      </trkpt>
      <trkpt lat="47.96003" lon="6.95104">
        <ele>723.53</ele>
        <time>2022-07-31T09:28:50Z</time>
      </trkpt>
      <trkpt lat="47.96004" lon="6.95103">
        <ele>724.01</ele>
        <time>2022-07-31T09:28:51Z</time>
      </trkpt>
      <trkpt lat="47.96005" lon="6.95101">
        <ele>724.01</ele>
        <time>2022-07-31T09:28:52Z</time>
      </trkpt>
      <trkpt lat="47.96006" lon="6.951">
        <ele>724.49</ele>
        <time>2022-07-31T09:28:53Z</time>
      </trkpt>
      <trkpt lat="47.96007" lon="6.95098">
        <ele>724.49</ele>
        <time>2022-07-31T09:28:54Z</time>
      </trkpt>
      <trkpt lat="47.96008" lon="6.95097">
        <ele>724.97</ele>
        <time>2022-07-31T09:28:55Z</time>
      </trkpt>
      <trkpt lat="47.9601" lon="6.95095">
        <ele>724.97</ele>
        <time>2022-07-31T09:28:56Z</time>
      </trkpt>
      <trkpt lat="47.96011" lon="6.95093">
        <ele>724.97</ele>
        <time>2022-07-31T09:28:57Z</time>
      </trkpt>
      <trkpt lat="47.96013" lon="6.95091">
        <ele>725.45</ele>
        <time>2022-07-31T09:28:58Z</time>
      </trkpt>
      <trkpt lat="47.96013" lon="6.95088">
        <ele>725.45</ele>
        <time>2022-07-31T09:28:59Z</time>
      </trkpt>
      <trkpt lat="47.96017" lon="6.95079">
        <ele>726.41</ele>
        <time>2022-07-31T09:29:03Z</time>
      </trkpt>
      <trkpt lat="47.96019" lon="6.95077">
        <ele>726.89</ele>
        <time>2022-07-31T09:29:04Z</time>
      </trkpt>
      <trkpt lat="47.96021" lon="6.95075">
        <ele>726.89</ele>
        <time>2022-07-31T09:29:05Z</time>
      </trkpt>
      <trkpt lat="47.96023" lon="6.95073">
        <ele>726.89</ele>
        <time>2022-07-31T09:29:06Z</time>
      </trkpt>
      <trkpt lat="47.96024" lon="6.9507">
        <ele>727.37</ele>
        <time>2022-07-31T09:29:07Z</time>
      </trkpt>
      <trkpt lat="47.96027" lon="6.95065">
        <ele>727.86</ele>
        <time>2022-07-31T09:29:10Z</time>
      </trkpt>
      <trkpt lat="47.96027" lon="6.95063">
        <ele>728.34</ele>
        <time>2022-07-31T09:29:11Z</time>
      </trkpt>
      <trkpt lat="47.96028" lon="6.95061">
        <ele>728.82</ele>
        <time>2022-07-31T09:29:12Z</time>
      </trkpt>
      <trkpt lat="47.96029" lon="6.95059">
        <ele>728.82</ele>
        <time>2022-07-31T09:29:13Z</time>
      </trkpt>
      <trkpt lat="47.9603" lon="6.95057">
        <ele>729.3</ele>
        <time>2022-07-31T09:29:14Z</time>
      </trkpt>
      <trkpt lat="47.96031" lon="6.95055">
        <ele>729.3</ele>
        <time>2022-07-31T09:29:15Z</time>
      </trkpt>
      <trkpt lat="47.96032" lon="6.95052">
        <ele>729.3</ele>
        <time>2022-07-31T09:29:16Z</time>
      </trkpt>
      <trkpt lat="47.96033" lon="6.9505">
        <ele>729.78</ele>
        <time>2022-07-31T09:29:17Z</time>
      </trkpt>
      <trkpt lat="47.96033" lon="6.95049">
        <ele>729.78</ele>
        <time>2022-07-31T09:29:18Z</time>
      </trkpt>
      <trkpt lat="47.9604" lon="6.95039">
        <ele>731.22</ele>
        <time>2022-07-31T09:29:25Z</time>
      </trkpt>
      <trkpt lat="47.96047" lon="6.95014">
        <ele>733.62</ele>
        <time>2022-07-31T09:29:34Z</time>
      </trkpt>
      <trkpt lat="47.96049" lon="6.95005">
        <ele>734.58</ele>
        <time>2022-07-31T09:29:37Z</time>
      </trkpt>
      <trkpt lat="47.9605" lon="6.95001">
        <ele>734.58</ele>
        <time>2022-07-31T09:29:38Z</time>
      </trkpt>
      <trkpt lat="47.96051" lon="6.94999">
        <ele>735.07</ele>
        <time>2022-07-31T09:29:39Z</time>
      </trkpt>
      <trkpt lat="47.96055" lon="6.94986">
        <ele>736.51</ele>
        <time>2022-07-31T09:29:44Z</time>
      </trkpt>
      <trkpt lat="47.96057" lon="6.94983">
        <ele>736.51</ele>
        <time>2022-07-31T09:29:45Z</time>
      </trkpt>
      <trkpt lat="47.9606" lon="6.94979">
        <ele>736.99</ele>
        <time>2022-07-31T09:29:47Z</time>
      </trkpt>
      <trkpt lat="47.96064" lon="6.94952">
        <ele>739.39</ele>
        <time>2022-07-31T09:29:59Z</time>
      </trkpt>
      <trkpt lat="47.96074" lon="6.94952">
        <ele>741.31</ele>
        <time>2022-07-31T09:30:08Z</time>
      </trkpt>
      <trkpt lat="47.96076" lon="6.94953">
        <ele>741.79</ele>
        <time>2022-07-31T09:30:09Z</time>
      </trkpt>
      <trkpt lat="47.96078" lon="6.94953">
        <ele>741.79</ele>
        <time>2022-07-31T09:30:10Z</time>
      </trkpt>
      <trkpt lat="47.96097" lon="6.94952">
        <ele>744.2</ele>
        <time>2022-07-31T09:30:21Z</time>
      </trkpt>
      <trkpt lat="47.96099" lon="6.94952">
        <ele>744.68</ele>
        <time>2022-07-31T09:30:22Z</time>
      </trkpt>
      <trkpt lat="47.96102" lon="6.94951">
        <ele>744.68</ele>
        <time>2022-07-31T09:30:24Z</time>
      </trkpt>
      <trkpt lat="47.96104" lon="6.9495">
        <ele>745.16</ele>
        <time>2022-07-31T09:30:25Z</time>
      </trkpt>
      <trkpt lat="47.9613" lon="6.94938">
        <ele>748.04</ele>
        <time>2022-07-31T09:30:38Z</time>
      </trkpt>
      <trkpt lat="47.96153" lon="6.94928">
        <ele>750.93</ele>
        <time>2022-07-31T09:30:52Z</time>
      </trkpt>
      <trkpt lat="47.9617" lon="6.94922">
        <ele>753.81</ele>
        <time>2022-07-31T09:31:03Z</time>
      </trkpt>
      <trkpt lat="47.9619" lon="6.94916">
        <ele>756.69</ele>
        <time>2022-07-31T09:31:14Z</time>
      </trkpt>
      <trkpt lat="47.96208" lon="6.94912">
        <ele>759.1</ele>
        <time>2022-07-31T09:31:24Z</time>
      </trkpt>
      <trkpt lat="47.96229" lon="6.94915">
        <ele>760.54</ele>
        <time>2022-07-31T09:31:34Z</time>
      </trkpt>
      <trkpt lat="47.9625" lon="6.94913">
        <ele>764.39</ele>
        <time>2022-07-31T09:31:45Z</time>
      </trkpt>
      <trkpt lat="47.96274" lon="6.94894">
        <ele>765.35</ele>
        <time>2022-07-31T09:31:57Z</time>
      </trkpt>
      <trkpt lat="47.96292" lon="6.94879">
        <ele>767.27</ele>
        <time>2022-07-31T09:32:08Z</time>
      </trkpt>
      <trkpt lat="47.96302" lon="6.94874">
        <ele>768.71</ele>
        <time>2022-07-31T09:32:14Z</time>
      </trkpt>
      <trkpt lat="47.96304" lon="6.94874">
        <ele>769.19</ele>
        <time>2022-07-31T09:32:15Z</time>
      </trkpt>
      <trkpt lat="47.96307" lon="6.94873">
        <ele>769.19</ele>
        <time>2022-07-31T09:32:16Z</time>
      </trkpt>
      <trkpt lat="47.96328" lon="6.94861">
        <ele>771.6</ele>
        <time>2022-07-31T09:32:27Z</time>
      </trkpt>
      <trkpt lat="47.96335" lon="6.94853">
        <ele>773.04</ele>
        <time>2022-07-31T09:32:31Z</time>
      </trkpt>
      <trkpt lat="47.96338" lon="6.9485">
        <ele>773.04</ele>
        <time>2022-07-31T09:32:32Z</time>
      </trkpt>
      <trkpt lat="47.9634" lon="6.94848">
        <ele>773.52</ele>
        <time>2022-07-31T09:32:33Z</time>
      </trkpt>
      <trkpt lat="47.96342" lon="6.94846">
        <ele>773.52</ele>
        <time>2022-07-31T09:32:34Z</time>
      </trkpt>
      <trkpt lat="47.96344" lon="6.94845">
        <ele>774</ele>
        <time>2022-07-31T09:32:35Z</time>
      </trkpt>
      <trkpt lat="47.96347" lon="6.94844">
        <ele>774.48</ele>
        <time>2022-07-31T09:32:36Z</time>
      </trkpt>
      <trkpt lat="47.96349" lon="6.94842">
        <ele>774.48</ele>
        <time>2022-07-31T09:32:37Z</time>
      </trkpt>
      <trkpt lat="47.96351" lon="6.9484">
        <ele>774.96</ele>
        <time>2022-07-31T09:32:38Z</time>
      </trkpt>
      <trkpt lat="47.96353" lon="6.94839">
        <ele>775.44</ele>
        <time>2022-07-31T09:32:39Z</time>
      </trkpt>
      <trkpt lat="47.96355" lon="6.94837">
        <ele>775.44</ele>
        <time>2022-07-31T09:32:40Z</time>
      </trkpt>
      <trkpt lat="47.96359" lon="6.94833">
        <ele>776.4</ele>
        <time>2022-07-31T09:32:52Z</time>
      </trkpt>
      <trkpt lat="47.9636" lon="6.94833">
        <ele>776.4</ele>
        <time>2022-07-31T09:33:27Z</time>
      </trkpt>
      <trkpt lat="47.96361" lon="6.94833">
        <ele>776.88</ele>
        <time>2022-07-31T09:33:28Z</time>
      </trkpt>
      <trkpt lat="47.96362" lon="6.94834">
        <ele>776.88</ele>
        <time>2022-07-31T09:33:29Z</time>
      </trkpt>
      <trkpt lat="47.96363" lon="6.94836">
        <ele>776.88</ele>
        <time>2022-07-31T09:33:30Z</time>
      </trkpt>
      <trkpt lat="47.96364" lon="6.94837">
        <ele>776.88</ele>
        <time>2022-07-31T09:33:31Z</time>
      </trkpt>
      <trkpt lat="47.96364" lon="6.94839">
        <ele>776.88</ele>
        <time>2022-07-31T09:33:32Z</time>
      </trkpt>
      <trkpt lat="47.96365" lon="6.94841">
        <ele>776.88</ele>
        <time>2022-07-31T09:33:33Z</time>
      </trkpt>
      <trkpt lat="47.96375" lon="6.94865">
        <ele>778.81</ele>
        <time>2022-07-31T09:33:43Z</time>
      </trkpt>
      <trkpt lat="47.96379" lon="6.94874">
        <ele>780.25</ele>
        <time>2022-07-31T09:33:47Z</time>
      </trkpt>
      <trkpt lat="47.9638" lon="6.94877">
        <ele>780.25</ele>
        <time>2022-07-31T09:33:48Z</time>
      </trkpt>
      <trkpt lat="47.96381" lon="6.94879">
        <ele>780.25</ele>
        <time>2022-07-31T09:33:49Z</time>
      </trkpt>
      <trkpt lat="47.96382" lon="6.94882">
        <ele>780.73</ele>
        <time>2022-07-31T09:33:50Z</time>
      </trkpt>
      <trkpt lat="47.96383" lon="6.94884">
        <ele>781.21</ele>
        <time>2022-07-31T09:33:51Z</time>
      </trkpt>
      <trkpt lat="47.96385" lon="6.94886">
        <ele>781.21</ele>
        <time>2022-07-31T09:33:52Z</time>
      </trkpt>
      <trkpt lat="47.96386" lon="6.94888">
        <ele>781.21</ele>
        <time>2022-07-31T09:33:53Z</time>
      </trkpt>
      <trkpt lat="47.96388" lon="6.94891">
        <ele>781.69</ele>
        <time>2022-07-31T09:33:54Z</time>
      </trkpt>
      <trkpt lat="47.96401" lon="6.94915">
        <ele>784.57</ele>
        <time>2022-07-31T09:34:05Z</time>
      </trkpt>
      <trkpt lat="47.96406" lon="6.94933">
        <ele>786.5</ele>
        <time>2022-07-31T09:34:17Z</time>
      </trkpt>
      <trkpt lat="47.96406" lon="6.94935">
        <ele>786.5</ele>
        <time>2022-07-31T09:34:40Z</time>
      </trkpt>
      <trkpt lat="47.96407" lon="6.94935">
        <ele>786.98</ele>
        <time>2022-07-31T09:35:05Z</time>
      </trkpt>
      <trkpt lat="47.96407" lon="6.94933">
        <ele>786.98</ele>
        <time>2022-07-31T09:35:25Z</time>
      </trkpt>
      <trkpt lat="47.96407" lon="6.94933">
        <ele>786.98</ele>
        <time>2022-07-31T09:35:30Z</time>
      </trkpt>
      <trkpt lat="47.96411" lon="6.9494">
        <ele>788.42</ele>
        <time>2022-07-31T09:35:33Z</time>
      </trkpt>
      <trkpt lat="47.96417" lon="6.94951">
        <ele>789.86</ele>
        <time>2022-07-31T09:35:37Z</time>
      </trkpt>
      <trkpt lat="47.96432" lon="6.94961">
        <ele>792.26</ele>
        <time>2022-07-31T09:35:45Z</time>
      </trkpt>
      <trkpt lat="47.96449" lon="6.94962">
        <ele>794.67</ele>
        <time>2022-07-31T09:35:58Z</time>
      </trkpt>
      <trkpt lat="47.96453" lon="6.94961">
        <ele>795.15</ele>
        <time>2022-07-31T09:36:01Z</time>
      </trkpt>
      <trkpt lat="47.96475" lon="6.94968">
        <ele>798.51</ele>
        <time>2022-07-31T09:36:15Z</time>
      </trkpt>
      <trkpt lat="47.96479" lon="6.94971">
        <ele>799.47</ele>
        <time>2022-07-31T09:36:18Z</time>
      </trkpt>
      <trkpt lat="47.9649" lon="6.94977">
        <ele>800.44</ele>
        <time>2022-07-31T09:36:24Z</time>
      </trkpt>
      <trkpt lat="47.96505" lon="6.9498">
        <ele>802.84</ele>
        <time>2022-07-31T09:36:32Z</time>
      </trkpt>
      <trkpt lat="47.96527" lon="6.94964">
        <ele>806.2</ele>
        <time>2022-07-31T09:36:44Z</time>
      </trkpt>
      <trkpt lat="47.96551" lon="6.94944">
        <ele>809.09</ele>
        <time>2022-07-31T09:36:57Z</time>
      </trkpt>
      <trkpt lat="47.9657" lon="6.94936">
        <ele>811.49</ele>
        <time>2022-07-31T09:37:08Z</time>
      </trkpt>
      <trkpt lat="47.96591" lon="6.94932">
        <ele>814.37</ele>
        <time>2022-07-31T09:37:20Z</time>
      </trkpt>
      <trkpt lat="47.96609" lon="6.94925">
        <ele>816.3</ele>
        <time>2022-07-31T09:37:29Z</time>
      </trkpt>
      <trkpt lat="47.96637" lon="6.94911">
        <ele>819.18</ele>
        <time>2022-07-31T09:37:41Z</time>
      </trkpt>
      <trkpt lat="47.96648" lon="6.94905">
        <ele>822.55</ele>
        <time>2022-07-31T09:37:48Z</time>
      </trkpt>
      <trkpt lat="47.9665" lon="6.94904">
        <ele>821.58</ele>
        <time>2022-07-31T09:37:49Z</time>
      </trkpt>
      <trkpt lat="47.9667" lon="6.94892">
        <ele>823.99</ele>
        <time>2022-07-31T09:37:59Z</time>
      </trkpt>
      <trkpt lat="47.96678" lon="6.94882">
        <ele>825.43</ele>
        <time>2022-07-31T09:38:04Z</time>
      </trkpt>
      <trkpt lat="47.96684" lon="6.94871">
        <ele>826.87</ele>
        <time>2022-07-31T09:38:09Z</time>
      </trkpt>
      <trkpt lat="47.9669" lon="6.9486">
        <ele>827.83</ele>
        <time>2022-07-31T09:38:14Z</time>
      </trkpt>
      <trkpt lat="47.96707" lon="6.94826">
        <ele>831.2</ele>
        <time>2022-07-31T09:38:27Z</time>
      </trkpt>
      <trkpt lat="47.96709" lon="6.94821">
        <ele>831.68</ele>
        <time>2022-07-31T09:38:29Z</time>
      </trkpt>
      <trkpt lat="47.96721" lon="6.9479">
        <ele>834.56</ele>
        <time>2022-07-31T09:38:41Z</time>
      </trkpt>
      <trkpt lat="47.96724" lon="6.94785">
        <ele>834.56</ele>
        <time>2022-07-31T09:38:43Z</time>
      </trkpt>
      <trkpt lat="47.96727" lon="6.94778">
        <ele>835.52</ele>
        <time>2022-07-31T09:38:46Z</time>
      </trkpt>
      <trkpt lat="47.96731" lon="6.9475">
        <ele>836.96</ele>
        <time>2022-07-31T09:38:56Z</time>
      </trkpt>
      <trkpt lat="47.9674" lon="6.94734">
        <ele>839.37</ele>
        <time>2022-07-31T09:39:04Z</time>
      </trkpt>
      <trkpt lat="47.96748" lon="6.94717">
        <ele>840.81</ele>
        <time>2022-07-31T09:39:12Z</time>
      </trkpt>
      <trkpt lat="47.96757" lon="6.94706">
        <ele>842.25</ele>
        <time>2022-07-31T09:39:17Z</time>
      </trkpt>
      <trkpt lat="47.96771" lon="6.94677">
        <ele>844.66</ele>
        <time>2022-07-31T09:39:29Z</time>
      </trkpt>
      <trkpt lat="47.9678" lon="6.9466">
        <ele>845.62</ele>
        <time>2022-07-31T09:39:36Z</time>
      </trkpt>
      <trkpt lat="47.96781" lon="6.94655">
        <ele>846.1</ele>
        <time>2022-07-31T09:39:38Z</time>
      </trkpt>
      <trkpt lat="47.96786" lon="6.94634">
        <ele>848.02</ele>
        <time>2022-07-31T09:39:45Z</time>
      </trkpt>
      <trkpt lat="47.96785" lon="6.94624">
        <ele>848.98</ele>
        <time>2022-07-31T09:39:48Z</time>
      </trkpt>
      <trkpt lat="47.96786" lon="6.94616">
        <ele>849.94</ele>
        <time>2022-07-31T09:39:50Z</time>
      </trkpt>
      <trkpt lat="47.96783" lon="6.94594">
        <ele>850.9</ele>
        <time>2022-07-31T09:40:01Z</time>
      </trkpt>
      <trkpt lat="47.96786" lon="6.94588">
        <ele>850.9</ele>
        <time>2022-07-31T09:40:15Z</time>
      </trkpt>
      <trkpt lat="47.96785" lon="6.94583">
        <ele>851.87</ele>
        <time>2022-07-31T09:40:18Z</time>
      </trkpt>
      <trkpt lat="47.96782" lon="6.94577">
        <ele>852.35</ele>
        <time>2022-07-31T09:40:29Z</time>
      </trkpt>
      <trkpt lat="47.96783" lon="6.94574">
        <ele>852.35</ele>
        <time>2022-07-31T09:40:54Z</time>
      </trkpt>
      <trkpt lat="47.96783" lon="6.94574">
        <ele>852.35</ele>
        <time>2022-07-31T09:40:56Z</time>
      </trkpt>
      <trkpt lat="47.96782" lon="6.94559">
        <ele>854.27</ele>
        <time>2022-07-31T09:41:03Z</time>
      </trkpt>
      <trkpt lat="47.96779" lon="6.94543">
        <ele>855.71</ele>
        <time>2022-07-31T09:41:08Z</time>
      </trkpt>
      <trkpt lat="47.96776" lon="6.94525">
        <ele>857.15</ele>
        <time>2022-07-31T09:41:14Z</time>
      </trkpt>
      <trkpt lat="47.96777" lon="6.94484">
        <ele>859.08</ele>
        <time>2022-07-31T09:41:28Z</time>
      </trkpt>
      <trkpt lat="47.96791" lon="6.9445">
        <ele>860.04</ele>
        <time>2022-07-31T09:41:39Z</time>
      </trkpt>
      <trkpt lat="47.96798" lon="6.94429">
        <ele>861</ele>
        <time>2022-07-31T09:41:46Z</time>
      </trkpt>
      <trkpt lat="47.96803" lon="6.94416">
        <ele>864.36</ele>
        <time>2022-07-31T09:41:51Z</time>
      </trkpt>
      <trkpt lat="47.96821" lon="6.94397">
        <ele>866.29</ele>
        <time>2022-07-31T09:42:02Z</time>
      </trkpt>
      <trkpt lat="47.96848" lon="6.94386">
        <ele>869.65</ele>
        <time>2022-07-31T09:42:14Z</time>
      </trkpt>
      <trkpt lat="47.96855" lon="6.94384">
        <ele>870.61</ele>
        <time>2022-07-31T09:42:17Z</time>
      </trkpt>
      <trkpt lat="47.9686" lon="6.94383">
        <ele>871.09</ele>
        <time>2022-07-31T09:42:20Z</time>
      </trkpt>
      <trkpt lat="47.96883" lon="6.94372">
        <ele>873.98</ele>
        <time>2022-07-31T09:42:30Z</time>
      </trkpt>
      <trkpt lat="47.96907" lon="6.94354">
        <ele>877.34</ele>
        <time>2022-07-31T09:42:41Z</time>
      </trkpt>
      <trkpt lat="47.96908" lon="6.94353">
        <ele>877.34</ele>
        <time>2022-07-31T09:42:42Z</time>
      </trkpt>
      <trkpt lat="47.96921" lon="6.94342">
        <ele>880.22</ele>
        <time>2022-07-31T09:42:49Z</time>
      </trkpt>
      <trkpt lat="47.96945" lon="6.9432">
        <ele>883.59</ele>
        <time>2022-07-31T09:43:00Z</time>
      </trkpt>
      <trkpt lat="47.96962" lon="6.94284">
        <ele>885.99</ele>
        <time>2022-07-31T09:43:12Z</time>
      </trkpt>
      <trkpt lat="47.9697" lon="6.94261">
        <ele>886.47</ele>
        <time>2022-07-31T09:43:21Z</time>
      </trkpt>
      <trkpt lat="47.96974" lon="6.94257">
        <ele>886.95</ele>
        <time>2022-07-31T09:43:31Z</time>
      </trkpt>
      <trkpt lat="47.96974" lon="6.94255">
        <ele>886.95</ele>
        <time>2022-07-31T09:43:37Z</time>
      </trkpt>
      <trkpt lat="47.96968" lon="6.94239">
        <ele>889.36</ele>
        <time>2022-07-31T09:43:45Z</time>
      </trkpt>
      <trkpt lat="47.9696" lon="6.94211">
        <ele>894.16</ele>
        <time>2022-07-31T09:43:52Z</time>
      </trkpt>
      <trkpt lat="47.9696" lon="6.94208">
        <ele>893.68</ele>
        <time>2022-07-31T09:43:53Z</time>
      </trkpt>
      <trkpt lat="47.96956" lon="6.94191">
        <ele>895.12</ele>
        <time>2022-07-31T09:43:59Z</time>
      </trkpt>
      <trkpt lat="47.96951" lon="6.94172">
        <ele>896.57</ele>
        <time>2022-07-31T09:44:05Z</time>
      </trkpt>
      <trkpt lat="47.96952" lon="6.94157">
        <ele>897.53</ele>
        <time>2022-07-31T09:44:10Z</time>
      </trkpt>
      <trkpt lat="47.96954" lon="6.94143">
        <ele>898.01</ele>
        <time>2022-07-31T09:44:23Z</time>
      </trkpt>
      <trkpt lat="47.96959" lon="6.94131">
        <ele>898.49</ele>
        <time>2022-07-31T09:44:37Z</time>
      </trkpt>
      <trkpt lat="47.96959" lon="6.94102">
        <ele>900.89</ele>
        <time>2022-07-31T09:44:46Z</time>
      </trkpt>
      <trkpt lat="47.96961" lon="6.94096">
        <ele>901.37</ele>
        <time>2022-07-31T09:44:49Z</time>
      </trkpt>
      <trkpt lat="47.96962" lon="6.94086">
        <ele>902.33</ele>
        <time>2022-07-31T09:44:53Z</time>
      </trkpt>
      <trkpt lat="47.96963" lon="6.94076">
        <ele>903.3</ele>
        <time>2022-07-31T09:44:58Z</time>
      </trkpt>
      <trkpt lat="47.96963" lon="6.9407">
        <ele>904.26</ele>
        <time>2022-07-31T09:45:01Z</time>
      </trkpt>
      <trkpt lat="47.96962" lon="6.94061">
        <ele>904.26</ele>
        <time>2022-07-31T09:45:04Z</time>
      </trkpt>
      <trkpt lat="47.96956" lon="6.94041">
        <ele>905.7</ele>
        <time>2022-07-31T09:45:12Z</time>
      </trkpt>
      <trkpt lat="47.96954" lon="6.94022">
        <ele>907.62</ele>
        <time>2022-07-31T09:45:19Z</time>
      </trkpt>
      <trkpt lat="47.96957" lon="6.94009">
        <ele>908.58</ele>
        <time>2022-07-31T09:45:25Z</time>
      </trkpt>
      <trkpt lat="47.96959" lon="6.94004">
        <ele>908.58</ele>
        <time>2022-07-31T09:45:27Z</time>
      </trkpt>
      <trkpt lat="47.96962" lon="6.93999">
        <ele>909.06</ele>
        <time>2022-07-31T09:45:30Z</time>
      </trkpt>
      <trkpt lat="47.96959" lon="6.93993">
        <ele>909.06</ele>
        <time>2022-07-31T09:45:32Z</time>
      </trkpt>
      <trkpt lat="47.96956" lon="6.93983">
        <ele>909.54</ele>
        <time>2022-07-31T09:45:35Z</time>
      </trkpt>
      <trkpt lat="47.96949" lon="6.93958">
        <ele>911.95</ele>
        <time>2022-07-31T09:45:45Z</time>
      </trkpt>
      <trkpt lat="47.96938" lon="6.93941">
        <ele>913.39</ele>
        <time>2022-07-31T09:45:54Z</time>
      </trkpt>
      <trkpt lat="47.96929" lon="6.93932">
        <ele>914.35</ele>
        <time>2022-07-31T09:45:58Z</time>
      </trkpt>
      <trkpt lat="47.9692" lon="6.9392">
        <ele>915.79</ele>
        <time>2022-07-31T09:46:03Z</time>
      </trkpt>
      <trkpt lat="47.96898" lon="6.93904">
        <ele>917.72</ele>
        <time>2022-07-31T09:46:08Z</time>
      </trkpt>
      <trkpt lat="47.96888" lon="6.939">
        <ele>918.68</ele>
        <time>2022-07-31T09:46:13Z</time>
      </trkpt>
      <trkpt lat="47.96871" lon="6.93894">
        <ele>920.12</ele>
        <time>2022-07-31T09:46:21Z</time>
      </trkpt>
      <trkpt lat="47.96852" lon="6.93888">
        <ele>921.56</ele>
        <time>2022-07-31T09:46:29Z</time>
      </trkpt>
      <trkpt lat="47.9685" lon="6.93885">
        <ele>921.56</ele>
        <time>2022-07-31T09:46:31Z</time>
      </trkpt>
      <trkpt lat="47.96839" lon="6.93875">
        <ele>922.52</ele>
        <time>2022-07-31T09:46:37Z</time>
      </trkpt>
      <trkpt lat="47.96828" lon="6.93871">
        <ele>923.48</ele>
        <time>2022-07-31T09:46:43Z</time>
      </trkpt>
      <trkpt lat="47.96822" lon="6.93867">
        <ele>923.48</ele>
        <time>2022-07-31T09:46:47Z</time>
      </trkpt>
      <trkpt lat="47.9682" lon="6.93866">
        <ele>923.96</ele>
        <time>2022-07-31T09:46:49Z</time>
      </trkpt>
      <trkpt lat="47.96811" lon="6.93855">
        <ele>924.93</ele>
        <time>2022-07-31T09:46:55Z</time>
      </trkpt>
      <trkpt lat="47.96803" lon="6.93849">
        <ele>925.89</ele>
        <time>2022-07-31T09:46:59Z</time>
      </trkpt>
      <trkpt lat="47.96795" lon="6.93842">
        <ele>927.81</ele>
        <time>2022-07-31T09:47:04Z</time>
      </trkpt>
      <trkpt lat="47.96787" lon="6.93836">
        <ele>929.73</ele>
        <time>2022-07-31T09:47:08Z</time>
      </trkpt>
      <trkpt lat="47.96776" lon="6.93825">
        <ele>933.58</ele>
        <time>2022-07-31T09:47:18Z</time>
      </trkpt>
      <trkpt lat="47.96774" lon="6.93818">
        <ele>934.54</ele>
        <time>2022-07-31T09:47:23Z</time>
      </trkpt>
      <trkpt lat="47.9676" lon="6.93795">
        <ele>935.98</ele>
        <time>2022-07-31T09:47:35Z</time>
      </trkpt>
      <trkpt lat="47.96757" lon="6.93791">
        <ele>936.46</ele>
        <time>2022-07-31T09:47:38Z</time>
      </trkpt>
      <trkpt lat="47.96738" lon="6.93781">
        <ele>937.42</ele>
        <time>2022-07-31T09:47:43Z</time>
      </trkpt>
      <trkpt lat="47.96707" lon="6.93774">
        <ele>938.38</ele>
        <time>2022-07-31T09:47:53Z</time>
      </trkpt>
      <trkpt lat="47.967" lon="6.93775">
        <ele>937.9</ele>
        <time>2022-07-31T09:47:58Z</time>
      </trkpt>
      <trkpt lat="47.96688" lon="6.93778">
        <ele>936.46</ele>
        <time>2022-07-31T09:48:04Z</time>
      </trkpt>
      <trkpt lat="47.96687" lon="6.93786">
        <ele>936.46</ele>
        <time>2022-07-31T09:48:09Z</time>
      </trkpt>
      <trkpt lat="47.96693" lon="6.93778">
        <ele>937.42</ele>
        <time>2022-07-31T09:48:13Z</time>
      </trkpt>
      <trkpt lat="47.96702" lon="6.93773">
        <ele>938.38</ele>
        <time>2022-07-31T09:48:24Z</time>
      </trkpt>
      <trkpt lat="47.96703" lon="6.93774">
        <ele>938.86</ele>
        <time>2022-07-31T09:48:48Z</time>
      </trkpt>
      <trkpt lat="47.96705" lon="6.93772">
        <ele>938.86</ele>
        <time>2022-07-31T09:49:00Z</time>
      </trkpt>
      <trkpt lat="47.9672" lon="6.93761">
        <ele>940.79</ele>
        <time>2022-07-31T09:49:11Z</time>
      </trkpt>
      <trkpt lat="47.96731" lon="6.93745">
        <ele>942.23</ele>
        <time>2022-07-31T09:49:18Z</time>
      </trkpt>
      <trkpt lat="47.96737" lon="6.93728">
        <ele>943.67</ele>
        <time>2022-07-31T09:49:24Z</time>
      </trkpt>
      <trkpt lat="47.96738" lon="6.93707">
        <ele>945.59</ele>
        <time>2022-07-31T09:49:30Z</time>
      </trkpt>
      <trkpt lat="47.96736" lon="6.93698">
        <ele>946.07</ele>
        <time>2022-07-31T09:49:33Z</time>
      </trkpt>
      <trkpt lat="47.96746" lon="6.93664">
        <ele>948.48</ele>
        <time>2022-07-31T09:49:42Z</time>
      </trkpt>
      <trkpt lat="47.96742" lon="6.93641">
        <ele>948.96</ele>
        <time>2022-07-31T09:49:46Z</time>
      </trkpt>
      <trkpt lat="47.9674" lon="6.9362">
        <ele>949.92</ele>
        <time>2022-07-31T09:49:50Z</time>
      </trkpt>
      <trkpt lat="47.96758" lon="6.93595">
        <ele>952.32</ele>
        <time>2022-07-31T09:50:00Z</time>
      </trkpt>
      <trkpt lat="47.96762" lon="6.93598">
        <ele>952.8</ele>
        <time>2022-07-31T09:50:02Z</time>
      </trkpt>
      <trkpt lat="47.96784" lon="6.93612">
        <ele>954.73</ele>
        <time>2022-07-31T09:50:12Z</time>
      </trkpt>
      <trkpt lat="47.96812" lon="6.93619">
        <ele>957.13</ele>
        <time>2022-07-31T09:50:22Z</time>
      </trkpt>
      <trkpt lat="47.96818" lon="6.93621">
        <ele>957.61</ele>
        <time>2022-07-31T09:50:25Z</time>
      </trkpt>
      <trkpt lat="47.96857" lon="6.93618">
        <ele>960.49</ele>
        <time>2022-07-31T09:50:38Z</time>
      </trkpt>
      <trkpt lat="47.96883" lon="6.93606">
        <ele>962.42</ele>
        <time>2022-07-31T09:50:47Z</time>
      </trkpt>
      <trkpt lat="47.96905" lon="6.93569">
        <ele>965.3</ele>
        <time>2022-07-31T09:50:59Z</time>
      </trkpt>
      <trkpt lat="47.96906" lon="6.93559">
        <ele>966.74</ele>
        <time>2022-07-31T09:51:03Z</time>
      </trkpt>
      <trkpt lat="47.96906" lon="6.93549">
        <ele>967.22</ele>
        <time>2022-07-31T09:51:06Z</time>
      </trkpt>
      <trkpt lat="47.96917" lon="6.93528">
        <ele>969.63</ele>
        <time>2022-07-31T09:51:15Z</time>
      </trkpt>
      <trkpt lat="47.96942" lon="6.93508">
        <ele>972.51</ele>
        <time>2022-07-31T09:51:26Z</time>
      </trkpt>
      <trkpt lat="47.96956" lon="6.93504">
        <ele>973.95</ele>
        <time>2022-07-31T09:51:31Z</time>
      </trkpt>
      <trkpt lat="47.96966" lon="6.93489">
        <ele>975.39</ele>
        <time>2022-07-31T09:51:38Z</time>
      </trkpt>
      <trkpt lat="47.9694" lon="6.93447">
        <ele>976.36</ele>
        <time>2022-07-31T09:51:43Z</time>
      </trkpt>
      <trkpt lat="47.96949" lon="6.93435">
        <ele>977.8</ele>
        <time>2022-07-31T09:51:49Z</time>
      </trkpt>
      <trkpt lat="47.96961" lon="6.93417">
        <ele>980.2</ele>
        <time>2022-07-31T09:51:58Z</time>
      </trkpt>
      <trkpt lat="47.96968" lon="6.9341">
        <ele>980.68</ele>
        <time>2022-07-31T09:52:03Z</time>
      </trkpt>
      <trkpt lat="47.96975" lon="6.93394">
        <ele>983.57</ele>
        <time>2022-07-31T09:52:13Z</time>
      </trkpt>
      <trkpt lat="47.96981" lon="6.9339">
        <ele>984.53</ele>
        <time>2022-07-31T09:52:16Z</time>
      </trkpt>
      <trkpt lat="47.96986" lon="6.93388">
        <ele>985.01</ele>
        <time>2022-07-31T09:52:18Z</time>
      </trkpt>
      <trkpt lat="47.96999" lon="6.93387">
        <ele>986.93</ele>
        <time>2022-07-31T09:52:26Z</time>
      </trkpt>
      <trkpt lat="47.97006" lon="6.93387">
        <ele>988.37</ele>
        <time>2022-07-31T09:52:32Z</time>
      </trkpt>
      <trkpt lat="47.97021" lon="6.93395">
        <ele>989.81</ele>
        <time>2022-07-31T09:52:39Z</time>
      </trkpt>
      <trkpt lat="47.97043" lon="6.93407">
        <ele>993.18</ele>
        <time>2022-07-31T09:52:52Z</time>
      </trkpt>
      <trkpt lat="47.97064" lon="6.93427">
        <ele>996.54</ele>
        <time>2022-07-31T09:53:05Z</time>
      </trkpt>
      <trkpt lat="47.97066" lon="6.93429">
        <ele>996.54</ele>
        <time>2022-07-31T09:53:06Z</time>
      </trkpt>
      <trkpt lat="47.97074" lon="6.93437">
        <ele>997.51</ele>
        <time>2022-07-31T09:53:10Z</time>
      </trkpt>
      <trkpt lat="47.97086" lon="6.93454">
        <ele>998.95</ele>
        <time>2022-07-31T09:53:17Z</time>
      </trkpt>
      <trkpt lat="47.97097" lon="6.9347">
        <ele>1000.39</ele>
        <time>2022-07-31T09:53:23Z</time>
      </trkpt>
      <trkpt lat="47.97115" lon="6.93481">
        <ele>1003.27</ele>
        <time>2022-07-31T09:53:36Z</time>
      </trkpt>
      <trkpt lat="47.97116" lon="6.93479">
        <ele>1003.75</ele>
        <time>2022-07-31T09:53:54Z</time>
      </trkpt>
      <trkpt lat="47.97115" lon="6.93477">
        <ele>1003.75</ele>
        <time>2022-07-31T09:54:10Z</time>
      </trkpt>
      <trkpt lat="47.97119" lon="6.93474">
        <ele>1004.23</ele>
        <time>2022-07-31T09:54:13Z</time>
      </trkpt>
      <trkpt lat="47.97134" lon="6.93455">
        <ele>1006.64</ele>
        <time>2022-07-31T09:54:25Z</time>
      </trkpt>
      <trkpt lat="47.97136" lon="6.93449">
        <ele>1007.12</ele>
        <time>2022-07-31T09:54:27Z</time>
      </trkpt>
      <trkpt lat="47.97139" lon="6.93434">
        <ele>1008.56</ele>
        <time>2022-07-31T09:54:32Z</time>
      </trkpt>
      <trkpt lat="47.97148" lon="6.93392">
        <ele>1011.93</ele>
        <time>2022-07-31T09:54:45Z</time>
      </trkpt>
      <trkpt lat="47.97149" lon="6.93383">
        <ele>1012.41</ele>
        <time>2022-07-31T09:54:48Z</time>
      </trkpt>
      <trkpt lat="47.97149" lon="6.93368">
        <ele>1013.85</ele>
        <time>2022-07-31T09:55:00Z</time>
      </trkpt>
      <trkpt lat="47.97148" lon="6.93366">
        <ele>1013.85</ele>
        <time>2022-07-31T09:55:22Z</time>
      </trkpt>
      <trkpt lat="47.97149" lon="6.93367">
        <ele>1013.85</ele>
        <time>2022-07-31T09:55:53Z</time>
      </trkpt>
      <trkpt lat="47.97148" lon="6.93366">
        <ele>1013.85</ele>
        <time>2022-07-31T09:56:21Z</time>
      </trkpt>
      <trkpt lat="47.9715" lon="6.93366">
        <ele>1014.33</ele>
        <time>2022-07-31T09:56:49Z</time>
      </trkpt>
      <trkpt lat="47.9715" lon="6.93365">
        <ele>1014.33</ele>
        <time>2022-07-31T09:57:16Z</time>
      </trkpt>
      <trkpt lat="47.97149" lon="6.93366">
        <ele>1014.81</ele>
        <time>2022-07-31T09:57:46Z</time>
      </trkpt>
      <trkpt lat="47.97148" lon="6.93366">
        <ele>1014.33</ele>
        <time>2022-07-31T09:58:11Z</time>
      </trkpt>
      <trkpt lat="47.97149" lon="6.93367">
        <ele>1014.33</ele>
        <time>2022-07-31T09:58:12Z</time>
      </trkpt>
      <trkpt lat="47.97152" lon="6.93373">
        <ele>1014.33</ele>
        <time>2022-07-31T09:58:15Z</time>
      </trkpt>
      <trkpt lat="47.97158" lon="6.93366">
        <ele>1012.89</ele>
        <time>2022-07-31T09:58:23Z</time>
      </trkpt>
      <trkpt lat="47.97157" lon="6.93364">
        <ele>1012.41</ele>
        <time>2022-07-31T09:58:29Z</time>
      </trkpt>
      <trkpt lat="47.9716" lon="6.9335">
        <ele>1010.96</ele>
        <time>2022-07-31T09:58:34Z</time>
      </trkpt>
      <trkpt lat="47.97155" lon="6.93324">
        <ele>1010</ele>
        <time>2022-07-31T09:58:42Z</time>
      </trkpt>
      <trkpt lat="47.9716" lon="6.9329">
        <ele>1009.52</ele>
        <time>2022-07-31T09:58:51Z</time>
      </trkpt>
      <trkpt lat="47.97159" lon="6.93286">
        <ele>1010</ele>
        <time>2022-07-31T09:58:52Z</time>
      </trkpt>
      <trkpt lat="47.97163" lon="6.93274">
        <ele>1009.52</ele>
        <time>2022-07-31T09:58:56Z</time>
      </trkpt>
      <trkpt lat="47.97162" lon="6.9326">
        <ele>1008.08</ele>
        <time>2022-07-31T09:59:07Z</time>
      </trkpt>
      <trkpt lat="47.97163" lon="6.93259">
        <ele>1007.6</ele>
        <time>2022-07-31T09:59:08Z</time>
      </trkpt>
      <trkpt lat="47.97172" lon="6.93247">
        <ele>1007.12</ele>
        <time>2022-07-31T09:59:24Z</time>
      </trkpt>
      <trkpt lat="47.97174" lon="6.93246">
        <ele>1006.64</ele>
        <time>2022-07-31T09:59:25Z</time>
      </trkpt>
      <trkpt lat="47.97184" lon="6.93241">
        <ele>1005.2</ele>
        <time>2022-07-31T09:59:35Z</time>
      </trkpt>
      <trkpt lat="47.97185" lon="6.93241">
        <ele>1005.2</ele>
        <time>2022-07-31T09:59:36Z</time>
      </trkpt>
      <trkpt lat="47.97205" lon="6.93245">
        <ele>1003.75</ele>
        <time>2022-07-31T09:59:46Z</time>
      </trkpt>
      <trkpt lat="47.97216" lon="6.93244">
        <ele>1003.75</ele>
        <time>2022-07-31T09:59:54Z</time>
      </trkpt>
      <trkpt lat="47.9722" lon="6.93247">
        <ele>1003.75</ele>
        <time>2022-07-31T09:59:57Z</time>
      </trkpt>
      <trkpt lat="47.97232" lon="6.93241">
        <ele>1003.75</ele>
        <time>2022-07-31T10:00:04Z</time>
      </trkpt>
      <trkpt lat="47.97247" lon="6.93226">
        <ele>1005.2</ele>
        <time>2022-07-31T10:00:16Z</time>
      </trkpt>
      <trkpt lat="47.97252" lon="6.93226">
        <ele>1006.16</ele>
        <time>2022-07-31T10:00:21Z</time>
      </trkpt>
      <trkpt lat="47.97256" lon="6.93228">
        <ele>1005.68</ele>
        <time>2022-07-31T10:00:23Z</time>
      </trkpt>
      <trkpt lat="47.97276" lon="6.93233">
        <ele>1007.12</ele>
        <time>2022-07-31T10:00:35Z</time>
      </trkpt>
      <trkpt lat="47.97277" lon="6.93234">
        <ele>1007.6</ele>
        <time>2022-07-31T10:00:36Z</time>
      </trkpt>
      <trkpt lat="47.97279" lon="6.93237">
        <ele>1008.08</ele>
        <time>2022-07-31T10:00:38Z</time>
      </trkpt>
      <trkpt lat="47.97285" lon="6.93238">
        <ele>1009.04</ele>
        <time>2022-07-31T10:00:44Z</time>
      </trkpt>
      <trkpt lat="47.97298" lon="6.93226">
        <ele>1010</ele>
        <time>2022-07-31T10:00:51Z</time>
      </trkpt>
      <trkpt lat="47.973" lon="6.93223">
        <ele>1010.48</ele>
        <time>2022-07-31T10:00:53Z</time>
      </trkpt>
      <trkpt lat="47.97303" lon="6.93215">
        <ele>1010.48</ele>
        <time>2022-07-31T10:00:56Z</time>
      </trkpt>
      <trkpt lat="47.9732" lon="6.93201">
        <ele>1010</ele>
        <time>2022-07-31T10:01:07Z</time>
      </trkpt>
      <trkpt lat="47.97324" lon="6.93204">
        <ele>1010.48</ele>
        <time>2022-07-31T10:01:11Z</time>
      </trkpt>
      <trkpt lat="47.9733" lon="6.93207">
        <ele>1010.96</ele>
        <time>2022-07-31T10:01:15Z</time>
      </trkpt>
      <trkpt lat="47.9733" lon="6.93197">
        <ele>1010.48</ele>
        <time>2022-07-31T10:01:22Z</time>
      </trkpt>
      <trkpt lat="47.97328" lon="6.93193">
        <ele>1010.48</ele>
        <time>2022-07-31T10:01:24Z</time>
      </trkpt>
      <trkpt lat="47.97327" lon="6.93181">
        <ele>1010.48</ele>
        <time>2022-07-31T10:01:29Z</time>
      </trkpt>
      <trkpt lat="47.97321" lon="6.93156">
        <ele>1011.44</ele>
        <time>2022-07-31T10:01:37Z</time>
      </trkpt>
      <trkpt lat="47.9732" lon="6.93145">
        <ele>1011.93</ele>
        <time>2022-07-31T10:01:40Z</time>
      </trkpt>
      <trkpt lat="47.97319" lon="6.9311">
        <ele>1014.81</ele>
        <time>2022-07-31T10:01:50Z</time>
      </trkpt>
      <trkpt lat="47.9732" lon="6.93107">
        <ele>1014.81</ele>
        <time>2022-07-31T10:01:51Z</time>
      </trkpt>
      <trkpt lat="47.97321" lon="6.93101">
        <ele>1015.29</ele>
        <time>2022-07-31T10:01:53Z</time>
      </trkpt>
      <trkpt lat="47.97316" lon="6.93082">
        <ele>1016.25</ele>
        <time>2022-07-31T10:01:58Z</time>
      </trkpt>
      <trkpt lat="47.97316" lon="6.93079">
        <ele>1016.25</ele>
        <time>2022-07-31T10:01:59Z</time>
      </trkpt>
      <trkpt lat="47.9731" lon="6.93067">
        <ele>1018.17</ele>
        <time>2022-07-31T10:02:02Z</time>
      </trkpt>
      <trkpt lat="47.97299" lon="6.93051">
        <ele>1017.69</ele>
        <time>2022-07-31T10:02:07Z</time>
      </trkpt>
      <trkpt lat="47.97298" lon="6.93037">
        <ele>1018.17</ele>
        <time>2022-07-31T10:02:11Z</time>
      </trkpt>
      <trkpt lat="47.97299" lon="6.93028">
        <ele>1019.13</ele>
        <time>2022-07-31T10:02:14Z</time>
      </trkpt>
      <trkpt lat="47.97299" lon="6.93024">
        <ele>1019.13</ele>
        <time>2022-07-31T10:02:15Z</time>
      </trkpt>
      <trkpt lat="47.9729" lon="6.92996">
        <ele>1020.1</ele>
        <time>2022-07-31T10:02:22Z</time>
      </trkpt>
      <trkpt lat="47.97269" lon="6.92967">
        <ele>1022.5</ele>
        <time>2022-07-31T10:02:32Z</time>
      </trkpt>
      <trkpt lat="47.9726" lon="6.92956">
        <ele>1023.46</ele>
        <time>2022-07-31T10:02:36Z</time>
      </trkpt>
      <trkpt lat="47.97258" lon="6.92952">
        <ele>1023.94</ele>
        <time>2022-07-31T10:02:38Z</time>
      </trkpt>
      <trkpt lat="47.97238" lon="6.92921">
        <ele>1026.34</ele>
        <time>2022-07-31T10:02:54Z</time>
      </trkpt>
      <trkpt lat="47.97228" lon="6.92907">
        <ele>1027.79</ele>
        <time>2022-07-31T10:03:01Z</time>
      </trkpt>
      <trkpt lat="47.97228" lon="6.92905">
        <ele>1028.27</ele>
        <time>2022-07-31T10:03:02Z</time>
      </trkpt>
      <trkpt lat="47.97218" lon="6.92891">
        <ele>1028.75</ele>
        <time>2022-07-31T10:03:09Z</time>
      </trkpt>
      <trkpt lat="47.97214" lon="6.92886">
        <ele>1029.23</ele>
        <time>2022-07-31T10:03:12Z</time>
      </trkpt>
      <trkpt lat="47.97189" lon="6.9286">
        <ele>1031.15</ele>
        <time>2022-07-31T10:03:24Z</time>
      </trkpt>
      <trkpt lat="47.97164" lon="6.92839">
        <ele>1033.07</ele>
        <time>2022-07-31T10:03:35Z</time>
      </trkpt>
      <trkpt lat="47.97153" lon="6.92827">
        <ele>1034.04</ele>
        <time>2022-07-31T10:03:45Z</time>
      </trkpt>
      <trkpt lat="47.97147" lon="6.92818">
        <ele>1035</ele>
        <time>2022-07-31T10:03:49Z</time>
      </trkpt>
      <trkpt lat="47.97121" lon="6.92792">
        <ele>1035.48</ele>
        <time>2022-07-31T10:03:53Z</time>
      </trkpt>
      <trkpt lat="47.97089" lon="6.92766">
        <ele>1037.4</ele>
        <time>2022-07-31T10:04:04Z</time>
      </trkpt>
      <trkpt lat="47.97067" lon="6.92753">
        <ele>1038.84</ele>
        <time>2022-07-31T10:04:16Z</time>
      </trkpt>
      <trkpt lat="47.97056" lon="6.92742">
        <ele>1040.28</ele>
        <time>2022-07-31T10:04:26Z</time>
      </trkpt>
      <trkpt lat="47.97047" lon="6.92734">
        <ele>1040.76</ele>
        <time>2022-07-31T10:04:31Z</time>
      </trkpt>
      <trkpt lat="47.97038" lon="6.92721">
        <ele>1043.17</ele>
        <time>2022-07-31T10:04:43Z</time>
      </trkpt>
      <trkpt lat="47.97032" lon="6.92711">
        <ele>1044.61</ele>
        <time>2022-07-31T10:04:50Z</time>
      </trkpt>
      <trkpt lat="47.97018" lon="6.92691">
        <ele>1046.05</ele>
        <time>2022-07-31T10:05:00Z</time>
      </trkpt>
      <trkpt lat="47.97018" lon="6.9269">
        <ele>1046.05</ele>
        <time>2022-07-31T10:05:01Z</time>
      </trkpt>
      <trkpt lat="47.97016" lon="6.92686">
        <ele>1046.53</ele>
        <time>2022-07-31T10:05:03Z</time>
      </trkpt>
      <trkpt lat="47.97002" lon="6.92667">
        <ele>1048.45</ele>
        <time>2022-07-31T10:05:13Z</time>
      </trkpt>
      <trkpt lat="47.96987" lon="6.92647">
        <ele>1049.9</ele>
        <time>2022-07-31T10:05:23Z</time>
      </trkpt>
      <trkpt lat="47.9698" lon="6.9264">
        <ele>1050.38</ele>
        <time>2022-07-31T10:05:26Z</time>
      </trkpt>
      <trkpt lat="47.96972" lon="6.92631">
        <ele>1051.82</ele>
        <time>2022-07-31T10:05:34Z</time>
      </trkpt>
      <trkpt lat="47.96963" lon="6.92621">
        <ele>1052.78</ele>
        <time>2022-07-31T10:05:39Z</time>
      </trkpt>
      <trkpt lat="47.96951" lon="6.92614">
        <ele>1053.26</ele>
        <time>2022-07-31T10:05:43Z</time>
      </trkpt>
      <trkpt lat="47.96944" lon="6.92605">
        <ele>1054.7</ele>
        <time>2022-07-31T10:05:49Z</time>
      </trkpt>
      <trkpt lat="47.96936" lon="6.92597">
        <ele>1055.18</ele>
        <time>2022-07-31T10:05:53Z</time>
      </trkpt>
      <trkpt lat="47.96915" lon="6.92577">
        <ele>1058.55</ele>
        <time>2022-07-31T10:06:04Z</time>
      </trkpt>
      <trkpt lat="47.9691" lon="6.92574">
        <ele>1057.59</ele>
        <time>2022-07-31T10:06:08Z</time>
      </trkpt>
      <trkpt lat="47.96903" lon="6.9257">
        <ele>1058.55</ele>
        <time>2022-07-31T10:06:12Z</time>
      </trkpt>
      <trkpt lat="47.96897" lon="6.92567">
        <ele>1059.03</ele>
        <time>2022-07-31T10:06:15Z</time>
      </trkpt>
      <trkpt lat="47.96892" lon="6.92564">
        <ele>1059.51</ele>
        <time>2022-07-31T10:06:17Z</time>
      </trkpt>
      <trkpt lat="47.9688" lon="6.92556">
        <ele>1060.47</ele>
        <time>2022-07-31T10:06:23Z</time>
      </trkpt>
      <trkpt lat="47.9687" lon="6.92545">
        <ele>1061.43</ele>
        <time>2022-07-31T10:06:28Z</time>
      </trkpt>
      <trkpt lat="47.96857" lon="6.92534">
        <ele>1062.39</ele>
        <time>2022-07-31T10:06:34Z</time>
      </trkpt>
      <trkpt lat="47.96826" lon="6.92514">
        <ele>1064.32</ele>
        <time>2022-07-31T10:06:43Z</time>
      </trkpt>
      <trkpt lat="47.96806" lon="6.92503">
        <ele>1066.24</ele>
        <time>2022-07-31T10:06:53Z</time>
      </trkpt>
      <trkpt lat="47.96786" lon="6.92496">
        <ele>1068.16</ele>
        <time>2022-07-31T10:07:04Z</time>
      </trkpt>
      <trkpt lat="47.96765" lon="6.92485">
        <ele>1070.08</ele>
        <time>2022-07-31T10:07:15Z</time>
      </trkpt>
      <trkpt lat="47.96743" lon="6.92475">
        <ele>1072.49</ele>
        <time>2022-07-31T10:07:27Z</time>
      </trkpt>
      <trkpt lat="47.96738" lon="6.92474">
        <ele>1072.49</ele>
        <time>2022-07-31T10:07:29Z</time>
      </trkpt>
      <trkpt lat="47.96712" lon="6.92473">
        <ele>1074.41</ele>
        <time>2022-07-31T10:07:40Z</time>
      </trkpt>
      <trkpt lat="47.96684" lon="6.92473">
        <ele>1076.81</ele>
        <time>2022-07-31T10:07:53Z</time>
      </trkpt>
      <trkpt lat="47.96671" lon="6.92473">
        <ele>1077.78</ele>
        <time>2022-07-31T10:08:00Z</time>
      </trkpt>
      <trkpt lat="47.96654" lon="6.9248">
        <ele>1079.7</ele>
        <time>2022-07-31T10:08:10Z</time>
      </trkpt>
      <trkpt lat="47.96636" lon="6.9249">
        <ele>1081.14</ele>
        <time>2022-07-31T10:08:20Z</time>
      </trkpt>
      <trkpt lat="47.96624" lon="6.92496">
        <ele>1082.1</ele>
        <time>2022-07-31T10:08:27Z</time>
      </trkpt>
      <trkpt lat="47.96615" lon="6.92498">
        <ele>1083.06</ele>
        <time>2022-07-31T10:08:33Z</time>
      </trkpt>
      <trkpt lat="47.96586" lon="6.92502">
        <ele>1085.47</ele>
        <time>2022-07-31T10:08:48Z</time>
      </trkpt>
      <trkpt lat="47.96578" lon="6.92503">
        <ele>1085.95</ele>
        <time>2022-07-31T10:08:52Z</time>
      </trkpt>
      <trkpt lat="47.96565" lon="6.92505">
        <ele>1087.87</ele>
        <time>2022-07-31T10:09:01Z</time>
      </trkpt>
      <trkpt lat="47.96561" lon="6.92505">
        <ele>1087.87</ele>
        <time>2022-07-31T10:09:03Z</time>
      </trkpt>
      <trkpt lat="47.96535" lon="6.92506">
        <ele>1090.27</ele>
        <time>2022-07-31T10:09:17Z</time>
      </trkpt>
      <trkpt lat="47.9653" lon="6.92507">
        <ele>1090.75</ele>
        <time>2022-07-31T10:09:20Z</time>
      </trkpt>
      <trkpt lat="47.96523" lon="6.92507">
        <ele>1091.71</ele>
        <time>2022-07-31T10:09:24Z</time>
      </trkpt>
      <trkpt lat="47.96504" lon="6.92508">
        <ele>1092.68</ele>
        <time>2022-07-31T10:09:33Z</time>
      </trkpt>
      <trkpt lat="47.96497" lon="6.92502">
        <ele>1093.64</ele>
        <time>2022-07-31T10:09:41Z</time>
      </trkpt>
      <trkpt lat="47.96477" lon="6.9248">
        <ele>1096.04</ele>
        <time>2022-07-31T10:09:55Z</time>
      </trkpt>
      <trkpt lat="47.96467" lon="6.9247">
        <ele>1096.52</ele>
        <time>2022-07-31T10:10:00Z</time>
      </trkpt>
      <trkpt lat="47.96465" lon="6.92467">
        <ele>1097</ele>
        <time>2022-07-31T10:10:02Z</time>
      </trkpt>
      <trkpt lat="47.96463" lon="6.92465">
        <ele>1097</ele>
        <time>2022-07-31T10:10:04Z</time>
      </trkpt>
      <trkpt lat="47.96436" lon="6.92451">
        <ele>1099.4</ele>
        <time>2022-07-31T10:10:17Z</time>
      </trkpt>
      <trkpt lat="47.96415" lon="6.92446">
        <ele>1100.85</ele>
        <time>2022-07-31T10:10:29Z</time>
      </trkpt>
      <trkpt lat="47.96405" lon="6.92439">
        <ele>1102.77</ele>
        <time>2022-07-31T10:10:39Z</time>
      </trkpt>
      <trkpt lat="47.96396" lon="6.92427">
        <ele>1104.21</ele>
        <time>2022-07-31T10:10:51Z</time>
      </trkpt>
      <trkpt lat="47.96377" lon="6.92409">
        <ele>1106.13</ele>
        <time>2022-07-31T10:11:03Z</time>
      </trkpt>
      <trkpt lat="47.96365" lon="6.92395">
        <ele>1107.1</ele>
        <time>2022-07-31T10:11:11Z</time>
      </trkpt>
      <trkpt lat="47.96355" lon="6.92379">
        <ele>1108.06</ele>
        <time>2022-07-31T10:11:19Z</time>
      </trkpt>
      <trkpt lat="47.96352" lon="6.92367">
        <ele>1109.02</ele>
        <time>2022-07-31T10:11:25Z</time>
      </trkpt>
      <trkpt lat="47.96352" lon="6.92344">
        <ele>1110.46</ele>
        <time>2022-07-31T10:11:38Z</time>
      </trkpt>
      <trkpt lat="47.9635" lon="6.92329">
        <ele>1111.42</ele>
        <time>2022-07-31T10:11:45Z</time>
      </trkpt>
      <trkpt lat="47.96345" lon="6.92314">
        <ele>1112.38</ele>
        <time>2022-07-31T10:11:51Z</time>
      </trkpt>
      <trkpt lat="47.96344" lon="6.92297">
        <ele>1113.34</ele>
        <time>2022-07-31T10:11:58Z</time>
      </trkpt>
      <trkpt lat="47.96334" lon="6.92273">
        <ele>1115.27</ele>
        <time>2022-07-31T10:12:09Z</time>
      </trkpt>
      <trkpt lat="47.96333" lon="6.92271">
        <ele>1115.27</ele>
        <time>2022-07-31T10:12:10Z</time>
      </trkpt>
      <trkpt lat="47.96323" lon="6.9226">
        <ele>1116.23</ele>
        <time>2022-07-31T10:12:14Z</time>
      </trkpt>
      <trkpt lat="47.96303" lon="6.92237">
        <ele>1117.67</ele>
        <time>2022-07-31T10:12:25Z</time>
      </trkpt>
      <trkpt lat="47.96286" lon="6.92227">
        <ele>1119.59</ele>
        <time>2022-07-31T10:12:37Z</time>
      </trkpt>
      <trkpt lat="47.96285" lon="6.92227">
        <ele>1119.11</ele>
        <time>2022-07-31T10:12:38Z</time>
      </trkpt>
      <trkpt lat="47.96281" lon="6.92224">
        <ele>1119.59</ele>
        <time>2022-07-31T10:12:41Z</time>
      </trkpt>
      <trkpt lat="47.96258" lon="6.92221">
        <ele>1121.52</ele>
        <time>2022-07-31T10:12:54Z</time>
      </trkpt>
      <trkpt lat="47.96255" lon="6.92221">
        <ele>1122</ele>
        <time>2022-07-31T10:12:56Z</time>
      </trkpt>
      <trkpt lat="47.96233" lon="6.92217">
        <ele>1123.92</ele>
        <time>2022-07-31T10:13:09Z</time>
      </trkpt>
      <trkpt lat="47.96225" lon="6.92213">
        <ele>1124.88</ele>
        <time>2022-07-31T10:13:14Z</time>
      </trkpt>
      <trkpt lat="47.96212" lon="6.92207">
        <ele>1126.32</ele>
        <time>2022-07-31T10:13:21Z</time>
      </trkpt>
      <trkpt lat="47.962" lon="6.92204">
        <ele>1127.76</ele>
        <time>2022-07-31T10:13:28Z</time>
      </trkpt>
      <trkpt lat="47.96186" lon="6.92202">
        <ele>1128.73</ele>
        <time>2022-07-31T10:13:35Z</time>
      </trkpt>
      <trkpt lat="47.96184" lon="6.92204">
        <ele>1129.69</ele>
        <time>2022-07-31T10:13:37Z</time>
      </trkpt>
      <trkpt lat="47.96156" lon="6.92199">
        <ele>1131.61</ele>
        <time>2022-07-31T10:13:51Z</time>
      </trkpt>
      <trkpt lat="47.96153" lon="6.92199">
        <ele>1132.09</ele>
        <time>2022-07-31T10:13:54Z</time>
      </trkpt>
      <trkpt lat="47.96148" lon="6.92198">
        <ele>1132.57</ele>
        <time>2022-07-31T10:13:57Z</time>
      </trkpt>
      <trkpt lat="47.96131" lon="6.92192">
        <ele>1134.49</ele>
        <time>2022-07-31T10:14:10Z</time>
      </trkpt>
      <trkpt lat="47.96127" lon="6.9219">
        <ele>1134.97</ele>
        <time>2022-07-31T10:14:14Z</time>
      </trkpt>
      <trkpt lat="47.96124" lon="6.9219">
        <ele>1135.45</ele>
        <time>2022-07-31T10:14:16Z</time>
      </trkpt>
      <trkpt lat="47.96107" lon="6.9218">
        <ele>1137.38</ele>
        <time>2022-07-31T10:14:28Z</time>
      </trkpt>
      <trkpt lat="47.96104" lon="6.92178">
        <ele>1137.86</ele>
        <time>2022-07-31T10:14:31Z</time>
      </trkpt>
      <trkpt lat="47.96096" lon="6.92171">
        <ele>1139.3</ele>
        <time>2022-07-31T10:14:38Z</time>
      </trkpt>
      <trkpt lat="47.96083" lon="6.92168">
        <ele>1140.74</ele>
        <time>2022-07-31T10:14:47Z</time>
      </trkpt>
      <trkpt lat="47.96079" lon="6.92166">
        <ele>1141.22</ele>
        <time>2022-07-31T10:14:49Z</time>
      </trkpt>
      <trkpt lat="47.96071" lon="6.92164">
        <ele>1142.18</ele>
        <time>2022-07-31T10:14:53Z</time>
      </trkpt>
      <trkpt lat="47.96057" lon="6.92153">
        <ele>1143.63</ele>
        <time>2022-07-31T10:15:03Z</time>
      </trkpt>
      <trkpt lat="47.96048" lon="6.92142">
        <ele>1143.63</ele>
        <time>2022-07-31T10:15:09Z</time>
      </trkpt>
      <trkpt lat="47.96032" lon="6.92128">
        <ele>1144.11</ele>
        <time>2022-07-31T10:15:17Z</time>
      </trkpt>
      <trkpt lat="47.9601" lon="6.92111">
        <ele>1144.11</ele>
        <time>2022-07-31T10:15:29Z</time>
      </trkpt>
      <trkpt lat="47.95986" lon="6.92094">
        <ele>1142.66</ele>
        <time>2022-07-31T10:15:39Z</time>
      </trkpt>
      <trkpt lat="47.9597" lon="6.92071">
        <ele>1140.74</ele>
        <time>2022-07-31T10:15:48Z</time>
      </trkpt>
      <trkpt lat="47.95959" lon="6.9207">
        <ele>1141.22</ele>
        <time>2022-07-31T10:15:53Z</time>
      </trkpt>
      <trkpt lat="47.95953" lon="6.92062">
        <ele>1141.22</ele>
        <time>2022-07-31T10:16:04Z</time>
      </trkpt>
      <trkpt lat="47.95952" lon="6.92063">
        <ele>1141.22</ele>
        <time>2022-07-31T10:16:31Z</time>
      </trkpt>
      <trkpt lat="47.95952" lon="6.92062">
        <ele>1141.7</ele>
        <time>2022-07-31T10:17:05Z</time>
      </trkpt>
      <trkpt lat="47.95952" lon="6.92065">
        <ele>1141.7</ele>
        <time>2022-07-31T10:17:24Z</time>
      </trkpt>
      <trkpt lat="47.95942" lon="6.92077">
        <ele>1142.18</ele>
        <time>2022-07-31T10:17:32Z</time>
      </trkpt>
      <trkpt lat="47.95914" lon="6.92084">
        <ele>1143.63</ele>
        <time>2022-07-31T10:17:45Z</time>
      </trkpt>
      <trkpt lat="47.9588" lon="6.92093">
        <ele>1142.18</ele>
        <time>2022-07-31T10:17:59Z</time>
      </trkpt>
      <trkpt lat="47.95861" lon="6.92097">
        <ele>1140.26</ele>
        <time>2022-07-31T10:18:10Z</time>
      </trkpt>
      <trkpt lat="47.9585" lon="6.92099">
        <ele>1138.82</ele>
        <time>2022-07-31T10:18:17Z</time>
      </trkpt>
      <trkpt lat="47.95847" lon="6.921">
        <ele>1138.34</ele>
        <time>2022-07-31T10:18:33Z</time>
      </trkpt>
      <trkpt lat="47.95846" lon="6.921">
        <ele>1138.34</ele>
        <time>2022-07-31T10:18:58Z</time>
      </trkpt>
      <trkpt lat="47.95842" lon="6.92102">
        <ele>1137.86</ele>
        <time>2022-07-31T10:19:01Z</time>
      </trkpt>
      <trkpt lat="47.95805" lon="6.92124">
        <ele>1134.49</ele>
        <time>2022-07-31T10:19:08Z</time>
      </trkpt>
      <trkpt lat="47.95776" lon="6.92147">
        <ele>1131.13</ele>
        <time>2022-07-31T10:19:12Z</time>
      </trkpt>
      <trkpt lat="47.95751" lon="6.92165">
        <ele>1127.76</ele>
        <time>2022-07-31T10:19:15Z</time>
      </trkpt>
      <trkpt lat="47.95735" lon="6.92177">
        <ele>1125.84</ele>
        <time>2022-07-31T10:19:17Z</time>
      </trkpt>
      <trkpt lat="47.95698" lon="6.92197">
        <ele>1122</ele>
        <time>2022-07-31T10:19:21Z</time>
      </trkpt>
      <trkpt lat="47.95678" lon="6.92207">
        <ele>1120.07</ele>
        <time>2022-07-31T10:19:23Z</time>
      </trkpt>
      <trkpt lat="47.95667" lon="6.92209">
        <ele>1119.11</ele>
        <time>2022-07-31T10:19:24Z</time>
      </trkpt>
      <trkpt lat="47.9563" lon="6.92208">
        <ele>1115.27</ele>
        <time>2022-07-31T10:19:28Z</time>
      </trkpt>
      <trkpt lat="47.95622" lon="6.92204">
        <ele>1114.31</ele>
        <time>2022-07-31T10:19:29Z</time>
      </trkpt>
      <trkpt lat="47.95615" lon="6.922">
        <ele>1113.34</ele>
        <time>2022-07-31T10:19:30Z</time>
      </trkpt>
      <trkpt lat="47.95608" lon="6.92195">
        <ele>1112.38</ele>
        <time>2022-07-31T10:19:31Z</time>
      </trkpt>
      <trkpt lat="47.95601" lon="6.92189">
        <ele>1111.9</ele>
        <time>2022-07-31T10:19:32Z</time>
      </trkpt>
      <trkpt lat="47.95588" lon="6.92175">
        <ele>1110.46</ele>
        <time>2022-07-31T10:19:34Z</time>
      </trkpt>
      <trkpt lat="47.95562" lon="6.92141">
        <ele>1108.06</ele>
        <time>2022-07-31T10:19:38Z</time>
      </trkpt>
      <trkpt lat="47.95551" lon="6.92124">
        <ele>1106.61</ele>
        <time>2022-07-31T10:19:40Z</time>
      </trkpt>
      <trkpt lat="47.95529" lon="6.92093">
        <ele>1104.69</ele>
        <time>2022-07-31T10:19:44Z</time>
      </trkpt>
      <trkpt lat="47.95524" lon="6.92087">
        <ele>1104.21</ele>
        <time>2022-07-31T10:19:45Z</time>
      </trkpt>
      <trkpt lat="47.95519" lon="6.92082">
        <ele>1103.73</ele>
        <time>2022-07-31T10:19:46Z</time>
      </trkpt>
      <trkpt lat="47.95488" lon="6.9205">
        <ele>1100.85</ele>
        <time>2022-07-31T10:19:52Z</time>
      </trkpt>
      <trkpt lat="47.95445" lon="6.92012">
        <ele>1097.48</ele>
        <time>2022-07-31T10:19:59Z</time>
      </trkpt>
      <trkpt lat="47.95438" lon="6.92006">
        <ele>1097</ele>
        <time>2022-07-31T10:20:00Z</time>
      </trkpt>
      <trkpt lat="47.95419" lon="6.91989">
        <ele>1094.6</ele>
        <time>2022-07-31T10:20:03Z</time>
      </trkpt>
      <trkpt lat="47.95412" lon="6.91985">
        <ele>1094.6</ele>
        <time>2022-07-31T10:20:04Z</time>
      </trkpt>
      <trkpt lat="47.9538" lon="6.91968">
        <ele>1091.71</ele>
        <time>2022-07-31T10:20:12Z</time>
      </trkpt>
      <trkpt lat="47.95381" lon="6.91974">
        <ele>1091.71</ele>
        <time>2022-07-31T10:20:29Z</time>
      </trkpt>
      <trkpt lat="47.95374" lon="6.91968">
        <ele>1091.71</ele>
        <time>2022-07-31T10:21:00Z</time>
      </trkpt>
      <trkpt lat="47.95374" lon="6.91967">
        <ele>1091.71</ele>
        <time>2022-07-31T10:21:14Z</time>
      </trkpt>
      <trkpt lat="47.95369" lon="6.91967">
        <ele>1091.71</ele>
        <time>2022-07-31T10:21:18Z</time>
      </trkpt>
      <trkpt lat="47.95348" lon="6.91968">
        <ele>1090.27</ele>
        <time>2022-07-31T10:21:24Z</time>
      </trkpt>
      <trkpt lat="47.95343" lon="6.91968">
        <ele>1090.27</ele>
        <time>2022-07-31T10:21:25Z</time>
      </trkpt>
      <trkpt lat="47.95289" lon="6.91973">
        <ele>1086.91</ele>
        <time>2022-07-31T10:21:34Z</time>
      </trkpt>
      <trkpt lat="47.95276" lon="6.91975">
        <ele>1085.95</ele>
        <time>2022-07-31T10:21:36Z</time>
      </trkpt>
      <trkpt lat="47.95237" lon="6.91988">
        <ele>1083.06</ele>
        <time>2022-07-31T10:21:41Z</time>
      </trkpt>
      <trkpt lat="47.95211" lon="6.91998">
        <ele>1081.62</ele>
        <time>2022-07-31T10:21:44Z</time>
      </trkpt>
      <trkpt lat="47.9517" lon="6.92023">
        <ele>1078.74</ele>
        <time>2022-07-31T10:21:49Z</time>
      </trkpt>
      <trkpt lat="47.9512" lon="6.92051">
        <ele>1075.85</ele>
        <time>2022-07-31T10:21:55Z</time>
      </trkpt>
      <trkpt lat="47.95102" lon="6.92057">
        <ele>1074.41</ele>
        <time>2022-07-31T10:21:57Z</time>
      </trkpt>
      <trkpt lat="47.95067" lon="6.9206">
        <ele>1072.01</ele>
        <time>2022-07-31T10:22:01Z</time>
      </trkpt>
      <trkpt lat="47.95058" lon="6.92059">
        <ele>1071.53</ele>
        <time>2022-07-31T10:22:02Z</time>
      </trkpt>
      <trkpt lat="47.9505" lon="6.92056">
        <ele>1071.05</ele>
        <time>2022-07-31T10:22:03Z</time>
      </trkpt>
      <trkpt lat="47.95042" lon="6.92053">
        <ele>1070.57</ele>
        <time>2022-07-31T10:22:04Z</time>
      </trkpt>
      <trkpt lat="47.95035" lon="6.92048">
        <ele>1069.6</ele>
        <time>2022-07-31T10:22:05Z</time>
      </trkpt>
      <trkpt lat="47.95029" lon="6.92042">
        <ele>1068.64</ele>
        <time>2022-07-31T10:22:06Z</time>
      </trkpt>
      <trkpt lat="47.95023" lon="6.92034">
        <ele>1068.16</ele>
        <time>2022-07-31T10:22:07Z</time>
      </trkpt>
      <trkpt lat="47.95017" lon="6.92024">
        <ele>1067.68</ele>
        <time>2022-07-31T10:22:08Z</time>
      </trkpt>
      <trkpt lat="47.95012" lon="6.92013">
        <ele>1067.68</ele>
        <time>2022-07-31T10:22:10Z</time>
      </trkpt>
      <trkpt lat="47.95004" lon="6.91989">
        <ele>1066.72</ele>
        <time>2022-07-31T10:22:11Z</time>
      </trkpt>
      <trkpt lat="47.95" lon="6.91976">
        <ele>1065.28</ele>
        <time>2022-07-31T10:22:12Z</time>
      </trkpt>
      <trkpt lat="47.94996" lon="6.91963">
        <ele>1064.32</ele>
        <time>2022-07-31T10:22:13Z</time>
      </trkpt>
      <trkpt lat="47.94978" lon="6.91896">
        <ele>1061.43</ele>
        <time>2022-07-31T10:22:18Z</time>
      </trkpt>
      <trkpt lat="47.94973" lon="6.91882">
        <ele>1060.47</ele>
        <time>2022-07-31T10:22:19Z</time>
      </trkpt>
      <trkpt lat="47.94943" lon="6.91793">
        <ele>1057.59</ele>
        <time>2022-07-31T10:22:25Z</time>
      </trkpt>
      <trkpt lat="47.94924" lon="6.91735">
        <ele>1054.22</ele>
        <time>2022-07-31T10:22:29Z</time>
      </trkpt>
      <trkpt lat="47.94907" lon="6.9168">
        <ele>1051.34</ele>
        <time>2022-07-31T10:22:33Z</time>
      </trkpt>
      <trkpt lat="47.94903" lon="6.91666">
        <ele>1050.86</ele>
        <time>2022-07-31T10:22:34Z</time>
      </trkpt>
      <trkpt lat="47.949" lon="6.91652">
        <ele>1050.38</ele>
        <time>2022-07-31T10:22:35Z</time>
      </trkpt>
      <trkpt lat="47.94876" lon="6.91565">
        <ele>1047.01</ele>
        <time>2022-07-31T10:22:41Z</time>
      </trkpt>
      <trkpt lat="47.94838" lon="6.9148">
        <ele>1044.13</ele>
        <time>2022-07-31T10:22:47Z</time>
      </trkpt>
      <trkpt lat="47.94824" lon="6.91456">
        <ele>1043.17</ele>
        <time>2022-07-31T10:22:49Z</time>
      </trkpt>
      <trkpt lat="47.948" lon="6.91409">
        <ele>1039.8</ele>
        <time>2022-07-31T10:22:53Z</time>
      </trkpt>
      <trkpt lat="47.94793" lon="6.914">
        <ele>1039.32</ele>
        <time>2022-07-31T10:22:54Z</time>
      </trkpt>
      <trkpt lat="47.94786" lon="6.91391">
        <ele>1038.84</ele>
        <time>2022-07-31T10:22:55Z</time>
      </trkpt>
      <trkpt lat="47.94779" lon="6.91383">
        <ele>1038.36</ele>
        <time>2022-07-31T10:22:56Z</time>
      </trkpt>
      <trkpt lat="47.94771" lon="6.91376">
        <ele>1037.88</ele>
        <time>2022-07-31T10:22:57Z</time>
      </trkpt>
      <trkpt lat="47.94762" lon="6.9137">
        <ele>1037.4</ele>
        <time>2022-07-31T10:22:58Z</time>
      </trkpt>
      <trkpt lat="47.94753" lon="6.91364">
        <ele>1035.48</ele>
        <time>2022-07-31T10:22:59Z</time>
      </trkpt>
      <trkpt lat="47.94744" lon="6.91358">
        <ele>1036.92</ele>
        <time>2022-07-31T10:23:00Z</time>
      </trkpt>
      <trkpt lat="47.94733" lon="6.91353">
        <ele>1035.48</ele>
        <time>2022-07-31T10:23:01Z</time>
      </trkpt>
      <trkpt lat="47.94673" lon="6.91326">
        <ele>1032.11</ele>
        <time>2022-07-31T10:23:07Z</time>
      </trkpt>
      <trkpt lat="47.94635" lon="6.91309">
        <ele>1030.19</ele>
        <time>2022-07-31T10:23:11Z</time>
      </trkpt>
      <trkpt lat="47.94602" lon="6.91286">
        <ele>1028.27</ele>
        <time>2022-07-31T10:23:15Z</time>
      </trkpt>
      <trkpt lat="47.9457" lon="6.91255">
        <ele>1024.9</ele>
        <time>2022-07-31T10:23:19Z</time>
      </trkpt>
      <trkpt lat="47.94556" lon="6.9124">
        <ele>1023.46</ele>
        <time>2022-07-31T10:23:21Z</time>
      </trkpt>
      <trkpt lat="47.94549" lon="6.91231">
        <ele>1022.98</ele>
        <time>2022-07-31T10:23:22Z</time>
      </trkpt>
      <trkpt lat="47.94543" lon="6.9122">
        <ele>1022.5</ele>
        <time>2022-07-31T10:23:23Z</time>
      </trkpt>
      <trkpt lat="47.94537" lon="6.91207">
        <ele>1022.02</ele>
        <time>2022-07-31T10:23:24Z</time>
      </trkpt>
      <trkpt lat="47.94532" lon="6.91194">
        <ele>1021.06</ele>
        <time>2022-07-31T10:23:25Z</time>
      </trkpt>
      <trkpt lat="47.94527" lon="6.91179">
        <ele>1020.58</ele>
        <time>2022-07-31T10:23:26Z</time>
      </trkpt>
      <trkpt lat="47.94523" lon="6.91165">
        <ele>1020.1</ele>
        <time>2022-07-31T10:23:27Z</time>
      </trkpt>
      <trkpt lat="47.94514" lon="6.91137">
        <ele>1018.17</ele>
        <time>2022-07-31T10:23:29Z</time>
      </trkpt>
      <trkpt lat="47.94509" lon="6.91122">
        <ele>1017.69</ele>
        <time>2022-07-31T10:23:30Z</time>
      </trkpt>
      <trkpt lat="47.94492" lon="6.91058">
        <ele>1013.85</ele>
        <time>2022-07-31T10:23:34Z</time>
      </trkpt>
      <trkpt lat="47.94466" lon="6.90984">
        <ele>1010.48</ele>
        <time>2022-07-31T10:23:39Z</time>
      </trkpt>
      <trkpt lat="47.94446" lon="6.9094">
        <ele>1007.6</ele>
        <time>2022-07-31T10:23:42Z</time>
      </trkpt>
      <trkpt lat="47.94431" lon="6.90914">
        <ele>1005.68</ele>
        <time>2022-07-31T10:23:44Z</time>
      </trkpt>
      <trkpt lat="47.94423" lon="6.90901">
        <ele>1005.2</ele>
        <time>2022-07-31T10:23:45Z</time>
      </trkpt>
      <trkpt lat="47.94416" lon="6.90889">
        <ele>1004.72</ele>
        <time>2022-07-31T10:23:46Z</time>
      </trkpt>
      <trkpt lat="47.94408" lon="6.90877">
        <ele>1003.75</ele>
        <time>2022-07-31T10:23:47Z</time>
      </trkpt>
      <trkpt lat="47.94401" lon="6.90866">
        <ele>1003.27</ele>
        <time>2022-07-31T10:23:48Z</time>
      </trkpt>
      <trkpt lat="47.94394" lon="6.90856">
        <ele>1002.31</ele>
        <time>2022-07-31T10:23:49Z</time>
      </trkpt>
      <trkpt lat="47.94369" lon="6.90828">
        <ele>1000.87</ele>
        <time>2022-07-31T10:23:52Z</time>
      </trkpt>
      <trkpt lat="47.94334" lon="6.90803">
        <ele>998.95</ele>
        <time>2022-07-31T10:23:56Z</time>
      </trkpt>
      <trkpt lat="47.94326" lon="6.90798">
        <ele>998.47</ele>
        <time>2022-07-31T10:23:57Z</time>
      </trkpt>
      <trkpt lat="47.943" lon="6.90788">
        <ele>997.02</ele>
        <time>2022-07-31T10:24:00Z</time>
      </trkpt>
      <trkpt lat="47.9429" lon="6.90787">
        <ele>996.54</ele>
        <time>2022-07-31T10:24:01Z</time>
      </trkpt>
      <trkpt lat="47.9428" lon="6.90787">
        <ele>996.06</ele>
        <time>2022-07-31T10:24:02Z</time>
      </trkpt>
      <trkpt lat="47.94271" lon="6.9079">
        <ele>995.58</ele>
        <time>2022-07-31T10:24:03Z</time>
      </trkpt>
      <trkpt lat="47.94262" lon="6.90796">
        <ele>995.1</ele>
        <time>2022-07-31T10:24:04Z</time>
      </trkpt>
      <trkpt lat="47.94231" lon="6.90817">
        <ele>992.7</ele>
        <time>2022-07-31T10:24:08Z</time>
      </trkpt>
      <trkpt lat="47.94182" lon="6.90848">
        <ele>989.33</ele>
        <time>2022-07-31T10:24:14Z</time>
      </trkpt>
      <trkpt lat="47.94174" lon="6.90852">
        <ele>988.85</ele>
        <time>2022-07-31T10:24:15Z</time>
      </trkpt>
      <trkpt lat="47.94165" lon="6.90854">
        <ele>988.37</ele>
        <time>2022-07-31T10:24:16Z</time>
      </trkpt>
      <trkpt lat="47.94157" lon="6.90855">
        <ele>987.89</ele>
        <time>2022-07-31T10:24:17Z</time>
      </trkpt>
      <trkpt lat="47.94142" lon="6.90854">
        <ele>986.93</ele>
        <time>2022-07-31T10:24:19Z</time>
      </trkpt>
      <trkpt lat="47.94134" lon="6.9085">
        <ele>986.45</ele>
        <time>2022-07-31T10:24:20Z</time>
      </trkpt>
      <trkpt lat="47.94128" lon="6.90844">
        <ele>985.97</ele>
        <time>2022-07-31T10:24:21Z</time>
      </trkpt>
      <trkpt lat="47.941" lon="6.90817">
        <ele>984.05</ele>
        <time>2022-07-31T10:24:25Z</time>
      </trkpt>
      <trkpt lat="47.94094" lon="6.90808">
        <ele>982.6</ele>
        <time>2022-07-31T10:24:26Z</time>
      </trkpt>
      <trkpt lat="47.94083" lon="6.90787">
        <ele>981.64</ele>
        <time>2022-07-31T10:24:28Z</time>
      </trkpt>
      <trkpt lat="47.94065" lon="6.90742">
        <ele>980.2</ele>
        <time>2022-07-31T10:24:31Z</time>
      </trkpt>
      <trkpt lat="47.94038" lon="6.90652">
        <ele>976.36</ele>
        <time>2022-07-31T10:24:37Z</time>
      </trkpt>
      <trkpt lat="47.94028" lon="6.90591">
        <ele>974.43</ele>
        <time>2022-07-31T10:24:41Z</time>
      </trkpt>
      <trkpt lat="47.94002" lon="6.90508">
        <ele>971.07</ele>
        <time>2022-07-31T10:24:47Z</time>
      </trkpt>
      <trkpt lat="47.93978" lon="6.90448">
        <ele>967.7</ele>
        <time>2022-07-31T10:24:52Z</time>
      </trkpt>
      <trkpt lat="47.93972" lon="6.90437">
        <ele>966.74</ele>
        <time>2022-07-31T10:24:53Z</time>
      </trkpt>
      <trkpt lat="47.93943" lon="6.90392">
        <ele>964.82</ele>
        <time>2022-07-31T10:24:57Z</time>
      </trkpt>
      <trkpt lat="47.93915" lon="6.90358">
        <ele>962.9</ele>
        <time>2022-07-31T10:25:00Z</time>
      </trkpt>
      <trkpt lat="47.93907" lon="6.90347">
        <ele>962.42</ele>
        <time>2022-07-31T10:25:01Z</time>
      </trkpt>
      <trkpt lat="47.9388" lon="6.90318">
        <ele>960.98</ele>
        <time>2022-07-31T10:25:04Z</time>
      </trkpt>
      <trkpt lat="47.93841" lon="6.90274">
        <ele>957.61</ele>
        <time>2022-07-31T10:25:09Z</time>
      </trkpt>
      <trkpt lat="47.93824" lon="6.90261">
        <ele>956.65</ele>
        <time>2022-07-31T10:25:11Z</time>
      </trkpt>
      <trkpt lat="47.93798" lon="6.90243">
        <ele>954.73</ele>
        <time>2022-07-31T10:25:14Z</time>
      </trkpt>
      <trkpt lat="47.93761" lon="6.90217">
        <ele>951.36</ele>
        <time>2022-07-31T10:25:19Z</time>
      </trkpt>
      <trkpt lat="47.93689" lon="6.90187">
        <ele>948.48</ele>
        <time>2022-07-31T10:25:29Z</time>
      </trkpt>
      <trkpt lat="47.93685" lon="6.90184">
        <ele>948.48</ele>
        <time>2022-07-31T10:25:30Z</time>
      </trkpt>
      <trkpt lat="47.93681" lon="6.90181">
        <ele>948</ele>
        <time>2022-07-31T10:25:31Z</time>
      </trkpt>
      <trkpt lat="47.9367" lon="6.90171">
        <ele>948</ele>
        <time>2022-07-31T10:25:34Z</time>
      </trkpt>
      <trkpt lat="47.93664" lon="6.90167">
        <ele>948.48</ele>
        <time>2022-07-31T10:25:35Z</time>
      </trkpt>
      <trkpt lat="47.9366" lon="6.90164">
        <ele>948.48</ele>
        <time>2022-07-31T10:25:36Z</time>
      </trkpt>
      <trkpt lat="47.93658" lon="6.90163">
        <ele>948.48</ele>
        <time>2022-07-31T10:25:37Z</time>
      </trkpt>
      <trkpt lat="47.93654" lon="6.9016">
        <ele>948.96</ele>
        <time>2022-07-31T10:25:50Z</time>
      </trkpt>
      <trkpt lat="47.93656" lon="6.90161">
        <ele>948.96</ele>
        <time>2022-07-31T10:26:11Z</time>
      </trkpt>
      <trkpt lat="47.93655" lon="6.90159">
        <ele>948.96</ele>
        <time>2022-07-31T10:26:39Z</time>
      </trkpt>
      <trkpt lat="47.93658" lon="6.9016">
        <ele>948.96</ele>
        <time>2022-07-31T10:27:08Z</time>
      </trkpt>
      <trkpt lat="47.93658" lon="6.90161">
        <ele>948.96</ele>
        <time>2022-07-31T10:27:24Z</time>
      </trkpt>
      <trkpt lat="47.93656" lon="6.90164">
        <ele>949.44</ele>
        <time>2022-07-31T10:27:30Z</time>
      </trkpt>
      <trkpt lat="47.93655" lon="6.90164">
        <ele>949.44</ele>
        <time>2022-07-31T10:27:31Z</time>
      </trkpt>
      <trkpt lat="47.93654" lon="6.90164">
        <ele>949.92</ele>
        <time>2022-07-31T10:27:32Z</time>
      </trkpt>
      <trkpt lat="47.93639" lon="6.90164">
        <ele>951.36</ele>
        <time>2022-07-31T10:27:42Z</time>
      </trkpt>
      <trkpt lat="47.93619" lon="6.90157">
        <ele>953.77</ele>
        <time>2022-07-31T10:27:54Z</time>
      </trkpt>
      <trkpt lat="47.9361" lon="6.90153">
        <ele>954.73</ele>
        <time>2022-07-31T10:27:59Z</time>
      </trkpt>
      <trkpt lat="47.93596" lon="6.90142">
        <ele>956.17</ele>
        <time>2022-07-31T10:28:08Z</time>
      </trkpt>
      <trkpt lat="47.93585" lon="6.90135">
        <ele>957.13</ele>
        <time>2022-07-31T10:28:13Z</time>
      </trkpt>
      <trkpt lat="47.93567" lon="6.90123">
        <ele>958.57</ele>
        <time>2022-07-31T10:28:21Z</time>
      </trkpt>
      <trkpt lat="47.93564" lon="6.9012">
        <ele>959.05</ele>
        <time>2022-07-31T10:28:23Z</time>
      </trkpt>
      <trkpt lat="47.93559" lon="6.90116">
        <ele>959.53</ele>
        <time>2022-07-31T10:28:26Z</time>
      </trkpt>
      <trkpt lat="47.93541" lon="6.90102">
        <ele>960.98</ele>
        <time>2022-07-31T10:28:36Z</time>
      </trkpt>
      <trkpt lat="47.93521" lon="6.9008">
        <ele>963.38</ele>
        <time>2022-07-31T10:28:47Z</time>
      </trkpt>
      <trkpt lat="47.93508" lon="6.90069">
        <ele>963.86</ele>
        <time>2022-07-31T10:28:53Z</time>
      </trkpt>
      <trkpt lat="47.93479" lon="6.90037">
        <ele>964.82</ele>
        <time>2022-07-31T10:29:05Z</time>
      </trkpt>
      <trkpt lat="47.93448" lon="6.90009">
        <ele>965.78</ele>
        <time>2022-07-31T10:29:17Z</time>
      </trkpt>
      <trkpt lat="47.93421" lon="6.89986">
        <ele>966.74</ele>
        <time>2022-07-31T10:29:28Z</time>
      </trkpt>
      <trkpt lat="47.93412" lon="6.89979">
        <ele>967.22</ele>
        <time>2022-07-31T10:29:32Z</time>
      </trkpt>
      <trkpt lat="47.93402" lon="6.89978">
        <ele>968.67</ele>
        <time>2022-07-31T10:29:38Z</time>
      </trkpt>
      <trkpt lat="47.93395" lon="6.89976">
        <ele>969.15</ele>
        <time>2022-07-31T10:29:41Z</time>
      </trkpt>
      <trkpt lat="47.93392" lon="6.89977">
        <ele>969.15</ele>
        <time>2022-07-31T10:29:43Z</time>
      </trkpt>
      <trkpt lat="47.93381" lon="6.89977">
        <ele>970.59</ele>
        <time>2022-07-31T10:29:50Z</time>
      </trkpt>
      <trkpt lat="47.93351" lon="6.89965">
        <ele>972.51</ele>
        <time>2022-07-31T10:30:02Z</time>
      </trkpt>
      <trkpt lat="47.93337" lon="6.89957">
        <ele>973.47</ele>
        <time>2022-07-31T10:30:06Z</time>
      </trkpt>
      <trkpt lat="47.93312" lon="6.89948">
        <ele>975.88</ele>
        <time>2022-07-31T10:30:16Z</time>
      </trkpt>
      <trkpt lat="47.93288" lon="6.8994">
        <ele>978.28</ele>
        <time>2022-07-31T10:30:29Z</time>
      </trkpt>
      <trkpt lat="47.93267" lon="6.89935">
        <ele>979.72</ele>
        <time>2022-07-31T10:30:39Z</time>
      </trkpt>
      <trkpt lat="47.93249" lon="6.89932">
        <ele>981.64</ele>
        <time>2022-07-31T10:30:48Z</time>
      </trkpt>
      <trkpt lat="47.93233" lon="6.8993">
        <ele>983.09</ele>
        <time>2022-07-31T10:30:57Z</time>
      </trkpt>
      <trkpt lat="47.93216" lon="6.89918">
        <ele>984.53</ele>
        <time>2022-07-31T10:31:04Z</time>
      </trkpt>
      <trkpt lat="47.93193" lon="6.89909">
        <ele>986.93</ele>
        <time>2022-07-31T10:31:14Z</time>
      </trkpt>
      <trkpt lat="47.93186" lon="6.89907">
        <ele>986.93</ele>
        <time>2022-07-31T10:31:17Z</time>
      </trkpt>
      <trkpt lat="47.93174" lon="6.89907">
        <ele>988.37</ele>
        <time>2022-07-31T10:31:23Z</time>
      </trkpt>
      <trkpt lat="47.93147" lon="6.89894">
        <ele>989.81</ele>
        <time>2022-07-31T10:31:35Z</time>
      </trkpt>
      <trkpt lat="47.93119" lon="6.89882">
        <ele>991.26</ele>
        <time>2022-07-31T10:31:45Z</time>
      </trkpt>
      <trkpt lat="47.93088" lon="6.89871">
        <ele>991.26</ele>
        <time>2022-07-31T10:31:54Z</time>
      </trkpt>
      <trkpt lat="47.93049" lon="6.89869">
        <ele>991.74</ele>
        <time>2022-07-31T10:32:06Z</time>
      </trkpt>
      <trkpt lat="47.93013" lon="6.89906">
        <ele>991.74</ele>
        <time>2022-07-31T10:32:17Z</time>
      </trkpt>
      <trkpt lat="47.92992" lon="6.89965">
        <ele>991.74</ele>
        <time>2022-07-31T10:32:30Z</time>
      </trkpt>
      <trkpt lat="47.92994" lon="6.89983">
        <ele>991.74</ele>
        <time>2022-07-31T10:32:42Z</time>
      </trkpt>
      <trkpt lat="47.92994" lon="6.89985">
        <ele>991.74</ele>
        <time>2022-07-31T10:32:47Z</time>
      </trkpt>
      <trkpt lat="47.93006" lon="6.90014">
        <ele>991.26</ele>
        <time>2022-07-31T10:32:55Z</time>
      </trkpt>
      <trkpt lat="47.93007" lon="6.90021">
        <ele>991.26</ele>
        <time>2022-07-31T10:32:56Z</time>
      </trkpt>
      <trkpt lat="47.93009" lon="6.90028">
        <ele>991.26</ele>
        <time>2022-07-31T10:32:57Z</time>
      </trkpt>
      <trkpt lat="47.93011" lon="6.90035">
        <ele>990.78</ele>
        <time>2022-07-31T10:32:58Z</time>
      </trkpt>
      <trkpt lat="47.93012" lon="6.90042">
        <ele>990.78</ele>
        <time>2022-07-31T10:32:59Z</time>
      </trkpt>
      <trkpt lat="47.93012" lon="6.90048">
        <ele>990.78</ele>
        <time>2022-07-31T10:33:00Z</time>
      </trkpt>
      <trkpt lat="47.93012" lon="6.90054">
        <ele>991.26</ele>
        <time>2022-07-31T10:33:01Z</time>
      </trkpt>
      <trkpt lat="47.9301" lon="6.90081">
        <ele>991.26</ele>
        <time>2022-07-31T10:33:05Z</time>
      </trkpt>
      <trkpt lat="47.9301" lon="6.90088">
        <ele>991.26</ele>
        <time>2022-07-31T10:33:06Z</time>
      </trkpt>
      <trkpt lat="47.93009" lon="6.90096">
        <ele>991.74</ele>
        <time>2022-07-31T10:33:07Z</time>
      </trkpt>
      <trkpt lat="47.93009" lon="6.90104">
        <ele>991.26</ele>
        <time>2022-07-31T10:33:08Z</time>
      </trkpt>
      <trkpt lat="47.9301" lon="6.90111">
        <ele>991.26</ele>
        <time>2022-07-31T10:33:09Z</time>
      </trkpt>
      <trkpt lat="47.93011" lon="6.90118">
        <ele>991.26</ele>
        <time>2022-07-31T10:33:10Z</time>
      </trkpt>
      <trkpt lat="47.93014" lon="6.90127">
        <ele>990.3</ele>
        <time>2022-07-31T10:33:11Z</time>
      </trkpt>
      <trkpt lat="47.93029" lon="6.9017">
        <ele>987.41</ele>
        <time>2022-07-31T10:33:15Z</time>
      </trkpt>
      <trkpt lat="47.93034" lon="6.90181">
        <ele>986.45</ele>
        <time>2022-07-31T10:33:16Z</time>
      </trkpt>
      <trkpt lat="47.9304" lon="6.90193">
        <ele>985.49</ele>
        <time>2022-07-31T10:33:17Z</time>
      </trkpt>
      <trkpt lat="47.93045" lon="6.90205">
        <ele>985.01</ele>
        <time>2022-07-31T10:33:18Z</time>
      </trkpt>
      <trkpt lat="47.9305" lon="6.90217">
        <ele>983.57</ele>
        <time>2022-07-31T10:33:19Z</time>
      </trkpt>
      <trkpt lat="47.93055" lon="6.90228">
        <ele>983.09</ele>
        <time>2022-07-31T10:33:20Z</time>
      </trkpt>
      <trkpt lat="47.93058" lon="6.90239">
        <ele>983.09</ele>
        <time>2022-07-31T10:33:21Z</time>
      </trkpt>
      <trkpt lat="47.93066" lon="6.90318">
        <ele>979.72</ele>
        <time>2022-07-31T10:33:28Z</time>
      </trkpt>
      <trkpt lat="47.93068" lon="6.9034">
        <ele>978.76</ele>
        <time>2022-07-31T10:33:30Z</time>
      </trkpt>
      <trkpt lat="47.93069" lon="6.90359">
        <ele>978.28</ele>
        <time>2022-07-31T10:33:32Z</time>
      </trkpt>
      <trkpt lat="47.93071" lon="6.90368">
        <ele>977.8</ele>
        <time>2022-07-31T10:33:33Z</time>
      </trkpt>
      <trkpt lat="47.93081" lon="6.90399">
        <ele>974.43</ele>
        <time>2022-07-31T10:33:36Z</time>
      </trkpt>
      <trkpt lat="47.93084" lon="6.9041">
        <ele>973.47</ele>
        <time>2022-07-31T10:33:37Z</time>
      </trkpt>
      <trkpt lat="47.931" lon="6.90472">
        <ele>971.07</ele>
        <time>2022-07-31T10:33:44Z</time>
      </trkpt>
      <trkpt lat="47.93107" lon="6.9049">
        <ele>969.63</ele>
        <time>2022-07-31T10:33:47Z</time>
      </trkpt>
      <trkpt lat="47.93112" lon="6.90524">
        <ele>968.18</ele>
        <time>2022-07-31T10:33:51Z</time>
      </trkpt>
      <trkpt lat="47.93113" lon="6.90606">
        <ele>966.26</ele>
        <time>2022-07-31T10:33:58Z</time>
      </trkpt>
      <trkpt lat="47.93113" lon="6.90616">
        <ele>965.78</ele>
        <time>2022-07-31T10:33:59Z</time>
      </trkpt>
      <trkpt lat="47.93113" lon="6.90625">
        <ele>965.3</ele>
        <time>2022-07-31T10:34:00Z</time>
      </trkpt>
      <trkpt lat="47.93111" lon="6.90703">
        <ele>962.42</ele>
        <time>2022-07-31T10:34:08Z</time>
      </trkpt>
      <trkpt lat="47.93113" lon="6.90771">
        <ele>960.01</ele>
        <time>2022-07-31T10:34:14Z</time>
      </trkpt>
      <trkpt lat="47.93112" lon="6.90781">
        <ele>960.98</ele>
        <time>2022-07-31T10:34:17Z</time>
      </trkpt>
      <trkpt lat="47.93109" lon="6.90782">
        <ele>959.53</ele>
        <time>2022-07-31T10:34:19Z</time>
      </trkpt>
      <trkpt lat="47.93108" lon="6.90782">
        <ele>959.05</ele>
        <time>2022-07-31T10:34:20Z</time>
      </trkpt>
      <trkpt lat="47.93107" lon="6.90782">
        <ele>958.57</ele>
        <time>2022-07-31T10:34:21Z</time>
      </trkpt>
      <trkpt lat="47.93106" lon="6.90787">
        <ele>958.09</ele>
        <time>2022-07-31T10:34:33Z</time>
      </trkpt>
      <trkpt lat="47.93107" lon="6.90793">
        <ele>958.57</ele>
        <time>2022-07-31T10:34:59Z</time>
      </trkpt>
      <trkpt lat="47.9311" lon="6.90797">
        <ele>958.57</ele>
        <time>2022-07-31T10:35:25Z</time>
      </trkpt>
      <trkpt lat="47.93112" lon="6.90798">
        <ele>958.57</ele>
        <time>2022-07-31T10:35:54Z</time>
      </trkpt>
      <trkpt lat="47.93111" lon="6.90798">
        <ele>959.05</ele>
        <time>2022-07-31T10:36:26Z</time>
      </trkpt>
      <trkpt lat="47.93108" lon="6.90794">
        <ele>959.05</ele>
        <time>2022-07-31T10:37:02Z</time>
      </trkpt>
      <trkpt lat="47.93108" lon="6.90794">
        <ele>959.05</ele>
        <time>2022-07-31T10:37:31Z</time>
      </trkpt>
      <trkpt lat="47.93108" lon="6.90797">
        <ele>959.05</ele>
        <time>2022-07-31T10:37:54Z</time>
      </trkpt>
      <trkpt lat="47.93109" lon="6.90798">
        <ele>959.53</ele>
        <time>2022-07-31T10:38:26Z</time>
      </trkpt>
      <trkpt lat="47.93109" lon="6.90798">
        <ele>959.53</ele>
        <time>2022-07-31T10:38:53Z</time>
      </trkpt>
      <trkpt lat="47.9311" lon="6.90798">
        <ele>959.53</ele>
        <time>2022-07-31T10:39:21Z</time>
      </trkpt>
      <trkpt lat="47.93111" lon="6.908">
        <ele>960.01</ele>
        <time>2022-07-31T10:39:41Z</time>
      </trkpt>
      <trkpt lat="47.93111" lon="6.90802">
        <ele>960.01</ele>
        <time>2022-07-31T10:39:42Z</time>
      </trkpt>
      <trkpt lat="47.93112" lon="6.90804">
        <ele>960.01</ele>
        <time>2022-07-31T10:39:43Z</time>
      </trkpt>
      <trkpt lat="47.93113" lon="6.90806">
        <ele>960.49</ele>
        <time>2022-07-31T10:39:44Z</time>
      </trkpt>
      <trkpt lat="47.93114" lon="6.90808">
        <ele>960.49</ele>
        <time>2022-07-31T10:39:45Z</time>
      </trkpt>
      <trkpt lat="47.93115" lon="6.90811">
        <ele>960.49</ele>
        <time>2022-07-31T10:39:46Z</time>
      </trkpt>
      <trkpt lat="47.93116" lon="6.90813">
        <ele>960.49</ele>
        <time>2022-07-31T10:39:47Z</time>
      </trkpt>
      <trkpt lat="47.93118" lon="6.90816">
        <ele>960.98</ele>
        <time>2022-07-31T10:39:48Z</time>
      </trkpt>
      <trkpt lat="47.9312" lon="6.90819">
        <ele>961.46</ele>
        <time>2022-07-31T10:39:49Z</time>
      </trkpt>
      <trkpt lat="47.93141" lon="6.90859">
        <ele>963.86</ele>
        <time>2022-07-31T10:40:00Z</time>
      </trkpt>
      <trkpt lat="47.93141" lon="6.90866">
        <ele>964.34</ele>
        <time>2022-07-31T10:40:02Z</time>
      </trkpt>
      <trkpt lat="47.93117" lon="6.90894">
        <ele>966.26</ele>
        <time>2022-07-31T10:40:14Z</time>
      </trkpt>
      <trkpt lat="47.93091" lon="6.90922">
        <ele>968.18</ele>
        <time>2022-07-31T10:40:27Z</time>
      </trkpt>
      <trkpt lat="47.93065" lon="6.90955">
        <ele>971.07</ele>
        <time>2022-07-31T10:40:41Z</time>
      </trkpt>
      <trkpt lat="47.93039" lon="6.90975">
        <ele>972.99</ele>
        <time>2022-07-31T10:40:54Z</time>
      </trkpt>
      <trkpt lat="47.9301" lon="6.90984">
        <ele>974.91</ele>
        <time>2022-07-31T10:41:08Z</time>
      </trkpt>
      <trkpt lat="47.92982" lon="6.90971">
        <ele>976.36</ele>
        <time>2022-07-31T10:41:20Z</time>
      </trkpt>
      <trkpt lat="47.92947" lon="6.90955">
        <ele>978.76</ele>
        <time>2022-07-31T10:41:34Z</time>
      </trkpt>
      <trkpt lat="47.92918" lon="6.90952">
        <ele>980.68</ele>
        <time>2022-07-31T10:41:45Z</time>
      </trkpt>
      <trkpt lat="47.92887" lon="6.90951">
        <ele>983.09</ele>
        <time>2022-07-31T10:41:56Z</time>
      </trkpt>
      <trkpt lat="47.92861" lon="6.90961">
        <ele>985.01</ele>
        <time>2022-07-31T10:42:09Z</time>
      </trkpt>
      <trkpt lat="47.92856" lon="6.90962">
        <ele>984.05</ele>
        <time>2022-07-31T10:42:12Z</time>
      </trkpt>
      <trkpt lat="47.92854" lon="6.90961">
        <ele>984.05</ele>
        <time>2022-07-31T10:42:13Z</time>
      </trkpt>
      <trkpt lat="47.92852" lon="6.90961">
        <ele>983.09</ele>
        <time>2022-07-31T10:42:14Z</time>
      </trkpt>
      <trkpt lat="47.92849" lon="6.90961">
        <ele>983.09</ele>
        <time>2022-07-31T10:42:15Z</time>
      </trkpt>
      <trkpt lat="47.92847" lon="6.90961">
        <ele>982.6</ele>
        <time>2022-07-31T10:42:16Z</time>
      </trkpt>
      <trkpt lat="47.92822" lon="6.90965">
        <ele>979.72</ele>
        <time>2022-07-31T10:42:24Z</time>
      </trkpt>
      <trkpt lat="47.92802" lon="6.90964">
        <ele>975.39</ele>
        <time>2022-07-31T10:42:29Z</time>
      </trkpt>
      <trkpt lat="47.92776" lon="6.90964">
        <ele>972.51</ele>
        <time>2022-07-31T10:42:35Z</time>
      </trkpt>
      <trkpt lat="47.92771" lon="6.90965">
        <ele>972.03</ele>
        <time>2022-07-31T10:42:36Z</time>
      </trkpt>
      <trkpt lat="47.9274" lon="6.90965">
        <ele>969.63</ele>
        <time>2022-07-31T10:42:40Z</time>
      </trkpt>
      <trkpt lat="47.92735" lon="6.90967">
        <ele>969.15</ele>
        <time>2022-07-31T10:42:41Z</time>
      </trkpt>
      <trkpt lat="47.9273" lon="6.90967">
        <ele>968.18</ele>
        <time>2022-07-31T10:42:42Z</time>
      </trkpt>
      <trkpt lat="47.92718" lon="6.90968">
        <ele>967.7</ele>
        <time>2022-07-31T10:42:44Z</time>
      </trkpt>
      <trkpt lat="47.92713" lon="6.90972">
        <ele>967.22</ele>
        <time>2022-07-31T10:42:45Z</time>
      </trkpt>
      <trkpt lat="47.92691" lon="6.90989">
        <ele>965.3</ele>
        <time>2022-07-31T10:42:49Z</time>
      </trkpt>
      <trkpt lat="47.92687" lon="6.90992">
        <ele>964.82</ele>
        <time>2022-07-31T10:42:50Z</time>
      </trkpt>
      <trkpt lat="47.92682" lon="6.90994">
        <ele>964.82</ele>
        <time>2022-07-31T10:42:51Z</time>
      </trkpt>
      <trkpt lat="47.9267" lon="6.91002">
        <ele>963.38</ele>
        <time>2022-07-31T10:42:54Z</time>
      </trkpt>
      <trkpt lat="47.92667" lon="6.91006">
        <ele>963.38</ele>
        <time>2022-07-31T10:42:55Z</time>
      </trkpt>
      <trkpt lat="47.92664" lon="6.91011">
        <ele>962.42</ele>
        <time>2022-07-31T10:42:56Z</time>
      </trkpt>
      <trkpt lat="47.92658" lon="6.91021">
        <ele>961.94</ele>
        <time>2022-07-31T10:42:58Z</time>
      </trkpt>
      <trkpt lat="47.92654" lon="6.91025">
        <ele>961.94</ele>
        <time>2022-07-31T10:42:59Z</time>
      </trkpt>
      <trkpt lat="47.92651" lon="6.91027">
        <ele>961.46</ele>
        <time>2022-07-31T10:43:00Z</time>
      </trkpt>
      <trkpt lat="47.92648" lon="6.91029">
        <ele>960.98</ele>
        <time>2022-07-31T10:43:01Z</time>
      </trkpt>
      <trkpt lat="47.92645" lon="6.9103">
        <ele>960.98</ele>
        <time>2022-07-31T10:43:02Z</time>
      </trkpt>
      <trkpt lat="47.92636" lon="6.91038">
        <ele>960.01</ele>
        <time>2022-07-31T10:43:06Z</time>
      </trkpt>
      <trkpt lat="47.92635" lon="6.91042">
        <ele>959.53</ele>
        <time>2022-07-31T10:43:07Z</time>
      </trkpt>
      <trkpt lat="47.92634" lon="6.91046">
        <ele>959.53</ele>
        <time>2022-07-31T10:43:08Z</time>
      </trkpt>
      <trkpt lat="47.92631" lon="6.91049">
        <ele>959.05</ele>
        <time>2022-07-31T10:43:09Z</time>
      </trkpt>
      <trkpt lat="47.92629" lon="6.91051">
        <ele>958.57</ele>
        <time>2022-07-31T10:43:10Z</time>
      </trkpt>
      <trkpt lat="47.92615" lon="6.91079">
        <ele>956.17</ele>
        <time>2022-07-31T10:43:21Z</time>
      </trkpt>
      <trkpt lat="47.92616" lon="6.91088">
        <ele>956.17</ele>
        <time>2022-07-31T10:43:44Z</time>
      </trkpt>
      <trkpt lat="47.92616" lon="6.91091">
        <ele>955.69</ele>
        <time>2022-07-31T10:43:53Z</time>
      </trkpt>
      <trkpt lat="47.92615" lon="6.91093">
        <ele>955.69</ele>
        <time>2022-07-31T10:43:54Z</time>
      </trkpt>
      <trkpt lat="47.92599" lon="6.91122">
        <ele>952.32</ele>
        <time>2022-07-31T10:44:03Z</time>
      </trkpt>
      <trkpt lat="47.92596" lon="6.9113">
        <ele>951.36</ele>
        <time>2022-07-31T10:44:05Z</time>
      </trkpt>
      <trkpt lat="47.9259" lon="6.91141">
        <ele>949.92</ele>
        <time>2022-07-31T10:44:08Z</time>
      </trkpt>
      <trkpt lat="47.92578" lon="6.91159">
        <ele>948.48</ele>
        <time>2022-07-31T10:44:13Z</time>
      </trkpt>
      <trkpt lat="47.92575" lon="6.91175">
        <ele>947.52</ele>
        <time>2022-07-31T10:44:17Z</time>
      </trkpt>
      <trkpt lat="47.92561" lon="6.91217">
        <ele>943.67</ele>
        <time>2022-07-31T10:44:24Z</time>
      </trkpt>
      <trkpt lat="47.92549" lon="6.91256">
        <ele>940.79</ele>
        <time>2022-07-31T10:44:32Z</time>
      </trkpt>
      <trkpt lat="47.92539" lon="6.91282">
        <ele>938.86</ele>
        <time>2022-07-31T10:44:37Z</time>
      </trkpt>
      <trkpt lat="47.92537" lon="6.91296">
        <ele>937.42</ele>
        <time>2022-07-31T10:44:39Z</time>
      </trkpt>
      <trkpt lat="47.92538" lon="6.91299">
        <ele>937.42</ele>
        <time>2022-07-31T10:44:40Z</time>
      </trkpt>
      <trkpt lat="47.9252" lon="6.91331">
        <ele>934.54</ele>
        <time>2022-07-31T10:44:49Z</time>
      </trkpt>
      <trkpt lat="47.92517" lon="6.91347">
        <ele>933.1</ele>
        <time>2022-07-31T10:44:52Z</time>
      </trkpt>
      <trkpt lat="47.92518" lon="6.91373">
        <ele>931.65</ele>
        <time>2022-07-31T10:44:57Z</time>
      </trkpt>
      <trkpt lat="47.92498" lon="6.91404">
        <ele>929.73</ele>
        <time>2022-07-31T10:45:05Z</time>
      </trkpt>
      <trkpt lat="47.92495" lon="6.91421">
        <ele>929.25</ele>
        <time>2022-07-31T10:45:11Z</time>
      </trkpt>
      <trkpt lat="47.92494" lon="6.91425">
        <ele>928.77</ele>
        <time>2022-07-31T10:45:12Z</time>
      </trkpt>
      <trkpt lat="47.92493" lon="6.9143">
        <ele>928.77</ele>
        <time>2022-07-31T10:45:13Z</time>
      </trkpt>
      <trkpt lat="47.92493" lon="6.91434">
        <ele>928.29</ele>
        <time>2022-07-31T10:45:14Z</time>
      </trkpt>
      <trkpt lat="47.92492" lon="6.91439">
        <ele>927.81</ele>
        <time>2022-07-31T10:45:15Z</time>
      </trkpt>
      <trkpt lat="47.92491" lon="6.91444">
        <ele>927.81</ele>
        <time>2022-07-31T10:45:16Z</time>
      </trkpt>
      <trkpt lat="47.92489" lon="6.91448">
        <ele>927.33</ele>
        <time>2022-07-31T10:45:17Z</time>
      </trkpt>
      <trkpt lat="47.92482" lon="6.91464">
        <ele>924.93</ele>
        <time>2022-07-31T10:45:23Z</time>
      </trkpt>
      <trkpt lat="47.92482" lon="6.91468">
        <ele>924.93</ele>
        <time>2022-07-31T10:45:24Z</time>
      </trkpt>
      <trkpt lat="47.92482" lon="6.91471">
        <ele>923.96</ele>
        <time>2022-07-31T10:45:25Z</time>
      </trkpt>
      <trkpt lat="47.92481" lon="6.91474">
        <ele>923.96</ele>
        <time>2022-07-31T10:45:26Z</time>
      </trkpt>
      <trkpt lat="47.9248" lon="6.91476">
        <ele>923.48</ele>
        <time>2022-07-31T10:45:27Z</time>
      </trkpt>
      <trkpt lat="47.92479" lon="6.91478">
        <ele>923</ele>
        <time>2022-07-31T10:45:28Z</time>
      </trkpt>
      <trkpt lat="47.92479" lon="6.91481">
        <ele>922.52</ele>
        <time>2022-07-31T10:45:29Z</time>
      </trkpt>
      <trkpt lat="47.92479" lon="6.91483">
        <ele>922.04</ele>
        <time>2022-07-31T10:45:30Z</time>
      </trkpt>
      <trkpt lat="47.92479" lon="6.91488">
        <ele>921.56</ele>
        <time>2022-07-31T10:45:31Z</time>
      </trkpt>
      <trkpt lat="47.92479" lon="6.91492">
        <ele>921.08</ele>
        <time>2022-07-31T10:45:32Z</time>
      </trkpt>
      <trkpt lat="47.92478" lon="6.91497">
        <ele>920.6</ele>
        <time>2022-07-31T10:45:33Z</time>
      </trkpt>
      <trkpt lat="47.92477" lon="6.91501">
        <ele>920.12</ele>
        <time>2022-07-31T10:45:34Z</time>
      </trkpt>
      <trkpt lat="47.92477" lon="6.91505">
        <ele>920.12</ele>
        <time>2022-07-31T10:45:35Z</time>
      </trkpt>
      <trkpt lat="47.92475" lon="6.91509">
        <ele>919.64</ele>
        <time>2022-07-31T10:45:36Z</time>
      </trkpt>
      <trkpt lat="47.92473" lon="6.91512">
        <ele>918.68</ele>
        <time>2022-07-31T10:45:37Z</time>
      </trkpt>
      <trkpt lat="47.92464" lon="6.91532">
        <ele>915.79</ele>
        <time>2022-07-31T10:45:44Z</time>
      </trkpt>
      <trkpt lat="47.92461" lon="6.91538">
        <ele>915.79</ele>
        <time>2022-07-31T10:46:12Z</time>
      </trkpt>
      <trkpt lat="47.92464" lon="6.91536">
        <ele>915.79</ele>
        <time>2022-07-31T10:46:27Z</time>
      </trkpt>
      <trkpt lat="47.92466" lon="6.91533">
        <ele>916.27</ele>
        <time>2022-07-31T10:46:32Z</time>
      </trkpt>
      <trkpt lat="47.92468" lon="6.91531">
        <ele>916.27</ele>
        <time>2022-07-31T10:46:33Z</time>
      </trkpt>
      <trkpt lat="47.92469" lon="6.91529">
        <ele>916.75</ele>
        <time>2022-07-31T10:46:34Z</time>
      </trkpt>
      <trkpt lat="47.92471" lon="6.91527">
        <ele>917.24</ele>
        <time>2022-07-31T10:46:35Z</time>
      </trkpt>
      <trkpt lat="47.92473" lon="6.91524">
        <ele>917.24</ele>
        <time>2022-07-31T10:46:36Z</time>
      </trkpt>
      <trkpt lat="47.92474" lon="6.91522">
        <ele>917.72</ele>
        <time>2022-07-31T10:46:37Z</time>
      </trkpt>
      <trkpt lat="47.92477" lon="6.91515">
        <ele>919.16</ele>
        <time>2022-07-31T10:46:40Z</time>
      </trkpt>
      <trkpt lat="47.92478" lon="6.91512">
        <ele>919.16</ele>
        <time>2022-07-31T10:46:41Z</time>
      </trkpt>
      <trkpt lat="47.92479" lon="6.91506">
        <ele>920.12</ele>
        <time>2022-07-31T10:46:54Z</time>
      </trkpt>
      <trkpt lat="47.92478" lon="6.91508">
        <ele>920.6</ele>
        <time>2022-07-31T10:47:08Z</time>
      </trkpt>
      <trkpt lat="47.9248" lon="6.9151">
        <ele>920.6</ele>
        <time>2022-07-31T10:47:23Z</time>
      </trkpt>
      <trkpt lat="47.92484" lon="6.91515">
        <ele>921.08</ele>
        <time>2022-07-31T10:47:56Z</time>
      </trkpt>
      <trkpt lat="47.92485" lon="6.91518">
        <ele>921.08</ele>
        <time>2022-07-31T10:48:32Z</time>
      </trkpt>
      <trkpt lat="47.92486" lon="6.91517">
        <ele>921.56</ele>
        <time>2022-07-31T10:49:09Z</time>
      </trkpt>
      <trkpt lat="47.92488" lon="6.91516">
        <ele>921.56</ele>
        <time>2022-07-31T10:49:46Z</time>
      </trkpt>
      <trkpt lat="47.92488" lon="6.91516">
        <ele>921.56</ele>
        <time>2022-07-31T10:50:23Z</time>
      </trkpt>
      <trkpt lat="47.92487" lon="6.91518">
        <ele>922.04</ele>
        <time>2022-07-31T10:51:00Z</time>
      </trkpt>
      <trkpt lat="47.92485" lon="6.91518">
        <ele>922.04</ele>
        <time>2022-07-31T10:51:37Z</time>
      </trkpt>
      <trkpt lat="47.92486" lon="6.9152">
        <ele>922.52</ele>
        <time>2022-07-31T10:52:14Z</time>
      </trkpt>
      <trkpt lat="47.92486" lon="6.91519">
        <ele>922.52</ele>
        <time>2022-07-31T10:52:52Z</time>
      </trkpt>
      <trkpt lat="47.92484" lon="6.91519">
        <ele>922.52</ele>
        <time>2022-07-31T10:53:25Z</time>
      </trkpt>
      <trkpt lat="47.92483" lon="6.91518">
        <ele>922.52</ele>
        <time>2022-07-31T10:54:05Z</time>
      </trkpt>
      <trkpt lat="47.92483" lon="6.91516">
        <ele>923</ele>
        <time>2022-07-31T10:54:41Z</time>
      </trkpt>
      <trkpt lat="47.92482" lon="6.91518">
        <ele>923</ele>
        <time>2022-07-31T10:55:24Z</time>
      </trkpt>
      <trkpt lat="47.92482" lon="6.91519">
        <ele>923.48</ele>
        <time>2022-07-31T10:55:56Z</time>
      </trkpt>
      <trkpt lat="47.9248" lon="6.91519">
        <ele>923.48</ele>
        <time>2022-07-31T10:56:27Z</time>
      </trkpt>
      <trkpt lat="47.9248" lon="6.9152">
        <ele>923.48</ele>
        <time>2022-07-31T10:56:52Z</time>
      </trkpt>
      <trkpt lat="47.92479" lon="6.91521">
        <ele>923.48</ele>
        <time>2022-07-31T10:57:24Z</time>
      </trkpt>
      <trkpt lat="47.92479" lon="6.91522">
        <ele>923.48</ele>
        <time>2022-07-31T10:57:55Z</time>
      </trkpt>
      <trkpt lat="47.92478" lon="6.9152">
        <ele>923.96</ele>
        <time>2022-07-31T10:58:24Z</time>
      </trkpt>
      <trkpt lat="47.92478" lon="6.9152">
        <ele>923.96</ele>
        <time>2022-07-31T10:58:52Z</time>
      </trkpt>
      <trkpt lat="47.92478" lon="6.91521">
        <ele>923.96</ele>
        <time>2022-07-31T10:59:17Z</time>
      </trkpt>
      <trkpt lat="47.92478" lon="6.91519">
        <ele>923.96</ele>
        <time>2022-07-31T10:59:51Z</time>
      </trkpt>
      <trkpt lat="47.92476" lon="6.91518">
        <ele>924.45</ele>
        <time>2022-07-31T11:00:30Z</time>
      </trkpt>
      <trkpt lat="47.92476" lon="6.91521">
        <ele>924.45</ele>
        <time>2022-07-31T11:01:10Z</time>
      </trkpt>
      <trkpt lat="47.92475" lon="6.9152">
        <ele>924.45</ele>
        <time>2022-07-31T11:01:40Z</time>
      </trkpt>
      <trkpt lat="47.92475" lon="6.91521">
        <ele>924.45</ele>
        <time>2022-07-31T11:02:10Z</time>
      </trkpt>
      <trkpt lat="47.92475" lon="6.91522">
        <ele>924.93</ele>
        <time>2022-07-31T11:02:41Z</time>
      </trkpt>
      <trkpt lat="47.92476" lon="6.91523">
        <ele>924.93</ele>
        <time>2022-07-31T11:03:10Z</time>
      </trkpt>
      <trkpt lat="47.92474" lon="6.91523">
        <ele>924.93</ele>
        <time>2022-07-31T11:03:39Z</time>
      </trkpt>
      <trkpt lat="47.92475" lon="6.91523">
        <ele>924.93</ele>
        <time>2022-07-31T11:04:12Z</time>
      </trkpt>
      <trkpt lat="47.92475" lon="6.91523">
        <ele>925.41</ele>
        <time>2022-07-31T11:04:46Z</time>
      </trkpt>
      <trkpt lat="47.92475" lon="6.91524">
        <ele>925.41</ele>
        <time>2022-07-31T11:05:20Z</time>
      </trkpt>
      <trkpt lat="47.92476" lon="6.91525">
        <ele>925.89</ele>
        <time>2022-07-31T11:05:53Z</time>
      </trkpt>
      <trkpt lat="47.92475" lon="6.91525">
        <ele>925.89</ele>
        <time>2022-07-31T11:06:33Z</time>
      </trkpt>
      <trkpt lat="47.92474" lon="6.91525">
        <ele>926.37</ele>
        <time>2022-07-31T11:07:08Z</time>
      </trkpt>
      <trkpt lat="47.92474" lon="6.91524">
        <ele>926.37</ele>
        <time>2022-07-31T11:07:41Z</time>
      </trkpt>
      <trkpt lat="47.92474" lon="6.91524">
        <ele>926.85</ele>
        <time>2022-07-31T11:08:10Z</time>
      </trkpt>
      <trkpt lat="47.92475" lon="6.91523">
        <ele>926.85</ele>
        <time>2022-07-31T11:08:41Z</time>
      </trkpt>
      <trkpt lat="47.92474" lon="6.91524">
        <ele>926.85</ele>
        <time>2022-07-31T11:09:09Z</time>
      </trkpt>
      <trkpt lat="47.92474" lon="6.91522">
        <ele>926.85</ele>
        <time>2022-07-31T11:09:46Z</time>
      </trkpt>
      <trkpt lat="47.92474" lon="6.91524">
        <ele>926.85</ele>
        <time>2022-07-31T11:10:24Z</time>
      </trkpt>
      <trkpt lat="47.92475" lon="6.91525">
        <ele>927.33</ele>
        <time>2022-07-31T11:10:55Z</time>
      </trkpt>
      <trkpt lat="47.92473" lon="6.91531">
        <ele>927.33</ele>
        <time>2022-07-31T11:11:33Z</time>
      </trkpt>
      <trkpt lat="47.92473" lon="6.91529">
        <ele>927.81</ele>
        <time>2022-07-31T11:12:13Z</time>
      </trkpt>
      <trkpt lat="47.92473" lon="6.91529">
        <ele>927.81</ele>
        <time>2022-07-31T11:12:48Z</time>
      </trkpt>
      <trkpt lat="47.92472" lon="6.91527">
        <ele>927.81</ele>
        <time>2022-07-31T11:13:25Z</time>
      </trkpt>
      <trkpt lat="47.92474" lon="6.91529">
        <ele>928.29</ele>
        <time>2022-07-31T11:13:53Z</time>
      </trkpt>
      <trkpt lat="47.92474" lon="6.9153">
        <ele>928.77</ele>
        <time>2022-07-31T11:14:22Z</time>
      </trkpt>
      <trkpt lat="47.92474" lon="6.9153">
        <ele>928.77</ele>
        <time>2022-07-31T11:14:59Z</time>
      </trkpt>
      <trkpt lat="47.92474" lon="6.91529">
        <ele>929.73</ele>
        <time>2022-07-31T11:15:29Z</time>
      </trkpt>
      <trkpt lat="47.92474" lon="6.91529">
        <ele>929.25</ele>
        <time>2022-07-31T11:15:50Z</time>
      </trkpt>
      <trkpt lat="47.92471" lon="6.91527">
        <ele>928.77</ele>
        <time>2022-07-31T11:16:05Z</time>
      </trkpt>
      <trkpt lat="47.92468" lon="6.91526">
        <ele>927.33</ele>
        <time>2022-07-31T11:16:12Z</time>
      </trkpt>
      <trkpt lat="47.92467" lon="6.91526">
        <ele>926.85</ele>
        <time>2022-07-31T11:16:13Z</time>
      </trkpt>
      <trkpt lat="47.92466" lon="6.91529">
        <ele>926.37</ele>
        <time>2022-07-31T11:16:14Z</time>
      </trkpt>
      <trkpt lat="47.92462" lon="6.91536">
        <ele>925.41</ele>
        <time>2022-07-31T11:16:16Z</time>
      </trkpt>
      <trkpt lat="47.92461" lon="6.91538">
        <ele>925.41</ele>
        <time>2022-07-31T11:16:17Z</time>
      </trkpt>
      <trkpt lat="47.9246" lon="6.9154">
        <ele>924.93</ele>
        <time>2022-07-31T11:16:18Z</time>
      </trkpt>
      <trkpt lat="47.92459" lon="6.91543">
        <ele>924.45</ele>
        <time>2022-07-31T11:16:19Z</time>
      </trkpt>
      <trkpt lat="47.92458" lon="6.91546">
        <ele>923.96</ele>
        <time>2022-07-31T11:16:20Z</time>
      </trkpt>
      <trkpt lat="47.92458" lon="6.91549">
        <ele>923.96</ele>
        <time>2022-07-31T11:16:21Z</time>
      </trkpt>
      <trkpt lat="47.92458" lon="6.91553">
        <ele>923.48</ele>
        <time>2022-07-31T11:16:22Z</time>
      </trkpt>
      <trkpt lat="47.92459" lon="6.91555">
        <ele>923</ele>
        <time>2022-07-31T11:16:23Z</time>
      </trkpt>
      <trkpt lat="47.92459" lon="6.91557">
        <ele>922.52</ele>
        <time>2022-07-31T11:16:24Z</time>
      </trkpt>
      <trkpt lat="47.92458" lon="6.91559">
        <ele>922.04</ele>
        <time>2022-07-31T11:16:25Z</time>
      </trkpt>
      <trkpt lat="47.92457" lon="6.91561">
        <ele>921.56</ele>
        <time>2022-07-31T11:16:26Z</time>
      </trkpt>
      <trkpt lat="47.92455" lon="6.91566">
        <ele>920.6</ele>
        <time>2022-07-31T11:16:28Z</time>
      </trkpt>
      <trkpt lat="47.92445" lon="6.91581">
        <ele>917.72</ele>
        <time>2022-07-31T11:16:35Z</time>
      </trkpt>
      <trkpt lat="47.92431" lon="6.91607">
        <ele>914.35</ele>
        <time>2022-07-31T11:16:42Z</time>
      </trkpt>
      <trkpt lat="47.92419" lon="6.91617">
        <ele>910.99</ele>
        <time>2022-07-31T11:16:49Z</time>
      </trkpt>
      <trkpt lat="47.92407" lon="6.91617">
        <ele>908.1</ele>
        <time>2022-07-31T11:16:54Z</time>
      </trkpt>
      <trkpt lat="47.92405" lon="6.91617">
        <ele>907.62</ele>
        <time>2022-07-31T11:16:55Z</time>
      </trkpt>
      <trkpt lat="47.924" lon="6.91617">
        <ele>906.66</ele>
        <time>2022-07-31T11:16:59Z</time>
      </trkpt>
      <trkpt lat="47.92397" lon="6.91618">
        <ele>906.18</ele>
        <time>2022-07-31T11:17:01Z</time>
      </trkpt>
      <trkpt lat="47.92396" lon="6.91618">
        <ele>905.7</ele>
        <time>2022-07-31T11:17:02Z</time>
      </trkpt>
      <trkpt lat="47.92394" lon="6.91619">
        <ele>905.22</ele>
        <time>2022-07-31T11:17:03Z</time>
      </trkpt>
      <trkpt lat="47.92392" lon="6.91619">
        <ele>904.74</ele>
        <time>2022-07-31T11:17:04Z</time>
      </trkpt>
      <trkpt lat="47.9239" lon="6.91619">
        <ele>904.74</ele>
        <time>2022-07-31T11:17:05Z</time>
      </trkpt>
      <trkpt lat="47.92387" lon="6.91621">
        <ele>904.74</ele>
        <time>2022-07-31T11:17:22Z</time>
      </trkpt>
      <trkpt lat="47.92385" lon="6.91622">
        <ele>904.74</ele>
        <time>2022-07-31T11:17:44Z</time>
      </trkpt>
      <trkpt lat="47.92384" lon="6.91621">
        <ele>904.74</ele>
        <time>2022-07-31T11:17:45Z</time>
      </trkpt>
      <trkpt lat="47.92379" lon="6.9162">
        <ele>904.26</ele>
        <time>2022-07-31T11:17:47Z</time>
      </trkpt>
      <trkpt lat="47.92377" lon="6.9162">
        <ele>903.3</ele>
        <time>2022-07-31T11:17:48Z</time>
      </trkpt>
      <trkpt lat="47.92374" lon="6.91619">
        <ele>903.3</ele>
        <time>2022-07-31T11:17:49Z</time>
      </trkpt>
      <trkpt lat="47.9237" lon="6.91618">
        <ele>902.82</ele>
        <time>2022-07-31T11:17:50Z</time>
      </trkpt>
      <trkpt lat="47.92366" lon="6.91618">
        <ele>902.33</ele>
        <time>2022-07-31T11:17:51Z</time>
      </trkpt>
      <trkpt lat="47.92346" lon="6.91619">
        <ele>901.37</ele>
        <time>2022-07-31T11:18:00Z</time>
      </trkpt>
      <trkpt lat="47.92342" lon="6.91619">
        <ele>901.85</ele>
        <time>2022-07-31T11:18:03Z</time>
      </trkpt>
      <trkpt lat="47.9234" lon="6.9162">
        <ele>901.85</ele>
        <time>2022-07-31T11:18:04Z</time>
      </trkpt>
      <trkpt lat="47.92338" lon="6.91621">
        <ele>901.85</ele>
        <time>2022-07-31T11:18:05Z</time>
      </trkpt>
      <trkpt lat="47.92337" lon="6.91622">
        <ele>901.85</ele>
        <time>2022-07-31T11:18:06Z</time>
      </trkpt>
      <trkpt lat="47.92335" lon="6.91623">
        <ele>902.33</ele>
        <time>2022-07-31T11:18:07Z</time>
      </trkpt>
      <trkpt lat="47.92301" lon="6.91654">
        <ele>904.74</ele>
        <time>2022-07-31T11:18:24Z</time>
      </trkpt>
      <trkpt lat="47.92288" lon="6.91671">
        <ele>905.22</ele>
        <time>2022-07-31T11:18:36Z</time>
      </trkpt>
      <trkpt lat="47.92272" lon="6.91702">
        <ele>906.66</ele>
        <time>2022-07-31T11:18:48Z</time>
      </trkpt>
      <trkpt lat="47.92262" lon="6.91731">
        <ele>907.14</ele>
        <time>2022-07-31T11:18:59Z</time>
      </trkpt>
      <trkpt lat="47.92261" lon="6.91733">
        <ele>907.14</ele>
        <time>2022-07-31T11:19:00Z</time>
      </trkpt>
      <trkpt lat="47.9226" lon="6.91735">
        <ele>907.14</ele>
        <time>2022-07-31T11:19:01Z</time>
      </trkpt>
      <trkpt lat="47.92259" lon="6.91743">
        <ele>906.66</ele>
        <time>2022-07-31T11:19:17Z</time>
      </trkpt>
      <trkpt lat="47.92258" lon="6.91742">
        <ele>906.66</ele>
        <time>2022-07-31T11:19:18Z</time>
      </trkpt>
      <trkpt lat="47.92255" lon="6.91739">
        <ele>907.14</ele>
        <time>2022-07-31T11:19:28Z</time>
      </trkpt>
      <trkpt lat="47.92253" lon="6.91738">
        <ele>906.66</ele>
        <time>2022-07-31T11:19:29Z</time>
      </trkpt>
      <trkpt lat="47.92252" lon="6.91738">
        <ele>906.66</ele>
        <time>2022-07-31T11:19:30Z</time>
      </trkpt>
      <trkpt lat="47.9225" lon="6.91738">
        <ele>906.66</ele>
        <time>2022-07-31T11:19:31Z</time>
      </trkpt>
      <trkpt lat="47.92248" lon="6.91737">
        <ele>906.66</ele>
        <time>2022-07-31T11:19:32Z</time>
      </trkpt>
      <trkpt lat="47.92246" lon="6.91737">
        <ele>906.66</ele>
        <time>2022-07-31T11:19:33Z</time>
      </trkpt>
      <trkpt lat="47.92244" lon="6.91736">
        <ele>906.66</ele>
        <time>2022-07-31T11:19:34Z</time>
      </trkpt>
      <trkpt lat="47.92223" lon="6.91746">
        <ele>907.62</ele>
        <time>2022-07-31T11:19:45Z</time>
      </trkpt>
      <trkpt lat="47.92213" lon="6.9177">
        <ele>909.06</ele>
        <time>2022-07-31T11:19:55Z</time>
      </trkpt>
      <trkpt lat="47.92208" lon="6.91779">
        <ele>909.54</ele>
        <time>2022-07-31T11:19:59Z</time>
      </trkpt>
      <trkpt lat="47.92203" lon="6.91786">
        <ele>910.51</ele>
        <time>2022-07-31T11:20:02Z</time>
      </trkpt>
      <trkpt lat="47.922" lon="6.91787">
        <ele>910.51</ele>
        <time>2022-07-31T11:20:03Z</time>
      </trkpt>
      <trkpt lat="47.92198" lon="6.91789">
        <ele>910.51</ele>
        <time>2022-07-31T11:20:04Z</time>
      </trkpt>
      <trkpt lat="47.92172" lon="6.91787">
        <ele>911.47</ele>
        <time>2022-07-31T11:20:15Z</time>
      </trkpt>
      <trkpt lat="47.92144" lon="6.91801">
        <ele>912.91</ele>
        <time>2022-07-31T11:20:27Z</time>
      </trkpt>
      <trkpt lat="47.9211" lon="6.91799">
        <ele>913.39</ele>
        <time>2022-07-31T11:20:39Z</time>
      </trkpt>
      <trkpt lat="47.92082" lon="6.91812">
        <ele>913.87</ele>
        <time>2022-07-31T11:20:52Z</time>
      </trkpt>
      <trkpt lat="47.92077" lon="6.91819">
        <ele>913.87</ele>
        <time>2022-07-31T11:21:03Z</time>
      </trkpt>
      <trkpt lat="47.92074" lon="6.91822">
        <ele>913.87</ele>
        <time>2022-07-31T11:21:08Z</time>
      </trkpt>
      <trkpt lat="47.92073" lon="6.91824">
        <ele>913.87</ele>
        <time>2022-07-31T11:21:09Z</time>
      </trkpt>
      <trkpt lat="47.92071" lon="6.91826">
        <ele>914.35</ele>
        <time>2022-07-31T11:21:10Z</time>
      </trkpt>
      <trkpt lat="47.9207" lon="6.91828">
        <ele>914.35</ele>
        <time>2022-07-31T11:21:11Z</time>
      </trkpt>
      <trkpt lat="47.92068" lon="6.9183">
        <ele>914.35</ele>
        <time>2022-07-31T11:21:12Z</time>
      </trkpt>
      <trkpt lat="47.92066" lon="6.91832">
        <ele>914.35</ele>
        <time>2022-07-31T11:21:13Z</time>
      </trkpt>
      <trkpt lat="47.92065" lon="6.91833">
        <ele>914.35</ele>
        <time>2022-07-31T11:21:14Z</time>
      </trkpt>
      <trkpt lat="47.92063" lon="6.91834">
        <ele>914.35</ele>
        <time>2022-07-31T11:21:15Z</time>
      </trkpt>
      <trkpt lat="47.92061" lon="6.91836">
        <ele>914.35</ele>
        <time>2022-07-31T11:21:16Z</time>
      </trkpt>
      <trkpt lat="47.92059" lon="6.91837">
        <ele>914.35</ele>
        <time>2022-07-31T11:21:17Z</time>
      </trkpt>
      <trkpt lat="47.92033" lon="6.91858">
        <ele>914.35</ele>
        <time>2022-07-31T11:21:29Z</time>
      </trkpt>
      <trkpt lat="47.92023" lon="6.91869">
        <ele>914.83</ele>
        <time>2022-07-31T11:21:35Z</time>
      </trkpt>
      <trkpt lat="47.92022" lon="6.91871">
        <ele>914.83</ele>
        <time>2022-07-31T11:21:36Z</time>
      </trkpt>
      <trkpt lat="47.9202" lon="6.91872">
        <ele>914.83</ele>
        <time>2022-07-31T11:21:37Z</time>
      </trkpt>
      <trkpt lat="47.92018" lon="6.91873">
        <ele>915.31</ele>
        <time>2022-07-31T11:21:38Z</time>
      </trkpt>
      <trkpt lat="47.92016" lon="6.91874">
        <ele>915.31</ele>
        <time>2022-07-31T11:21:39Z</time>
      </trkpt>
      <trkpt lat="47.92014" lon="6.91875">
        <ele>915.31</ele>
        <time>2022-07-31T11:21:40Z</time>
      </trkpt>
      <trkpt lat="47.92011" lon="6.91878">
        <ele>915.31</ele>
        <time>2022-07-31T11:21:41Z</time>
      </trkpt>
      <trkpt lat="47.92009" lon="6.91881">
        <ele>915.31</ele>
        <time>2022-07-31T11:21:42Z</time>
      </trkpt>
      <trkpt lat="47.92007" lon="6.91884">
        <ele>915.31</ele>
        <time>2022-07-31T11:21:43Z</time>
      </trkpt>
      <trkpt lat="47.92005" lon="6.91887">
        <ele>915.31</ele>
        <time>2022-07-31T11:21:44Z</time>
      </trkpt>
      <trkpt lat="47.92003" lon="6.91891">
        <ele>915.79</ele>
        <time>2022-07-31T11:21:45Z</time>
      </trkpt>
      <trkpt lat="47.92002" lon="6.91894">
        <ele>915.79</ele>
        <time>2022-07-31T11:21:46Z</time>
      </trkpt>
      <trkpt lat="47.92001" lon="6.91897">
        <ele>915.79</ele>
        <time>2022-07-31T11:21:47Z</time>
      </trkpt>
      <trkpt lat="47.92" lon="6.919">
        <ele>915.31</ele>
        <time>2022-07-31T11:21:48Z</time>
      </trkpt>
      <trkpt lat="47.91999" lon="6.91904">
        <ele>915.31</ele>
        <time>2022-07-31T11:21:49Z</time>
      </trkpt>
      <trkpt lat="47.91999" lon="6.91908">
        <ele>915.31</ele>
        <time>2022-07-31T11:21:50Z</time>
      </trkpt>
      <trkpt lat="47.92" lon="6.91912">
        <ele>915.31</ele>
        <time>2022-07-31T11:21:51Z</time>
      </trkpt>
      <trkpt lat="47.91999" lon="6.91976">
        <ele>914.83</ele>
        <time>2022-07-31T11:22:02Z</time>
      </trkpt>
      <trkpt lat="47.91992" lon="6.92">
        <ele>914.83</ele>
        <time>2022-07-31T11:22:08Z</time>
      </trkpt>
      <trkpt lat="47.9199" lon="6.92002">
        <ele>914.83</ele>
        <time>2022-07-31T11:22:09Z</time>
      </trkpt>
      <trkpt lat="47.91987" lon="6.92005">
        <ele>914.83</ele>
        <time>2022-07-31T11:22:10Z</time>
      </trkpt>
      <trkpt lat="47.91984" lon="6.92006">
        <ele>914.83</ele>
        <time>2022-07-31T11:22:11Z</time>
      </trkpt>
      <trkpt lat="47.91981" lon="6.92007">
        <ele>914.83</ele>
        <time>2022-07-31T11:22:12Z</time>
      </trkpt>
      <trkpt lat="47.91977" lon="6.92007">
        <ele>914.83</ele>
        <time>2022-07-31T11:22:13Z</time>
      </trkpt>
      <trkpt lat="47.91973" lon="6.92007">
        <ele>914.83</ele>
        <time>2022-07-31T11:22:14Z</time>
      </trkpt>
      <trkpt lat="47.91969" lon="6.92008">
        <ele>914.83</ele>
        <time>2022-07-31T11:22:15Z</time>
      </trkpt>
      <trkpt lat="47.91967" lon="6.92008">
        <ele>914.83</ele>
        <time>2022-07-31T11:22:16Z</time>
      </trkpt>
      <trkpt lat="47.91964" lon="6.92009">
        <ele>914.83</ele>
        <time>2022-07-31T11:22:17Z</time>
      </trkpt>
      <trkpt lat="47.91962" lon="6.9201">
        <ele>914.83</ele>
        <time>2022-07-31T11:22:18Z</time>
      </trkpt>
      <trkpt lat="47.91953" lon="6.92043">
        <ele>915.31</ele>
        <time>2022-07-31T11:22:26Z</time>
      </trkpt>
      <trkpt lat="47.91954" lon="6.92051">
        <ele>915.79</ele>
        <time>2022-07-31T11:22:28Z</time>
      </trkpt>
      <trkpt lat="47.91954" lon="6.92055">
        <ele>915.79</ele>
        <time>2022-07-31T11:22:29Z</time>
      </trkpt>
      <trkpt lat="47.91955" lon="6.92058">
        <ele>915.79</ele>
        <time>2022-07-31T11:22:30Z</time>
      </trkpt>
      <trkpt lat="47.91957" lon="6.92061">
        <ele>916.27</ele>
        <time>2022-07-31T11:22:31Z</time>
      </trkpt>
      <trkpt lat="47.91958" lon="6.92064">
        <ele>916.27</ele>
        <time>2022-07-31T11:22:32Z</time>
      </trkpt>
      <trkpt lat="47.91969" lon="6.92111">
        <ele>917.72</ele>
        <time>2022-07-31T11:22:43Z</time>
      </trkpt>
      <trkpt lat="47.91977" lon="6.92162">
        <ele>919.64</ele>
        <time>2022-07-31T11:22:53Z</time>
      </trkpt>
      <trkpt lat="47.91984" lon="6.92219">
        <ele>921.56</ele>
        <time>2022-07-31T11:23:05Z</time>
      </trkpt>
      <trkpt lat="47.91982" lon="6.92274">
        <ele>922.52</ele>
        <time>2022-07-31T11:23:16Z</time>
      </trkpt>
      <trkpt lat="47.9197" lon="6.92308">
        <ele>923.96</ele>
        <time>2022-07-31T11:23:25Z</time>
      </trkpt>
      <trkpt lat="47.9196" lon="6.92343">
        <ele>925.41</ele>
        <time>2022-07-31T11:23:34Z</time>
      </trkpt>
      <trkpt lat="47.91958" lon="6.9235">
        <ele>925.41</ele>
        <time>2022-07-31T11:23:36Z</time>
      </trkpt>
      <trkpt lat="47.91957" lon="6.92351">
        <ele>925.41</ele>
        <time>2022-07-31T11:23:37Z</time>
      </trkpt>
      <trkpt lat="47.91955" lon="6.92354">
        <ele>925.89</ele>
        <time>2022-07-31T11:23:38Z</time>
      </trkpt>
      <trkpt lat="47.91954" lon="6.92356">
        <ele>925.89</ele>
        <time>2022-07-31T11:23:39Z</time>
      </trkpt>
      <trkpt lat="47.91954" lon="6.92359">
        <ele>925.89</ele>
        <time>2022-07-31T11:23:40Z</time>
      </trkpt>
      <trkpt lat="47.91953" lon="6.92362">
        <ele>925.89</ele>
        <time>2022-07-31T11:23:41Z</time>
      </trkpt>
      <trkpt lat="47.91955" lon="6.92382">
        <ele>926.37</ele>
        <time>2022-07-31T11:23:47Z</time>
      </trkpt>
      <trkpt lat="47.91955" lon="6.92384">
        <ele>926.85</ele>
        <time>2022-07-31T11:23:48Z</time>
      </trkpt>
      <trkpt lat="47.91956" lon="6.9239">
        <ele>927.33</ele>
        <time>2022-07-31T11:23:51Z</time>
      </trkpt>
      <trkpt lat="47.91955" lon="6.92398">
        <ele>927.33</ele>
        <time>2022-07-31T11:23:53Z</time>
      </trkpt>
      <trkpt lat="47.91956" lon="6.92404">
        <ele>927.81</ele>
        <time>2022-07-31T11:23:54Z</time>
      </trkpt>
      <trkpt lat="47.91956" lon="6.9241">
        <ele>927.81</ele>
        <time>2022-07-31T11:23:55Z</time>
      </trkpt>
      <trkpt lat="47.91956" lon="6.92416">
        <ele>927.81</ele>
        <time>2022-07-31T11:23:56Z</time>
      </trkpt>
      <trkpt lat="47.91955" lon="6.92421">
        <ele>928.29</ele>
        <time>2022-07-31T11:23:57Z</time>
      </trkpt>
      <trkpt lat="47.91949" lon="6.92477">
        <ele>929.25</ele>
        <time>2022-07-31T11:24:07Z</time>
      </trkpt>
      <trkpt lat="47.91951" lon="6.92525">
        <ele>930.69</ele>
        <time>2022-07-31T11:24:17Z</time>
      </trkpt>
      <trkpt lat="47.9195" lon="6.92554">
        <ele>931.65</ele>
        <time>2022-07-31T11:24:26Z</time>
      </trkpt>
      <trkpt lat="47.91949" lon="6.92558">
        <ele>932.14</ele>
        <time>2022-07-31T11:24:27Z</time>
      </trkpt>
      <trkpt lat="47.91949" lon="6.92561">
        <ele>932.14</ele>
        <time>2022-07-31T11:24:28Z</time>
      </trkpt>
      <trkpt lat="47.91949" lon="6.92564">
        <ele>932.14</ele>
        <time>2022-07-31T11:24:29Z</time>
      </trkpt>
      <trkpt lat="47.9195" lon="6.92568">
        <ele>932.62</ele>
        <time>2022-07-31T11:24:30Z</time>
      </trkpt>
      <trkpt lat="47.91951" lon="6.92572">
        <ele>932.62</ele>
        <time>2022-07-31T11:24:31Z</time>
      </trkpt>
      <trkpt lat="47.91952" lon="6.92576">
        <ele>932.62</ele>
        <time>2022-07-31T11:24:32Z</time>
      </trkpt>
      <trkpt lat="47.91953" lon="6.9258">
        <ele>932.62</ele>
        <time>2022-07-31T11:24:33Z</time>
      </trkpt>
      <trkpt lat="47.91953" lon="6.92583">
        <ele>933.58</ele>
        <time>2022-07-31T11:24:34Z</time>
      </trkpt>
      <trkpt lat="47.91958" lon="6.92609">
        <ele>933.58</ele>
        <time>2022-07-31T11:24:40Z</time>
      </trkpt>
      <trkpt lat="47.91963" lon="6.9265">
        <ele>934.54</ele>
        <time>2022-07-31T11:24:51Z</time>
      </trkpt>
      <trkpt lat="47.91965" lon="6.9266">
        <ele>935.02</ele>
        <time>2022-07-31T11:24:53Z</time>
      </trkpt>
      <trkpt lat="47.91966" lon="6.92662">
        <ele>934.54</ele>
        <time>2022-07-31T11:24:54Z</time>
      </trkpt>
      <trkpt lat="47.91968" lon="6.92699">
        <ele>934.06</ele>
        <time>2022-07-31T11:25:07Z</time>
      </trkpt>
      <trkpt lat="47.91967" lon="6.9274">
        <ele>932.62</ele>
        <time>2022-07-31T11:25:20Z</time>
      </trkpt>
      <trkpt lat="47.91967" lon="6.92754">
        <ele>932.14</ele>
        <time>2022-07-31T11:25:24Z</time>
      </trkpt>
      <trkpt lat="47.91967" lon="6.92759">
        <ele>931.65</ele>
        <time>2022-07-31T11:25:25Z</time>
      </trkpt>
      <trkpt lat="47.91967" lon="6.92766">
        <ele>931.65</ele>
        <time>2022-07-31T11:25:26Z</time>
      </trkpt>
      <trkpt lat="47.91974" lon="6.92835">
        <ele>929.73</ele>
        <time>2022-07-31T11:25:35Z</time>
      </trkpt>
      <trkpt lat="47.91975" lon="6.92846">
        <ele>929.25</ele>
        <time>2022-07-31T11:25:36Z</time>
      </trkpt>
      <trkpt lat="47.91976" lon="6.92855">
        <ele>928.77</ele>
        <time>2022-07-31T11:25:37Z</time>
      </trkpt>
      <trkpt lat="47.91978" lon="6.92874">
        <ele>927.81</ele>
        <time>2022-07-31T11:25:39Z</time>
      </trkpt>
      <trkpt lat="47.91981" lon="6.92884">
        <ele>927.81</ele>
        <time>2022-07-31T11:25:40Z</time>
      </trkpt>
      <trkpt lat="47.91982" lon="6.92893">
        <ele>927.81</ele>
        <time>2022-07-31T11:25:41Z</time>
      </trkpt>
      <trkpt lat="47.91986" lon="6.92918">
        <ele>927.33</ele>
        <time>2022-07-31T11:25:44Z</time>
      </trkpt>
      <trkpt lat="47.91986" lon="6.92937">
        <ele>927.33</ele>
        <time>2022-07-31T11:25:46Z</time>
      </trkpt>
      <trkpt lat="47.91986" lon="6.92945">
        <ele>926.85</ele>
        <time>2022-07-31T11:25:47Z</time>
      </trkpt>
      <trkpt lat="47.91984" lon="6.92952">
        <ele>926.85</ele>
        <time>2022-07-31T11:25:48Z</time>
      </trkpt>
      <trkpt lat="47.91982" lon="6.92959">
        <ele>926.85</ele>
        <time>2022-07-31T11:25:49Z</time>
      </trkpt>
      <trkpt lat="47.91978" lon="6.92964">
        <ele>926.37</ele>
        <time>2022-07-31T11:25:50Z</time>
      </trkpt>
      <trkpt lat="47.91974" lon="6.9297">
        <ele>925.89</ele>
        <time>2022-07-31T11:25:51Z</time>
      </trkpt>
      <trkpt lat="47.9197" lon="6.92976">
        <ele>925.89</ele>
        <time>2022-07-31T11:25:52Z</time>
      </trkpt>
      <trkpt lat="47.91967" lon="6.92982">
        <ele>925.41</ele>
        <time>2022-07-31T11:25:53Z</time>
      </trkpt>
      <trkpt lat="47.91963" lon="6.92986">
        <ele>925.41</ele>
        <time>2022-07-31T11:25:54Z</time>
      </trkpt>
      <trkpt lat="47.91959" lon="6.92989">
        <ele>924.93</ele>
        <time>2022-07-31T11:25:55Z</time>
      </trkpt>
      <trkpt lat="47.91956" lon="6.92992">
        <ele>924.93</ele>
        <time>2022-07-31T11:25:56Z</time>
      </trkpt>
      <trkpt lat="47.91952" lon="6.92995">
        <ele>924.93</ele>
        <time>2022-07-31T11:25:57Z</time>
      </trkpt>
      <trkpt lat="47.91948" lon="6.92996">
        <ele>924.45</ele>
        <time>2022-07-31T11:25:58Z</time>
      </trkpt>
      <trkpt lat="47.91943" lon="6.92998">
        <ele>923.96</ele>
        <time>2022-07-31T11:25:59Z</time>
      </trkpt>
      <trkpt lat="47.91938" lon="6.92999">
        <ele>923.48</ele>
        <time>2022-07-31T11:26:00Z</time>
      </trkpt>
      <trkpt lat="47.91934" lon="6.93001">
        <ele>923.48</ele>
        <time>2022-07-31T11:26:01Z</time>
      </trkpt>
      <trkpt lat="47.9193" lon="6.93005">
        <ele>923</ele>
        <time>2022-07-31T11:26:02Z</time>
      </trkpt>
      <trkpt lat="47.91921" lon="6.93012">
        <ele>922.04</ele>
        <time>2022-07-31T11:26:04Z</time>
      </trkpt>
      <trkpt lat="47.91914" lon="6.93023">
        <ele>921.08</ele>
        <time>2022-07-31T11:26:06Z</time>
      </trkpt>
      <trkpt lat="47.91911" lon="6.93029">
        <ele>920.6</ele>
        <time>2022-07-31T11:26:07Z</time>
      </trkpt>
      <trkpt lat="47.91883" lon="6.93064">
        <ele>918.2</ele>
        <time>2022-07-31T11:26:17Z</time>
      </trkpt>
      <trkpt lat="47.91836" lon="6.93097">
        <ele>916.75</ele>
        <time>2022-07-31T11:26:29Z</time>
      </trkpt>
      <trkpt lat="47.91806" lon="6.93122">
        <ele>913.39</ele>
        <time>2022-07-31T11:26:37Z</time>
      </trkpt>
      <trkpt lat="47.91799" lon="6.93134">
        <ele>911.95</ele>
        <time>2022-07-31T11:26:39Z</time>
      </trkpt>
      <trkpt lat="47.9179" lon="6.93162">
        <ele>910.51</ele>
        <time>2022-07-31T11:26:43Z</time>
      </trkpt>
      <trkpt lat="47.91788" lon="6.93169">
        <ele>909.06</ele>
        <time>2022-07-31T11:26:44Z</time>
      </trkpt>
      <trkpt lat="47.91786" lon="6.93176">
        <ele>909.06</ele>
        <time>2022-07-31T11:26:45Z</time>
      </trkpt>
      <trkpt lat="47.91784" lon="6.93182">
        <ele>909.06</ele>
        <time>2022-07-31T11:26:46Z</time>
      </trkpt>
      <trkpt lat="47.91782" lon="6.93189">
        <ele>909.06</ele>
        <time>2022-07-31T11:26:47Z</time>
      </trkpt>
      <trkpt lat="47.91774" lon="6.93211">
        <ele>905.7</ele>
        <time>2022-07-31T11:26:51Z</time>
      </trkpt>
      <trkpt lat="47.91761" lon="6.93228">
        <ele>904.26</ele>
        <time>2022-07-31T11:26:54Z</time>
      </trkpt>
      <trkpt lat="47.91745" lon="6.93249">
        <ele>902.82</ele>
        <time>2022-07-31T11:26:58Z</time>
      </trkpt>
      <trkpt lat="47.91718" lon="6.93281">
        <ele>900.89</ele>
        <time>2022-07-31T11:27:07Z</time>
      </trkpt>
      <trkpt lat="47.91692" lon="6.93305">
        <ele>897.53</ele>
        <time>2022-07-31T11:27:15Z</time>
      </trkpt>
      <trkpt lat="47.91676" lon="6.93318">
        <ele>895.12</ele>
        <time>2022-07-31T11:27:19Z</time>
      </trkpt>
      <trkpt lat="47.91672" lon="6.93322">
        <ele>894.64</ele>
        <time>2022-07-31T11:27:20Z</time>
      </trkpt>
      <trkpt lat="47.91669" lon="6.93325">
        <ele>894.16</ele>
        <time>2022-07-31T11:27:21Z</time>
      </trkpt>
      <trkpt lat="47.91665" lon="6.93329">
        <ele>893.68</ele>
        <time>2022-07-31T11:27:22Z</time>
      </trkpt>
      <trkpt lat="47.91661" lon="6.93334">
        <ele>893.68</ele>
        <time>2022-07-31T11:27:23Z</time>
      </trkpt>
      <trkpt lat="47.91657" lon="6.93338">
        <ele>893.2</ele>
        <time>2022-07-31T11:27:24Z</time>
      </trkpt>
      <trkpt lat="47.91653" lon="6.93343">
        <ele>893.2</ele>
        <time>2022-07-31T11:27:25Z</time>
      </trkpt>
      <trkpt lat="47.91649" lon="6.93347">
        <ele>893.2</ele>
        <time>2022-07-31T11:27:26Z</time>
      </trkpt>
      <trkpt lat="47.91634" lon="6.93361">
        <ele>893.2</ele>
        <time>2022-07-31T11:27:29Z</time>
      </trkpt>
      <trkpt lat="47.91629" lon="6.93363">
        <ele>892.72</ele>
        <time>2022-07-31T11:27:30Z</time>
      </trkpt>
      <trkpt lat="47.91625" lon="6.93364">
        <ele>892.72</ele>
        <time>2022-07-31T11:27:31Z</time>
      </trkpt>
      <trkpt lat="47.91621" lon="6.93366">
        <ele>892.72</ele>
        <time>2022-07-31T11:27:32Z</time>
      </trkpt>
      <trkpt lat="47.91618" lon="6.9337">
        <ele>892.24</ele>
        <time>2022-07-31T11:27:33Z</time>
      </trkpt>
      <trkpt lat="47.91616" lon="6.93375">
        <ele>892.24</ele>
        <time>2022-07-31T11:27:34Z</time>
      </trkpt>
      <trkpt lat="47.91615" lon="6.93386">
        <ele>892.24</ele>
        <time>2022-07-31T11:27:36Z</time>
      </trkpt>
      <trkpt lat="47.91605" lon="6.9344">
        <ele>892.72</ele>
        <time>2022-07-31T11:27:46Z</time>
      </trkpt>
      <trkpt lat="47.91603" lon="6.93444">
        <ele>892.72</ele>
        <time>2022-07-31T11:27:47Z</time>
      </trkpt>
      <trkpt lat="47.91595" lon="6.9346">
        <ele>892.24</ele>
        <time>2022-07-31T11:27:52Z</time>
      </trkpt>
      <trkpt lat="47.91589" lon="6.93477">
        <ele>892.72</ele>
        <time>2022-07-31T11:27:57Z</time>
      </trkpt>
      <trkpt lat="47.91569" lon="6.935">
        <ele>894.16</ele>
        <time>2022-07-31T11:28:10Z</time>
      </trkpt>
      <trkpt lat="47.91545" lon="6.93519">
        <ele>894.64</ele>
        <time>2022-07-31T11:28:21Z</time>
      </trkpt>
      <trkpt lat="47.91514" lon="6.93548">
        <ele>893.68</ele>
        <time>2022-07-31T11:28:33Z</time>
      </trkpt>
      <trkpt lat="47.91489" lon="6.93581">
        <ele>892.24</ele>
        <time>2022-07-31T11:28:42Z</time>
      </trkpt>
      <trkpt lat="47.91485" lon="6.93586">
        <ele>892.24</ele>
        <time>2022-07-31T11:28:43Z</time>
      </trkpt>
      <trkpt lat="47.91482" lon="6.93591">
        <ele>891.76</ele>
        <time>2022-07-31T11:28:44Z</time>
      </trkpt>
      <trkpt lat="47.91479" lon="6.93595">
        <ele>891.76</ele>
        <time>2022-07-31T11:28:45Z</time>
      </trkpt>
      <trkpt lat="47.91476" lon="6.936">
        <ele>891.76</ele>
        <time>2022-07-31T11:28:46Z</time>
      </trkpt>
      <trkpt lat="47.91469" lon="6.93617">
        <ele>892.72</ele>
        <time>2022-07-31T11:28:49Z</time>
      </trkpt>
      <trkpt lat="47.91467" lon="6.93623">
        <ele>891.76</ele>
        <time>2022-07-31T11:28:50Z</time>
      </trkpt>
      <trkpt lat="47.91466" lon="6.9363">
        <ele>890.8</ele>
        <time>2022-07-31T11:28:51Z</time>
      </trkpt>
      <trkpt lat="47.91465" lon="6.93636">
        <ele>890.8</ele>
        <time>2022-07-31T11:28:52Z</time>
      </trkpt>
      <trkpt lat="47.91463" lon="6.93643">
        <ele>890.32</ele>
        <time>2022-07-31T11:28:53Z</time>
      </trkpt>
      <trkpt lat="47.91462" lon="6.9365">
        <ele>890.32</ele>
        <time>2022-07-31T11:28:54Z</time>
      </trkpt>
      <trkpt lat="47.91459" lon="6.93657">
        <ele>889.36</ele>
        <time>2022-07-31T11:28:55Z</time>
      </trkpt>
      <trkpt lat="47.91457" lon="6.93665">
        <ele>888.4</ele>
        <time>2022-07-31T11:28:56Z</time>
      </trkpt>
      <trkpt lat="47.91454" lon="6.93673">
        <ele>887.91</ele>
        <time>2022-07-31T11:28:57Z</time>
      </trkpt>
      <trkpt lat="47.91452" lon="6.93681">
        <ele>886.95</ele>
        <time>2022-07-31T11:28:58Z</time>
      </trkpt>
      <trkpt lat="47.9145" lon="6.93689">
        <ele>885.99</ele>
        <time>2022-07-31T11:28:59Z</time>
      </trkpt>
      <trkpt lat="47.91449" lon="6.93698">
        <ele>885.03</ele>
        <time>2022-07-31T11:29:00Z</time>
      </trkpt>
      <trkpt lat="47.91448" lon="6.93706">
        <ele>884.07</ele>
        <time>2022-07-31T11:29:01Z</time>
      </trkpt>
      <trkpt lat="47.91447" lon="6.93715">
        <ele>883.59</ele>
        <time>2022-07-31T11:29:02Z</time>
      </trkpt>
      <trkpt lat="47.91445" lon="6.93723">
        <ele>883.11</ele>
        <time>2022-07-31T11:29:03Z</time>
      </trkpt>
      <trkpt lat="47.91443" lon="6.93729">
        <ele>882.15</ele>
        <time>2022-07-31T11:29:04Z</time>
      </trkpt>
      <trkpt lat="47.9144" lon="6.93734">
        <ele>882.15</ele>
        <time>2022-07-31T11:29:05Z</time>
      </trkpt>
      <trkpt lat="47.91432" lon="6.93747">
        <ele>880.71</ele>
        <time>2022-07-31T11:29:08Z</time>
      </trkpt>
      <trkpt lat="47.9141" lon="6.93768">
        <ele>878.3</ele>
        <time>2022-07-31T11:29:17Z</time>
      </trkpt>
      <trkpt lat="47.91408" lon="6.9377">
        <ele>877.82</ele>
        <time>2022-07-31T11:29:18Z</time>
      </trkpt>
      <trkpt lat="47.91406" lon="6.93773">
        <ele>877.82</ele>
        <time>2022-07-31T11:29:19Z</time>
      </trkpt>
      <trkpt lat="47.91404" lon="6.93776">
        <ele>877.34</ele>
        <time>2022-07-31T11:29:20Z</time>
      </trkpt>
      <trkpt lat="47.91375" lon="6.93805">
        <ele>875.42</ele>
        <time>2022-07-31T11:29:32Z</time>
      </trkpt>
      <trkpt lat="47.9137" lon="6.93809">
        <ele>874.46</ele>
        <time>2022-07-31T11:29:33Z</time>
      </trkpt>
      <trkpt lat="47.91339" lon="6.93832">
        <ele>871.09</ele>
        <time>2022-07-31T11:29:39Z</time>
      </trkpt>
      <trkpt lat="47.91317" lon="6.93852">
        <ele>871.57</ele>
        <time>2022-07-31T11:29:43Z</time>
      </trkpt>
      <trkpt lat="47.91306" lon="6.93858">
        <ele>871.57</ele>
        <time>2022-07-31T11:29:45Z</time>
      </trkpt>
      <trkpt lat="47.91296" lon="6.93864">
        <ele>871.57</ele>
        <time>2022-07-31T11:29:47Z</time>
      </trkpt>
      <trkpt lat="47.91292" lon="6.93867">
        <ele>871.57</ele>
        <time>2022-07-31T11:29:48Z</time>
      </trkpt>
      <trkpt lat="47.91267" lon="6.93901">
        <ele>870.13</ele>
        <time>2022-07-31T11:29:56Z</time>
      </trkpt>
      <trkpt lat="47.91265" lon="6.93909">
        <ele>869.65</ele>
        <time>2022-07-31T11:29:57Z</time>
      </trkpt>
      <trkpt lat="47.9126" lon="6.93926">
        <ele>869.17</ele>
        <time>2022-07-31T11:29:59Z</time>
      </trkpt>
      <trkpt lat="47.91257" lon="6.93941">
        <ele>868.69</ele>
        <time>2022-07-31T11:30:01Z</time>
      </trkpt>
      <trkpt lat="47.91252" lon="6.93972">
        <ele>868.21</ele>
        <time>2022-07-31T11:30:05Z</time>
      </trkpt>
      <trkpt lat="47.91248" lon="6.93997">
        <ele>867.25</ele>
        <time>2022-07-31T11:30:08Z</time>
      </trkpt>
      <trkpt lat="47.91246" lon="6.94004">
        <ele>867.25</ele>
        <time>2022-07-31T11:30:09Z</time>
      </trkpt>
      <trkpt lat="47.91243" lon="6.9401">
        <ele>867.25</ele>
        <time>2022-07-31T11:30:10Z</time>
      </trkpt>
      <trkpt lat="47.91238" lon="6.94024">
        <ele>866.77</ele>
        <time>2022-07-31T11:30:12Z</time>
      </trkpt>
      <trkpt lat="47.91237" lon="6.94032">
        <ele>866.77</ele>
        <time>2022-07-31T11:30:13Z</time>
      </trkpt>
      <trkpt lat="47.91234" lon="6.94048">
        <ele>866.29</ele>
        <time>2022-07-31T11:30:15Z</time>
      </trkpt>
      <trkpt lat="47.91233" lon="6.94055">
        <ele>866.29</ele>
        <time>2022-07-31T11:30:16Z</time>
      </trkpt>
      <trkpt lat="47.91232" lon="6.94062">
        <ele>865.8</ele>
        <time>2022-07-31T11:30:17Z</time>
      </trkpt>
      <trkpt lat="47.91232" lon="6.94069">
        <ele>865.8</ele>
        <time>2022-07-31T11:30:18Z</time>
      </trkpt>
      <trkpt lat="47.91231" lon="6.94075">
        <ele>865.32</ele>
        <time>2022-07-31T11:30:19Z</time>
      </trkpt>
      <trkpt lat="47.91231" lon="6.94082">
        <ele>864.84</ele>
        <time>2022-07-31T11:30:20Z</time>
      </trkpt>
      <trkpt lat="47.9123" lon="6.94089">
        <ele>864.36</ele>
        <time>2022-07-31T11:30:21Z</time>
      </trkpt>
      <trkpt lat="47.91229" lon="6.94096">
        <ele>863.88</ele>
        <time>2022-07-31T11:30:22Z</time>
      </trkpt>
      <trkpt lat="47.91227" lon="6.9411">
        <ele>862.92</ele>
        <time>2022-07-31T11:30:24Z</time>
      </trkpt>
      <trkpt lat="47.91225" lon="6.94116">
        <ele>862.44</ele>
        <time>2022-07-31T11:30:25Z</time>
      </trkpt>
      <trkpt lat="47.91222" lon="6.94121">
        <ele>861.96</ele>
        <time>2022-07-31T11:30:26Z</time>
      </trkpt>
      <trkpt lat="47.91208" lon="6.94144">
        <ele>860.04</ele>
        <time>2022-07-31T11:30:29Z</time>
      </trkpt>
      <trkpt lat="47.91205" lon="6.94154">
        <ele>859.08</ele>
        <time>2022-07-31T11:30:30Z</time>
      </trkpt>
      <trkpt lat="47.91199" lon="6.94176">
        <ele>858.11</ele>
        <time>2022-07-31T11:30:32Z</time>
      </trkpt>
      <trkpt lat="47.91197" lon="6.94187">
        <ele>856.67</ele>
        <time>2022-07-31T11:30:33Z</time>
      </trkpt>
      <trkpt lat="47.91196" lon="6.94198">
        <ele>855.71</ele>
        <time>2022-07-31T11:30:34Z</time>
      </trkpt>
      <trkpt lat="47.91192" lon="6.94217">
        <ele>854.27</ele>
        <time>2022-07-31T11:30:36Z</time>
      </trkpt>
      <trkpt lat="47.91175" lon="6.94273">
        <ele>850.9</ele>
        <time>2022-07-31T11:30:42Z</time>
      </trkpt>
      <trkpt lat="47.91175" lon="6.94283">
        <ele>850.42</ele>
        <time>2022-07-31T11:30:43Z</time>
      </trkpt>
      <trkpt lat="47.91175" lon="6.94292">
        <ele>849.94</ele>
        <time>2022-07-31T11:30:44Z</time>
      </trkpt>
      <trkpt lat="47.91178" lon="6.9431">
        <ele>849.46</ele>
        <time>2022-07-31T11:30:46Z</time>
      </trkpt>
      <trkpt lat="47.91178" lon="6.94319">
        <ele>848.98</ele>
        <time>2022-07-31T11:30:47Z</time>
      </trkpt>
      <trkpt lat="47.91178" lon="6.94328">
        <ele>848.98</ele>
        <time>2022-07-31T11:30:48Z</time>
      </trkpt>
      <trkpt lat="47.91177" lon="6.94347">
        <ele>849.46</ele>
        <time>2022-07-31T11:30:50Z</time>
      </trkpt>
      <trkpt lat="47.91173" lon="6.94397">
        <ele>846.58</ele>
        <time>2022-07-31T11:30:55Z</time>
      </trkpt>
      <trkpt lat="47.91171" lon="6.94405">
        <ele>846.1</ele>
        <time>2022-07-31T11:30:56Z</time>
      </trkpt>
      <trkpt lat="47.9117" lon="6.94414">
        <ele>846.1</ele>
        <time>2022-07-31T11:30:57Z</time>
      </trkpt>
      <trkpt lat="47.91159" lon="6.94458">
        <ele>844.66</ele>
        <time>2022-07-31T11:31:04Z</time>
      </trkpt>
      <trkpt lat="47.91157" lon="6.94465">
        <ele>844.18</ele>
        <time>2022-07-31T11:31:05Z</time>
      </trkpt>
      <trkpt lat="47.91145" lon="6.94499">
        <ele>843.21</ele>
        <time>2022-07-31T11:31:12Z</time>
      </trkpt>
      <trkpt lat="47.91146" lon="6.94503">
        <ele>842.73</ele>
        <time>2022-07-31T11:31:13Z</time>
      </trkpt>
      <trkpt lat="47.91146" lon="6.94507">
        <ele>842.73</ele>
        <time>2022-07-31T11:31:14Z</time>
      </trkpt>
      <trkpt lat="47.91147" lon="6.94511">
        <ele>842.73</ele>
        <time>2022-07-31T11:31:15Z</time>
      </trkpt>
      <trkpt lat="47.91148" lon="6.94513">
        <ele>842.25</ele>
        <time>2022-07-31T11:31:16Z</time>
      </trkpt>
      <trkpt lat="47.91149" lon="6.94516">
        <ele>841.77</ele>
        <time>2022-07-31T11:31:17Z</time>
      </trkpt>
      <trkpt lat="47.91149" lon="6.94519">
        <ele>841.77</ele>
        <time>2022-07-31T11:31:18Z</time>
      </trkpt>
      <trkpt lat="47.91149" lon="6.94522">
        <ele>841.77</ele>
        <time>2022-07-31T11:31:19Z</time>
      </trkpt>
      <trkpt lat="47.9115" lon="6.94523">
        <ele>841.29</ele>
        <time>2022-07-31T11:31:31Z</time>
      </trkpt>
      <trkpt lat="47.91151" lon="6.94527">
        <ele>841.29</ele>
        <time>2022-07-31T11:31:54Z</time>
      </trkpt>
      <trkpt lat="47.91153" lon="6.94527">
        <ele>841.29</ele>
        <time>2022-07-31T11:32:21Z</time>
      </trkpt>
      <trkpt lat="47.91151" lon="6.9453">
        <ele>841.29</ele>
        <time>2022-07-31T11:32:49Z</time>
      </trkpt>
      <trkpt lat="47.91152" lon="6.9453">
        <ele>840.81</ele>
        <time>2022-07-31T11:33:15Z</time>
      </trkpt>
      <trkpt lat="47.91153" lon="6.94529">
        <ele>840.81</ele>
        <time>2022-07-31T11:33:46Z</time>
      </trkpt>
      <trkpt lat="47.91154" lon="6.94528">
        <ele>839.85</ele>
        <time>2022-07-31T11:34:18Z</time>
      </trkpt>
      <trkpt lat="47.91155" lon="6.94527">
        <ele>841.29</ele>
        <time>2022-07-31T11:34:41Z</time>
      </trkpt>
      <trkpt lat="47.91154" lon="6.94529">
        <ele>839.85</ele>
        <time>2022-07-31T11:35:11Z</time>
      </trkpt>
      <trkpt lat="47.91154" lon="6.9453">
        <ele>839.85</ele>
        <time>2022-07-31T11:35:38Z</time>
      </trkpt>
      <trkpt lat="47.91154" lon="6.94532">
        <ele>839.85</ele>
        <time>2022-07-31T11:35:39Z</time>
      </trkpt>
      <trkpt lat="47.91153" lon="6.94534">
        <ele>839.37</ele>
        <time>2022-07-31T11:35:40Z</time>
      </trkpt>
      <trkpt lat="47.91152" lon="6.94538">
        <ele>838.89</ele>
        <time>2022-07-31T11:35:41Z</time>
      </trkpt>
      <trkpt lat="47.91129" lon="6.9457">
        <ele>836</ele>
        <time>2022-07-31T11:35:50Z</time>
      </trkpt>
      <trkpt lat="47.91117" lon="6.94573">
        <ele>835.04</ele>
        <time>2022-07-31T11:35:54Z</time>
      </trkpt>
      <trkpt lat="47.91113" lon="6.94574">
        <ele>835.04</ele>
        <time>2022-07-31T11:35:55Z</time>
      </trkpt>
      <trkpt lat="47.9111" lon="6.94574">
        <ele>835.04</ele>
        <time>2022-07-31T11:35:56Z</time>
      </trkpt>
      <trkpt lat="47.91106" lon="6.94574">
        <ele>834.56</ele>
        <time>2022-07-31T11:35:57Z</time>
      </trkpt>
      <trkpt lat="47.91103" lon="6.94575">
        <ele>834.56</ele>
        <time>2022-07-31T11:35:58Z</time>
      </trkpt>
      <trkpt lat="47.911" lon="6.94574">
        <ele>834.08</ele>
        <time>2022-07-31T11:35:59Z</time>
      </trkpt>
      <trkpt lat="47.91082" lon="6.94571">
        <ele>831.2</ele>
        <time>2022-07-31T11:36:04Z</time>
      </trkpt>
      <trkpt lat="47.91055" lon="6.94569">
        <ele>827.35</ele>
        <time>2022-07-31T11:36:10Z</time>
      </trkpt>
      <trkpt lat="47.9105" lon="6.9457">
        <ele>826.87</ele>
        <time>2022-07-31T11:36:11Z</time>
      </trkpt>
      <trkpt lat="47.91039" lon="6.94571">
        <ele>825.43</ele>
        <time>2022-07-31T11:36:13Z</time>
      </trkpt>
      <trkpt lat="47.91034" lon="6.94571">
        <ele>824.95</ele>
        <time>2022-07-31T11:36:14Z</time>
      </trkpt>
      <trkpt lat="47.91029" lon="6.94571">
        <ele>824.47</ele>
        <time>2022-07-31T11:36:15Z</time>
      </trkpt>
      <trkpt lat="47.91024" lon="6.9457">
        <ele>823.51</ele>
        <time>2022-07-31T11:36:16Z</time>
      </trkpt>
      <trkpt lat="47.91018" lon="6.94569">
        <ele>822.55</ele>
        <time>2022-07-31T11:36:17Z</time>
      </trkpt>
      <trkpt lat="47.91013" lon="6.94568">
        <ele>822.06</ele>
        <time>2022-07-31T11:36:18Z</time>
      </trkpt>
      <trkpt lat="47.91007" lon="6.94567">
        <ele>821.58</ele>
        <time>2022-07-31T11:36:19Z</time>
      </trkpt>
      <trkpt lat="47.91001" lon="6.94568">
        <ele>821.1</ele>
        <time>2022-07-31T11:36:20Z</time>
      </trkpt>
      <trkpt lat="47.90994" lon="6.9457">
        <ele>820.62</ele>
        <time>2022-07-31T11:36:21Z</time>
      </trkpt>
      <trkpt lat="47.90987" lon="6.94574">
        <ele>819.66</ele>
        <time>2022-07-31T11:36:22Z</time>
      </trkpt>
      <trkpt lat="47.9098" lon="6.94577">
        <ele>818.7</ele>
        <time>2022-07-31T11:36:23Z</time>
      </trkpt>
      <trkpt lat="47.90974" lon="6.94579">
        <ele>817.26</ele>
        <time>2022-07-31T11:36:24Z</time>
      </trkpt>
      <trkpt lat="47.90967" lon="6.94581">
        <ele>817.26</ele>
        <time>2022-07-31T11:36:25Z</time>
      </trkpt>
      <trkpt lat="47.90934" lon="6.94593">
        <ele>814.37</ele>
        <time>2022-07-31T11:36:30Z</time>
      </trkpt>
      <trkpt lat="47.90903" lon="6.94602">
        <ele>811.01</ele>
        <time>2022-07-31T11:36:34Z</time>
      </trkpt>
      <trkpt lat="47.90862" lon="6.94613">
        <ele>808.13</ele>
        <time>2022-07-31T11:36:39Z</time>
      </trkpt>
      <trkpt lat="47.90846" lon="6.94615">
        <ele>806.68</ele>
        <time>2022-07-31T11:36:41Z</time>
      </trkpt>
      <trkpt lat="47.90837" lon="6.94615">
        <ele>805.72</ele>
        <time>2022-07-31T11:36:42Z</time>
      </trkpt>
      <trkpt lat="47.90828" lon="6.94618">
        <ele>805.24</ele>
        <time>2022-07-31T11:36:43Z</time>
      </trkpt>
      <trkpt lat="47.90801" lon="6.94629">
        <ele>801.4</ele>
        <time>2022-07-31T11:36:49Z</time>
      </trkpt>
      <trkpt lat="47.90788" lon="6.94632">
        <ele>800.92</ele>
        <time>2022-07-31T11:36:52Z</time>
      </trkpt>
      <trkpt lat="47.90781" lon="6.94628">
        <ele>800.44</ele>
        <time>2022-07-31T11:36:53Z</time>
      </trkpt>
      <trkpt lat="47.9076" lon="6.94619">
        <ele>797.55</ele>
        <time>2022-07-31T11:36:56Z</time>
      </trkpt>
      <trkpt lat="47.90754" lon="6.94615">
        <ele>797.07</ele>
        <time>2022-07-31T11:36:57Z</time>
      </trkpt>
      <trkpt lat="47.90748" lon="6.94611">
        <ele>796.59</ele>
        <time>2022-07-31T11:36:58Z</time>
      </trkpt>
      <trkpt lat="47.90719" lon="6.94591">
        <ele>794.19</ele>
        <time>2022-07-31T11:37:03Z</time>
      </trkpt>
      <trkpt lat="47.90696" lon="6.94577">
        <ele>791.78</ele>
        <time>2022-07-31T11:37:07Z</time>
      </trkpt>
      <trkpt lat="47.90684" lon="6.94568">
        <ele>790.82</ele>
        <time>2022-07-31T11:37:09Z</time>
      </trkpt>
      <trkpt lat="47.90679" lon="6.94563">
        <ele>790.34</ele>
        <time>2022-07-31T11:37:10Z</time>
      </trkpt>
      <trkpt lat="47.90674" lon="6.94558">
        <ele>789.86</ele>
        <time>2022-07-31T11:37:11Z</time>
      </trkpt>
      <trkpt lat="47.90668" lon="6.94553">
        <ele>789.38</ele>
        <time>2022-07-31T11:37:12Z</time>
      </trkpt>
      <trkpt lat="47.90664" lon="6.94547">
        <ele>788.42</ele>
        <time>2022-07-31T11:37:13Z</time>
      </trkpt>
      <trkpt lat="47.9065" lon="6.94531">
        <ele>786.98</ele>
        <time>2022-07-31T11:37:16Z</time>
      </trkpt>
      <trkpt lat="47.90645" lon="6.94525">
        <ele>786.98</ele>
        <time>2022-07-31T11:37:17Z</time>
      </trkpt>
      <trkpt lat="47.90641" lon="6.94519">
        <ele>786.02</ele>
        <time>2022-07-31T11:37:18Z</time>
      </trkpt>
      <trkpt lat="47.90637" lon="6.94512">
        <ele>785.53</ele>
        <time>2022-07-31T11:37:19Z</time>
      </trkpt>
      <trkpt lat="47.90633" lon="6.94506">
        <ele>785.05</ele>
        <time>2022-07-31T11:37:20Z</time>
      </trkpt>
      <trkpt lat="47.9063" lon="6.94498">
        <ele>784.09</ele>
        <time>2022-07-31T11:37:21Z</time>
      </trkpt>
      <trkpt lat="47.90606" lon="6.94453">
        <ele>780.73</ele>
        <time>2022-07-31T11:37:27Z</time>
      </trkpt>
      <trkpt lat="47.90604" lon="6.94446">
        <ele>780.25</ele>
        <time>2022-07-31T11:37:28Z</time>
      </trkpt>
      <trkpt lat="47.90603" lon="6.94439">
        <ele>779.77</ele>
        <time>2022-07-31T11:37:29Z</time>
      </trkpt>
      <trkpt lat="47.90602" lon="6.94432">
        <ele>779.77</ele>
        <time>2022-07-31T11:37:30Z</time>
      </trkpt>
      <trkpt lat="47.906" lon="6.94425">
        <ele>779.29</ele>
        <time>2022-07-31T11:37:31Z</time>
      </trkpt>
      <trkpt lat="47.90598" lon="6.9442">
        <ele>778.81</ele>
        <time>2022-07-31T11:37:32Z</time>
      </trkpt>
      <trkpt lat="47.90595" lon="6.94416">
        <ele>778.32</ele>
        <time>2022-07-31T11:37:33Z</time>
      </trkpt>
      <trkpt lat="47.90591" lon="6.94415">
        <ele>777.84</ele>
        <time>2022-07-31T11:37:34Z</time>
      </trkpt>
      <trkpt lat="47.90587" lon="6.94416">
        <ele>777.84</ele>
        <time>2022-07-31T11:37:35Z</time>
      </trkpt>
      <trkpt lat="47.90584" lon="6.94419">
        <ele>777.36</ele>
        <time>2022-07-31T11:37:36Z</time>
      </trkpt>
      <trkpt lat="47.90583" lon="6.94424">
        <ele>777.36</ele>
        <time>2022-07-31T11:37:37Z</time>
      </trkpt>
      <trkpt lat="47.90582" lon="6.94428">
        <ele>776.88</ele>
        <time>2022-07-31T11:37:38Z</time>
      </trkpt>
      <trkpt lat="47.90582" lon="6.9443">
        <ele>776.88</ele>
        <time>2022-07-31T11:37:39Z</time>
      </trkpt>
      <trkpt lat="47.90582" lon="6.94432">
        <ele>776.4</ele>
        <time>2022-07-31T11:37:53Z</time>
      </trkpt>
      <trkpt lat="47.90583" lon="6.94432">
        <ele>775.92</ele>
        <time>2022-07-31T11:38:30Z</time>
      </trkpt>
      <trkpt lat="47.90583" lon="6.94431">
        <ele>775.92</ele>
        <time>2022-07-31T11:39:01Z</time>
      </trkpt>
      <trkpt lat="47.90584" lon="6.94433">
        <ele>775.92</ele>
        <time>2022-07-31T11:39:05Z</time>
      </trkpt>
      <trkpt lat="47.90585" lon="6.94437">
        <ele>775.44</ele>
        <time>2022-07-31T11:39:06Z</time>
      </trkpt>
      <trkpt lat="47.90586" lon="6.94441">
        <ele>774.96</ele>
        <time>2022-07-31T11:39:07Z</time>
      </trkpt>
      <trkpt lat="47.90588" lon="6.94446">
        <ele>774.96</ele>
        <time>2022-07-31T11:39:08Z</time>
      </trkpt>
      <trkpt lat="47.90589" lon="6.9445">
        <ele>774.48</ele>
        <time>2022-07-31T11:39:09Z</time>
      </trkpt>
      <trkpt lat="47.90601" lon="6.94487">
        <ele>772.08</ele>
        <time>2022-07-31T11:39:18Z</time>
      </trkpt>
      <trkpt lat="47.90604" lon="6.94516">
        <ele>770.15</ele>
        <time>2022-07-31T11:39:23Z</time>
      </trkpt>
      <trkpt lat="47.90609" lon="6.94556">
        <ele>767.75</ele>
        <time>2022-07-31T11:39:33Z</time>
      </trkpt>
      <trkpt lat="47.90611" lon="6.94562">
        <ele>767.27</ele>
        <time>2022-07-31T11:39:48Z</time>
      </trkpt>
      <trkpt lat="47.90611" lon="6.94565">
        <ele>767.27</ele>
        <time>2022-07-31T11:40:12Z</time>
      </trkpt>
      <trkpt lat="47.90612" lon="6.94566">
        <ele>767.27</ele>
        <time>2022-07-31T11:40:19Z</time>
      </trkpt>
      <trkpt lat="47.90613" lon="6.94568">
        <ele>767.27</ele>
        <time>2022-07-31T11:40:20Z</time>
      </trkpt>
      <trkpt lat="47.90615" lon="6.94573">
        <ele>766.79</ele>
        <time>2022-07-31T11:40:22Z</time>
      </trkpt>
      <trkpt lat="47.90616" lon="6.94577">
        <ele>766.79</ele>
        <time>2022-07-31T11:40:23Z</time>
      </trkpt>
      <trkpt lat="47.90621" lon="6.9459">
        <ele>765.83</ele>
        <time>2022-07-31T11:40:26Z</time>
      </trkpt>
      <trkpt lat="47.90624" lon="6.94595">
        <ele>765.83</ele>
        <time>2022-07-31T11:40:27Z</time>
      </trkpt>
      <trkpt lat="47.90642" lon="6.94625">
        <ele>761.98</ele>
        <time>2022-07-31T11:40:32Z</time>
      </trkpt>
      <trkpt lat="47.90645" lon="6.94631">
        <ele>761.5</ele>
        <time>2022-07-31T11:40:33Z</time>
      </trkpt>
      <trkpt lat="47.90647" lon="6.94638">
        <ele>761.02</ele>
        <time>2022-07-31T11:40:34Z</time>
      </trkpt>
      <trkpt lat="47.90647" lon="6.94645">
        <ele>760.54</ele>
        <time>2022-07-31T11:40:35Z</time>
      </trkpt>
      <trkpt lat="47.90646" lon="6.94652">
        <ele>760.06</ele>
        <time>2022-07-31T11:40:36Z</time>
      </trkpt>
      <trkpt lat="47.90644" lon="6.94659">
        <ele>759.58</ele>
        <time>2022-07-31T11:40:37Z</time>
      </trkpt>
      <trkpt lat="47.90641" lon="6.94664">
        <ele>759.1</ele>
        <time>2022-07-31T11:40:38Z</time>
      </trkpt>
      <trkpt lat="47.90638" lon="6.94668">
        <ele>758.62</ele>
        <time>2022-07-31T11:40:39Z</time>
      </trkpt>
      <trkpt lat="47.90634" lon="6.94671">
        <ele>758.14</ele>
        <time>2022-07-31T11:40:40Z</time>
      </trkpt>
      <trkpt lat="47.90629" lon="6.94672">
        <ele>757.18</ele>
        <time>2022-07-31T11:40:41Z</time>
      </trkpt>
      <trkpt lat="47.90623" lon="6.94672">
        <ele>756.69</ele>
        <time>2022-07-31T11:40:42Z</time>
      </trkpt>
      <trkpt lat="47.90617" lon="6.94673">
        <ele>756.21</ele>
        <time>2022-07-31T11:40:43Z</time>
      </trkpt>
      <trkpt lat="47.90611" lon="6.94675">
        <ele>755.73</ele>
        <time>2022-07-31T11:40:44Z</time>
      </trkpt>
      <trkpt lat="47.90606" lon="6.94679">
        <ele>755.25</ele>
        <time>2022-07-31T11:40:45Z</time>
      </trkpt>
      <trkpt lat="47.906" lon="6.94685">
        <ele>754.77</ele>
        <time>2022-07-31T11:40:46Z</time>
      </trkpt>
      <trkpt lat="47.90595" lon="6.94691">
        <ele>753.81</ele>
        <time>2022-07-31T11:40:47Z</time>
      </trkpt>
      <trkpt lat="47.9059" lon="6.94699">
        <ele>752.85</ele>
        <time>2022-07-31T11:40:48Z</time>
      </trkpt>
      <trkpt lat="47.90569" lon="6.94732">
        <ele>749</ele>
        <time>2022-07-31T11:40:52Z</time>
      </trkpt>
      <trkpt lat="47.90564" lon="6.94739">
        <ele>748.52</ele>
        <time>2022-07-31T11:40:53Z</time>
      </trkpt>
      <trkpt lat="47.90559" lon="6.94746">
        <ele>748.52</ele>
        <time>2022-07-31T11:40:54Z</time>
      </trkpt>
      <trkpt lat="47.90554" lon="6.94753">
        <ele>747.56</ele>
        <time>2022-07-31T11:40:55Z</time>
      </trkpt>
      <trkpt lat="47.90549" lon="6.94758">
        <ele>747.08</ele>
        <time>2022-07-31T11:40:56Z</time>
      </trkpt>
      <trkpt lat="47.90543" lon="6.94762">
        <ele>745.16</ele>
        <time>2022-07-31T11:40:57Z</time>
      </trkpt>
      <trkpt lat="47.90537" lon="6.94766">
        <ele>743.72</ele>
        <time>2022-07-31T11:40:58Z</time>
      </trkpt>
      <trkpt lat="47.90531" lon="6.94769">
        <ele>742.76</ele>
        <time>2022-07-31T11:40:59Z</time>
      </trkpt>
      <trkpt lat="47.90524" lon="6.94772">
        <ele>741.79</ele>
        <time>2022-07-31T11:41:00Z</time>
      </trkpt>
      <trkpt lat="47.90495" lon="6.94786">
        <ele>737.95</ele>
        <time>2022-07-31T11:41:04Z</time>
      </trkpt>
      <trkpt lat="47.90474" lon="6.94799">
        <ele>734.58</ele>
        <time>2022-07-31T11:41:07Z</time>
      </trkpt>
      <trkpt lat="47.90454" lon="6.94812">
        <ele>731.22</ele>
        <time>2022-07-31T11:41:10Z</time>
      </trkpt>
      <trkpt lat="47.90448" lon="6.94818">
        <ele>730.26</ele>
        <time>2022-07-31T11:41:11Z</time>
      </trkpt>
      <trkpt lat="47.90442" lon="6.94824">
        <ele>729.3</ele>
        <time>2022-07-31T11:41:12Z</time>
      </trkpt>
      <trkpt lat="47.9043" lon="6.94836">
        <ele>727.37</ele>
        <time>2022-07-31T11:41:14Z</time>
      </trkpt>
      <trkpt lat="47.90405" lon="6.94866">
        <ele>723.53</ele>
        <time>2022-07-31T11:41:18Z</time>
      </trkpt>
      <trkpt lat="47.90386" lon="6.94887">
        <ele>719.2</ele>
        <time>2022-07-31T11:41:21Z</time>
      </trkpt>
      <trkpt lat="47.90367" lon="6.9491">
        <ele>715.84</ele>
        <time>2022-07-31T11:41:24Z</time>
      </trkpt>
      <trkpt lat="47.90349" lon="6.94935">
        <ele>712.95</ele>
        <time>2022-07-31T11:41:27Z</time>
      </trkpt>
      <trkpt lat="47.90327" lon="6.94961">
        <ele>709.59</ele>
        <time>2022-07-31T11:41:30Z</time>
      </trkpt>
      <trkpt lat="47.90307" lon="6.94989">
        <ele>706.23</ele>
        <time>2022-07-31T11:41:33Z</time>
      </trkpt>
      <trkpt lat="47.90286" lon="6.9502">
        <ele>703.34</ele>
        <time>2022-07-31T11:41:36Z</time>
      </trkpt>
      <trkpt lat="47.90258" lon="6.95058">
        <ele>699.5</ele>
        <time>2022-07-31T11:41:40Z</time>
      </trkpt>
      <trkpt lat="47.90232" lon="6.95097">
        <ele>696.13</ele>
        <time>2022-07-31T11:41:44Z</time>
      </trkpt>
      <trkpt lat="47.9021" lon="6.95129">
        <ele>692.77</ele>
        <time>2022-07-31T11:41:47Z</time>
      </trkpt>
      <trkpt lat="47.90181" lon="6.95176">
        <ele>689.4</ele>
        <time>2022-07-31T11:41:51Z</time>
      </trkpt>
      <trkpt lat="47.90158" lon="6.95212">
        <ele>686.52</ele>
        <time>2022-07-31T11:41:54Z</time>
      </trkpt>
      <trkpt lat="47.90136" lon="6.95253">
        <ele>683.15</ele>
        <time>2022-07-31T11:41:57Z</time>
      </trkpt>
      <trkpt lat="47.90106" lon="6.95307">
        <ele>679.31</ele>
        <time>2022-07-31T11:42:01Z</time>
      </trkpt>
      <trkpt lat="47.90081" lon="6.95347">
        <ele>675.94</ele>
        <time>2022-07-31T11:42:05Z</time>
      </trkpt>
      <trkpt lat="47.90068" lon="6.95376">
        <ele>672.58</ele>
        <time>2022-07-31T11:42:09Z</time>
      </trkpt>
      <trkpt lat="47.90066" lon="6.9538">
        <ele>672.58</ele>
        <time>2022-07-31T11:42:10Z</time>
      </trkpt>
      <trkpt lat="47.90067" lon="6.95386">
        <ele>672.1</ele>
        <time>2022-07-31T11:42:19Z</time>
      </trkpt>
      <trkpt lat="47.90067" lon="6.95386">
        <ele>671.62</ele>
        <time>2022-07-31T11:42:44Z</time>
      </trkpt>
      <trkpt lat="47.90067" lon="6.95385">
        <ele>670.66</ele>
        <time>2022-07-31T11:43:06Z</time>
      </trkpt>
      <trkpt lat="47.90066" lon="6.95387">
        <ele>670.66</ele>
        <time>2022-07-31T11:43:43Z</time>
      </trkpt>
      <trkpt lat="47.90065" lon="6.95389">
        <ele>670.66</ele>
        <time>2022-07-31T11:43:46Z</time>
      </trkpt>
      <trkpt lat="47.90064" lon="6.95392">
        <ele>670.18</ele>
        <time>2022-07-31T11:43:48Z</time>
      </trkpt>
      <trkpt lat="47.90063" lon="6.95393">
        <ele>670.18</ele>
        <time>2022-07-31T11:43:49Z</time>
      </trkpt>
      <trkpt lat="47.90062" lon="6.95393">
        <ele>670.18</ele>
        <time>2022-07-31T11:43:50Z</time>
      </trkpt>
      <trkpt lat="47.90061" lon="6.95393">
        <ele>670.18</ele>
        <time>2022-07-31T11:43:51Z</time>
      </trkpt>
      <trkpt lat="47.9006" lon="6.95391">
        <ele>669.7</ele>
        <time>2022-07-31T11:43:52Z</time>
      </trkpt>
      <trkpt lat="47.90059" lon="6.9539">
        <ele>669.7</ele>
        <time>2022-07-31T11:44:08Z</time>
      </trkpt>
      <trkpt lat="47.90058" lon="6.95387">
        <ele>669.7</ele>
        <time>2022-07-31T11:44:18Z</time>
      </trkpt>
      <trkpt lat="47.90058" lon="6.95384">
        <ele>669.22</ele>
        <time>2022-07-31T11:44:19Z</time>
      </trkpt>
      <trkpt lat="47.90057" lon="6.95382">
        <ele>668.73</ele>
        <time>2022-07-31T11:44:20Z</time>
      </trkpt>
      <trkpt lat="47.90056" lon="6.95374">
        <ele>668.25</ele>
        <time>2022-07-31T11:44:23Z</time>
      </trkpt>
      <trkpt lat="47.90057" lon="6.95371">
        <ele>667.77</ele>
        <time>2022-07-31T11:44:24Z</time>
      </trkpt>
      <trkpt lat="47.9005" lon="6.95346">
        <ele>665.85</ele>
        <time>2022-07-31T11:44:35Z</time>
      </trkpt>
      <trkpt lat="47.9005" lon="6.95346">
        <ele>665.85</ele>
        <time>2022-07-31T11:44:39Z</time>
      </trkpt>
      <trkpt lat="47.90048" lon="6.95346">
        <ele>665.85</ele>
        <time>2022-07-31T11:44:40Z</time>
      </trkpt>
      <trkpt lat="47.90047" lon="6.95348">
        <ele>665.37</ele>
        <time>2022-07-31T11:44:41Z</time>
      </trkpt>
      <trkpt lat="47.90046" lon="6.95351">
        <ele>665.37</ele>
        <time>2022-07-31T11:44:42Z</time>
      </trkpt>
      <trkpt lat="47.90045" lon="6.95354">
        <ele>665.37</ele>
        <time>2022-07-31T11:44:43Z</time>
      </trkpt>
      <trkpt lat="47.90042" lon="6.95361">
        <ele>665.37</ele>
        <time>2022-07-31T11:44:45Z</time>
      </trkpt>
      <trkpt lat="47.9002" lon="6.95411">
        <ele>663.93</ele>
        <time>2022-07-31T11:44:57Z</time>
      </trkpt>
      <trkpt lat="47.89986" lon="6.95483">
        <ele>662.49</ele>
        <time>2022-07-31T11:45:12Z</time>
      </trkpt>
      <trkpt lat="47.89951" lon="6.95542">
        <ele>661.52</ele>
        <time>2022-07-31T11:45:26Z</time>
      </trkpt>
      <trkpt lat="47.89945" lon="6.9555">
        <ele>661.52</ele>
        <time>2022-07-31T11:45:28Z</time>
      </trkpt>
      <trkpt lat="47.89943" lon="6.95554">
        <ele>661.52</ele>
        <time>2022-07-31T11:45:29Z</time>
      </trkpt>
      <trkpt lat="47.89934" lon="6.95568">
        <ele>661.04</ele>
        <time>2022-07-31T11:45:32Z</time>
      </trkpt>
      <trkpt lat="47.89909" lon="6.95611">
        <ele>660.08</ele>
        <time>2022-07-31T11:45:43Z</time>
      </trkpt>
      <trkpt lat="47.89883" lon="6.95658">
        <ele>659.6</ele>
        <time>2022-07-31T11:45:55Z</time>
      </trkpt>
      <trkpt lat="47.89854" lon="6.95704">
        <ele>658.64</ele>
        <time>2022-07-31T11:46:07Z</time>
      </trkpt>
      <trkpt lat="47.89823" lon="6.95758">
        <ele>656.24</ele>
        <time>2022-07-31T11:46:20Z</time>
      </trkpt>
      <trkpt lat="47.89798" lon="6.95813">
        <ele>653.83</ele>
        <time>2022-07-31T11:46:31Z</time>
      </trkpt>
      <trkpt lat="47.89795" lon="6.95838">
        <ele>652.39</ele>
        <time>2022-07-31T11:46:34Z</time>
      </trkpt>
      <trkpt lat="47.89788" lon="6.95879">
        <ele>648.55</ele>
        <time>2022-07-31T11:46:38Z</time>
      </trkpt>
      <trkpt lat="47.89787" lon="6.95891">
        <ele>647.59</ele>
        <time>2022-07-31T11:46:39Z</time>
      </trkpt>
      <trkpt lat="47.89787" lon="6.95904">
        <ele>646.62</ele>
        <time>2022-07-31T11:46:40Z</time>
      </trkpt>
      <trkpt lat="47.89789" lon="6.95916">
        <ele>645.66</ele>
        <time>2022-07-31T11:46:41Z</time>
      </trkpt>
      <trkpt lat="47.89791" lon="6.95927">
        <ele>644.7</ele>
        <time>2022-07-31T11:46:42Z</time>
      </trkpt>
      <trkpt lat="47.89795" lon="6.95937">
        <ele>644.22</ele>
        <time>2022-07-31T11:46:43Z</time>
      </trkpt>
      <trkpt lat="47.89799" lon="6.95944">
        <ele>643.26</ele>
        <time>2022-07-31T11:46:44Z</time>
      </trkpt>
      <trkpt lat="47.89804" lon="6.9595">
        <ele>642.78</ele>
        <time>2022-07-31T11:46:45Z</time>
      </trkpt>
      <trkpt lat="47.89809" lon="6.95954">
        <ele>642.3</ele>
        <time>2022-07-31T11:46:46Z</time>
      </trkpt>
      <trkpt lat="47.89814" lon="6.95957">
        <ele>641.34</ele>
        <time>2022-07-31T11:46:47Z</time>
      </trkpt>
      <trkpt lat="47.89819" lon="6.9596">
        <ele>640.86</ele>
        <time>2022-07-31T11:46:48Z</time>
      </trkpt>
      <trkpt lat="47.89824" lon="6.95962">
        <ele>640.86</ele>
        <time>2022-07-31T11:46:49Z</time>
      </trkpt>
      <trkpt lat="47.89845" lon="6.95971">
        <ele>638.93</ele>
        <time>2022-07-31T11:46:53Z</time>
      </trkpt>
      <trkpt lat="47.89857" lon="6.95975">
        <ele>637.49</ele>
        <time>2022-07-31T11:46:55Z</time>
      </trkpt>
      <trkpt lat="47.89862" lon="6.9598">
        <ele>636.53</ele>
        <time>2022-07-31T11:46:56Z</time>
      </trkpt>
      <trkpt lat="47.89867" lon="6.95986">
        <ele>636.53</ele>
        <time>2022-07-31T11:46:57Z</time>
      </trkpt>
      <trkpt lat="47.8987" lon="6.95993">
        <ele>636.05</ele>
        <time>2022-07-31T11:46:58Z</time>
      </trkpt>
      <trkpt lat="47.89873" lon="6.96001">
        <ele>636.53</ele>
        <time>2022-07-31T11:46:59Z</time>
      </trkpt>
      <trkpt lat="47.89879" lon="6.9602">
        <ele>633.17</ele>
        <time>2022-07-31T11:47:01Z</time>
      </trkpt>
      <trkpt lat="47.8989" lon="6.96072">
        <ele>629.8</ele>
        <time>2022-07-31T11:47:06Z</time>
      </trkpt>
      <trkpt lat="47.89892" lon="6.96082">
        <ele>629.32</ele>
        <time>2022-07-31T11:47:07Z</time>
      </trkpt>
      <trkpt lat="47.8991" lon="6.96139">
        <ele>625.96</ele>
        <time>2022-07-31T11:47:13Z</time>
      </trkpt>
      <trkpt lat="47.89912" lon="6.96147">
        <ele>624.99</ele>
        <time>2022-07-31T11:47:14Z</time>
      </trkpt>
      <trkpt lat="47.89914" lon="6.96156">
        <ele>624.51</ele>
        <time>2022-07-31T11:47:15Z</time>
      </trkpt>
      <trkpt lat="47.89914" lon="6.96164">
        <ele>623.55</ele>
        <time>2022-07-31T11:47:16Z</time>
      </trkpt>
      <trkpt lat="47.89913" lon="6.96171">
        <ele>623.07</ele>
        <time>2022-07-31T11:47:17Z</time>
      </trkpt>
      <trkpt lat="47.8991" lon="6.96177">
        <ele>623.07</ele>
        <time>2022-07-31T11:47:18Z</time>
      </trkpt>
      <trkpt lat="47.89908" lon="6.96181">
        <ele>622.59</ele>
        <time>2022-07-31T11:47:19Z</time>
      </trkpt>
      <trkpt lat="47.89888" lon="6.96197">
        <ele>619.71</ele>
        <time>2022-07-31T11:47:28Z</time>
      </trkpt>
      <trkpt lat="47.89872" lon="6.96207">
        <ele>617.78</ele>
        <time>2022-07-31T11:47:32Z</time>
      </trkpt>
      <trkpt lat="47.89868" lon="6.96211">
        <ele>617.3</ele>
        <time>2022-07-31T11:47:33Z</time>
      </trkpt>
      <trkpt lat="47.89864" lon="6.96216">
        <ele>616.82</ele>
        <time>2022-07-31T11:47:34Z</time>
      </trkpt>
      <trkpt lat="47.8986" lon="6.96223">
        <ele>615.86</ele>
        <time>2022-07-31T11:47:35Z</time>
      </trkpt>
      <trkpt lat="47.89857" lon="6.9623">
        <ele>614.9</ele>
        <time>2022-07-31T11:47:36Z</time>
      </trkpt>
      <trkpt lat="47.89846" lon="6.9626">
        <ele>612.02</ele>
        <time>2022-07-31T11:47:39Z</time>
      </trkpt>
      <trkpt lat="47.89838" lon="6.96287">
        <ele>610.09</ele>
        <time>2022-07-31T11:47:41Z</time>
      </trkpt>
      <trkpt lat="47.89836" lon="6.96303">
        <ele>609.13</ele>
        <time>2022-07-31T11:47:42Z</time>
      </trkpt>
      <trkpt lat="47.89829" lon="6.96335">
        <ele>606.73</ele>
        <time>2022-07-31T11:47:44Z</time>
      </trkpt>
      <trkpt lat="47.89822" lon="6.9635">
        <ele>605.29</ele>
        <time>2022-07-31T11:47:45Z</time>
      </trkpt>
      <trkpt lat="47.89798" lon="6.96394">
        <ele>601.44</ele>
        <time>2022-07-31T11:47:48Z</time>
      </trkpt>
      <trkpt lat="47.89784" lon="6.96422">
        <ele>597.12</ele>
        <time>2022-07-31T11:47:50Z</time>
      </trkpt>
      <trkpt lat="47.89779" lon="6.96438">
        <ele>596.15</ele>
        <time>2022-07-31T11:47:51Z</time>
      </trkpt>
      <trkpt lat="47.89777" lon="6.96457">
        <ele>594.23</ele>
        <time>2022-07-31T11:47:52Z</time>
      </trkpt>
      <trkpt lat="47.89777" lon="6.96476">
        <ele>592.79</ele>
        <time>2022-07-31T11:47:53Z</time>
      </trkpt>
      <trkpt lat="47.89778" lon="6.96496">
        <ele>591.83</ele>
        <time>2022-07-31T11:47:54Z</time>
      </trkpt>
      <trkpt lat="47.89779" lon="6.96516">
        <ele>590.39</ele>
        <time>2022-07-31T11:47:55Z</time>
      </trkpt>
      <trkpt lat="47.89783" lon="6.96536">
        <ele>588.95</ele>
        <time>2022-07-31T11:47:56Z</time>
      </trkpt>
      <trkpt lat="47.89787" lon="6.96556">
        <ele>587.5</ele>
        <time>2022-07-31T11:47:57Z</time>
      </trkpt>
      <trkpt lat="47.89798" lon="6.96595">
        <ele>584.62</ele>
        <time>2022-07-31T11:47:59Z</time>
      </trkpt>
      <trkpt lat="47.89806" lon="6.96613">
        <ele>583.18</ele>
        <time>2022-07-31T11:48:00Z</time>
      </trkpt>
      <trkpt lat="47.89814" lon="6.96631">
        <ele>581.73</ele>
        <time>2022-07-31T11:48:01Z</time>
      </trkpt>
      <trkpt lat="47.89832" lon="6.96665">
        <ele>578.37</ele>
        <time>2022-07-31T11:48:03Z</time>
      </trkpt>
      <trkpt lat="47.8984" lon="6.96685">
        <ele>575.97</ele>
        <time>2022-07-31T11:48:04Z</time>
      </trkpt>
      <trkpt lat="47.89845" lon="6.96705">
        <ele>574.04</ele>
        <time>2022-07-31T11:48:05Z</time>
      </trkpt>
      <trkpt lat="47.89848" lon="6.96726">
        <ele>572.12</ele>
        <time>2022-07-31T11:48:06Z</time>
      </trkpt>
      <trkpt lat="47.89852" lon="6.96769">
        <ele>568.28</ele>
        <time>2022-07-31T11:48:08Z</time>
      </trkpt>
      <trkpt lat="47.89858" lon="6.96791">
        <ele>566.35</ele>
        <time>2022-07-31T11:48:09Z</time>
      </trkpt>
      <trkpt lat="47.89865" lon="6.96811">
        <ele>563.95</ele>
        <time>2022-07-31T11:48:10Z</time>
      </trkpt>
      <trkpt lat="47.89879" lon="6.96848">
        <ele>560.11</ele>
        <time>2022-07-31T11:48:12Z</time>
      </trkpt>
      <trkpt lat="47.89891" lon="6.96878">
        <ele>556.26</ele>
        <time>2022-07-31T11:48:14Z</time>
      </trkpt>
      <trkpt lat="47.89899" lon="6.96903">
        <ele>551.93</ele>
        <time>2022-07-31T11:48:16Z</time>
      </trkpt>
      <trkpt lat="47.89904" lon="6.96921">
        <ele>549.53</ele>
        <time>2022-07-31T11:48:18Z</time>
      </trkpt>
      <trkpt lat="47.89904" lon="6.96928">
        <ele>548.57</ele>
        <time>2022-07-31T11:48:19Z</time>
      </trkpt>
      <trkpt lat="47.89904" lon="6.96934">
        <ele>547.61</ele>
        <time>2022-07-31T11:48:20Z</time>
      </trkpt>
      <trkpt lat="47.89903" lon="6.96939">
        <ele>547.13</ele>
        <time>2022-07-31T11:48:21Z</time>
      </trkpt>
      <trkpt lat="47.89901" lon="6.96943">
        <ele>546.17</ele>
        <time>2022-07-31T11:48:22Z</time>
      </trkpt>
      <trkpt lat="47.89898" lon="6.96946">
        <ele>545.69</ele>
        <time>2022-07-31T11:48:23Z</time>
      </trkpt>
      <trkpt lat="47.89895" lon="6.96949">
        <ele>545.2</ele>
        <time>2022-07-31T11:48:24Z</time>
      </trkpt>
      <trkpt lat="47.89892" lon="6.96951">
        <ele>544.24</ele>
        <time>2022-07-31T11:48:25Z</time>
      </trkpt>
      <trkpt lat="47.89889" lon="6.96954">
        <ele>543.76</ele>
        <time>2022-07-31T11:48:26Z</time>
      </trkpt>
      <trkpt lat="47.89885" lon="6.96958">
        <ele>542.8</ele>
        <time>2022-07-31T11:48:27Z</time>
      </trkpt>
      <trkpt lat="47.89882" lon="6.96961">
        <ele>542.32</ele>
        <time>2022-07-31T11:48:28Z</time>
      </trkpt>
      <trkpt lat="47.89878" lon="6.96966">
        <ele>541.36</ele>
        <time>2022-07-31T11:48:29Z</time>
      </trkpt>
      <trkpt lat="47.89875" lon="6.96971">
        <ele>540.4</ele>
        <time>2022-07-31T11:48:30Z</time>
      </trkpt>
      <trkpt lat="47.89872" lon="6.96976">
        <ele>539.92</ele>
        <time>2022-07-31T11:48:31Z</time>
      </trkpt>
      <trkpt lat="47.89861" lon="6.96998">
        <ele>537.03</ele>
        <time>2022-07-31T11:48:36Z</time>
      </trkpt>
      <trkpt lat="47.89859" lon="6.97003">
        <ele>536.07</ele>
        <time>2022-07-31T11:48:37Z</time>
      </trkpt>
      <trkpt lat="47.89855" lon="6.97015">
        <ele>534.15</ele>
        <time>2022-07-31T11:48:39Z</time>
      </trkpt>
      <trkpt lat="47.89853" lon="6.97021">
        <ele>533.67</ele>
        <time>2022-07-31T11:48:40Z</time>
      </trkpt>
      <trkpt lat="47.8985" lon="6.97026">
        <ele>533.19</ele>
        <time>2022-07-31T11:48:41Z</time>
      </trkpt>
      <trkpt lat="47.89839" lon="6.9706">
        <ele>529.34</ele>
        <time>2022-07-31T11:48:46Z</time>
      </trkpt>
      <trkpt lat="47.89831" lon="6.97088">
        <ele>525.98</ele>
        <time>2022-07-31T11:48:51Z</time>
      </trkpt>
      <trkpt lat="47.89825" lon="6.97112">
        <ele>524.06</ele>
        <time>2022-07-31T11:48:55Z</time>
      </trkpt>
      <trkpt lat="47.89821" lon="6.97133">
        <ele>522.13</ele>
        <time>2022-07-31T11:48:58Z</time>
      </trkpt>
      <trkpt lat="47.8982" lon="6.9714">
        <ele>521.17</ele>
        <time>2022-07-31T11:48:59Z</time>
      </trkpt>
      <trkpt lat="47.89819" lon="6.97147">
        <ele>521.17</ele>
        <time>2022-07-31T11:49:00Z</time>
      </trkpt>
      <trkpt lat="47.8982" lon="6.97154">
        <ele>519.73</ele>
        <time>2022-07-31T11:49:01Z</time>
      </trkpt>
      <trkpt lat="47.89821" lon="6.97161">
        <ele>518.77</ele>
        <time>2022-07-31T11:49:02Z</time>
      </trkpt>
      <trkpt lat="47.89822" lon="6.97166">
        <ele>517.81</ele>
        <time>2022-07-31T11:49:03Z</time>
      </trkpt>
      <trkpt lat="47.89824" lon="6.97172">
        <ele>516.85</ele>
        <time>2022-07-31T11:49:04Z</time>
      </trkpt>
      <trkpt lat="47.89834" lon="6.97204">
        <ele>513</ele>
        <time>2022-07-31T11:49:09Z</time>
      </trkpt>
      <trkpt lat="47.89835" lon="6.97211">
        <ele>512.52</ele>
        <time>2022-07-31T11:49:10Z</time>
      </trkpt>
      <trkpt lat="47.89836" lon="6.97218">
        <ele>512.04</ele>
        <time>2022-07-31T11:49:11Z</time>
      </trkpt>
      <trkpt lat="47.89836" lon="6.97225">
        <ele>511.08</ele>
        <time>2022-07-31T11:49:12Z</time>
      </trkpt>
      <trkpt lat="47.89838" lon="6.9724">
        <ele>510.12</ele>
        <time>2022-07-31T11:49:14Z</time>
      </trkpt>
      <trkpt lat="47.89839" lon="6.97246">
        <ele>510.12</ele>
        <time>2022-07-31T11:49:15Z</time>
      </trkpt>
      <trkpt lat="47.89841" lon="6.97253">
        <ele>509.64</ele>
        <time>2022-07-31T11:49:16Z</time>
      </trkpt>
      <trkpt lat="47.89843" lon="6.97259">
        <ele>509.16</ele>
        <time>2022-07-31T11:49:17Z</time>
      </trkpt>
      <trkpt lat="47.89845" lon="6.97265">
        <ele>508.67</ele>
        <time>2022-07-31T11:49:18Z</time>
      </trkpt>
      <trkpt lat="47.89848" lon="6.9727">
        <ele>508.67</ele>
        <time>2022-07-31T11:49:19Z</time>
      </trkpt>
      <trkpt lat="47.89851" lon="6.97274">
        <ele>508.19</ele>
        <time>2022-07-31T11:49:20Z</time>
      </trkpt>
      <trkpt lat="47.89855" lon="6.97277">
        <ele>508.19</ele>
        <time>2022-07-31T11:49:21Z</time>
      </trkpt>
      <trkpt lat="47.89859" lon="6.9728">
        <ele>507.71</ele>
        <time>2022-07-31T11:49:22Z</time>
      </trkpt>
      <trkpt lat="47.89863" lon="6.97282">
        <ele>506.75</ele>
        <time>2022-07-31T11:49:23Z</time>
      </trkpt>
      <trkpt lat="47.89866" lon="6.97286">
        <ele>506.27</ele>
        <time>2022-07-31T11:49:24Z</time>
      </trkpt>
      <trkpt lat="47.89882" lon="6.97304">
        <ele>502.43</ele>
        <time>2022-07-31T11:49:28Z</time>
      </trkpt>
      <trkpt lat="47.89898" lon="6.97326">
        <ele>499.06</ele>
        <time>2022-07-31T11:49:33Z</time>
      </trkpt>
      <trkpt lat="47.899" lon="6.97342">
        <ele>497.14</ele>
        <time>2022-07-31T11:49:36Z</time>
      </trkpt>
      <trkpt lat="47.89899" lon="6.97348">
        <ele>496.18</ele>
        <time>2022-07-31T11:49:37Z</time>
      </trkpt>
      <trkpt lat="47.89892" lon="6.97376">
        <ele>493.77</ele>
        <time>2022-07-31T11:49:41Z</time>
      </trkpt>
      <trkpt lat="47.89891" lon="6.97384">
        <ele>493.29</ele>
        <time>2022-07-31T11:49:42Z</time>
      </trkpt>
      <trkpt lat="47.89888" lon="6.974">
        <ele>491.85</ele>
        <time>2022-07-31T11:49:44Z</time>
      </trkpt>
      <trkpt lat="47.89886" lon="6.97408">
        <ele>491.37</ele>
        <time>2022-07-31T11:49:45Z</time>
      </trkpt>
      <trkpt lat="47.89883" lon="6.97415">
        <ele>490.89</ele>
        <time>2022-07-31T11:49:46Z</time>
      </trkpt>
      <trkpt lat="47.89863" lon="6.97467">
        <ele>487.53</ele>
        <time>2022-07-31T11:49:53Z</time>
      </trkpt>
      <trkpt lat="47.89844" lon="6.97522">
        <ele>485.6</ele>
        <time>2022-07-31T11:50:00Z</time>
      </trkpt>
      <trkpt lat="47.89834" lon="6.97599">
        <ele>482.72</ele>
        <time>2022-07-31T11:50:09Z</time>
      </trkpt>
      <trkpt lat="47.89825" lon="6.97669">
        <ele>479.35</ele>
        <time>2022-07-31T11:50:17Z</time>
      </trkpt>
      <trkpt lat="47.89821" lon="6.97685">
        <ele>478.87</ele>
        <time>2022-07-31T11:50:19Z</time>
      </trkpt>
      <trkpt lat="47.89819" lon="6.97692">
        <ele>478.39</ele>
        <time>2022-07-31T11:50:20Z</time>
      </trkpt>
      <trkpt lat="47.89815" lon="6.97699">
        <ele>478.39</ele>
        <time>2022-07-31T11:50:21Z</time>
      </trkpt>
      <trkpt lat="47.89794" lon="6.97732">
        <ele>476.95</ele>
        <time>2022-07-31T11:50:26Z</time>
      </trkpt>
      <trkpt lat="47.8979" lon="6.97739">
        <ele>476.47</ele>
        <time>2022-07-31T11:50:27Z</time>
      </trkpt>
      <trkpt lat="47.89773" lon="6.97765">
        <ele>475.51</ele>
        <time>2022-07-31T11:50:31Z</time>
      </trkpt>
      <trkpt lat="47.89755" lon="6.97788">
        <ele>475.03</ele>
        <time>2022-07-31T11:50:35Z</time>
      </trkpt>
      <trkpt lat="47.89739" lon="6.97836">
        <ele>474.55</ele>
        <time>2022-07-31T11:50:45Z</time>
      </trkpt>
      <trkpt lat="47.89742" lon="6.97894">
        <ele>474.07</ele>
        <time>2022-07-31T11:50:55Z</time>
      </trkpt>
      <trkpt lat="47.89729" lon="6.9795">
        <ele>473.59</ele>
        <time>2022-07-31T11:51:04Z</time>
      </trkpt>
      <trkpt lat="47.89727" lon="6.97955">
        <ele>473.59</ele>
        <time>2022-07-31T11:51:05Z</time>
      </trkpt>
      <trkpt lat="47.89724" lon="6.9796">
        <ele>473.59</ele>
        <time>2022-07-31T11:51:06Z</time>
      </trkpt>
      <trkpt lat="47.89693" lon="6.9804">
        <ele>472.63</ele>
        <time>2022-07-31T11:51:20Z</time>
      </trkpt>
      <trkpt lat="47.8966" lon="6.9814">
        <ele>471.18</ele>
        <time>2022-07-31T11:51:36Z</time>
      </trkpt>
      <trkpt lat="47.8965" lon="6.98167">
        <ele>471.18</ele>
        <time>2022-07-31T11:51:41Z</time>
      </trkpt>
      <trkpt lat="47.89648" lon="6.98173">
        <ele>471.18</ele>
        <time>2022-07-31T11:51:42Z</time>
      </trkpt>
      <trkpt lat="47.89646" lon="6.98179">
        <ele>470.7</ele>
        <time>2022-07-31T11:51:43Z</time>
      </trkpt>
      <trkpt lat="47.89614" lon="6.98268">
        <ele>469.74</ele>
        <time>2022-07-31T11:51:59Z</time>
      </trkpt>
      <trkpt lat="47.89612" lon="6.98273">
        <ele>469.74</ele>
        <time>2022-07-31T11:52:01Z</time>
      </trkpt>
      <trkpt lat="47.89612" lon="6.98275">
        <ele>469.74</ele>
        <time>2022-07-31T11:52:02Z</time>
      </trkpt>
      <trkpt lat="47.89612" lon="6.98278">
        <ele>469.74</ele>
        <time>2022-07-31T11:52:03Z</time>
      </trkpt>
      <trkpt lat="47.89613" lon="6.9828">
        <ele>470.22</ele>
        <time>2022-07-31T11:52:04Z</time>
      </trkpt>
      <trkpt lat="47.89613" lon="6.98284">
        <ele>470.22</ele>
        <time>2022-07-31T11:52:05Z</time>
      </trkpt>
      <trkpt lat="47.89626" lon="6.98331">
        <ele>471.18</ele>
        <time>2022-07-31T11:52:17Z</time>
      </trkpt>
      <trkpt lat="47.8965" lon="6.9839">
        <ele>471.66</ele>
        <time>2022-07-31T11:52:30Z</time>
      </trkpt>
      <trkpt lat="47.89664" lon="6.98416">
        <ele>471.66</ele>
        <time>2022-07-31T11:52:38Z</time>
      </trkpt>
      <trkpt lat="47.89665" lon="6.98418">
        <ele>471.66</ele>
        <time>2022-07-31T11:52:39Z</time>
      </trkpt>
      <trkpt lat="47.89666" lon="6.98422">
        <ele>471.66</ele>
        <time>2022-07-31T11:52:42Z</time>
      </trkpt>
      <trkpt lat="47.89686" lon="6.98453">
        <ele>471.66</ele>
        <time>2022-07-31T11:52:53Z</time>
      </trkpt>
      <trkpt lat="47.89697" lon="6.98471">
        <ele>471.66</ele>
        <time>2022-07-31T11:53:00Z</time>
      </trkpt>
      <trkpt lat="47.89697" lon="6.98473">
        <ele>471.66</ele>
        <time>2022-07-31T11:53:01Z</time>
      </trkpt>
      <trkpt lat="47.89698" lon="6.98476">
        <ele>472.63</ele>
        <time>2022-07-31T11:53:02Z</time>
      </trkpt>
      <trkpt lat="47.89698" lon="6.98478">
        <ele>471.66</ele>
        <time>2022-07-31T11:53:03Z</time>
      </trkpt>
      <trkpt lat="47.89698" lon="6.98481">
        <ele>471.18</ele>
        <time>2022-07-31T11:53:04Z</time>
      </trkpt>
      <trkpt lat="47.89682" lon="6.98523">
        <ele>471.18</ele>
        <time>2022-07-31T11:53:14Z</time>
      </trkpt>
      <trkpt lat="47.89672" lon="6.98537">
        <ele>470.7</ele>
        <time>2022-07-31T11:53:17Z</time>
      </trkpt>
      <trkpt lat="47.89616" lon="6.98616">
        <ele>469.74</ele>
        <time>2022-07-31T11:53:33Z</time>
      </trkpt>
      <trkpt lat="47.89559" lon="6.98679">
        <ele>468.78</ele>
        <time>2022-07-31T11:53:47Z</time>
      </trkpt>
      <trkpt lat="47.89554" lon="6.98681">
        <ele>468.78</ele>
        <time>2022-07-31T11:53:48Z</time>
      </trkpt>
      <trkpt lat="47.89546" lon="6.98686">
        <ele>468.78</ele>
        <time>2022-07-31T11:53:50Z</time>
      </trkpt>
      <trkpt lat="47.89537" lon="6.98692">
        <ele>468.3</ele>
        <time>2022-07-31T11:53:52Z</time>
      </trkpt>
      <trkpt lat="47.89533" lon="6.98695">
        <ele>468.78</ele>
        <time>2022-07-31T11:53:53Z</time>
      </trkpt>
      <trkpt lat="47.89529" lon="6.98698">
        <ele>468.3</ele>
        <time>2022-07-31T11:53:54Z</time>
      </trkpt>
      <trkpt lat="47.89498" lon="6.98725">
        <ele>467.82</ele>
        <time>2022-07-31T11:54:06Z</time>
      </trkpt>
      <trkpt lat="47.89497" lon="6.98726">
        <ele>467.82</ele>
        <time>2022-07-31T11:54:19Z</time>
      </trkpt>
      <trkpt lat="47.89497" lon="6.98726">
        <ele>467.82</ele>
        <time>2022-07-31T11:54:23Z</time>
      </trkpt>
      <trkpt lat="47.89495" lon="6.98726">
        <ele>467.82</ele>
        <time>2022-07-31T11:54:24Z</time>
      </trkpt>
      <trkpt lat="47.89494" lon="6.98725">
        <ele>467.82</ele>
        <time>2022-07-31T11:54:25Z</time>
      </trkpt>
      <trkpt lat="47.89492" lon="6.98724">
        <ele>467.82</ele>
        <time>2022-07-31T11:54:26Z</time>
      </trkpt>
      <trkpt lat="47.8949" lon="6.98722">
        <ele>467.82</ele>
        <time>2022-07-31T11:54:27Z</time>
      </trkpt>
      <trkpt lat="47.89459" lon="6.98671">
        <ele>467.82</ele>
        <time>2022-07-31T11:54:40Z</time>
      </trkpt>
      <trkpt lat="47.89414" lon="6.98609">
        <ele>467.34</ele>
        <time>2022-07-31T11:54:57Z</time>
      </trkpt>
      <trkpt lat="47.89406" lon="6.98598">
        <ele>467.34</ele>
        <time>2022-07-31T11:55:01Z</time>
      </trkpt>
      <trkpt lat="47.89404" lon="6.98583">
        <ele>467.34</ele>
        <time>2022-07-31T11:55:07Z</time>
      </trkpt>
      <trkpt lat="47.89403" lon="6.98583">
        <ele>466.86</ele>
        <time>2022-07-31T11:55:08Z</time>
      </trkpt>
      <trkpt lat="47.89403" lon="6.98583">
        <ele>466.86</ele>
        <time>2022-07-31T11:55:09Z</time>
      </trkpt>
      <trkpt lat="47.89402" lon="6.98584">
        <ele>466.86</ele>
        <time>2022-07-31T11:55:10Z</time>
      </trkpt>
      <trkpt lat="47.89402" lon="6.98586">
        <ele>466.86</ele>
        <time>2022-07-31T11:55:11Z</time>
      </trkpt>
      <trkpt lat="47.89402" lon="6.98588">
        <ele>466.86</ele>
        <time>2022-07-31T11:55:12Z</time>
      </trkpt>
      <trkpt lat="47.89403" lon="6.98589">
        <ele>466.86</ele>
        <time>2022-07-31T11:55:13Z</time>
      </trkpt>
      <trkpt lat="47.89404" lon="6.9859">
        <ele>466.86</ele>
        <time>2022-07-31T11:55:14Z</time>
      </trkpt>
      <trkpt lat="47.89405" lon="6.9859">
        <ele>466.86</ele>
        <time>2022-07-31T11:55:15Z</time>
      </trkpt>
      <trkpt lat="47.89407" lon="6.98591">
        <ele>466.86</ele>
        <time>2022-07-31T11:55:16Z</time>
      </trkpt>
      <trkpt lat="47.89408" lon="6.98593">
        <ele>466.86</ele>
        <time>2022-07-31T11:55:17Z</time>
      </trkpt>
      <trkpt lat="47.89409" lon="6.98596">
        <ele>466.86</ele>
        <time>2022-07-31T11:55:18Z</time>
      </trkpt>
      <trkpt lat="47.89432" lon="6.98634">
        <ele>466.86</ele>
        <time>2022-07-31T11:55:30Z</time>
      </trkpt>
      <trkpt lat="47.89476" lon="6.987">
        <ele>467.34</ele>
        <time>2022-07-31T11:55:47Z</time>
      </trkpt>
      <trkpt lat="47.89501" lon="6.98732">
        <ele>466.86</ele>
        <time>2022-07-31T11:55:59Z</time>
      </trkpt>
      <trkpt lat="47.89502" lon="6.98731">
        <ele>466.86</ele>
        <time>2022-07-31T11:56:00Z</time>
      </trkpt>
      <trkpt lat="47.89504" lon="6.98729">
        <ele>466.86</ele>
        <time>2022-07-31T11:56:01Z</time>
      </trkpt>
      <trkpt lat="47.89506" lon="6.98727">
        <ele>466.86</ele>
        <time>2022-07-31T11:56:02Z</time>
      </trkpt>
      <trkpt lat="47.89508" lon="6.98724">
        <ele>466.86</ele>
        <time>2022-07-31T11:56:03Z</time>
      </trkpt>
      <trkpt lat="47.89511" lon="6.98722">
        <ele>466.86</ele>
        <time>2022-07-31T11:56:04Z</time>
      </trkpt>
      <trkpt lat="47.89557" lon="6.98688">
        <ele>466.86</ele>
        <time>2022-07-31T11:56:19Z</time>
      </trkpt>
      <trkpt lat="47.89567" lon="6.98684">
        <ele>466.86</ele>
        <time>2022-07-31T11:56:30Z</time>
      </trkpt>
      <trkpt lat="47.89568" lon="6.98682">
        <ele>466.86</ele>
        <time>2022-07-31T11:56:51Z</time>
      </trkpt>
      <trkpt lat="47.89569" lon="6.98681">
        <ele>466.86</ele>
        <time>2022-07-31T11:56:52Z</time>
      </trkpt>
      <trkpt lat="47.8957" lon="6.98679">
        <ele>466.86</ele>
        <time>2022-07-31T11:56:53Z</time>
      </trkpt>
      <trkpt lat="47.89606" lon="6.98637">
        <ele>467.34</ele>
        <time>2022-07-31T11:57:07Z</time>
      </trkpt>
      <trkpt lat="47.89638" lon="6.98595">
        <ele>467.82</ele>
        <time>2022-07-31T11:57:21Z</time>
      </trkpt>
      <trkpt lat="47.89677" lon="6.98541">
        <ele>467.82</ele>
        <time>2022-07-31T11:57:38Z</time>
      </trkpt>
      <trkpt lat="47.89698" lon="6.98477">
        <ele>468.3</ele>
        <time>2022-07-31T11:57:54Z</time>
      </trkpt>
      <trkpt lat="47.89672" lon="6.98425">
        <ele>468.3</ele>
        <time>2022-07-31T11:58:06Z</time>
      </trkpt>
      <trkpt lat="47.89665" lon="6.98411">
        <ele>467.82</ele>
        <time>2022-07-31T11:58:09Z</time>
      </trkpt>
      <trkpt lat="47.89656" lon="6.98397">
        <ele>468.3</ele>
        <time>2022-07-31T11:58:12Z</time>
      </trkpt>
      <trkpt lat="47.89622" lon="6.98324">
        <ele>466.86</ele>
        <time>2022-07-31T11:58:26Z</time>
      </trkpt>
      <trkpt lat="47.89619" lon="6.98312">
        <ele>466.86</ele>
        <time>2022-07-31T11:58:28Z</time>
      </trkpt>
      <trkpt lat="47.89614" lon="6.98286">
        <ele>466.38</ele>
        <time>2022-07-31T11:58:32Z</time>
      </trkpt>
      <trkpt lat="47.89612" lon="6.9828">
        <ele>465.9</ele>
        <time>2022-07-31T11:58:33Z</time>
      </trkpt>
      <trkpt lat="47.89609" lon="6.98274">
        <ele>465.9</ele>
        <time>2022-07-31T11:58:34Z</time>
      </trkpt>
      <trkpt lat="47.89605" lon="6.9827">
        <ele>465.42</ele>
        <time>2022-07-31T11:58:35Z</time>
      </trkpt>
      <trkpt lat="47.896" lon="6.98267">
        <ele>465.42</ele>
        <time>2022-07-31T11:58:36Z</time>
      </trkpt>
      <trkpt lat="47.89581" lon="6.98257">
        <ele>465.42</ele>
        <time>2022-07-31T11:58:40Z</time>
      </trkpt>
      <trkpt lat="47.89558" lon="6.98242">
        <ele>464.93</ele>
        <time>2022-07-31T11:58:45Z</time>
      </trkpt>
      <trkpt lat="47.89536" lon="6.98218">
        <ele>464.93</ele>
        <time>2022-07-31T11:58:51Z</time>
      </trkpt>
      <trkpt lat="47.89528" lon="6.98211">
        <ele>464.45</ele>
        <time>2022-07-31T11:58:53Z</time>
      </trkpt>
      <trkpt lat="47.89523" lon="6.98209">
        <ele>464.45</ele>
        <time>2022-07-31T11:58:54Z</time>
      </trkpt>
      <trkpt lat="47.89519" lon="6.98208">
        <ele>464.45</ele>
        <time>2022-07-31T11:58:55Z</time>
      </trkpt>
      <trkpt lat="47.89514" lon="6.98208">
        <ele>463.97</ele>
        <time>2022-07-31T11:58:56Z</time>
      </trkpt>
      <trkpt lat="47.89509" lon="6.9821">
        <ele>463.97</ele>
        <time>2022-07-31T11:58:57Z</time>
      </trkpt>
      <trkpt lat="47.89503" lon="6.98211">
        <ele>463.97</ele>
        <time>2022-07-31T11:58:58Z</time>
      </trkpt>
      <trkpt lat="47.89455" lon="6.98219">
        <ele>462.53</ele>
        <time>2022-07-31T11:59:08Z</time>
      </trkpt>
      <trkpt lat="47.89371" lon="6.98236">
        <ele>462.05</ele>
        <time>2022-07-31T11:59:24Z</time>
      </trkpt>
      <trkpt lat="47.89314" lon="6.98246">
        <ele>462.53</ele>
        <time>2022-07-31T11:59:35Z</time>
      </trkpt>
      <trkpt lat="47.8931" lon="6.98245">
        <ele>462.53</ele>
        <time>2022-07-31T11:59:36Z</time>
      </trkpt>
      <trkpt lat="47.89298" lon="6.98243">
        <ele>462.53</ele>
        <time>2022-07-31T11:59:39Z</time>
      </trkpt>
      <trkpt lat="47.89294" lon="6.9824">
        <ele>462.53</ele>
        <time>2022-07-31T11:59:40Z</time>
      </trkpt>
      <trkpt lat="47.89245" lon="6.98191">
        <ele>463.49</ele>
        <time>2022-07-31T11:59:57Z</time>
      </trkpt>
      <trkpt lat="47.89201" lon="6.98169">
        <ele>464.93</ele>
        <time>2022-07-31T12:00:11Z</time>
      </trkpt>
      <trkpt lat="47.89179" lon="6.98164">
        <ele>464.93</ele>
        <time>2022-07-31T12:00:19Z</time>
      </trkpt>
      <trkpt lat="47.89175" lon="6.98158">
        <ele>464.93</ele>
        <time>2022-07-31T12:00:31Z</time>
      </trkpt>
      <trkpt lat="47.89176" lon="6.98159">
        <ele>465.42</ele>
        <time>2022-07-31T12:00:50Z</time>
      </trkpt>
      <trkpt lat="47.89174" lon="6.98157">
        <ele>465.42</ele>
        <time>2022-07-31T12:00:51Z</time>
      </trkpt>
      <trkpt lat="47.89172" lon="6.98157">
        <ele>465.42</ele>
        <time>2022-07-31T12:00:52Z</time>
      </trkpt>
      <trkpt lat="47.8917" lon="6.98158">
        <ele>465.42</ele>
        <time>2022-07-31T12:00:53Z</time>
      </trkpt>
      <trkpt lat="47.89168" lon="6.98159">
        <ele>465.42</ele>
        <time>2022-07-31T12:00:54Z</time>
      </trkpt>
      <trkpt lat="47.89167" lon="6.9816">
        <ele>465.42</ele>
        <time>2022-07-31T12:00:55Z</time>
      </trkpt>
      <trkpt lat="47.89165" lon="6.98162">
        <ele>465.42</ele>
        <time>2022-07-31T12:00:56Z</time>
      </trkpt>
      <trkpt lat="47.89163" lon="6.98164">
        <ele>465.42</ele>
        <time>2022-07-31T12:00:57Z</time>
      </trkpt>
      <trkpt lat="47.89161" lon="6.98166">
        <ele>465.42</ele>
        <time>2022-07-31T12:00:58Z</time>
      </trkpt>
      <trkpt lat="47.89159" lon="6.98168">
        <ele>465.42</ele>
        <time>2022-07-31T12:00:59Z</time>
      </trkpt>
      <trkpt lat="47.89157" lon="6.98169">
        <ele>464.93</ele>
        <time>2022-07-31T12:01:00Z</time>
      </trkpt>
      <trkpt lat="47.89155" lon="6.98169">
        <ele>464.93</ele>
        <time>2022-07-31T12:01:01Z</time>
      </trkpt>
      <trkpt lat="47.89153" lon="6.98169">
        <ele>464.93</ele>
        <time>2022-07-31T12:01:02Z</time>
      </trkpt>
      <trkpt lat="47.89151" lon="6.98169">
        <ele>465.42</ele>
        <time>2022-07-31T12:01:03Z</time>
      </trkpt>
      <trkpt lat="47.89148" lon="6.98169">
        <ele>466.38</ele>
        <time>2022-07-31T12:01:05Z</time>
      </trkpt>
      <trkpt lat="47.89147" lon="6.98171">
        <ele>465.42</ele>
        <time>2022-07-31T12:01:06Z</time>
      </trkpt>
      <trkpt lat="47.89145" lon="6.98173">
        <ele>464.93</ele>
        <time>2022-07-31T12:01:07Z</time>
      </trkpt>
      <trkpt lat="47.89145" lon="6.98177">
        <ele>464.93</ele>
        <time>2022-07-31T12:01:08Z</time>
      </trkpt>
      <trkpt lat="47.89145" lon="6.9818">
        <ele>464.93</ele>
        <time>2022-07-31T12:01:09Z</time>
      </trkpt>
      <trkpt lat="47.89146" lon="6.98182">
        <ele>464.93</ele>
        <time>2022-07-31T12:01:10Z</time>
      </trkpt>
      <trkpt lat="47.89148" lon="6.98182">
        <ele>464.93</ele>
        <time>2022-07-31T12:01:11Z</time>
      </trkpt>
      <trkpt lat="47.89149" lon="6.98181">
        <ele>464.93</ele>
        <time>2022-07-31T12:01:12Z</time>
      </trkpt>
      <trkpt lat="47.89151" lon="6.98179">
        <ele>464.93</ele>
        <time>2022-07-31T12:01:13Z</time>
      </trkpt>
      <trkpt lat="47.89153" lon="6.98177">
        <ele>464.93</ele>
        <time>2022-07-31T12:01:14Z</time>
      </trkpt>
      <trkpt lat="47.89155" lon="6.98176">
        <ele>464.93</ele>
        <time>2022-07-31T12:01:15Z</time>
      </trkpt>
      <trkpt lat="47.89157" lon="6.98176">
        <ele>464.93</ele>
        <time>2022-07-31T12:01:16Z</time>
      </trkpt>
      <trkpt lat="47.89159" lon="6.98175">
        <ele>464.93</ele>
        <time>2022-07-31T12:01:17Z</time>
      </trkpt>
      <trkpt lat="47.89161" lon="6.98174">
        <ele>464.93</ele>
        <time>2022-07-31T12:01:18Z</time>
      </trkpt>
      <trkpt lat="47.89163" lon="6.98173">
        <ele>464.93</ele>
        <time>2022-07-31T12:01:19Z</time>
      </trkpt>
      <trkpt lat="47.89172" lon="6.98153">
        <ele>464.93</ele>
        <time>2022-07-31T12:01:27Z</time>
      </trkpt>
      <trkpt lat="47.89167" lon="6.98093">
        <ele>465.9</ele>
        <time>2022-07-31T12:01:37Z</time>
      </trkpt>
      <trkpt lat="47.89149" lon="6.97978">
        <ele>468.78</ele>
        <time>2022-07-31T12:01:55Z</time>
      </trkpt>
      <trkpt lat="47.8913" lon="6.97858">
        <ele>471.18</ele>
        <time>2022-07-31T12:02:15Z</time>
      </trkpt>
      <trkpt lat="47.89125" lon="6.97827">
        <ele>472.14</ele>
        <time>2022-07-31T12:02:20Z</time>
      </trkpt>
      <trkpt lat="47.89111" lon="6.9774">
        <ele>472.63</ele>
        <time>2022-07-31T12:02:35Z</time>
      </trkpt>
      <trkpt lat="47.89089" lon="6.97681">
        <ele>472.63</ele>
        <time>2022-07-31T12:02:48Z</time>
      </trkpt>
      <trkpt lat="47.89085" lon="6.9768">
        <ele>472.63</ele>
        <time>2022-07-31T12:02:50Z</time>
      </trkpt>
      <trkpt lat="47.89083" lon="6.9768">
        <ele>472.63</ele>
        <time>2022-07-31T12:02:51Z</time>
      </trkpt>
      <trkpt lat="47.89082" lon="6.97679">
        <ele>472.14</ele>
        <time>2022-07-31T12:02:52Z</time>
      </trkpt>
      <trkpt lat="47.8908" lon="6.97679">
        <ele>472.63</ele>
        <time>2022-07-31T12:02:53Z</time>
      </trkpt>
      <trkpt lat="47.89077" lon="6.97679">
        <ele>472.63</ele>
        <time>2022-07-31T12:02:54Z</time>
      </trkpt>
      <trkpt lat="47.89075" lon="6.97679">
        <ele>473.11</ele>
        <time>2022-07-31T12:02:55Z</time>
      </trkpt>
      <trkpt lat="47.8907" lon="6.9768">
        <ele>474.55</ele>
        <time>2022-07-31T12:02:58Z</time>
      </trkpt>
      <trkpt lat="47.89066" lon="6.97687">
        <ele>474.55</ele>
        <time>2022-07-31T12:03:01Z</time>
      </trkpt>
      <trkpt lat="47.89066" lon="6.9769">
        <ele>474.55</ele>
        <time>2022-07-31T12:03:02Z</time>
      </trkpt>
      <trkpt lat="47.89067" lon="6.97694">
        <ele>474.55</ele>
        <time>2022-07-31T12:03:03Z</time>
      </trkpt>
      <trkpt lat="47.89068" lon="6.97698">
        <ele>475.03</ele>
        <time>2022-07-31T12:03:04Z</time>
      </trkpt>
      <trkpt lat="47.89069" lon="6.97702">
        <ele>474.55</ele>
        <time>2022-07-31T12:03:05Z</time>
      </trkpt>
      <trkpt lat="47.89074" lon="6.97734">
        <ele>475.03</ele>
        <time>2022-07-31T12:03:11Z</time>
      </trkpt>
      <trkpt lat="47.89074" lon="6.9774">
        <ele>475.03</ele>
        <time>2022-07-31T12:03:12Z</time>
      </trkpt>
      <trkpt lat="47.89075" lon="6.97752">
        <ele>475.03</ele>
        <time>2022-07-31T12:03:14Z</time>
      </trkpt>
      <trkpt lat="47.89077" lon="6.97764">
        <ele>475.03</ele>
        <time>2022-07-31T12:03:16Z</time>
      </trkpt>
      <trkpt lat="47.89083" lon="6.97835">
        <ele>475.03</ele>
        <time>2022-07-31T12:03:27Z</time>
      </trkpt>
      <trkpt lat="47.89082" lon="6.9789">
        <ele>474.07</ele>
        <time>2022-07-31T12:03:35Z</time>
      </trkpt>
      <trkpt lat="47.89082" lon="6.97898">
        <ele>474.07</ele>
        <time>2022-07-31T12:03:36Z</time>
      </trkpt>
      <trkpt lat="47.89088" lon="6.98009">
        <ele>472.63</ele>
        <time>2022-07-31T12:03:50Z</time>
      </trkpt>
      <trkpt lat="47.89085" lon="6.98056">
        <ele>471.66</ele>
        <time>2022-07-31T12:03:56Z</time>
      </trkpt>
      <trkpt lat="47.89052" lon="6.98174">
        <ele>471.18</ele>
        <time>2022-07-31T12:04:11Z</time>
      </trkpt>
      <trkpt lat="47.89028" lon="6.98266">
        <ele>469.74</ele>
        <time>2022-07-31T12:04:23Z</time>
      </trkpt>
      <trkpt lat="47.89" lon="6.98383">
        <ele>469.26</ele>
        <time>2022-07-31T12:04:37Z</time>
      </trkpt>
      <trkpt lat="47.88984" lon="6.98471">
        <ele>467.34</ele>
        <time>2022-07-31T12:04:47Z</time>
      </trkpt>
      <trkpt lat="47.88953" lon="6.98617">
        <ele>464.93</ele>
        <time>2022-07-31T12:05:02Z</time>
      </trkpt>
      <trkpt lat="47.88917" lon="6.98747">
        <ele>463.97</ele>
        <time>2022-07-31T12:05:17Z</time>
      </trkpt>
      <trkpt lat="47.88897" lon="6.98802">
        <ele>463.97</ele>
        <time>2022-07-31T12:05:25Z</time>
      </trkpt>
      <trkpt lat="47.88891" lon="6.98823">
        <ele>463.97</ele>
        <time>2022-07-31T12:05:28Z</time>
      </trkpt>
      <trkpt lat="47.88886" lon="6.98859">
        <ele>463.49</ele>
        <time>2022-07-31T12:05:33Z</time>
      </trkpt>
      <trkpt lat="47.88881" lon="6.9888">
        <ele>463.49</ele>
        <time>2022-07-31T12:05:36Z</time>
      </trkpt>
      <trkpt lat="47.88875" lon="6.98915">
        <ele>463.49</ele>
        <time>2022-07-31T12:05:41Z</time>
      </trkpt>
      <trkpt lat="47.88871" lon="6.98928">
        <ele>463.01</ele>
        <time>2022-07-31T12:05:43Z</time>
      </trkpt>
      <trkpt lat="47.88861" lon="6.9895">
        <ele>463.49</ele>
        <time>2022-07-31T12:05:47Z</time>
      </trkpt>
      <trkpt lat="47.88858" lon="6.98954">
        <ele>463.49</ele>
        <time>2022-07-31T12:05:48Z</time>
      </trkpt>
      <trkpt lat="47.8883" lon="6.98982">
        <ele>463.97</ele>
        <time>2022-07-31T12:05:56Z</time>
      </trkpt>
      <trkpt lat="47.88784" lon="6.99">
        <ele>464.45</ele>
        <time>2022-07-31T12:06:09Z</time>
      </trkpt>
      <trkpt lat="47.88763" lon="6.99007">
        <ele>463.97</ele>
        <time>2022-07-31T12:06:14Z</time>
      </trkpt>
      <trkpt lat="47.88758" lon="6.99008">
        <ele>463.97</ele>
        <time>2022-07-31T12:06:15Z</time>
      </trkpt>
      <trkpt lat="47.88754" lon="6.99009">
        <ele>463.49</ele>
        <time>2022-07-31T12:06:16Z</time>
      </trkpt>
      <trkpt lat="47.88749" lon="6.99012">
        <ele>463.49</ele>
        <time>2022-07-31T12:06:17Z</time>
      </trkpt>
      <trkpt lat="47.88745" lon="6.99014">
        <ele>463.49</ele>
        <time>2022-07-31T12:06:18Z</time>
      </trkpt>
      <trkpt lat="47.8874" lon="6.99016">
        <ele>463.01</ele>
        <time>2022-07-31T12:06:19Z</time>
      </trkpt>
      <trkpt lat="47.88708" lon="6.99027">
        <ele>461.09</ele>
        <time>2022-07-31T12:06:25Z</time>
      </trkpt>
      <trkpt lat="47.88704" lon="6.9903">
        <ele>460.61</ele>
        <time>2022-07-31T12:06:26Z</time>
      </trkpt>
      <trkpt lat="47.88668" lon="6.99064">
        <ele>457.24</ele>
        <time>2022-07-31T12:06:35Z</time>
      </trkpt>
      <trkpt lat="47.8864" lon="6.99087">
        <ele>454.84</ele>
        <time>2022-07-31T12:06:44Z</time>
      </trkpt>
      <trkpt lat="47.88603" lon="6.99117">
        <ele>456.76</ele>
        <time>2022-07-31T12:06:57Z</time>
      </trkpt>
      <trkpt lat="47.88567" lon="6.99148">
        <ele>458.69</ele>
        <time>2022-07-31T12:07:11Z</time>
      </trkpt>
      <trkpt lat="47.88525" lon="6.992">
        <ele>458.69</ele>
        <time>2022-07-31T12:07:25Z</time>
      </trkpt>
      <trkpt lat="47.88522" lon="6.99204">
        <ele>458.69</ele>
        <time>2022-07-31T12:07:26Z</time>
      </trkpt>
      <trkpt lat="47.88519" lon="6.99208">
        <ele>458.69</ele>
        <time>2022-07-31T12:07:27Z</time>
      </trkpt>
      <trkpt lat="47.88516" lon="6.99212">
        <ele>458.69</ele>
        <time>2022-07-31T12:07:28Z</time>
      </trkpt>
      <trkpt lat="47.88513" lon="6.99216">
        <ele>458.21</ele>
        <time>2022-07-31T12:07:29Z</time>
      </trkpt>
      <trkpt lat="47.88476" lon="6.99294">
        <ele>457.72</ele>
        <time>2022-07-31T12:07:43Z</time>
      </trkpt>
      <trkpt lat="47.88469" lon="6.99311">
        <ele>457.72</ele>
        <time>2022-07-31T12:07:46Z</time>
      </trkpt>
      <trkpt lat="47.88443" lon="6.99357">
        <ele>457.72</ele>
        <time>2022-07-31T12:07:55Z</time>
      </trkpt>
      <trkpt lat="47.88403" lon="6.99389">
        <ele>458.21</ele>
        <time>2022-07-31T12:08:07Z</time>
      </trkpt>
      <trkpt lat="47.88391" lon="6.9939">
        <ele>457.72</ele>
        <time>2022-07-31T12:08:10Z</time>
      </trkpt>
      <trkpt lat="47.88382" lon="6.99388">
        <ele>457.24</ele>
        <time>2022-07-31T12:08:12Z</time>
      </trkpt>
      <trkpt lat="47.88377" lon="6.99389">
        <ele>457.24</ele>
        <time>2022-07-31T12:08:13Z</time>
      </trkpt>
      <trkpt lat="47.88372" lon="6.99389">
        <ele>457.24</ele>
        <time>2022-07-31T12:08:14Z</time>
      </trkpt>
      <trkpt lat="47.88348" lon="6.9939">
        <ele>455.32</ele>
        <time>2022-07-31T12:08:19Z</time>
      </trkpt>
      <trkpt lat="47.88343" lon="6.99392">
        <ele>455.32</ele>
        <time>2022-07-31T12:08:20Z</time>
      </trkpt>
      <trkpt lat="47.88339" lon="6.99395">
        <ele>454.84</ele>
        <time>2022-07-31T12:08:21Z</time>
      </trkpt>
      <trkpt lat="47.88301" lon="6.99419">
        <ele>452.44</ele>
        <time>2022-07-31T12:08:32Z</time>
      </trkpt>
      <trkpt lat="47.88298" lon="6.99422">
        <ele>452.44</ele>
        <time>2022-07-31T12:08:33Z</time>
      </trkpt>
      <trkpt lat="47.88272" lon="6.99445">
        <ele>452.92</ele>
        <time>2022-07-31T12:08:41Z</time>
      </trkpt>
      <trkpt lat="47.88268" lon="6.99448">
        <ele>452.92</ele>
        <time>2022-07-31T12:08:42Z</time>
      </trkpt>
      <trkpt lat="47.88222" lon="6.99494">
        <ele>452.44</ele>
        <time>2022-07-31T12:08:54Z</time>
      </trkpt>
      <trkpt lat="47.88219" lon="6.99497">
        <ele>452.44</ele>
        <time>2022-07-31T12:08:55Z</time>
      </trkpt>
      <trkpt lat="47.88187" lon="6.99535">
        <ele>452.44</ele>
        <time>2022-07-31T12:09:06Z</time>
      </trkpt>
      <trkpt lat="47.88165" lon="6.99566">
        <ele>451.96</ele>
        <time>2022-07-31T12:09:13Z</time>
      </trkpt>
      <trkpt lat="47.88162" lon="6.99572">
        <ele>451.96</ele>
        <time>2022-07-31T12:09:14Z</time>
      </trkpt>
      <trkpt lat="47.8816" lon="6.99577">
        <ele>451.96</ele>
        <time>2022-07-31T12:09:15Z</time>
      </trkpt>
      <trkpt lat="47.88123" lon="6.99652">
        <ele>452.92</ele>
        <time>2022-07-31T12:09:30Z</time>
      </trkpt>
      <trkpt lat="47.88104" lon="6.99686">
        <ele>451.96</ele>
        <time>2022-07-31T12:09:37Z</time>
      </trkpt>
      <trkpt lat="47.88053" lon="6.99757">
        <ele>449.55</ele>
        <time>2022-07-31T12:09:50Z</time>
      </trkpt>
      <trkpt lat="47.88018" lon="6.99793">
        <ele>449.07</ele>
        <time>2022-07-31T12:09:58Z</time>
      </trkpt>
      <trkpt lat="47.87983" lon="6.99825">
        <ele>449.55</ele>
        <time>2022-07-31T12:10:06Z</time>
      </trkpt>
      <trkpt lat="47.8798" lon="6.9983">
        <ele>449.55</ele>
        <time>2022-07-31T12:10:07Z</time>
      </trkpt>
      <trkpt lat="47.87961" lon="6.99905">
        <ele>448.59</ele>
        <time>2022-07-31T12:10:20Z</time>
      </trkpt>
      <trkpt lat="47.87948" lon="6.99972">
        <ele>448.59</ele>
        <time>2022-07-31T12:10:31Z</time>
      </trkpt>
      <trkpt lat="47.87929" lon="7.00058">
        <ele>449.07</ele>
        <time>2022-07-31T12:10:47Z</time>
      </trkpt>
      <trkpt lat="47.87923" lon="7.0009">
        <ele>449.55</ele>
        <time>2022-07-31T12:10:53Z</time>
      </trkpt>
      <trkpt lat="47.87888" lon="7.00207">
        <ele>449.07</ele>
        <time>2022-07-31T12:11:10Z</time>
      </trkpt>
      <trkpt lat="47.87886" lon="7.00232">
        <ele>447.15</ele>
        <time>2022-07-31T12:11:13Z</time>
      </trkpt>
      <trkpt lat="47.87881" lon="7.00328">
        <ele>445.71</ele>
        <time>2022-07-31T12:11:23Z</time>
      </trkpt>
      <trkpt lat="47.87879" lon="7.00337">
        <ele>445.23</ele>
        <time>2022-07-31T12:11:24Z</time>
      </trkpt>
      <trkpt lat="47.8787" lon="7.00382">
        <ele>444.75</ele>
        <time>2022-07-31T12:11:29Z</time>
      </trkpt>
      <trkpt lat="47.87867" lon="7.0039">
        <ele>444.75</ele>
        <time>2022-07-31T12:11:30Z</time>
      </trkpt>
      <trkpt lat="47.87841" lon="7.00441">
        <ele>443.79</ele>
        <time>2022-07-31T12:11:37Z</time>
      </trkpt>
      <trkpt lat="47.87824" lon="7.00474">
        <ele>442.82</ele>
        <time>2022-07-31T12:11:42Z</time>
      </trkpt>
      <trkpt lat="47.87789" lon="7.00542">
        <ele>439.46</ele>
        <time>2022-07-31T12:11:51Z</time>
      </trkpt>
      <trkpt lat="47.87776" lon="7.00566">
        <ele>439.46</ele>
        <time>2022-07-31T12:11:55Z</time>
      </trkpt>
      <trkpt lat="47.87774" lon="7.00571">
        <ele>439.46</ele>
        <time>2022-07-31T12:11:56Z</time>
      </trkpt>
      <trkpt lat="47.87774" lon="7.00576">
        <ele>439.46</ele>
        <time>2022-07-31T12:11:57Z</time>
      </trkpt>
      <trkpt lat="47.87774" lon="7.0058">
        <ele>438.98</ele>
        <time>2022-07-31T12:11:58Z</time>
      </trkpt>
      <trkpt lat="47.87774" lon="7.00584">
        <ele>438.98</ele>
        <time>2022-07-31T12:11:59Z</time>
      </trkpt>
      <trkpt lat="47.87774" lon="7.0059">
        <ele>438.5</ele>
        <time>2022-07-31T12:12:00Z</time>
      </trkpt>
      <trkpt lat="47.87773" lon="7.00595">
        <ele>438.02</ele>
        <time>2022-07-31T12:12:01Z</time>
      </trkpt>
      <trkpt lat="47.87772" lon="7.006">
        <ele>438.02</ele>
        <time>2022-07-31T12:12:02Z</time>
      </trkpt>
      <trkpt lat="47.87757" lon="7.00661">
        <ele>436.1</ele>
        <time>2022-07-31T12:12:12Z</time>
      </trkpt>
      <trkpt lat="47.87747" lon="7.00724">
        <ele>435.61</ele>
        <time>2022-07-31T12:12:21Z</time>
      </trkpt>
      <trkpt lat="47.87737" lon="7.00819">
        <ele>434.65</ele>
        <time>2022-07-31T12:12:33Z</time>
      </trkpt>
      <trkpt lat="47.8774" lon="7.00874">
        <ele>434.65</ele>
        <time>2022-07-31T12:12:40Z</time>
      </trkpt>
      <trkpt lat="47.87755" lon="7.00932">
        <ele>434.17</ele>
        <time>2022-07-31T12:12:48Z</time>
      </trkpt>
      <trkpt lat="47.8776" lon="7.00962">
        <ele>433.69</ele>
        <time>2022-07-31T12:12:52Z</time>
      </trkpt>
      <trkpt lat="47.87756" lon="7.01017">
        <ele>433.21</ele>
        <time>2022-07-31T12:12:59Z</time>
      </trkpt>
      <trkpt lat="47.87754" lon="7.01025">
        <ele>433.21</ele>
        <time>2022-07-31T12:13:00Z</time>
      </trkpt>
      <trkpt lat="47.8772" lon="7.01131">
        <ele>432.25</ele>
        <time>2022-07-31T12:13:14Z</time>
      </trkpt>
      <trkpt lat="47.87676" lon="7.01242">
        <ele>431.29</ele>
        <time>2022-07-31T12:13:29Z</time>
      </trkpt>
      <trkpt lat="47.87643" lon="7.01327">
        <ele>431.29</ele>
        <time>2022-07-31T12:13:43Z</time>
      </trkpt>
      <trkpt lat="47.87639" lon="7.01336">
        <ele>431.77</ele>
        <time>2022-07-31T12:13:47Z</time>
      </trkpt>
      <trkpt lat="47.87639" lon="7.01338">
        <ele>431.77</ele>
        <time>2022-07-31T12:13:48Z</time>
      </trkpt>
      <trkpt lat="47.87639" lon="7.0134">
        <ele>431.77</ele>
        <time>2022-07-31T12:13:49Z</time>
      </trkpt>
      <trkpt lat="47.87635" lon="7.01385">
        <ele>431.77</ele>
        <time>2022-07-31T12:13:59Z</time>
      </trkpt>
      <trkpt lat="47.87635" lon="7.01391">
        <ele>431.77</ele>
        <time>2022-07-31T12:14:12Z</time>
      </trkpt>
      <trkpt lat="47.87635" lon="7.01393">
        <ele>431.77</ele>
        <time>2022-07-31T12:14:13Z</time>
      </trkpt>
      <trkpt lat="47.87634" lon="7.01397">
        <ele>431.77</ele>
        <time>2022-07-31T12:14:14Z</time>
      </trkpt>
      <trkpt lat="47.87633" lon="7.014">
        <ele>431.77</ele>
        <time>2022-07-31T12:14:15Z</time>
      </trkpt>
      <trkpt lat="47.87631" lon="7.01405">
        <ele>431.77</ele>
        <time>2022-07-31T12:14:16Z</time>
      </trkpt>
      <trkpt lat="47.8763" lon="7.0141">
        <ele>431.77</ele>
        <time>2022-07-31T12:14:17Z</time>
      </trkpt>
      <trkpt lat="47.87628" lon="7.01416">
        <ele>431.77</ele>
        <time>2022-07-31T12:14:18Z</time>
      </trkpt>
      <trkpt lat="47.87626" lon="7.01423">
        <ele>431.77</ele>
        <time>2022-07-31T12:14:19Z</time>
      </trkpt>
      <trkpt lat="47.87625" lon="7.0143">
        <ele>431.29</ele>
        <time>2022-07-31T12:14:20Z</time>
      </trkpt>
      <trkpt lat="47.87605" lon="7.01512">
        <ele>431.29</ele>
        <time>2022-07-31T12:14:30Z</time>
      </trkpt>
      <trkpt lat="47.87604" lon="7.01521">
        <ele>431.29</ele>
        <time>2022-07-31T12:14:31Z</time>
      </trkpt>
      <trkpt lat="47.87608" lon="7.01665">
        <ele>429.85</ele>
        <time>2022-07-31T12:14:46Z</time>
      </trkpt>
      <trkpt lat="47.87588" lon="7.01792">
        <ele>428.4</ele>
        <time>2022-07-31T12:14:58Z</time>
      </trkpt>
      <trkpt lat="47.87528" lon="7.01935">
        <ele>428.4</ele>
        <time>2022-07-31T12:15:12Z</time>
      </trkpt>
      <trkpt lat="47.87472" lon="7.02028">
        <ele>425.52</ele>
        <time>2022-07-31T12:15:22Z</time>
      </trkpt>
      <trkpt lat="47.87412" lon="7.02162">
        <ele>423.6</ele>
        <time>2022-07-31T12:15:35Z</time>
      </trkpt>
      <trkpt lat="47.87396" lon="7.022">
        <ele>424.08</ele>
        <time>2022-07-31T12:15:39Z</time>
      </trkpt>
      <trkpt lat="47.87392" lon="7.02207">
        <ele>423.6</ele>
        <time>2022-07-31T12:15:40Z</time>
      </trkpt>
      <trkpt lat="47.87376" lon="7.02229">
        <ele>423.6</ele>
        <time>2022-07-31T12:15:43Z</time>
      </trkpt>
      <trkpt lat="47.87372" lon="7.02236">
        <ele>423.6</ele>
        <time>2022-07-31T12:15:44Z</time>
      </trkpt>
      <trkpt lat="47.87367" lon="7.02242">
        <ele>423.6</ele>
        <time>2022-07-31T12:15:45Z</time>
      </trkpt>
      <trkpt lat="47.87363" lon="7.02248">
        <ele>423.12</ele>
        <time>2022-07-31T12:15:46Z</time>
      </trkpt>
      <trkpt lat="47.87359" lon="7.02255">
        <ele>423.12</ele>
        <time>2022-07-31T12:15:47Z</time>
      </trkpt>
      <trkpt lat="47.87354" lon="7.02261">
        <ele>423.6</ele>
        <time>2022-07-31T12:15:48Z</time>
      </trkpt>
      <trkpt lat="47.8735" lon="7.02267">
        <ele>423.12</ele>
        <time>2022-07-31T12:15:49Z</time>
      </trkpt>
      <trkpt lat="47.87284" lon="7.02352">
        <ele>422.16</ele>
        <time>2022-07-31T12:16:03Z</time>
      </trkpt>
      <trkpt lat="47.87224" lon="7.02427">
        <ele>421.68</ele>
        <time>2022-07-31T12:16:17Z</time>
      </trkpt>
      <trkpt lat="47.87202" lon="7.02454">
        <ele>421.68</ele>
        <time>2022-07-31T12:16:23Z</time>
      </trkpt>
      <trkpt lat="47.87173" lon="7.02481">
        <ele>420.71</ele>
        <time>2022-07-31T12:16:30Z</time>
      </trkpt>
      <trkpt lat="47.87169" lon="7.02484">
        <ele>420.71</ele>
        <time>2022-07-31T12:16:31Z</time>
      </trkpt>
      <trkpt lat="47.87166" lon="7.02486">
        <ele>420.71</ele>
        <time>2022-07-31T12:16:32Z</time>
      </trkpt>
      <trkpt lat="47.87134" lon="7.02518">
        <ele>420.23</ele>
        <time>2022-07-31T12:16:40Z</time>
      </trkpt>
      <trkpt lat="47.87069" lon="7.02554">
        <ele>419.75</ele>
        <time>2022-07-31T12:16:54Z</time>
      </trkpt>
      <trkpt lat="47.87064" lon="7.02556">
        <ele>419.27</ele>
        <time>2022-07-31T12:16:55Z</time>
      </trkpt>
      <trkpt lat="47.86998" lon="7.02594">
        <ele>418.79</ele>
        <time>2022-07-31T12:17:08Z</time>
      </trkpt>
      <trkpt lat="47.86983" lon="7.02607">
        <ele>418.79</ele>
        <time>2022-07-31T12:17:11Z</time>
      </trkpt>
      <trkpt lat="47.86975" lon="7.02618">
        <ele>419.75</ele>
        <time>2022-07-31T12:17:13Z</time>
      </trkpt>
      <trkpt lat="47.86962" lon="7.02634">
        <ele>418.79</ele>
        <time>2022-07-31T12:17:16Z</time>
      </trkpt>
      <trkpt lat="47.86935" lon="7.02679">
        <ele>418.31</ele>
        <time>2022-07-31T12:17:23Z</time>
      </trkpt>
      <trkpt lat="47.86926" lon="7.02699">
        <ele>418.31</ele>
        <time>2022-07-31T12:17:26Z</time>
      </trkpt>
      <trkpt lat="47.86923" lon="7.02705">
        <ele>418.31</ele>
        <time>2022-07-31T12:17:27Z</time>
      </trkpt>
      <trkpt lat="47.86905" lon="7.02739">
        <ele>418.31</ele>
        <time>2022-07-31T12:17:32Z</time>
      </trkpt>
      <trkpt lat="47.86899" lon="7.02752">
        <ele>418.31</ele>
        <time>2022-07-31T12:17:34Z</time>
      </trkpt>
      <trkpt lat="47.86878" lon="7.02795">
        <ele>418.79</ele>
        <time>2022-07-31T12:17:41Z</time>
      </trkpt>
      <trkpt lat="47.86875" lon="7.02801">
        <ele>418.79</ele>
        <time>2022-07-31T12:17:42Z</time>
      </trkpt>
      <trkpt lat="47.86853" lon="7.02853">
        <ele>418.79</ele>
        <time>2022-07-31T12:17:52Z</time>
      </trkpt>
      <trkpt lat="47.86835" lon="7.02901">
        <ele>418.31</ele>
        <time>2022-07-31T12:18:02Z</time>
      </trkpt>
      <trkpt lat="47.86826" lon="7.02962">
        <ele>418.31</ele>
        <time>2022-07-31T12:18:14Z</time>
      </trkpt>
      <trkpt lat="47.86823" lon="7.0301">
        <ele>417.35</ele>
        <time>2022-07-31T12:18:23Z</time>
      </trkpt>
      <trkpt lat="47.86825" lon="7.03025">
        <ele>416.87</ele>
        <time>2022-07-31T12:18:27Z</time>
      </trkpt>
      <trkpt lat="47.86827" lon="7.03037">
        <ele>416.39</ele>
        <time>2022-07-31T12:18:38Z</time>
      </trkpt>
      <trkpt lat="47.86827" lon="7.03039">
        <ele>416.39</ele>
        <time>2022-07-31T12:18:39Z</time>
      </trkpt>
      <trkpt lat="47.86827" lon="7.03043">
        <ele>415.91</ele>
        <time>2022-07-31T12:18:50Z</time>
      </trkpt>
      <trkpt lat="47.86824" lon="7.03049">
        <ele>415.91</ele>
        <time>2022-07-31T12:19:19Z</time>
      </trkpt>
      <trkpt lat="47.86826" lon="7.0305">
        <ele>416.39</ele>
        <time>2022-07-31T12:19:51Z</time>
      </trkpt>
      <trkpt lat="47.86824" lon="7.03049">
        <ele>415.91</ele>
        <time>2022-07-31T12:20:18Z</time>
      </trkpt>
      <trkpt lat="47.86825" lon="7.03055">
        <ele>415.43</ele>
        <time>2022-07-31T12:20:28Z</time>
      </trkpt>
      <trkpt lat="47.86824" lon="7.03059">
        <ele>415.43</ele>
        <time>2022-07-31T12:20:29Z</time>
      </trkpt>
      <trkpt lat="47.86814" lon="7.031">
        <ele>415.43</ele>
        <time>2022-07-31T12:20:36Z</time>
      </trkpt>
      <trkpt lat="47.86811" lon="7.03106">
        <ele>415.43</ele>
        <time>2022-07-31T12:20:37Z</time>
      </trkpt>
      <trkpt lat="47.86795" lon="7.03154">
        <ele>414.95</ele>
        <time>2022-07-31T12:20:45Z</time>
      </trkpt>
      <trkpt lat="47.86793" lon="7.03159">
        <ele>414.95</ele>
        <time>2022-07-31T12:20:46Z</time>
      </trkpt>
      <trkpt lat="47.8679" lon="7.03164">
        <ele>414.95</ele>
        <time>2022-07-31T12:20:47Z</time>
      </trkpt>
      <trkpt lat="47.86787" lon="7.03168">
        <ele>415.43</ele>
        <time>2022-07-31T12:20:48Z</time>
      </trkpt>
      <trkpt lat="47.86784" lon="7.03172">
        <ele>414.95</ele>
        <time>2022-07-31T12:20:49Z</time>
      </trkpt>
      <trkpt lat="47.86782" lon="7.03176">
        <ele>414.95</ele>
        <time>2022-07-31T12:20:50Z</time>
      </trkpt>
      <trkpt lat="47.86779" lon="7.03181">
        <ele>415.43</ele>
        <time>2022-07-31T12:20:51Z</time>
      </trkpt>
      <trkpt lat="47.86778" lon="7.03186">
        <ele>414.95</ele>
        <time>2022-07-31T12:20:52Z</time>
      </trkpt>
      <trkpt lat="47.86776" lon="7.03191">
        <ele>414.95</ele>
        <time>2022-07-31T12:20:53Z</time>
      </trkpt>
      <trkpt lat="47.86759" lon="7.03244">
        <ele>415.43</ele>
        <time>2022-07-31T12:21:02Z</time>
      </trkpt>
      <trkpt lat="47.86756" lon="7.03249">
        <ele>414.95</ele>
        <time>2022-07-31T12:21:03Z</time>
      </trkpt>
      <trkpt lat="47.86733" lon="7.03291">
        <ele>414.95</ele>
        <time>2022-07-31T12:21:11Z</time>
      </trkpt>
      <trkpt lat="47.8668" lon="7.03386">
        <ele>412.54</ele>
        <time>2022-07-31T12:21:27Z</time>
      </trkpt>
      <trkpt lat="47.86676" lon="7.03391">
        <ele>413.02</ele>
        <time>2022-07-31T12:21:28Z</time>
      </trkpt>
      <trkpt lat="47.86671" lon="7.03395">
        <ele>413.02</ele>
        <time>2022-07-31T12:21:29Z</time>
      </trkpt>
      <trkpt lat="47.86666" lon="7.03398">
        <ele>413.02</ele>
        <time>2022-07-31T12:21:30Z</time>
      </trkpt>
      <trkpt lat="47.86648" lon="7.03413">
        <ele>413.02</ele>
        <time>2022-07-31T12:21:34Z</time>
      </trkpt>
      <trkpt lat="47.86644" lon="7.03418">
        <ele>413.02</ele>
        <time>2022-07-31T12:21:35Z</time>
      </trkpt>
      <trkpt lat="47.86634" lon="7.03432">
        <ele>413.02</ele>
        <time>2022-07-31T12:21:38Z</time>
      </trkpt>
      <trkpt lat="47.86593" lon="7.03474">
        <ele>413.98</ele>
        <time>2022-07-31T12:21:52Z</time>
      </trkpt>
      <trkpt lat="47.8656" lon="7.03473">
        <ele>414.95</ele>
        <time>2022-07-31T12:22:02Z</time>
      </trkpt>
      <trkpt lat="47.86512" lon="7.03476">
        <ele>414.47</ele>
        <time>2022-07-31T12:22:14Z</time>
      </trkpt>
      <trkpt lat="47.86436" lon="7.03518">
        <ele>413.02</ele>
        <time>2022-07-31T12:22:29Z</time>
      </trkpt>
      <trkpt lat="47.86374" lon="7.03574">
        <ele>411.58</ele>
        <time>2022-07-31T12:22:42Z</time>
      </trkpt>
      <trkpt lat="47.8637" lon="7.03578">
        <ele>411.58</ele>
        <time>2022-07-31T12:22:43Z</time>
      </trkpt>
      <trkpt lat="47.86364" lon="7.03582">
        <ele>411.58</ele>
        <time>2022-07-31T12:22:44Z</time>
      </trkpt>
      <trkpt lat="47.86324" lon="7.0361">
        <ele>410.62</ele>
        <time>2022-07-31T12:22:52Z</time>
      </trkpt>
      <trkpt lat="47.86264" lon="7.03636">
        <ele>409.66</ele>
        <time>2022-07-31T12:23:04Z</time>
      </trkpt>
      <trkpt lat="47.86259" lon="7.03635">
        <ele>410.14</ele>
        <time>2022-07-31T12:23:05Z</time>
      </trkpt>
      <trkpt lat="47.86254" lon="7.03634">
        <ele>409.66</ele>
        <time>2022-07-31T12:23:06Z</time>
      </trkpt>
      <trkpt lat="47.8625" lon="7.03633">
        <ele>410.14</ele>
        <time>2022-07-31T12:23:07Z</time>
      </trkpt>
      <trkpt lat="47.86246" lon="7.03634">
        <ele>410.14</ele>
        <time>2022-07-31T12:23:08Z</time>
      </trkpt>
      <trkpt lat="47.86241" lon="7.03633">
        <ele>410.14</ele>
        <time>2022-07-31T12:23:09Z</time>
      </trkpt>
      <trkpt lat="47.8623" lon="7.03631">
        <ele>409.66</ele>
        <time>2022-07-31T12:23:12Z</time>
      </trkpt>
      <trkpt lat="47.86226" lon="7.03632">
        <ele>409.66</ele>
        <time>2022-07-31T12:23:13Z</time>
      </trkpt>
      <trkpt lat="47.86164" lon="7.03677">
        <ele>408.7</ele>
        <time>2022-07-31T12:23:28Z</time>
      </trkpt>
      <trkpt lat="47.86161" lon="7.03683">
        <ele>408.7</ele>
        <time>2022-07-31T12:23:29Z</time>
      </trkpt>
      <trkpt lat="47.86157" lon="7.03688">
        <ele>408.7</ele>
        <time>2022-07-31T12:23:30Z</time>
      </trkpt>
      <trkpt lat="47.86154" lon="7.03694">
        <ele>408.7</ele>
        <time>2022-07-31T12:23:31Z</time>
      </trkpt>
      <trkpt lat="47.86152" lon="7.037">
        <ele>408.7</ele>
        <time>2022-07-31T12:23:32Z</time>
      </trkpt>
      <trkpt lat="47.86149" lon="7.03707">
        <ele>408.7</ele>
        <time>2022-07-31T12:23:33Z</time>
      </trkpt>
      <trkpt lat="47.86147" lon="7.03714">
        <ele>408.7</ele>
        <time>2022-07-31T12:23:34Z</time>
      </trkpt>
      <trkpt lat="47.86127" lon="7.03776">
        <ele>408.22</ele>
        <time>2022-07-31T12:23:43Z</time>
      </trkpt>
      <trkpt lat="47.86124" lon="7.03782">
        <ele>408.22</ele>
        <time>2022-07-31T12:23:44Z</time>
      </trkpt>
      <trkpt lat="47.86118" lon="7.03793">
        <ele>408.22</ele>
        <time>2022-07-31T12:23:46Z</time>
      </trkpt>
      <trkpt lat="47.86096" lon="7.03826">
        <ele>407.26</ele>
        <time>2022-07-31T12:23:54Z</time>
      </trkpt>
      <trkpt lat="47.86086" lon="7.03841">
        <ele>406.77</ele>
        <time>2022-07-31T12:23:59Z</time>
      </trkpt>
      <trkpt lat="47.86098" lon="7.03832">
        <ele>407.26</ele>
        <time>2022-07-31T12:24:06Z</time>
      </trkpt>
      <trkpt lat="47.861" lon="7.03829">
        <ele>407.26</ele>
        <time>2022-07-31T12:24:07Z</time>
      </trkpt>
      <trkpt lat="47.86111" lon="7.03802">
        <ele>407.74</ele>
        <time>2022-07-31T12:24:20Z</time>
      </trkpt>
      <trkpt lat="47.86112" lon="7.03804">
        <ele>407.74</ele>
        <time>2022-07-31T12:24:44Z</time>
      </trkpt>
      <trkpt lat="47.86114" lon="7.03805">
        <ele>407.26</ele>
        <time>2022-07-31T12:24:58Z</time>
      </trkpt>
      <trkpt lat="47.86114" lon="7.03805">
        <ele>406.77</ele>
        <time>2022-07-31T12:25:09Z</time>
      </trkpt>
      <trkpt lat="47.86106" lon="7.03814">
        <ele>406.77</ele>
        <time>2022-07-31T12:25:15Z</time>
      </trkpt>
      <trkpt lat="47.86096" lon="7.03825">
        <ele>406.77</ele>
        <time>2022-07-31T12:25:20Z</time>
      </trkpt>
      <trkpt lat="47.86059" lon="7.03891">
        <ele>406.77</ele>
        <time>2022-07-31T12:25:36Z</time>
      </trkpt>
      <trkpt lat="47.86049" lon="7.03914">
        <ele>406.29</ele>
        <time>2022-07-31T12:25:40Z</time>
      </trkpt>
      <trkpt lat="47.86047" lon="7.0392">
        <ele>406.29</ele>
        <time>2022-07-31T12:25:41Z</time>
      </trkpt>
      <trkpt lat="47.8604" lon="7.03944">
        <ele>406.29</ele>
        <time>2022-07-31T12:25:45Z</time>
      </trkpt>
      <trkpt lat="47.86034" lon="7.03962">
        <ele>406.29</ele>
        <time>2022-07-31T12:25:48Z</time>
      </trkpt>
      <trkpt lat="47.86016" lon="7.04017">
        <ele>405.33</ele>
        <time>2022-07-31T12:25:57Z</time>
      </trkpt>
      <trkpt lat="47.86014" lon="7.04023">
        <ele>405.33</ele>
        <time>2022-07-31T12:25:58Z</time>
      </trkpt>
      <trkpt lat="47.86009" lon="7.04043">
        <ele>405.33</ele>
        <time>2022-07-31T12:26:01Z</time>
      </trkpt>
      <trkpt lat="47.85982" lon="7.04121">
        <ele>404.85</ele>
        <time>2022-07-31T12:26:13Z</time>
      </trkpt>
      <trkpt lat="47.85955" lon="7.04228">
        <ele>404.37</ele>
        <time>2022-07-31T12:26:29Z</time>
      </trkpt>
      <trkpt lat="47.8595" lon="7.04247">
        <ele>404.37</ele>
        <time>2022-07-31T12:26:32Z</time>
      </trkpt>
      <trkpt lat="47.85947" lon="7.04252">
        <ele>404.37</ele>
        <time>2022-07-31T12:26:33Z</time>
      </trkpt>
      <trkpt lat="47.85944" lon="7.04257">
        <ele>404.37</ele>
        <time>2022-07-31T12:26:34Z</time>
      </trkpt>
      <trkpt lat="47.85895" lon="7.04336">
        <ele>403.89</ele>
        <time>2022-07-31T12:26:50Z</time>
      </trkpt>
      <trkpt lat="47.85893" lon="7.04342">
        <ele>403.89</ele>
        <time>2022-07-31T12:26:51Z</time>
      </trkpt>
      <trkpt lat="47.85891" lon="7.04348">
        <ele>403.41</ele>
        <time>2022-07-31T12:26:52Z</time>
      </trkpt>
      <trkpt lat="47.85863" lon="7.04448">
        <ele>403.41</ele>
        <time>2022-07-31T12:27:08Z</time>
      </trkpt>
      <trkpt lat="47.8586" lon="7.04454">
        <ele>403.41</ele>
        <time>2022-07-31T12:27:09Z</time>
      </trkpt>
      <trkpt lat="47.85857" lon="7.0446">
        <ele>402.93</ele>
        <time>2022-07-31T12:27:10Z</time>
      </trkpt>
      <trkpt lat="47.85824" lon="7.04557">
        <ele>401.97</ele>
        <time>2022-07-31T12:27:24Z</time>
      </trkpt>
      <trkpt lat="47.85821" lon="7.04564">
        <ele>401.49</ele>
        <time>2022-07-31T12:27:25Z</time>
      </trkpt>
      <trkpt lat="47.85803" lon="7.04608">
        <ele>401.49</ele>
        <time>2022-07-31T12:27:32Z</time>
      </trkpt>
      <trkpt lat="47.85802" lon="7.04614">
        <ele>401.49</ele>
        <time>2022-07-31T12:27:33Z</time>
      </trkpt>
      <trkpt lat="47.858" lon="7.0462">
        <ele>401.49</ele>
        <time>2022-07-31T12:27:34Z</time>
      </trkpt>
      <trkpt lat="47.858" lon="7.04626">
        <ele>401.49</ele>
        <time>2022-07-31T12:27:35Z</time>
      </trkpt>
      <trkpt lat="47.85799" lon="7.04632">
        <ele>401.97</ele>
        <time>2022-07-31T12:27:36Z</time>
      </trkpt>
      <trkpt lat="47.85799" lon="7.04638">
        <ele>401.97</ele>
        <time>2022-07-31T12:27:37Z</time>
      </trkpt>
      <trkpt lat="47.85798" lon="7.04644">
        <ele>401.97</ele>
        <time>2022-07-31T12:27:38Z</time>
      </trkpt>
      <trkpt lat="47.85797" lon="7.0465">
        <ele>401.97</ele>
        <time>2022-07-31T12:27:39Z</time>
      </trkpt>
      <trkpt lat="47.85797" lon="7.04656">
        <ele>401.49</ele>
        <time>2022-07-31T12:27:40Z</time>
      </trkpt>
      <trkpt lat="47.85796" lon="7.0467">
        <ele>401.49</ele>
        <time>2022-07-31T12:27:42Z</time>
      </trkpt>
      <trkpt lat="47.85769" lon="7.0474">
        <ele>402.93</ele>
        <time>2022-07-31T12:27:54Z</time>
      </trkpt>
      <trkpt lat="47.85766" lon="7.04744">
        <ele>403.41</ele>
        <time>2022-07-31T12:27:55Z</time>
      </trkpt>
      <trkpt lat="47.85762" lon="7.04747">
        <ele>403.41</ele>
        <time>2022-07-31T12:27:56Z</time>
      </trkpt>
      <trkpt lat="47.85755" lon="7.04753">
        <ele>403.41</ele>
        <time>2022-07-31T12:27:58Z</time>
      </trkpt>
      <trkpt lat="47.85747" lon="7.04758">
        <ele>403.41</ele>
        <time>2022-07-31T12:28:00Z</time>
      </trkpt>
      <trkpt lat="47.85744" lon="7.04761">
        <ele>403.41</ele>
        <time>2022-07-31T12:28:01Z</time>
      </trkpt>
      <trkpt lat="47.85731" lon="7.04775">
        <ele>403.89</ele>
        <time>2022-07-31T12:28:05Z</time>
      </trkpt>
      <trkpt lat="47.85689" lon="7.04806">
        <ele>404.37</ele>
        <time>2022-07-31T12:28:16Z</time>
      </trkpt>
      <trkpt lat="47.85685" lon="7.04808">
        <ele>403.89</ele>
        <time>2022-07-31T12:28:17Z</time>
      </trkpt>
      <trkpt lat="47.85681" lon="7.04809">
        <ele>404.37</ele>
        <time>2022-07-31T12:28:18Z</time>
      </trkpt>
      <trkpt lat="47.85665" lon="7.04817">
        <ele>404.37</ele>
        <time>2022-07-31T12:28:22Z</time>
      </trkpt>
      <trkpt lat="47.85634" lon="7.04835">
        <ele>403.89</ele>
        <time>2022-07-31T12:28:29Z</time>
      </trkpt>
      <trkpt lat="47.85591" lon="7.04866">
        <ele>403.41</ele>
        <time>2022-07-31T12:28:39Z</time>
      </trkpt>
      <trkpt lat="47.8558" lon="7.04878">
        <ele>403.41</ele>
        <time>2022-07-31T12:28:42Z</time>
      </trkpt>
      <trkpt lat="47.85577" lon="7.04882">
        <ele>403.41</ele>
        <time>2022-07-31T12:28:43Z</time>
      </trkpt>
      <trkpt lat="47.85519" lon="7.0496">
        <ele>402.45</ele>
        <time>2022-07-31T12:29:00Z</time>
      </trkpt>
      <trkpt lat="47.85493" lon="7.04985">
        <ele>402.45</ele>
        <time>2022-07-31T12:29:07Z</time>
      </trkpt>
      <trkpt lat="47.8549" lon="7.04989">
        <ele>402.45</ele>
        <time>2022-07-31T12:29:08Z</time>
      </trkpt>
      <trkpt lat="47.85483" lon="7.04997">
        <ele>402.93</ele>
        <time>2022-07-31T12:29:10Z</time>
      </trkpt>
      <trkpt lat="47.85467" lon="7.05024">
        <ele>401.97</ele>
        <time>2022-07-31T12:29:16Z</time>
      </trkpt>
      <trkpt lat="47.85425" lon="7.05096">
        <ele>401.01</ele>
        <time>2022-07-31T12:29:29Z</time>
      </trkpt>
      <trkpt lat="47.85373" lon="7.05178">
        <ele>400.53</ele>
        <time>2022-07-31T12:29:45Z</time>
      </trkpt>
      <trkpt lat="47.85344" lon="7.05216">
        <ele>401.01</ele>
        <time>2022-07-31T12:29:57Z</time>
      </trkpt>
      <trkpt lat="47.85312" lon="7.05238">
        <ele>402.45</ele>
        <time>2022-07-31T12:30:09Z</time>
      </trkpt>
      <trkpt lat="47.85277" lon="7.05277">
        <ele>404.37</ele>
        <time>2022-07-31T12:30:22Z</time>
      </trkpt>
      <trkpt lat="47.85239" lon="7.05332">
        <ele>405.33</ele>
        <time>2022-07-31T12:30:36Z</time>
      </trkpt>
      <trkpt lat="47.85204" lon="7.0537">
        <ele>405.81</ele>
        <time>2022-07-31T12:30:48Z</time>
      </trkpt>
      <trkpt lat="47.85178" lon="7.05404">
        <ele>405.33</ele>
        <time>2022-07-31T12:31:00Z</time>
      </trkpt>
      <trkpt lat="47.85149" lon="7.05444">
        <ele>405.81</ele>
        <time>2022-07-31T12:31:16Z</time>
      </trkpt>
      <trkpt lat="47.85144" lon="7.05453">
        <ele>406.77</ele>
        <time>2022-07-31T12:31:20Z</time>
      </trkpt>
      <trkpt lat="47.85142" lon="7.05454">
        <ele>405.81</ele>
        <time>2022-07-31T12:31:21Z</time>
      </trkpt>
      <trkpt lat="47.8514" lon="7.05453">
        <ele>405.81</ele>
        <time>2022-07-31T12:31:22Z</time>
      </trkpt>
      <trkpt lat="47.85139" lon="7.05451">
        <ele>405.81</ele>
        <time>2022-07-31T12:31:23Z</time>
      </trkpt>
      <trkpt lat="47.85138" lon="7.05449">
        <ele>405.81</ele>
        <time>2022-07-31T12:31:24Z</time>
      </trkpt>
      <trkpt lat="47.85137" lon="7.05445">
        <ele>405.81</ele>
        <time>2022-07-31T12:31:25Z</time>
      </trkpt>
      <trkpt lat="47.85137" lon="7.05443">
        <ele>406.29</ele>
        <time>2022-07-31T12:31:26Z</time>
      </trkpt>
      <trkpt lat="47.85136" lon="7.0544">
        <ele>406.29</ele>
        <time>2022-07-31T12:31:27Z</time>
      </trkpt>
      <trkpt lat="47.85135" lon="7.05438">
        <ele>406.29</ele>
        <time>2022-07-31T12:31:28Z</time>
      </trkpt>
      <trkpt lat="47.85134" lon="7.05436">
        <ele>406.77</ele>
        <time>2022-07-31T12:31:29Z</time>
      </trkpt>
      <trkpt lat="47.85134" lon="7.05434">
        <ele>406.77</ele>
        <time>2022-07-31T12:31:30Z</time>
      </trkpt>
      <trkpt lat="47.85134" lon="7.05432">
        <ele>406.77</ele>
        <time>2022-07-31T12:31:31Z</time>
      </trkpt>
      <trkpt lat="47.85134" lon="7.05429">
        <ele>406.77</ele>
        <time>2022-07-31T12:31:47Z</time>
      </trkpt>
      <trkpt lat="47.85134" lon="7.05428">
        <ele>406.77</ele>
        <time>2022-07-31T12:32:05Z</time>
      </trkpt>
      <trkpt lat="47.85133" lon="7.05428">
        <ele>406.77</ele>
        <time>2022-07-31T12:32:38Z</time>
      </trkpt>
      <trkpt lat="47.85133" lon="7.05427">
        <ele>406.29</ele>
        <time>2022-07-31T12:32:57Z</time>
      </trkpt>
      <trkpt lat="47.85131" lon="7.05424">
        <ele>406.77</ele>
        <time>2022-07-31T12:32:58Z</time>
      </trkpt>
      <trkpt lat="47.8513" lon="7.05422">
        <ele>406.77</ele>
        <time>2022-07-31T12:32:59Z</time>
      </trkpt>
      <trkpt lat="47.85114" lon="7.05382">
        <ele>409.66</ele>
        <time>2022-07-31T12:33:14Z</time>
      </trkpt>
      <trkpt lat="47.85096" lon="7.05338">
        <ele>413.02</ele>
        <time>2022-07-31T12:33:30Z</time>
      </trkpt>
      <trkpt lat="47.85082" lon="7.05303">
        <ele>416.39</ele>
        <time>2022-07-31T12:33:42Z</time>
      </trkpt>
      <trkpt lat="47.8506" lon="7.05275">
        <ele>419.27</ele>
        <time>2022-07-31T12:33:55Z</time>
      </trkpt>
      <trkpt lat="47.85043" lon="7.05257">
        <ele>422.64</ele>
        <time>2022-07-31T12:34:05Z</time>
      </trkpt>
      <trkpt lat="47.85039" lon="7.05251">
        <ele>423.6</ele>
        <time>2022-07-31T12:34:09Z</time>
      </trkpt>
      <trkpt lat="47.85038" lon="7.05249">
        <ele>423.6</ele>
        <time>2022-07-31T12:34:10Z</time>
      </trkpt>
      <trkpt lat="47.85037" lon="7.05247">
        <ele>424.08</ele>
        <time>2022-07-31T12:34:11Z</time>
      </trkpt>
      <trkpt lat="47.85037" lon="7.05244">
        <ele>424.08</ele>
        <time>2022-07-31T12:34:12Z</time>
      </trkpt>
      <trkpt lat="47.85036" lon="7.05241">
        <ele>424.56</ele>
        <time>2022-07-31T12:34:13Z</time>
      </trkpt>
      <trkpt lat="47.8501" lon="7.05205">
        <ele>426.48</ele>
        <time>2022-07-31T12:34:25Z</time>
      </trkpt>
      <trkpt lat="47.84997" lon="7.05183">
        <ele>427.92</ele>
        <time>2022-07-31T12:34:33Z</time>
      </trkpt>
      <trkpt lat="47.84995" lon="7.0518">
        <ele>427.92</ele>
        <time>2022-07-31T12:34:34Z</time>
      </trkpt>
      <trkpt lat="47.84969" lon="7.05152">
        <ele>430.81</ele>
        <time>2022-07-31T12:34:44Z</time>
      </trkpt>
      <trkpt lat="47.84967" lon="7.05148">
        <ele>431.29</ele>
        <time>2022-07-31T12:34:45Z</time>
      </trkpt>
      <trkpt lat="47.84965" lon="7.05145">
        <ele>431.29</ele>
        <time>2022-07-31T12:34:46Z</time>
      </trkpt>
      <trkpt lat="47.84963" lon="7.05142">
        <ele>431.77</ele>
        <time>2022-07-31T12:34:47Z</time>
      </trkpt>
      <trkpt lat="47.84962" lon="7.05139">
        <ele>431.77</ele>
        <time>2022-07-31T12:34:48Z</time>
      </trkpt>
      <trkpt lat="47.84946" lon="7.05104">
        <ele>435.13</ele>
        <time>2022-07-31T12:35:00Z</time>
      </trkpt>
      <trkpt lat="47.84944" lon="7.05102">
        <ele>435.13</ele>
        <time>2022-07-31T12:35:01Z</time>
      </trkpt>
      <trkpt lat="47.84942" lon="7.051">
        <ele>435.61</ele>
        <time>2022-07-31T12:35:02Z</time>
      </trkpt>
      <trkpt lat="47.84926" lon="7.05074">
        <ele>438.98</ele>
        <time>2022-07-31T12:35:11Z</time>
      </trkpt>
      <trkpt lat="47.84917" lon="7.0504">
        <ele>443.31</ele>
        <time>2022-07-31T12:35:22Z</time>
      </trkpt>
      <trkpt lat="47.84917" lon="7.05037">
        <ele>442.34</ele>
        <time>2022-07-31T12:35:23Z</time>
      </trkpt>
      <trkpt lat="47.84918" lon="7.0503">
        <ele>442.82</ele>
        <time>2022-07-31T12:35:25Z</time>
      </trkpt>
      <trkpt lat="47.84918" lon="7.05028">
        <ele>443.31</ele>
        <time>2022-07-31T12:35:26Z</time>
      </trkpt>
      <trkpt lat="47.84918" lon="7.05025">
        <ele>443.31</ele>
        <time>2022-07-31T12:35:27Z</time>
      </trkpt>
      <trkpt lat="47.84918" lon="7.05022">
        <ele>443.79</ele>
        <time>2022-07-31T12:35:28Z</time>
      </trkpt>
      <trkpt lat="47.84918" lon="7.05019">
        <ele>444.27</ele>
        <time>2022-07-31T12:35:29Z</time>
      </trkpt>
      <trkpt lat="47.84918" lon="7.05017">
        <ele>444.27</ele>
        <time>2022-07-31T12:35:30Z</time>
      </trkpt>
      <trkpt lat="47.84918" lon="7.05014">
        <ele>444.75</ele>
        <time>2022-07-31T12:35:31Z</time>
      </trkpt>
      <trkpt lat="47.84917" lon="7.05009">
        <ele>445.71</ele>
        <time>2022-07-31T12:35:35Z</time>
      </trkpt>
      <trkpt lat="47.84916" lon="7.05007">
        <ele>446.67</ele>
        <time>2022-07-31T12:35:36Z</time>
      </trkpt>
      <trkpt lat="47.84914" lon="7.05005">
        <ele>446.67</ele>
        <time>2022-07-31T12:35:37Z</time>
      </trkpt>
      <trkpt lat="47.84902" lon="7.05007">
        <ele>448.11</ele>
        <time>2022-07-31T12:35:42Z</time>
      </trkpt>
      <trkpt lat="47.84891" lon="7.05041">
        <ele>451.48</ele>
        <time>2022-07-31T12:35:55Z</time>
      </trkpt>
      <trkpt lat="47.84891" lon="7.05061">
        <ele>453.88</ele>
        <time>2022-07-31T12:36:02Z</time>
      </trkpt>
      <trkpt lat="47.8489" lon="7.05082">
        <ele>455.32</ele>
        <time>2022-07-31T12:36:09Z</time>
      </trkpt>
      <trkpt lat="47.8489" lon="7.0509">
        <ele>456.28</ele>
        <time>2022-07-31T12:36:12Z</time>
      </trkpt>
      <trkpt lat="47.84892" lon="7.05115">
        <ele>458.21</ele>
        <time>2022-07-31T12:36:21Z</time>
      </trkpt>
      <trkpt lat="47.84892" lon="7.05121">
        <ele>459.17</ele>
        <time>2022-07-31T12:36:23Z</time>
      </trkpt>
      <trkpt lat="47.84896" lon="7.05143">
        <ele>461.09</ele>
        <time>2022-07-31T12:36:31Z</time>
      </trkpt>
      <trkpt lat="47.84899" lon="7.05168">
        <ele>463.01</ele>
        <time>2022-07-31T12:36:40Z</time>
      </trkpt>
      <trkpt lat="47.84901" lon="7.05195">
        <ele>465.42</ele>
        <time>2022-07-31T12:36:50Z</time>
      </trkpt>
      <trkpt lat="47.84896" lon="7.0523">
        <ele>468.3</ele>
        <time>2022-07-31T12:37:03Z</time>
      </trkpt>
      <trkpt lat="47.84883" lon="7.0526">
        <ele>471.18</ele>
        <time>2022-07-31T12:37:15Z</time>
      </trkpt>
      <trkpt lat="47.84868" lon="7.05266">
        <ele>474.55</ele>
        <time>2022-07-31T12:37:23Z</time>
      </trkpt>
      <trkpt lat="47.84848" lon="7.05249">
        <ele>475.99</ele>
        <time>2022-07-31T12:37:35Z</time>
      </trkpt>
      <trkpt lat="47.84844" lon="7.05231">
        <ele>477.43</ele>
        <time>2022-07-31T12:37:41Z</time>
      </trkpt>
      <trkpt lat="47.84844" lon="7.0522">
        <ele>478.87</ele>
        <time>2022-07-31T12:37:45Z</time>
      </trkpt>
      <trkpt lat="47.84842" lon="7.05191">
        <ele>482.24</ele>
        <time>2022-07-31T12:37:55Z</time>
      </trkpt>
      <trkpt lat="47.84834" lon="7.05169">
        <ele>485.12</ele>
        <time>2022-07-31T12:38:04Z</time>
      </trkpt>
      <trkpt lat="47.84827" lon="7.05163">
        <ele>487.05</ele>
        <time>2022-07-31T12:38:09Z</time>
      </trkpt>
      <trkpt lat="47.84803" lon="7.05153">
        <ele>490.41</ele>
        <time>2022-07-31T12:38:22Z</time>
      </trkpt>
      <trkpt lat="47.84783" lon="7.05134">
        <ele>493.29</ele>
        <time>2022-07-31T12:38:35Z</time>
      </trkpt>
      <trkpt lat="47.8478" lon="7.0513">
        <ele>494.26</ele>
        <time>2022-07-31T12:38:39Z</time>
      </trkpt>
      <trkpt lat="47.84764" lon="7.05101">
        <ele>496.66</ele>
        <time>2022-07-31T12:38:51Z</time>
      </trkpt>
      <trkpt lat="47.84761" lon="7.05074">
        <ele>499.06</ele>
        <time>2022-07-31T12:39:00Z</time>
      </trkpt>
      <trkpt lat="47.84761" lon="7.05061">
        <ele>499.54</ele>
        <time>2022-07-31T12:39:04Z</time>
      </trkpt>
      <trkpt lat="47.84761" lon="7.05037">
        <ele>501.46</ele>
        <time>2022-07-31T12:39:12Z</time>
      </trkpt>
      <trkpt lat="47.84759" lon="7.04998">
        <ele>504.83</ele>
        <time>2022-07-31T12:39:24Z</time>
      </trkpt>
      <trkpt lat="47.84755" lon="7.04973">
        <ele>504.83</ele>
        <time>2022-07-31T12:39:32Z</time>
      </trkpt>
      <trkpt lat="47.84749" lon="7.04951">
        <ele>506.75</ele>
        <time>2022-07-31T12:39:39Z</time>
      </trkpt>
      <trkpt lat="47.84738" lon="7.04911">
        <ele>509.64</ele>
        <time>2022-07-31T12:39:52Z</time>
      </trkpt>
      <trkpt lat="47.8473" lon="7.0487">
        <ele>513</ele>
        <time>2022-07-31T12:40:04Z</time>
      </trkpt>
      <trkpt lat="47.84721" lon="7.04837">
        <ele>515.4</ele>
        <time>2022-07-31T12:40:16Z</time>
      </trkpt>
      <trkpt lat="47.8471" lon="7.04811">
        <ele>517.33</ele>
        <time>2022-07-31T12:40:25Z</time>
      </trkpt>
      <trkpt lat="47.84695" lon="7.0477">
        <ele>520.21</ele>
        <time>2022-07-31T12:40:38Z</time>
      </trkpt>
      <trkpt lat="47.84706" lon="7.04749">
        <ele>522.13</ele>
        <time>2022-07-31T12:40:50Z</time>
      </trkpt>
      <trkpt lat="47.84721" lon="7.04734">
        <ele>524.06</ele>
        <time>2022-07-31T12:40:57Z</time>
      </trkpt>
      <trkpt lat="47.84733" lon="7.04695">
        <ele>526.46</ele>
        <time>2022-07-31T12:41:10Z</time>
      </trkpt>
      <trkpt lat="47.84737" lon="7.04682">
        <ele>527.42</ele>
        <time>2022-07-31T12:41:14Z</time>
      </trkpt>
      <trkpt lat="47.8474" lon="7.04668">
        <ele>528.38</ele>
        <time>2022-07-31T12:41:18Z</time>
      </trkpt>
      <trkpt lat="47.84751" lon="7.0465">
        <ele>530.3</ele>
        <time>2022-07-31T12:41:26Z</time>
      </trkpt>
      <trkpt lat="47.84775" lon="7.04619">
        <ele>533.67</ele>
        <time>2022-07-31T12:41:38Z</time>
      </trkpt>
      <trkpt lat="47.84799" lon="7.04583">
        <ele>536.55</ele>
        <time>2022-07-31T12:41:50Z</time>
      </trkpt>
      <trkpt lat="47.84814" lon="7.04545">
        <ele>539.44</ele>
        <time>2022-07-31T12:42:02Z</time>
      </trkpt>
      <trkpt lat="47.84826" lon="7.04507">
        <ele>542.32</ele>
        <time>2022-07-31T12:42:15Z</time>
      </trkpt>
      <trkpt lat="47.84831" lon="7.0449">
        <ele>543.28</ele>
        <time>2022-07-31T12:42:21Z</time>
      </trkpt>
      <trkpt lat="47.84834" lon="7.04476">
        <ele>544.24</ele>
        <time>2022-07-31T12:42:27Z</time>
      </trkpt>
      <trkpt lat="47.84835" lon="7.04468">
        <ele>544.72</ele>
        <time>2022-07-31T12:42:31Z</time>
      </trkpt>
      <trkpt lat="47.84839" lon="7.04458">
        <ele>545.69</ele>
        <time>2022-07-31T12:42:35Z</time>
      </trkpt>
      <trkpt lat="47.84839" lon="7.04423">
        <ele>547.61</ele>
        <time>2022-07-31T12:42:46Z</time>
      </trkpt>
      <trkpt lat="47.84831" lon="7.04381">
        <ele>550.97</ele>
        <time>2022-07-31T12:42:59Z</time>
      </trkpt>
      <trkpt lat="47.84827" lon="7.04368">
        <ele>552.41</ele>
        <time>2022-07-31T12:43:03Z</time>
      </trkpt>
      <trkpt lat="47.84811" lon="7.04333">
        <ele>554.82</ele>
        <time>2022-07-31T12:43:15Z</time>
      </trkpt>
      <trkpt lat="47.84801" lon="7.04304">
        <ele>558.66</ele>
        <time>2022-07-31T12:43:26Z</time>
      </trkpt>
      <trkpt lat="47.84803" lon="7.04302">
        <ele>557.7</ele>
        <time>2022-07-31T12:43:49Z</time>
      </trkpt>
      <trkpt lat="47.84805" lon="7.04301">
        <ele>557.22</ele>
        <time>2022-07-31T12:44:13Z</time>
      </trkpt>
      <trkpt lat="47.84806" lon="7.04301">
        <ele>557.7</ele>
        <time>2022-07-31T12:44:31Z</time>
      </trkpt>
      <trkpt lat="47.84806" lon="7.04299">
        <ele>557.7</ele>
        <time>2022-07-31T12:45:01Z</time>
      </trkpt>
      <trkpt lat="47.84806" lon="7.04299">
        <ele>557.7</ele>
        <time>2022-07-31T12:45:22Z</time>
      </trkpt>
      <trkpt lat="47.84806" lon="7.04298">
        <ele>557.22</ele>
        <time>2022-07-31T12:45:35Z</time>
      </trkpt>
      <trkpt lat="47.84804" lon="7.04297">
        <ele>557.22</ele>
        <time>2022-07-31T12:46:11Z</time>
      </trkpt>
      <trkpt lat="47.84804" lon="7.043">
        <ele>556.74</ele>
        <time>2022-07-31T12:46:44Z</time>
      </trkpt>
      <trkpt lat="47.84805" lon="7.043">
        <ele>557.7</ele>
        <time>2022-07-31T12:47:16Z</time>
      </trkpt>
      <trkpt lat="47.84806" lon="7.043">
        <ele>557.7</ele>
        <time>2022-07-31T12:47:49Z</time>
      </trkpt>
      <trkpt lat="47.84806" lon="7.043">
        <ele>557.7</ele>
        <time>2022-07-31T12:48:25Z</time>
      </trkpt>
      <trkpt lat="47.84806" lon="7.043">
        <ele>557.7</ele>
        <time>2022-07-31T12:49:00Z</time>
      </trkpt>
      <trkpt lat="47.84807" lon="7.04301">
        <ele>557.7</ele>
        <time>2022-07-31T12:49:34Z</time>
      </trkpt>
      <trkpt lat="47.84806" lon="7.043">
        <ele>557.7</ele>
        <time>2022-07-31T12:50:09Z</time>
      </trkpt>
      <trkpt lat="47.84808" lon="7.043">
        <ele>558.18</ele>
        <time>2022-07-31T12:50:42Z</time>
      </trkpt>
      <trkpt lat="47.84809" lon="7.04299">
        <ele>557.7</ele>
        <time>2022-07-31T12:51:19Z</time>
      </trkpt>
      <trkpt lat="47.84809" lon="7.043">
        <ele>557.7</ele>
        <time>2022-07-31T12:51:55Z</time>
      </trkpt>
      <trkpt lat="47.84809" lon="7.043">
        <ele>558.66</ele>
        <time>2022-07-31T12:52:15Z</time>
      </trkpt>
      <trkpt lat="47.8481" lon="7.04299">
        <ele>558.66</ele>
        <time>2022-07-31T12:52:37Z</time>
      </trkpt>
      <trkpt lat="47.8481" lon="7.04288">
        <ele>559.14</ele>
        <time>2022-07-31T12:52:43Z</time>
      </trkpt>
      <trkpt lat="47.84808" lon="7.04274">
        <ele>560.11</ele>
        <time>2022-07-31T12:52:49Z</time>
      </trkpt>
      <trkpt lat="47.84806" lon="7.04259">
        <ele>561.07</ele>
        <time>2022-07-31T12:52:55Z</time>
      </trkpt>
      <trkpt lat="47.84805" lon="7.04218">
        <ele>562.99</ele>
        <time>2022-07-31T12:53:08Z</time>
      </trkpt>
      <trkpt lat="47.84821" lon="7.04179">
        <ele>564.43</ele>
        <time>2022-07-31T12:53:21Z</time>
      </trkpt>
      <trkpt lat="47.84829" lon="7.04134">
        <ele>565.87</ele>
        <time>2022-07-31T12:53:34Z</time>
      </trkpt>
      <trkpt lat="47.84828" lon="7.04127">
        <ele>565.87</ele>
        <time>2022-07-31T12:53:36Z</time>
      </trkpt>
      <trkpt lat="47.84823" lon="7.04096">
        <ele>566.83</ele>
        <time>2022-07-31T12:53:44Z</time>
      </trkpt>
      <trkpt lat="47.84816" lon="7.0408">
        <ele>567.32</ele>
        <time>2022-07-31T12:53:49Z</time>
      </trkpt>
      <trkpt lat="47.84816" lon="7.04037">
        <ele>568.28</ele>
        <time>2022-07-31T12:54:00Z</time>
      </trkpt>
      <trkpt lat="47.84812" lon="7.04005">
        <ele>569.24</ele>
        <time>2022-07-31T12:54:08Z</time>
      </trkpt>
      <trkpt lat="47.84803" lon="7.03969">
        <ele>572.12</ele>
        <time>2022-07-31T12:54:20Z</time>
      </trkpt>
      <trkpt lat="47.84787" lon="7.03946">
        <ele>574.04</ele>
        <time>2022-07-31T12:54:32Z</time>
      </trkpt>
      <trkpt lat="47.84769" lon="7.03932">
        <ele>575.01</ele>
        <time>2022-07-31T12:54:44Z</time>
      </trkpt>
      <trkpt lat="47.84743" lon="7.03916">
        <ele>575.97</ele>
        <time>2022-07-31T12:54:54Z</time>
      </trkpt>
      <trkpt lat="47.84722" lon="7.03891">
        <ele>578.37</ele>
        <time>2022-07-31T12:55:05Z</time>
      </trkpt>
      <trkpt lat="47.84698" lon="7.03858">
        <ele>579.81</ele>
        <time>2022-07-31T12:55:16Z</time>
      </trkpt>
      <trkpt lat="47.84672" lon="7.03845">
        <ele>582.22</ele>
        <time>2022-07-31T12:55:27Z</time>
      </trkpt>
      <trkpt lat="47.84641" lon="7.03839">
        <ele>585.58</ele>
        <time>2022-07-31T12:55:39Z</time>
      </trkpt>
      <trkpt lat="47.84611" lon="7.03831">
        <ele>587.02</ele>
        <time>2022-07-31T12:55:51Z</time>
      </trkpt>
      <trkpt lat="47.84588" lon="7.0382">
        <ele>589.43</ele>
        <time>2022-07-31T12:56:01Z</time>
      </trkpt>
      <trkpt lat="47.84559" lon="7.038">
        <ele>592.79</ele>
        <time>2022-07-31T12:56:12Z</time>
      </trkpt>
      <trkpt lat="47.84548" lon="7.03792">
        <ele>594.71</ele>
        <time>2022-07-31T12:56:17Z</time>
      </trkpt>
      <trkpt lat="47.84536" lon="7.03784">
        <ele>596.64</ele>
        <time>2022-07-31T12:56:22Z</time>
      </trkpt>
      <trkpt lat="47.84518" lon="7.03758">
        <ele>599.52</ele>
        <time>2022-07-31T12:56:32Z</time>
      </trkpt>
      <trkpt lat="47.84512" lon="7.03745">
        <ele>600.48</ele>
        <time>2022-07-31T12:56:36Z</time>
      </trkpt>
      <trkpt lat="47.8451" lon="7.03741">
        <ele>600.96</ele>
        <time>2022-07-31T12:56:38Z</time>
      </trkpt>
      <trkpt lat="47.84505" lon="7.03728">
        <ele>601.92</ele>
        <time>2022-07-31T12:56:43Z</time>
      </trkpt>
      <trkpt lat="47.84501" lon="7.03713">
        <ele>602.88</ele>
        <time>2022-07-31T12:56:47Z</time>
      </trkpt>
      <trkpt lat="47.845" lon="7.03703">
        <ele>603.36</ele>
        <time>2022-07-31T12:56:50Z</time>
      </trkpt>
      <trkpt lat="47.84518" lon="7.03675">
        <ele>605.77</ele>
        <time>2022-07-31T12:57:03Z</time>
      </trkpt>
      <trkpt lat="47.84523" lon="7.03672">
        <ele>606.25</ele>
        <time>2022-07-31T12:57:05Z</time>
      </trkpt>
      <trkpt lat="47.84541" lon="7.03645">
        <ele>608.17</ele>
        <time>2022-07-31T12:57:16Z</time>
      </trkpt>
      <trkpt lat="47.84561" lon="7.03618">
        <ele>610.09</ele>
        <time>2022-07-31T12:57:26Z</time>
      </trkpt>
      <trkpt lat="47.84589" lon="7.03587">
        <ele>612.98</ele>
        <time>2022-07-31T12:57:38Z</time>
      </trkpt>
      <trkpt lat="47.84615" lon="7.03536">
        <ele>615.86</ele>
        <time>2022-07-31T12:57:52Z</time>
      </trkpt>
      <trkpt lat="47.84624" lon="7.03488">
        <ele>618.75</ele>
        <time>2022-07-31T12:58:04Z</time>
      </trkpt>
      <trkpt lat="47.84637" lon="7.03442">
        <ele>620.19</ele>
        <time>2022-07-31T12:58:15Z</time>
      </trkpt>
      <trkpt lat="47.84654" lon="7.03398">
        <ele>621.15</ele>
        <time>2022-07-31T12:58:26Z</time>
      </trkpt>
      <trkpt lat="47.84673" lon="7.03362">
        <ele>622.59</ele>
        <time>2022-07-31T12:58:36Z</time>
      </trkpt>
      <trkpt lat="47.84679" lon="7.03318">
        <ele>623.55</ele>
        <time>2022-07-31T12:58:46Z</time>
      </trkpt>
      <trkpt lat="47.84661" lon="7.03294">
        <ele>624.51</ele>
        <time>2022-07-31T12:58:56Z</time>
      </trkpt>
      <trkpt lat="47.8463" lon="7.03297">
        <ele>625.47</ele>
        <time>2022-07-31T12:59:07Z</time>
      </trkpt>
      <trkpt lat="47.84591" lon="7.03308">
        <ele>627.4</ele>
        <time>2022-07-31T12:59:19Z</time>
      </trkpt>
      <trkpt lat="47.84567" lon="7.03334">
        <ele>627.88</ele>
        <time>2022-07-31T12:59:30Z</time>
      </trkpt>
      <trkpt lat="47.84531" lon="7.03356">
        <ele>628.84</ele>
        <time>2022-07-31T12:59:41Z</time>
      </trkpt>
      <trkpt lat="47.84497" lon="7.03388">
        <ele>630.76</ele>
        <time>2022-07-31T12:59:53Z</time>
      </trkpt>
      <trkpt lat="47.84458" lon="7.03402">
        <ele>631.72</ele>
        <time>2022-07-31T13:00:04Z</time>
      </trkpt>
      <trkpt lat="47.84413" lon="7.03401">
        <ele>633.17</ele>
        <time>2022-07-31T13:00:16Z</time>
      </trkpt>
      <trkpt lat="47.84403" lon="7.03402">
        <ele>633.65</ele>
        <time>2022-07-31T13:00:20Z</time>
      </trkpt>
      <trkpt lat="47.84372" lon="7.03414">
        <ele>634.13</ele>
        <time>2022-07-31T13:00:30Z</time>
      </trkpt>
      <trkpt lat="47.84364" lon="7.03415">
        <ele>634.61</ele>
        <time>2022-07-31T13:00:32Z</time>
      </trkpt>
      <trkpt lat="47.84345" lon="7.03411">
        <ele>635.09</ele>
        <time>2022-07-31T13:00:37Z</time>
      </trkpt>
      <trkpt lat="47.84293" lon="7.03385">
        <ele>636.53</ele>
        <time>2022-07-31T13:00:49Z</time>
      </trkpt>
      <trkpt lat="47.84255" lon="7.03356">
        <ele>638.45</ele>
        <time>2022-07-31T13:00:59Z</time>
      </trkpt>
      <trkpt lat="47.84239" lon="7.0332">
        <ele>639.89</ele>
        <time>2022-07-31T13:01:07Z</time>
      </trkpt>
      <trkpt lat="47.84227" lon="7.03269">
        <ele>640.86</ele>
        <time>2022-07-31T13:01:16Z</time>
      </trkpt>
      <trkpt lat="47.84229" lon="7.03221">
        <ele>641.82</ele>
        <time>2022-07-31T13:01:25Z</time>
      </trkpt>
      <trkpt lat="47.84249" lon="7.03172">
        <ele>643.26</ele>
        <time>2022-07-31T13:01:35Z</time>
      </trkpt>
      <trkpt lat="47.84255" lon="7.03115">
        <ele>644.22</ele>
        <time>2022-07-31T13:01:45Z</time>
      </trkpt>
      <trkpt lat="47.8424" lon="7.03056">
        <ele>644.22</ele>
        <time>2022-07-31T13:01:56Z</time>
      </trkpt>
      <trkpt lat="47.84218" lon="7.02993">
        <ele>645.18</ele>
        <time>2022-07-31T13:02:08Z</time>
      </trkpt>
      <trkpt lat="47.84209" lon="7.0296">
        <ele>646.14</ele>
        <time>2022-07-31T13:02:14Z</time>
      </trkpt>
      <trkpt lat="47.84206" lon="7.02948">
        <ele>646.14</ele>
        <time>2022-07-31T13:02:16Z</time>
      </trkpt>
      <trkpt lat="47.84201" lon="7.0291">
        <ele>647.1</ele>
        <time>2022-07-31T13:02:22Z</time>
      </trkpt>
      <trkpt lat="47.84201" lon="7.02903">
        <ele>647.59</ele>
        <time>2022-07-31T13:02:23Z</time>
      </trkpt>
      <trkpt lat="47.84198" lon="7.0289">
        <ele>648.07</ele>
        <time>2022-07-31T13:02:25Z</time>
      </trkpt>
      <trkpt lat="47.84206" lon="7.02854">
        <ele>649.51</ele>
        <time>2022-07-31T13:02:32Z</time>
      </trkpt>
      <trkpt lat="47.84202" lon="7.02832">
        <ele>650.47</ele>
        <time>2022-07-31T13:02:36Z</time>
      </trkpt>
      <trkpt lat="47.84195" lon="7.02824">
        <ele>650.47</ele>
        <time>2022-07-31T13:02:39Z</time>
      </trkpt>
      <trkpt lat="47.84175" lon="7.02843">
        <ele>653.83</ele>
        <time>2022-07-31T13:02:48Z</time>
      </trkpt>
      <trkpt lat="47.84157" lon="7.02876">
        <ele>656.72</ele>
        <time>2022-07-31T13:02:58Z</time>
      </trkpt>
      <trkpt lat="47.84142" lon="7.02908">
        <ele>660.08</ele>
        <time>2022-07-31T13:03:08Z</time>
      </trkpt>
      <trkpt lat="47.84134" lon="7.02933">
        <ele>662.49</ele>
        <time>2022-07-31T13:03:15Z</time>
      </trkpt>
      <trkpt lat="47.84122" lon="7.02971">
        <ele>665.85</ele>
        <time>2022-07-31T13:03:27Z</time>
      </trkpt>
      <trkpt lat="47.84109" lon="7.02988">
        <ele>668.25</ele>
        <time>2022-07-31T13:03:36Z</time>
      </trkpt>
      <trkpt lat="47.84108" lon="7.0299">
        <ele>668.73</ele>
        <time>2022-07-31T13:03:37Z</time>
      </trkpt>
      <trkpt lat="47.84106" lon="7.02992">
        <ele>668.73</ele>
        <time>2022-07-31T13:03:38Z</time>
      </trkpt>
      <trkpt lat="47.84105" lon="7.02994">
        <ele>669.22</ele>
        <time>2022-07-31T13:03:39Z</time>
      </trkpt>
      <trkpt lat="47.84103" lon="7.02996">
        <ele>669.7</ele>
        <time>2022-07-31T13:03:40Z</time>
      </trkpt>
      <trkpt lat="47.84086" lon="7.03017">
        <ele>672.58</ele>
        <time>2022-07-31T13:03:51Z</time>
      </trkpt>
      <trkpt lat="47.84061" lon="7.03039">
        <ele>675.94</ele>
        <time>2022-07-31T13:04:03Z</time>
      </trkpt>
      <trkpt lat="47.84053" lon="7.0304">
        <ele>676.42</ele>
        <time>2022-07-31T13:04:06Z</time>
      </trkpt>
      <trkpt lat="47.8405" lon="7.03041">
        <ele>676.91</ele>
        <time>2022-07-31T13:04:07Z</time>
      </trkpt>
      <trkpt lat="47.84047" lon="7.03042">
        <ele>676.91</ele>
        <time>2022-07-31T13:04:08Z</time>
      </trkpt>
      <trkpt lat="47.8404" lon="7.03042">
        <ele>677.39</ele>
        <time>2022-07-31T13:04:21Z</time>
      </trkpt>
      <trkpt lat="47.8404" lon="7.03043">
        <ele>677.39</ele>
        <time>2022-07-31T13:04:40Z</time>
      </trkpt>
      <trkpt lat="47.84035" lon="7.03041">
        <ele>677.87</ele>
        <time>2022-07-31T13:04:56Z</time>
      </trkpt>
      <trkpt lat="47.84034" lon="7.0304">
        <ele>677.87</ele>
        <time>2022-07-31T13:04:57Z</time>
      </trkpt>
      <trkpt lat="47.84032" lon="7.03039">
        <ele>677.87</ele>
        <time>2022-07-31T13:04:58Z</time>
      </trkpt>
      <trkpt lat="47.8403" lon="7.03037">
        <ele>678.35</ele>
        <time>2022-07-31T13:04:59Z</time>
      </trkpt>
      <trkpt lat="47.84006" lon="7.03013">
        <ele>680.75</ele>
        <time>2022-07-31T13:05:11Z</time>
      </trkpt>
      <trkpt lat="47.83997" lon="7.03006">
        <ele>681.71</ele>
        <time>2022-07-31T13:05:16Z</time>
      </trkpt>
      <trkpt lat="47.83995" lon="7.03006">
        <ele>681.71</ele>
        <time>2022-07-31T13:05:17Z</time>
      </trkpt>
      <trkpt lat="47.83971" lon="7.03003">
        <ele>683.63</ele>
        <time>2022-07-31T13:05:26Z</time>
      </trkpt>
      <trkpt lat="47.83942" lon="7.0299">
        <ele>685.08</ele>
        <time>2022-07-31T13:05:36Z</time>
      </trkpt>
      <trkpt lat="47.8392" lon="7.02997">
        <ele>687.48</ele>
        <time>2022-07-31T13:05:46Z</time>
      </trkpt>
      <trkpt lat="47.8392" lon="7.02999">
        <ele>687.48</ele>
        <time>2022-07-31T13:06:15Z</time>
      </trkpt>
      <trkpt lat="47.83919" lon="7.03">
        <ele>687.48</ele>
        <time>2022-07-31T13:06:45Z</time>
      </trkpt>
      <trkpt lat="47.83919" lon="7.03001">
        <ele>687.96</ele>
        <time>2022-07-31T13:07:20Z</time>
      </trkpt>
      <trkpt lat="47.83919" lon="7.03">
        <ele>688.44</ele>
        <time>2022-07-31T13:07:46Z</time>
      </trkpt>
      <trkpt lat="47.8392" lon="7.03001">
        <ele>688.92</ele>
        <time>2022-07-31T13:08:13Z</time>
      </trkpt>
      <trkpt lat="47.8392" lon="7.03001">
        <ele>689.4</ele>
        <time>2022-07-31T13:08:45Z</time>
      </trkpt>
      <trkpt lat="47.83918" lon="7.03001">
        <ele>689.88</ele>
        <time>2022-07-31T13:09:06Z</time>
      </trkpt>
      <trkpt lat="47.83917" lon="7.03002">
        <ele>689.88</ele>
        <time>2022-07-31T13:09:28Z</time>
      </trkpt>
      <trkpt lat="47.83916" lon="7.03002">
        <ele>689.4</ele>
        <time>2022-07-31T13:09:56Z</time>
      </trkpt>
      <trkpt lat="47.83911" lon="7.0301">
        <ele>689.88</ele>
        <time>2022-07-31T13:10:13Z</time>
      </trkpt>
      <trkpt lat="47.83908" lon="7.03017">
        <ele>690.36</ele>
        <time>2022-07-31T13:10:29Z</time>
      </trkpt>
      <trkpt lat="47.83908" lon="7.03016">
        <ele>690.36</ele>
        <time>2022-07-31T13:10:57Z</time>
      </trkpt>
      <trkpt lat="47.83907" lon="7.03021">
        <ele>690.36</ele>
        <time>2022-07-31T13:11:00Z</time>
      </trkpt>
      <trkpt lat="47.83902" lon="7.03029">
        <ele>690.84</ele>
        <time>2022-07-31T13:11:04Z</time>
      </trkpt>
      <trkpt lat="47.83893" lon="7.03045">
        <ele>691.33</ele>
        <time>2022-07-31T13:11:12Z</time>
      </trkpt>
      <trkpt lat="47.83887" lon="7.03047">
        <ele>692.29</ele>
        <time>2022-07-31T13:11:15Z</time>
      </trkpt>
      <trkpt lat="47.83864" lon="7.03025">
        <ele>693.73</ele>
        <time>2022-07-31T13:11:27Z</time>
      </trkpt>
      <trkpt lat="47.83841" lon="7.02996">
        <ele>695.65</ele>
        <time>2022-07-31T13:11:39Z</time>
      </trkpt>
      <trkpt lat="47.83814" lon="7.02954">
        <ele>698.53</ele>
        <time>2022-07-31T13:11:53Z</time>
      </trkpt>
      <trkpt lat="47.83796" lon="7.02918">
        <ele>700.46</ele>
        <time>2022-07-31T13:12:04Z</time>
      </trkpt>
      <trkpt lat="47.83775" lon="7.02886">
        <ele>702.38</ele>
        <time>2022-07-31T13:12:16Z</time>
      </trkpt>
      <trkpt lat="47.83764" lon="7.02868">
        <ele>704.3</ele>
        <time>2022-07-31T13:12:27Z</time>
      </trkpt>
      <trkpt lat="47.83764" lon="7.02866">
        <ele>704.3</ele>
        <time>2022-07-31T13:12:41Z</time>
      </trkpt>
      <trkpt lat="47.83765" lon="7.02867">
        <ele>704.78</ele>
        <time>2022-07-31T13:13:15Z</time>
      </trkpt>
      <trkpt lat="47.83765" lon="7.02867">
        <ele>704.78</ele>
        <time>2022-07-31T13:13:20Z</time>
      </trkpt>
      <trkpt lat="47.83763" lon="7.02862">
        <ele>704.78</ele>
        <time>2022-07-31T13:13:23Z</time>
      </trkpt>
      <trkpt lat="47.83759" lon="7.0285">
        <ele>705.75</ele>
        <time>2022-07-31T13:13:27Z</time>
      </trkpt>
      <trkpt lat="47.83745" lon="7.02816">
        <ele>709.59</ele>
        <time>2022-07-31T13:13:38Z</time>
      </trkpt>
      <trkpt lat="47.8372" lon="7.02808">
        <ele>712.95</ele>
        <time>2022-07-31T13:13:49Z</time>
      </trkpt>
      <trkpt lat="47.837" lon="7.02813">
        <ele>716.32</ele>
        <time>2022-07-31T13:13:59Z</time>
      </trkpt>
      <trkpt lat="47.83698" lon="7.02814">
        <ele>716.32</ele>
        <time>2022-07-31T13:14:00Z</time>
      </trkpt>
      <trkpt lat="47.83677" lon="7.02816">
        <ele>719.68</ele>
        <time>2022-07-31T13:14:10Z</time>
      </trkpt>
      <trkpt lat="47.83652" lon="7.02823">
        <ele>722.57</ele>
        <time>2022-07-31T13:14:21Z</time>
      </trkpt>
      <trkpt lat="47.83632" lon="7.02836">
        <ele>725.93</ele>
        <time>2022-07-31T13:14:31Z</time>
      </trkpt>
      <trkpt lat="47.83605" lon="7.02853">
        <ele>729.3</ele>
        <time>2022-07-31T13:14:43Z</time>
      </trkpt>
      <trkpt lat="47.83593" lon="7.02862">
        <ele>731.22</ele>
        <time>2022-07-31T13:14:49Z</time>
      </trkpt>
      <trkpt lat="47.8359" lon="7.02865">
        <ele>731.7</ele>
        <time>2022-07-31T13:14:51Z</time>
      </trkpt>
      <trkpt lat="47.83585" lon="7.02873">
        <ele>733.62</ele>
        <time>2022-07-31T13:14:56Z</time>
      </trkpt>
      <trkpt lat="47.83573" lon="7.02875">
        <ele>736.03</ele>
        <time>2022-07-31T13:15:03Z</time>
      </trkpt>
      <trkpt lat="47.83553" lon="7.02849">
        <ele>739.39</ele>
        <time>2022-07-31T13:15:15Z</time>
      </trkpt>
      <trkpt lat="47.8354" lon="7.02823">
        <ele>741.31</ele>
        <time>2022-07-31T13:15:27Z</time>
      </trkpt>
      <trkpt lat="47.83539" lon="7.02821">
        <ele>741.79</ele>
        <time>2022-07-31T13:15:28Z</time>
      </trkpt>
      <trkpt lat="47.83519" lon="7.02803">
        <ele>745.16</ele>
        <time>2022-07-31T13:15:42Z</time>
      </trkpt>
      <trkpt lat="47.83497" lon="7.02786">
        <ele>748.04</ele>
        <time>2022-07-31T13:15:55Z</time>
      </trkpt>
      <trkpt lat="47.8348" lon="7.0277">
        <ele>751.41</ele>
        <time>2022-07-31T13:16:07Z</time>
      </trkpt>
      <trkpt lat="47.83458" lon="7.02758">
        <ele>753.81</ele>
        <time>2022-07-31T13:16:17Z</time>
      </trkpt>
      <trkpt lat="47.83434" lon="7.02746">
        <ele>756.69</ele>
        <time>2022-07-31T13:16:29Z</time>
      </trkpt>
      <trkpt lat="47.83433" lon="7.02745">
        <ele>757.18</ele>
        <time>2022-07-31T13:16:30Z</time>
      </trkpt>
      <trkpt lat="47.83421" lon="7.02736">
        <ele>758.62</ele>
        <time>2022-07-31T13:16:37Z</time>
      </trkpt>
      <trkpt lat="47.83415" lon="7.02727">
        <ele>760.06</ele>
        <time>2022-07-31T13:16:41Z</time>
      </trkpt>
      <trkpt lat="47.83409" lon="7.02694">
        <ele>763.9</ele>
        <time>2022-07-31T13:16:52Z</time>
      </trkpt>
      <trkpt lat="47.83409" lon="7.02692">
        <ele>763.9</ele>
        <time>2022-07-31T13:16:53Z</time>
      </trkpt>
      <trkpt lat="47.8341" lon="7.02689">
        <ele>764.87</ele>
        <time>2022-07-31T13:16:55Z</time>
      </trkpt>
      <trkpt lat="47.83411" lon="7.02683">
        <ele>764.87</ele>
        <time>2022-07-31T13:16:57Z</time>
      </trkpt>
      <trkpt lat="47.83409" lon="7.02664">
        <ele>766.79</ele>
        <time>2022-07-31T13:17:03Z</time>
      </trkpt>
      <trkpt lat="47.83408" lon="7.02663">
        <ele>766.79</ele>
        <time>2022-07-31T13:17:04Z</time>
      </trkpt>
      <trkpt lat="47.83395" lon="7.02657">
        <ele>767.75</ele>
        <time>2022-07-31T13:17:09Z</time>
      </trkpt>
      <trkpt lat="47.83391" lon="7.02661">
        <ele>768.71</ele>
        <time>2022-07-31T13:17:13Z</time>
      </trkpt>
      <trkpt lat="47.8339" lon="7.02672">
        <ele>769.67</ele>
        <time>2022-07-31T13:17:20Z</time>
      </trkpt>
      <trkpt lat="47.83385" lon="7.02687">
        <ele>771.11</ele>
        <time>2022-07-31T13:17:27Z</time>
      </trkpt>
      <trkpt lat="47.8338" lon="7.02712">
        <ele>774</ele>
        <time>2022-07-31T13:17:41Z</time>
      </trkpt>
      <trkpt lat="47.8338" lon="7.02725">
        <ele>775.44</ele>
        <time>2022-07-31T13:17:47Z</time>
      </trkpt>
      <trkpt lat="47.83386" lon="7.02746">
        <ele>776.4</ele>
        <time>2022-07-31T13:17:54Z</time>
      </trkpt>
      <trkpt lat="47.83377" lon="7.0277">
        <ele>778.81</ele>
        <time>2022-07-31T13:18:05Z</time>
      </trkpt>
      <trkpt lat="47.83379" lon="7.02783">
        <ele>780.25</ele>
        <time>2022-07-31T13:18:10Z</time>
      </trkpt>
      <trkpt lat="47.83397" lon="7.02807">
        <ele>783.13</ele>
        <time>2022-07-31T13:18:21Z</time>
      </trkpt>
      <trkpt lat="47.83418" lon="7.02834">
        <ele>786.5</ele>
        <time>2022-07-31T13:18:33Z</time>
      </trkpt>
      <trkpt lat="47.8342" lon="7.02838">
        <ele>787.46</ele>
        <time>2022-07-31T13:18:35Z</time>
      </trkpt>
      <trkpt lat="47.83439" lon="7.02866">
        <ele>790.34</ele>
        <time>2022-07-31T13:18:47Z</time>
      </trkpt>
      <trkpt lat="47.8346" lon="7.02893">
        <ele>793.71</ele>
        <time>2022-07-31T13:18:58Z</time>
      </trkpt>
      <trkpt lat="47.83471" lon="7.02935">
        <ele>796.59</ele>
        <time>2022-07-31T13:19:10Z</time>
      </trkpt>
      <trkpt lat="47.83471" lon="7.02951">
        <ele>797.55</ele>
        <time>2022-07-31T13:19:15Z</time>
      </trkpt>
      <trkpt lat="47.8347" lon="7.02978">
        <ele>799.47</ele>
        <time>2022-07-31T13:19:23Z</time>
      </trkpt>
      <trkpt lat="47.83467" lon="7.03002">
        <ele>801.88</ele>
        <time>2022-07-31T13:19:31Z</time>
      </trkpt>
      <trkpt lat="47.83451" lon="7.0304">
        <ele>805.72</ele>
        <time>2022-07-31T13:19:43Z</time>
      </trkpt>
      <trkpt lat="47.83431" lon="7.0307">
        <ele>805.72</ele>
        <time>2022-07-31T13:19:56Z</time>
      </trkpt>
      <trkpt lat="47.83429" lon="7.03071">
        <ele>805.24</ele>
        <time>2022-07-31T13:19:57Z</time>
      </trkpt>
      <trkpt lat="47.83428" lon="7.0308">
        <ele>804.76</ele>
        <time>2022-07-31T13:20:01Z</time>
      </trkpt>
      <trkpt lat="47.83419" lon="7.03117">
        <ele>804.28</ele>
        <time>2022-07-31T13:20:14Z</time>
      </trkpt>
      <trkpt lat="47.8342" lon="7.03117">
        <ele>804.76</ele>
        <time>2022-07-31T13:20:32Z</time>
      </trkpt>
      <trkpt lat="47.8342" lon="7.03117">
        <ele>804.76</ele>
        <time>2022-07-31T13:20:50Z</time>
      </trkpt>
      <trkpt lat="47.83419" lon="7.03126">
        <ele>804.76</ele>
        <time>2022-07-31T13:20:59Z</time>
      </trkpt>
      <trkpt lat="47.83419" lon="7.03128">
        <ele>805.24</ele>
        <time>2022-07-31T13:21:18Z</time>
      </trkpt>
      <trkpt lat="47.83418" lon="7.0313">
        <ele>804.76</ele>
        <time>2022-07-31T13:21:50Z</time>
      </trkpt>
      <trkpt lat="47.83421" lon="7.0313">
        <ele>804.76</ele>
        <time>2022-07-31T13:22:26Z</time>
      </trkpt>
      <trkpt lat="47.8342" lon="7.03129">
        <ele>804.76</ele>
        <time>2022-07-31T13:22:51Z</time>
      </trkpt>
      <trkpt lat="47.8342" lon="7.03129">
        <ele>804.76</ele>
        <time>2022-07-31T13:23:13Z</time>
      </trkpt>
      <trkpt lat="47.8342" lon="7.0313">
        <ele>805.24</ele>
        <time>2022-07-31T13:23:35Z</time>
      </trkpt>
      <trkpt lat="47.8342" lon="7.03129">
        <ele>805.24</ele>
        <time>2022-07-31T13:23:56Z</time>
      </trkpt>
      <trkpt lat="47.83422" lon="7.03127">
        <ele>805.24</ele>
        <time>2022-07-31T13:23:58Z</time>
      </trkpt>
      <trkpt lat="47.83425" lon="7.03114">
        <ele>806.2</ele>
        <time>2022-07-31T13:24:05Z</time>
      </trkpt>
      <trkpt lat="47.83424" lon="7.03108">
        <ele>805.72</ele>
        <time>2022-07-31T13:24:08Z</time>
      </trkpt>
      <trkpt lat="47.83422" lon="7.03104">
        <ele>806.2</ele>
        <time>2022-07-31T13:24:11Z</time>
      </trkpt>
      <trkpt lat="47.83424" lon="7.03103">
        <ele>806.2</ele>
        <time>2022-07-31T13:24:24Z</time>
      </trkpt>
      <trkpt lat="47.83425" lon="7.031">
        <ele>806.68</ele>
        <time>2022-07-31T13:24:28Z</time>
      </trkpt>
      <trkpt lat="47.83427" lon="7.03094">
        <ele>806.68</ele>
        <time>2022-07-31T13:24:32Z</time>
      </trkpt>
      <trkpt lat="47.83415" lon="7.03077">
        <ele>805.24</ele>
        <time>2022-07-31T13:24:40Z</time>
      </trkpt>
      <trkpt lat="47.83392" lon="7.03086">
        <ele>802.84</ele>
        <time>2022-07-31T13:24:49Z</time>
      </trkpt>
      <trkpt lat="47.83369" lon="7.03089">
        <ele>799.47</ele>
        <time>2022-07-31T13:24:55Z</time>
      </trkpt>
      <trkpt lat="47.83354" lon="7.03095">
        <ele>798.03</ele>
        <time>2022-07-31T13:24:58Z</time>
      </trkpt>
      <trkpt lat="47.83333" lon="7.03111">
        <ele>794.67</ele>
        <time>2022-07-31T13:25:02Z</time>
      </trkpt>
      <trkpt lat="47.83323" lon="7.03119">
        <ele>793.71</ele>
        <time>2022-07-31T13:25:04Z</time>
      </trkpt>
      <trkpt lat="47.83317" lon="7.03121">
        <ele>792.26</ele>
        <time>2022-07-31T13:25:05Z</time>
      </trkpt>
      <trkpt lat="47.83304" lon="7.03127">
        <ele>790.34</ele>
        <time>2022-07-31T13:25:07Z</time>
      </trkpt>
      <trkpt lat="47.83297" lon="7.03132">
        <ele>789.86</ele>
        <time>2022-07-31T13:25:08Z</time>
      </trkpt>
      <trkpt lat="47.83291" lon="7.0314">
        <ele>788.9</ele>
        <time>2022-07-31T13:25:09Z</time>
      </trkpt>
      <trkpt lat="47.83284" lon="7.03148">
        <ele>787.94</ele>
        <time>2022-07-31T13:25:10Z</time>
      </trkpt>
      <trkpt lat="47.83277" lon="7.03157">
        <ele>786.98</ele>
        <time>2022-07-31T13:25:11Z</time>
      </trkpt>
      <trkpt lat="47.83269" lon="7.03166">
        <ele>786.5</ele>
        <time>2022-07-31T13:25:12Z</time>
      </trkpt>
      <trkpt lat="47.83247" lon="7.03192">
        <ele>782.17</ele>
        <time>2022-07-31T13:25:15Z</time>
      </trkpt>
      <trkpt lat="47.83234" lon="7.03209">
        <ele>780.25</ele>
        <time>2022-07-31T13:25:17Z</time>
      </trkpt>
      <trkpt lat="47.83212" lon="7.03247">
        <ele>776.4</ele>
        <time>2022-07-31T13:25:21Z</time>
      </trkpt>
      <trkpt lat="47.83207" lon="7.03257">
        <ele>775.92</ele>
        <time>2022-07-31T13:25:22Z</time>
      </trkpt>
      <trkpt lat="47.83204" lon="7.03269">
        <ele>774.96</ele>
        <time>2022-07-31T13:25:23Z</time>
      </trkpt>
      <trkpt lat="47.83202" lon="7.0328">
        <ele>774</ele>
        <time>2022-07-31T13:25:24Z</time>
      </trkpt>
      <trkpt lat="47.83201" lon="7.03292">
        <ele>773.04</ele>
        <time>2022-07-31T13:25:25Z</time>
      </trkpt>
      <trkpt lat="47.83202" lon="7.03305">
        <ele>772.08</ele>
        <time>2022-07-31T13:25:26Z</time>
      </trkpt>
      <trkpt lat="47.83206" lon="7.03347">
        <ele>768.23</ele>
        <time>2022-07-31T13:25:30Z</time>
      </trkpt>
      <trkpt lat="47.83211" lon="7.03381">
        <ele>765.35</ele>
        <time>2022-07-31T13:25:33Z</time>
      </trkpt>
      <trkpt lat="47.83219" lon="7.03425">
        <ele>761.5</ele>
        <time>2022-07-31T13:25:37Z</time>
      </trkpt>
      <trkpt lat="47.83226" lon="7.03458">
        <ele>758.62</ele>
        <time>2022-07-31T13:25:40Z</time>
      </trkpt>
      <trkpt lat="47.83232" lon="7.03492">
        <ele>754.77</ele>
        <time>2022-07-31T13:25:43Z</time>
      </trkpt>
      <trkpt lat="47.83233" lon="7.03503">
        <ele>753.81</ele>
        <time>2022-07-31T13:25:44Z</time>
      </trkpt>
      <trkpt lat="47.83239" lon="7.03544">
        <ele>750.45</ele>
        <time>2022-07-31T13:25:48Z</time>
      </trkpt>
      <trkpt lat="47.83245" lon="7.03577">
        <ele>747.56</ele>
        <time>2022-07-31T13:25:51Z</time>
      </trkpt>
      <trkpt lat="47.83248" lon="7.03587">
        <ele>746.6</ele>
        <time>2022-07-31T13:25:52Z</time>
      </trkpt>
      <trkpt lat="47.8326" lon="7.03634">
        <ele>743.24</ele>
        <time>2022-07-31T13:25:56Z</time>
      </trkpt>
      <trkpt lat="47.83262" lon="7.03647">
        <ele>742.28</ele>
        <time>2022-07-31T13:25:57Z</time>
      </trkpt>
      <trkpt lat="47.83263" lon="7.0366">
        <ele>741.31</ele>
        <time>2022-07-31T13:25:58Z</time>
      </trkpt>
      <trkpt lat="47.83263" lon="7.03673">
        <ele>740.83</ele>
        <time>2022-07-31T13:25:59Z</time>
      </trkpt>
      <trkpt lat="47.83263" lon="7.03685">
        <ele>740.35</ele>
        <time>2022-07-31T13:26:00Z</time>
      </trkpt>
      <trkpt lat="47.83261" lon="7.03698">
        <ele>739.87</ele>
        <time>2022-07-31T13:26:01Z</time>
      </trkpt>
      <trkpt lat="47.83259" lon="7.0371">
        <ele>739.39</ele>
        <time>2022-07-31T13:26:02Z</time>
      </trkpt>
      <trkpt lat="47.83255" lon="7.03721">
        <ele>739.39</ele>
        <time>2022-07-31T13:26:03Z</time>
      </trkpt>
      <trkpt lat="47.83247" lon="7.03737">
        <ele>738.91</ele>
        <time>2022-07-31T13:26:05Z</time>
      </trkpt>
      <trkpt lat="47.83244" lon="7.0374">
        <ele>738.43</ele>
        <time>2022-07-31T13:26:06Z</time>
      </trkpt>
      <trkpt lat="47.8324" lon="7.0374">
        <ele>736.99</ele>
        <time>2022-07-31T13:26:07Z</time>
      </trkpt>
      <trkpt lat="47.83236" lon="7.03738">
        <ele>736.51</ele>
        <time>2022-07-31T13:26:08Z</time>
      </trkpt>
      <trkpt lat="47.83231" lon="7.03735">
        <ele>736.03</ele>
        <time>2022-07-31T13:26:09Z</time>
      </trkpt>
      <trkpt lat="47.83226" lon="7.03732">
        <ele>735.55</ele>
        <time>2022-07-31T13:26:10Z</time>
      </trkpt>
      <trkpt lat="47.8322" lon="7.03729">
        <ele>734.58</ele>
        <time>2022-07-31T13:26:11Z</time>
      </trkpt>
      <trkpt lat="47.83213" lon="7.03726">
        <ele>733.62</ele>
        <time>2022-07-31T13:26:12Z</time>
      </trkpt>
      <trkpt lat="47.83205" lon="7.03722">
        <ele>733.14</ele>
        <time>2022-07-31T13:26:13Z</time>
      </trkpt>
      <trkpt lat="47.83191" lon="7.03714">
        <ele>731.7</ele>
        <time>2022-07-31T13:26:15Z</time>
      </trkpt>
      <trkpt lat="47.83184" lon="7.03708">
        <ele>730.74</ele>
        <time>2022-07-31T13:26:16Z</time>
      </trkpt>
      <trkpt lat="47.83177" lon="7.03703">
        <ele>729.78</ele>
        <time>2022-07-31T13:26:17Z</time>
      </trkpt>
      <trkpt lat="47.83163" lon="7.0369">
        <ele>727.86</ele>
        <time>2022-07-31T13:26:19Z</time>
      </trkpt>
      <trkpt lat="47.8314" lon="7.03663">
        <ele>724.49</ele>
        <time>2022-07-31T13:26:24Z</time>
      </trkpt>
      <trkpt lat="47.83132" lon="7.03655">
        <ele>723.53</ele>
        <time>2022-07-31T13:26:27Z</time>
      </trkpt>
      <trkpt lat="47.83124" lon="7.03645">
        <ele>721.61</ele>
        <time>2022-07-31T13:26:31Z</time>
      </trkpt>
      <trkpt lat="47.83123" lon="7.03641">
        <ele>721.61</ele>
        <time>2022-07-31T13:26:32Z</time>
      </trkpt>
      <trkpt lat="47.83122" lon="7.03636">
        <ele>721.13</ele>
        <time>2022-07-31T13:26:33Z</time>
      </trkpt>
      <trkpt lat="47.83121" lon="7.03631">
        <ele>720.65</ele>
        <time>2022-07-31T13:26:34Z</time>
      </trkpt>
      <trkpt lat="47.8312" lon="7.03627">
        <ele>720.16</ele>
        <time>2022-07-31T13:26:35Z</time>
      </trkpt>
      <trkpt lat="47.83117" lon="7.03624">
        <ele>720.16</ele>
        <time>2022-07-31T13:26:36Z</time>
      </trkpt>
      <trkpt lat="47.83114" lon="7.03621">
        <ele>720.16</ele>
        <time>2022-07-31T13:26:37Z</time>
      </trkpt>
      <trkpt lat="47.83111" lon="7.03619">
        <ele>720.16</ele>
        <time>2022-07-31T13:26:38Z</time>
      </trkpt>
      <trkpt lat="47.83107" lon="7.03618">
        <ele>720.65</ele>
        <time>2022-07-31T13:26:39Z</time>
      </trkpt>
      <trkpt lat="47.83105" lon="7.03619">
        <ele>720.16</ele>
        <time>2022-07-31T13:26:40Z</time>
      </trkpt>
      <trkpt lat="47.83104" lon="7.03622">
        <ele>720.16</ele>
        <time>2022-07-31T13:26:41Z</time>
      </trkpt>
      <trkpt lat="47.83104" lon="7.03624">
        <ele>719.68</ele>
        <time>2022-07-31T13:26:42Z</time>
      </trkpt>
      <trkpt lat="47.83104" lon="7.03626">
        <ele>719.68</ele>
        <time>2022-07-31T13:26:43Z</time>
      </trkpt>
      <trkpt lat="47.83105" lon="7.03627">
        <ele>719.2</ele>
        <time>2022-07-31T13:26:44Z</time>
      </trkpt>
      <trkpt lat="47.83106" lon="7.03628">
        <ele>719.2</ele>
        <time>2022-07-31T13:26:45Z</time>
      </trkpt>
      <trkpt lat="47.83108" lon="7.03629">
        <ele>719.2</ele>
        <time>2022-07-31T13:26:46Z</time>
      </trkpt>
      <trkpt lat="47.8311" lon="7.03629">
        <ele>719.68</ele>
        <time>2022-07-31T13:26:47Z</time>
      </trkpt>
      <trkpt lat="47.83111" lon="7.03628">
        <ele>719.68</ele>
        <time>2022-07-31T13:26:48Z</time>
      </trkpt>
      <trkpt lat="47.83112" lon="7.03627">
        <ele>719.68</ele>
        <time>2022-07-31T13:26:49Z</time>
      </trkpt>
      <trkpt lat="47.83114" lon="7.03625">
        <ele>720.16</ele>
        <time>2022-07-31T13:26:50Z</time>
      </trkpt>
      <trkpt lat="47.83114" lon="7.03623">
        <ele>720.16</ele>
        <time>2022-07-31T13:26:51Z</time>
      </trkpt>
      <trkpt lat="47.83115" lon="7.0362">
        <ele>720.16</ele>
        <time>2022-07-31T13:26:52Z</time>
      </trkpt>
      <trkpt lat="47.83112" lon="7.03616">
        <ele>719.68</ele>
        <time>2022-07-31T13:26:55Z</time>
      </trkpt>
      <trkpt lat="47.8311" lon="7.03615">
        <ele>720.16</ele>
        <time>2022-07-31T13:26:56Z</time>
      </trkpt>
      <trkpt lat="47.83107" lon="7.03614">
        <ele>720.16</ele>
        <time>2022-07-31T13:26:57Z</time>
      </trkpt>
      <trkpt lat="47.83105" lon="7.03614">
        <ele>720.16</ele>
        <time>2022-07-31T13:26:58Z</time>
      </trkpt>
      <trkpt lat="47.83103" lon="7.03614">
        <ele>720.16</ele>
        <time>2022-07-31T13:26:59Z</time>
      </trkpt>
      <trkpt lat="47.83101" lon="7.03614">
        <ele>719.68</ele>
        <time>2022-07-31T13:27:01Z</time>
      </trkpt>
      <trkpt lat="47.83099" lon="7.03613">
        <ele>719.68</ele>
        <time>2022-07-31T13:27:02Z</time>
      </trkpt>
      <trkpt lat="47.83098" lon="7.03612">
        <ele>720.16</ele>
        <time>2022-07-31T13:27:03Z</time>
      </trkpt>
      <trkpt lat="47.83073" lon="7.03609">
        <ele>722.57</ele>
        <time>2022-07-31T13:27:16Z</time>
      </trkpt>
      <trkpt lat="47.83053" lon="7.03611">
        <ele>725.45</ele>
        <time>2022-07-31T13:27:26Z</time>
      </trkpt>
      <trkpt lat="47.83041" lon="7.03613">
        <ele>727.37</ele>
        <time>2022-07-31T13:27:33Z</time>
      </trkpt>
      <trkpt lat="47.83039" lon="7.03615">
        <ele>727.37</ele>
        <time>2022-07-31T13:27:34Z</time>
      </trkpt>
      <trkpt lat="47.83038" lon="7.03617">
        <ele>727.86</ele>
        <time>2022-07-31T13:27:35Z</time>
      </trkpt>
      <trkpt lat="47.83037" lon="7.03618">
        <ele>728.34</ele>
        <time>2022-07-31T13:27:36Z</time>
      </trkpt>
      <trkpt lat="47.83035" lon="7.0362">
        <ele>728.34</ele>
        <time>2022-07-31T13:27:37Z</time>
      </trkpt>
      <trkpt lat="47.83033" lon="7.03622">
        <ele>728.34</ele>
        <time>2022-07-31T13:27:38Z</time>
      </trkpt>
      <trkpt lat="47.83021" lon="7.03653">
        <ele>731.7</ele>
        <time>2022-07-31T13:27:49Z</time>
      </trkpt>
      <trkpt lat="47.8301" lon="7.03684">
        <ele>735.55</ele>
        <time>2022-07-31T13:27:59Z</time>
      </trkpt>
      <trkpt lat="47.83001" lon="7.03714">
        <ele>738.43</ele>
        <time>2022-07-31T13:28:09Z</time>
      </trkpt>
      <trkpt lat="47.82995" lon="7.03747">
        <ele>741.79</ele>
        <time>2022-07-31T13:28:19Z</time>
      </trkpt>
      <trkpt lat="47.82988" lon="7.03783">
        <ele>745.16</ele>
        <time>2022-07-31T13:28:30Z</time>
      </trkpt>
      <trkpt lat="47.82985" lon="7.03804">
        <ele>746.6</ele>
        <time>2022-07-31T13:28:35Z</time>
      </trkpt>
      <trkpt lat="47.82986" lon="7.03815">
        <ele>747.56</ele>
        <time>2022-07-31T13:28:37Z</time>
      </trkpt>
      <trkpt lat="47.82987" lon="7.03819">
        <ele>747.56</ele>
        <time>2022-07-31T13:28:38Z</time>
      </trkpt>
      <trkpt lat="47.82985" lon="7.0383">
        <ele>749</ele>
        <time>2022-07-31T13:28:41Z</time>
      </trkpt>
      <trkpt lat="47.82979" lon="7.03858">
        <ele>751.89</ele>
        <time>2022-07-31T13:28:49Z</time>
      </trkpt>
      <trkpt lat="47.82967" lon="7.03889">
        <ele>755.25</ele>
        <time>2022-07-31T13:28:59Z</time>
      </trkpt>
      <trkpt lat="47.82958" lon="7.03916">
        <ele>758.62</ele>
        <time>2022-07-31T13:29:08Z</time>
      </trkpt>
      <trkpt lat="47.82949" lon="7.03949">
        <ele>761.5</ele>
        <time>2022-07-31T13:29:17Z</time>
      </trkpt>
      <trkpt lat="47.82941" lon="7.03983">
        <ele>764.87</ele>
        <time>2022-07-31T13:29:26Z</time>
      </trkpt>
      <trkpt lat="47.82932" lon="7.04007">
        <ele>767.75</ele>
        <time>2022-07-31T13:29:33Z</time>
      </trkpt>
      <trkpt lat="47.82926" lon="7.0402">
        <ele>769.67</ele>
        <time>2022-07-31T13:29:37Z</time>
      </trkpt>
      <trkpt lat="47.82924" lon="7.04022">
        <ele>769.67</ele>
        <time>2022-07-31T13:29:38Z</time>
      </trkpt>
      <trkpt lat="47.82923" lon="7.04025">
        <ele>770.15</ele>
        <time>2022-07-31T13:29:39Z</time>
      </trkpt>
      <trkpt lat="47.8292" lon="7.04027">
        <ele>770.63</ele>
        <time>2022-07-31T13:29:40Z</time>
      </trkpt>
      <trkpt lat="47.82918" lon="7.04029">
        <ele>771.11</ele>
        <time>2022-07-31T13:29:41Z</time>
      </trkpt>
      <trkpt lat="47.82916" lon="7.04032">
        <ele>771.6</ele>
        <time>2022-07-31T13:29:42Z</time>
      </trkpt>
      <trkpt lat="47.82899" lon="7.0405">
        <ele>774.48</ele>
        <time>2022-07-31T13:29:50Z</time>
      </trkpt>
      <trkpt lat="47.82892" lon="7.04065">
        <ele>776.4</ele>
        <time>2022-07-31T13:29:55Z</time>
      </trkpt>
      <trkpt lat="47.82893" lon="7.04074">
        <ele>776.88</ele>
        <time>2022-07-31T13:29:57Z</time>
      </trkpt>
      <trkpt lat="47.82895" lon="7.0408">
        <ele>776.88</ele>
        <time>2022-07-31T13:29:58Z</time>
      </trkpt>
      <trkpt lat="47.82894" lon="7.04084">
        <ele>776.4</ele>
        <time>2022-07-31T13:29:59Z</time>
      </trkpt>
      <trkpt lat="47.82872" lon="7.04115">
        <ele>774.96</ele>
        <time>2022-07-31T13:30:09Z</time>
      </trkpt>
      <trkpt lat="47.8286" lon="7.04123">
        <ele>774.96</ele>
        <time>2022-07-31T13:30:12Z</time>
      </trkpt>
      <trkpt lat="47.82849" lon="7.04134">
        <ele>774.48</ele>
        <time>2022-07-31T13:30:15Z</time>
      </trkpt>
      <trkpt lat="47.82845" lon="7.04138">
        <ele>774.48</ele>
        <time>2022-07-31T13:30:16Z</time>
      </trkpt>
      <trkpt lat="47.82842" lon="7.04142">
        <ele>774</ele>
        <time>2022-07-31T13:30:17Z</time>
      </trkpt>
      <trkpt lat="47.82821" lon="7.04174">
        <ele>773.04</ele>
        <time>2022-07-31T13:30:23Z</time>
      </trkpt>
      <trkpt lat="47.82817" lon="7.04177">
        <ele>773.04</ele>
        <time>2022-07-31T13:30:24Z</time>
      </trkpt>
      <trkpt lat="47.82813" lon="7.04179">
        <ele>772.56</ele>
        <time>2022-07-31T13:30:25Z</time>
      </trkpt>
      <trkpt lat="47.82803" lon="7.04182">
        <ele>772.56</ele>
        <time>2022-07-31T13:30:27Z</time>
      </trkpt>
      <trkpt lat="47.82786" lon="7.04182">
        <ele>771.6</ele>
        <time>2022-07-31T13:30:31Z</time>
      </trkpt>
      <trkpt lat="47.82782" lon="7.0418">
        <ele>771.6</ele>
        <time>2022-07-31T13:30:32Z</time>
      </trkpt>
      <trkpt lat="47.82737" lon="7.04153">
        <ele>769.67</ele>
        <time>2022-07-31T13:30:41Z</time>
      </trkpt>
      <trkpt lat="47.82732" lon="7.04151">
        <ele>769.19</ele>
        <time>2022-07-31T13:30:42Z</time>
      </trkpt>
      <trkpt lat="47.82727" lon="7.0415">
        <ele>769.19</ele>
        <time>2022-07-31T13:30:43Z</time>
      </trkpt>
      <trkpt lat="47.82721" lon="7.04151">
        <ele>768.71</ele>
        <time>2022-07-31T13:30:44Z</time>
      </trkpt>
      <trkpt lat="47.82715" lon="7.04154">
        <ele>768.71</ele>
        <time>2022-07-31T13:30:45Z</time>
      </trkpt>
      <trkpt lat="47.8271" lon="7.04158">
        <ele>768.23</ele>
        <time>2022-07-31T13:30:46Z</time>
      </trkpt>
      <trkpt lat="47.82687" lon="7.04176">
        <ele>767.75</ele>
        <time>2022-07-31T13:30:50Z</time>
      </trkpt>
      <trkpt lat="47.82621" lon="7.04237">
        <ele>765.35</ele>
        <time>2022-07-31T13:31:02Z</time>
      </trkpt>
      <trkpt lat="47.82571" lon="7.04274">
        <ele>763.42</ele>
        <time>2022-07-31T13:31:10Z</time>
      </trkpt>
      <trkpt lat="47.82566" lon="7.04279">
        <ele>763.42</ele>
        <time>2022-07-31T13:31:11Z</time>
      </trkpt>
      <trkpt lat="47.8256" lon="7.04283">
        <ele>762.94</ele>
        <time>2022-07-31T13:31:12Z</time>
      </trkpt>
      <trkpt lat="47.82481" lon="7.04334">
        <ele>760.06</ele>
        <time>2022-07-31T13:31:23Z</time>
      </trkpt>
      <trkpt lat="47.82468" lon="7.04339">
        <ele>759.58</ele>
        <time>2022-07-31T13:31:25Z</time>
      </trkpt>
      <trkpt lat="47.82462" lon="7.0434">
        <ele>759.1</ele>
        <time>2022-07-31T13:31:26Z</time>
      </trkpt>
      <trkpt lat="47.82435" lon="7.04348">
        <ele>758.14</ele>
        <time>2022-07-31T13:31:30Z</time>
      </trkpt>
      <trkpt lat="47.82392" lon="7.04363">
        <ele>757.66</ele>
        <time>2022-07-31T13:31:38Z</time>
      </trkpt>
      <trkpt lat="47.82388" lon="7.04363">
        <ele>757.18</ele>
        <time>2022-07-31T13:31:39Z</time>
      </trkpt>
      <trkpt lat="47.82384" lon="7.04359">
        <ele>757.18</ele>
        <time>2022-07-31T13:31:40Z</time>
      </trkpt>
      <trkpt lat="47.82381" lon="7.04352">
        <ele>757.18</ele>
        <time>2022-07-31T13:31:41Z</time>
      </trkpt>
      <trkpt lat="47.82379" lon="7.04346">
        <ele>757.18</ele>
        <time>2022-07-31T13:31:42Z</time>
      </trkpt>
      <trkpt lat="47.82377" lon="7.0434">
        <ele>757.18</ele>
        <time>2022-07-31T13:31:43Z</time>
      </trkpt>
      <trkpt lat="47.82376" lon="7.04333">
        <ele>757.18</ele>
        <time>2022-07-31T13:31:44Z</time>
      </trkpt>
      <trkpt lat="47.82375" lon="7.04326">
        <ele>757.66</ele>
        <time>2022-07-31T13:31:45Z</time>
      </trkpt>
      <trkpt lat="47.82374" lon="7.0432">
        <ele>757.18</ele>
        <time>2022-07-31T13:31:46Z</time>
      </trkpt>
      <trkpt lat="47.82374" lon="7.04314">
        <ele>757.18</ele>
        <time>2022-07-31T13:31:47Z</time>
      </trkpt>
      <trkpt lat="47.82373" lon="7.04306">
        <ele>757.18</ele>
        <time>2022-07-31T13:31:48Z</time>
      </trkpt>
      <trkpt lat="47.82373" lon="7.04244">
        <ele>757.18</ele>
        <time>2022-07-31T13:31:59Z</time>
      </trkpt>
      <trkpt lat="47.8238" lon="7.04185">
        <ele>757.18</ele>
        <time>2022-07-31T13:32:10Z</time>
      </trkpt>
      <trkpt lat="47.82383" lon="7.04141">
        <ele>756.21</ele>
        <time>2022-07-31T13:32:17Z</time>
      </trkpt>
      <trkpt lat="47.82383" lon="7.04134">
        <ele>756.21</ele>
        <time>2022-07-31T13:32:18Z</time>
      </trkpt>
      <trkpt lat="47.82383" lon="7.04128">
        <ele>756.21</ele>
        <time>2022-07-31T13:32:19Z</time>
      </trkpt>
      <trkpt lat="47.82382" lon="7.04121">
        <ele>755.73</ele>
        <time>2022-07-31T13:32:20Z</time>
      </trkpt>
      <trkpt lat="47.82381" lon="7.04115">
        <ele>755.73</ele>
        <time>2022-07-31T13:32:21Z</time>
      </trkpt>
      <trkpt lat="47.82381" lon="7.04108">
        <ele>755.73</ele>
        <time>2022-07-31T13:32:22Z</time>
      </trkpt>
      <trkpt lat="47.82382" lon="7.04101">
        <ele>755.25</ele>
        <time>2022-07-31T13:32:23Z</time>
      </trkpt>
      <trkpt lat="47.82383" lon="7.04088">
        <ele>755.25</ele>
        <time>2022-07-31T13:32:25Z</time>
      </trkpt>
      <trkpt lat="47.82383" lon="7.04082">
        <ele>754.77</ele>
        <time>2022-07-31T13:32:26Z</time>
      </trkpt>
      <trkpt lat="47.82383" lon="7.04075">
        <ele>755.73</ele>
        <time>2022-07-31T13:32:27Z</time>
      </trkpt>
      <trkpt lat="47.82382" lon="7.04063">
        <ele>754.29</ele>
        <time>2022-07-31T13:32:29Z</time>
      </trkpt>
      <trkpt lat="47.8238" lon="7.04049">
        <ele>753.81</ele>
        <time>2022-07-31T13:32:31Z</time>
      </trkpt>
      <trkpt lat="47.82379" lon="7.04041">
        <ele>753.33</ele>
        <time>2022-07-31T13:32:32Z</time>
      </trkpt>
      <trkpt lat="47.82378" lon="7.04034">
        <ele>752.85</ele>
        <time>2022-07-31T13:32:33Z</time>
      </trkpt>
      <trkpt lat="47.82377" lon="7.04026">
        <ele>752.37</ele>
        <time>2022-07-31T13:32:34Z</time>
      </trkpt>
      <trkpt lat="47.82376" lon="7.0402">
        <ele>751.89</ele>
        <time>2022-07-31T13:32:35Z</time>
      </trkpt>
      <trkpt lat="47.82373" lon="7.04013">
        <ele>751.41</ele>
        <time>2022-07-31T13:32:36Z</time>
      </trkpt>
      <trkpt lat="47.82368" lon="7.03999">
        <ele>750.45</ele>
        <time>2022-07-31T13:32:38Z</time>
      </trkpt>
      <trkpt lat="47.82365" lon="7.03993">
        <ele>749.49</ele>
        <time>2022-07-31T13:32:39Z</time>
      </trkpt>
      <trkpt lat="47.8236" lon="7.03982">
        <ele>749</ele>
        <time>2022-07-31T13:32:41Z</time>
      </trkpt>
      <trkpt lat="47.82355" lon="7.03977">
        <ele>748.52</ele>
        <time>2022-07-31T13:32:42Z</time>
      </trkpt>
      <trkpt lat="47.82347" lon="7.03973">
        <ele>748.52</ele>
        <time>2022-07-31T13:32:43Z</time>
      </trkpt>
      <trkpt lat="47.82341" lon="7.03971">
        <ele>748.04</ele>
        <time>2022-07-31T13:32:44Z</time>
      </trkpt>
      <trkpt lat="47.82335" lon="7.03971">
        <ele>747.56</ele>
        <time>2022-07-31T13:32:45Z</time>
      </trkpt>
      <trkpt lat="47.82331" lon="7.03972">
        <ele>747.56</ele>
        <time>2022-07-31T13:32:46Z</time>
      </trkpt>
      <trkpt lat="47.82326" lon="7.03975">
        <ele>747.08</ele>
        <time>2022-07-31T13:32:47Z</time>
      </trkpt>
      <trkpt lat="47.82321" lon="7.03978">
        <ele>746.6</ele>
        <time>2022-07-31T13:32:48Z</time>
      </trkpt>
      <trkpt lat="47.82316" lon="7.03979">
        <ele>746.12</ele>
        <time>2022-07-31T13:32:49Z</time>
      </trkpt>
      <trkpt lat="47.82311" lon="7.03978">
        <ele>745.64</ele>
        <time>2022-07-31T13:32:50Z</time>
      </trkpt>
      <trkpt lat="47.82306" lon="7.03978">
        <ele>745.64</ele>
        <time>2022-07-31T13:32:51Z</time>
      </trkpt>
      <trkpt lat="47.823" lon="7.03977">
        <ele>745.16</ele>
        <time>2022-07-31T13:32:52Z</time>
      </trkpt>
      <trkpt lat="47.82294" lon="7.03974">
        <ele>744.68</ele>
        <time>2022-07-31T13:32:53Z</time>
      </trkpt>
      <trkpt lat="47.82257" lon="7.03957">
        <ele>743.24</ele>
        <time>2022-07-31T13:32:58Z</time>
      </trkpt>
      <trkpt lat="47.82249" lon="7.03956">
        <ele>742.76</ele>
        <time>2022-07-31T13:32:59Z</time>
      </trkpt>
      <trkpt lat="47.82235" lon="7.03958">
        <ele>742.28</ele>
        <time>2022-07-31T13:33:01Z</time>
      </trkpt>
      <trkpt lat="47.82229" lon="7.03962">
        <ele>741.79</ele>
        <time>2022-07-31T13:33:02Z</time>
      </trkpt>
      <trkpt lat="47.82197" lon="7.03982">
        <ele>740.35</ele>
        <time>2022-07-31T13:33:07Z</time>
      </trkpt>
      <trkpt lat="47.82189" lon="7.03983">
        <ele>739.87</ele>
        <time>2022-07-31T13:33:08Z</time>
      </trkpt>
      <trkpt lat="47.82181" lon="7.03984">
        <ele>739.39</ele>
        <time>2022-07-31T13:33:09Z</time>
      </trkpt>
      <trkpt lat="47.82133" lon="7.03981">
        <ele>736.99</ele>
        <time>2022-07-31T13:33:15Z</time>
      </trkpt>
      <trkpt lat="47.82125" lon="7.03978">
        <ele>736.99</ele>
        <time>2022-07-31T13:33:16Z</time>
      </trkpt>
      <trkpt lat="47.82118" lon="7.03973">
        <ele>736.51</ele>
        <time>2022-07-31T13:33:17Z</time>
      </trkpt>
      <trkpt lat="47.82097" lon="7.03961">
        <ele>735.55</ele>
        <time>2022-07-31T13:33:20Z</time>
      </trkpt>
      <trkpt lat="47.8209" lon="7.03961">
        <ele>735.07</ele>
        <time>2022-07-31T13:33:21Z</time>
      </trkpt>
      <trkpt lat="47.82076" lon="7.03968">
        <ele>734.1</ele>
        <time>2022-07-31T13:33:23Z</time>
      </trkpt>
      <trkpt lat="47.82072" lon="7.03977">
        <ele>734.1</ele>
        <time>2022-07-31T13:33:24Z</time>
      </trkpt>
      <trkpt lat="47.82068" lon="7.03987">
        <ele>733.62</ele>
        <time>2022-07-31T13:33:25Z</time>
      </trkpt>
      <trkpt lat="47.82059" lon="7.04004">
        <ele>732.66</ele>
        <time>2022-07-31T13:33:27Z</time>
      </trkpt>
      <trkpt lat="47.82033" lon="7.04042">
        <ele>730.74</ele>
        <time>2022-07-31T13:33:32Z</time>
      </trkpt>
      <trkpt lat="47.82027" lon="7.0405">
        <ele>730.74</ele>
        <time>2022-07-31T13:33:33Z</time>
      </trkpt>
      <trkpt lat="47.82009" lon="7.04072">
        <ele>728.82</ele>
        <time>2022-07-31T13:33:36Z</time>
      </trkpt>
      <trkpt lat="47.81996" lon="7.04086">
        <ele>728.34</ele>
        <time>2022-07-31T13:33:38Z</time>
      </trkpt>
      <trkpt lat="47.8199" lon="7.04094">
        <ele>727.86</ele>
        <time>2022-07-31T13:33:39Z</time>
      </trkpt>
      <trkpt lat="47.81983" lon="7.041">
        <ele>727.37</ele>
        <time>2022-07-31T13:33:40Z</time>
      </trkpt>
      <trkpt lat="47.81976" lon="7.04105">
        <ele>726.89</ele>
        <time>2022-07-31T13:33:41Z</time>
      </trkpt>
      <trkpt lat="47.81968" lon="7.04109">
        <ele>726.41</ele>
        <time>2022-07-31T13:33:42Z</time>
      </trkpt>
      <trkpt lat="47.81959" lon="7.04111">
        <ele>725.93</ele>
        <time>2022-07-31T13:33:43Z</time>
      </trkpt>
      <trkpt lat="47.81934" lon="7.04114">
        <ele>724.97</ele>
        <time>2022-07-31T13:33:46Z</time>
      </trkpt>
      <trkpt lat="47.81926" lon="7.04113">
        <ele>724.49</ele>
        <time>2022-07-31T13:33:47Z</time>
      </trkpt>
      <trkpt lat="47.81887" lon="7.04101">
        <ele>723.05</ele>
        <time>2022-07-31T13:33:52Z</time>
      </trkpt>
      <trkpt lat="47.81879" lon="7.041">
        <ele>722.57</ele>
        <time>2022-07-31T13:33:53Z</time>
      </trkpt>
      <trkpt lat="47.8187" lon="7.04101">
        <ele>722.57</ele>
        <time>2022-07-31T13:33:54Z</time>
      </trkpt>
      <trkpt lat="47.81813" lon="7.04117">
        <ele>720.65</ele>
        <time>2022-07-31T13:34:00Z</time>
      </trkpt>
      <trkpt lat="47.81774" lon="7.04154">
        <ele>719.68</ele>
        <time>2022-07-31T13:34:07Z</time>
      </trkpt>
      <trkpt lat="47.81768" lon="7.0416">
        <ele>719.2</ele>
        <time>2022-07-31T13:34:08Z</time>
      </trkpt>
      <trkpt lat="47.81765" lon="7.04168">
        <ele>719.2</ele>
        <time>2022-07-31T13:34:09Z</time>
      </trkpt>
      <trkpt lat="47.81762" lon="7.04176">
        <ele>719.2</ele>
        <time>2022-07-31T13:34:10Z</time>
      </trkpt>
      <trkpt lat="47.81761" lon="7.04186">
        <ele>719.2</ele>
        <time>2022-07-31T13:34:11Z</time>
      </trkpt>
      <trkpt lat="47.81759" lon="7.04194">
        <ele>718.72</ele>
        <time>2022-07-31T13:34:12Z</time>
      </trkpt>
      <trkpt lat="47.81758" lon="7.04212">
        <ele>718.24</ele>
        <time>2022-07-31T13:34:14Z</time>
      </trkpt>
      <trkpt lat="47.81757" lon="7.04222">
        <ele>718.24</ele>
        <time>2022-07-31T13:34:15Z</time>
      </trkpt>
      <trkpt lat="47.81756" lon="7.04232">
        <ele>718.24</ele>
        <time>2022-07-31T13:34:16Z</time>
      </trkpt>
      <trkpt lat="47.81755" lon="7.04243">
        <ele>718.24</ele>
        <time>2022-07-31T13:34:17Z</time>
      </trkpt>
      <trkpt lat="47.81754" lon="7.04252">
        <ele>718.24</ele>
        <time>2022-07-31T13:34:18Z</time>
      </trkpt>
      <trkpt lat="47.81752" lon="7.04262">
        <ele>717.76</ele>
        <time>2022-07-31T13:34:19Z</time>
      </trkpt>
      <trkpt lat="47.8175" lon="7.0427">
        <ele>717.76</ele>
        <time>2022-07-31T13:34:20Z</time>
      </trkpt>
      <trkpt lat="47.81747" lon="7.04278">
        <ele>717.28</ele>
        <time>2022-07-31T13:34:21Z</time>
      </trkpt>
      <trkpt lat="47.81731" lon="7.04303">
        <ele>714.88</ele>
        <time>2022-07-31T13:34:25Z</time>
      </trkpt>
      <trkpt lat="47.81717" lon="7.04335">
        <ele>711.51</ele>
        <time>2022-07-31T13:34:29Z</time>
      </trkpt>
      <trkpt lat="47.8171" lon="7.04367">
        <ele>709.59</ele>
        <time>2022-07-31T13:34:32Z</time>
      </trkpt>
      <trkpt lat="47.81706" lon="7.04405">
        <ele>706.23</ele>
        <time>2022-07-31T13:34:36Z</time>
      </trkpt>
      <trkpt lat="47.81706" lon="7.04422">
        <ele>705.26</ele>
        <time>2022-07-31T13:34:38Z</time>
      </trkpt>
      <trkpt lat="47.81707" lon="7.04445">
        <ele>703.34</ele>
        <time>2022-07-31T13:34:41Z</time>
      </trkpt>
      <trkpt lat="47.81705" lon="7.04467">
        <ele>700.94</ele>
        <time>2022-07-31T13:34:45Z</time>
      </trkpt>
      <trkpt lat="47.81704" lon="7.0447">
        <ele>700.46</ele>
        <time>2022-07-31T13:34:46Z</time>
      </trkpt>
      <trkpt lat="47.81699" lon="7.04472">
        <ele>700.94</ele>
        <time>2022-07-31T13:34:51Z</time>
      </trkpt>
      <trkpt lat="47.81701" lon="7.04462">
        <ele>701.42</ele>
        <time>2022-07-31T13:35:06Z</time>
      </trkpt>
      <trkpt lat="47.81703" lon="7.0443">
        <ele>701.9</ele>
        <time>2022-07-31T13:35:16Z</time>
      </trkpt>
      <trkpt lat="47.81711" lon="7.04363">
        <ele>703.34</ele>
        <time>2022-07-31T13:35:29Z</time>
      </trkpt>
      <trkpt lat="47.81702" lon="7.04317">
        <ele>704.3</ele>
        <time>2022-07-31T13:35:39Z</time>
      </trkpt>
      <trkpt lat="47.81663" lon="7.04301">
        <ele>704.78</ele>
        <time>2022-07-31T13:35:50Z</time>
      </trkpt>
      <trkpt lat="47.81613" lon="7.0426">
        <ele>705.26</ele>
        <time>2022-07-31T13:36:03Z</time>
      </trkpt>
      <trkpt lat="47.81582" lon="7.04211">
        <ele>706.71</ele>
        <time>2022-07-31T13:36:14Z</time>
      </trkpt>
      <trkpt lat="47.81567" lon="7.0416">
        <ele>710.07</ele>
        <time>2022-07-31T13:36:26Z</time>
      </trkpt>
      <trkpt lat="47.8156" lon="7.04136">
        <ele>711.51</ele>
        <time>2022-07-31T13:36:30Z</time>
      </trkpt>
      <trkpt lat="47.81553" lon="7.04092">
        <ele>713.44</ele>
        <time>2022-07-31T13:36:38Z</time>
      </trkpt>
      <trkpt lat="47.81549" lon="7.04089">
        <ele>713.44</ele>
        <time>2022-07-31T13:36:39Z</time>
      </trkpt>
      <trkpt lat="47.81546" lon="7.04086">
        <ele>713.44</ele>
        <time>2022-07-31T13:36:40Z</time>
      </trkpt>
      <trkpt lat="47.81541" lon="7.04084">
        <ele>713.44</ele>
        <time>2022-07-31T13:36:41Z</time>
      </trkpt>
      <trkpt lat="47.81537" lon="7.04084">
        <ele>713.44</ele>
        <time>2022-07-31T13:36:42Z</time>
      </trkpt>
      <trkpt lat="47.81533" lon="7.04084">
        <ele>713.44</ele>
        <time>2022-07-31T13:36:43Z</time>
      </trkpt>
      <trkpt lat="47.81529" lon="7.04085">
        <ele>713.44</ele>
        <time>2022-07-31T13:36:44Z</time>
      </trkpt>
      <trkpt lat="47.81526" lon="7.04086">
        <ele>713.92</ele>
        <time>2022-07-31T13:36:45Z</time>
      </trkpt>
      <trkpt lat="47.8151" lon="7.04088">
        <ele>713.92</ele>
        <time>2022-07-31T13:36:49Z</time>
      </trkpt>
      <trkpt lat="47.81505" lon="7.04087">
        <ele>713.92</ele>
        <time>2022-07-31T13:36:50Z</time>
      </trkpt>
      <trkpt lat="47.81501" lon="7.04086">
        <ele>713.92</ele>
        <time>2022-07-31T13:36:51Z</time>
      </trkpt>
      <trkpt lat="47.81496" lon="7.04085">
        <ele>713.92</ele>
        <time>2022-07-31T13:36:52Z</time>
      </trkpt>
      <trkpt lat="47.81492" lon="7.04086">
        <ele>713.44</ele>
        <time>2022-07-31T13:36:53Z</time>
      </trkpt>
      <trkpt lat="47.81487" lon="7.04086">
        <ele>713.92</ele>
        <time>2022-07-31T13:36:54Z</time>
      </trkpt>
      <trkpt lat="47.81482" lon="7.04086">
        <ele>713.92</ele>
        <time>2022-07-31T13:36:55Z</time>
      </trkpt>
      <trkpt lat="47.81473" lon="7.04087">
        <ele>713.92</ele>
        <time>2022-07-31T13:36:57Z</time>
      </trkpt>
      <trkpt lat="47.81468" lon="7.04086">
        <ele>713.92</ele>
        <time>2022-07-31T13:36:58Z</time>
      </trkpt>
      <trkpt lat="47.8146" lon="7.04083">
        <ele>714.4</ele>
        <time>2022-07-31T13:37:00Z</time>
      </trkpt>
      <trkpt lat="47.81417" lon="7.0404">
        <ele>715.36</ele>
        <time>2022-07-31T13:37:12Z</time>
      </trkpt>
      <trkpt lat="47.81393" lon="7.03986">
        <ele>716.8</ele>
        <time>2022-07-31T13:37:23Z</time>
      </trkpt>
      <trkpt lat="47.81375" lon="7.03946">
        <ele>719.2</ele>
        <time>2022-07-31T13:37:32Z</time>
      </trkpt>
      <trkpt lat="47.81342" lon="7.03895">
        <ele>721.13</ele>
        <time>2022-07-31T13:37:43Z</time>
      </trkpt>
      <trkpt lat="47.81308" lon="7.03847">
        <ele>723.53</ele>
        <time>2022-07-31T13:37:55Z</time>
      </trkpt>
      <trkpt lat="47.81274" lon="7.03805">
        <ele>724.49</ele>
        <time>2022-07-31T13:38:05Z</time>
      </trkpt>
      <trkpt lat="47.8125" lon="7.03779">
        <ele>725.45</ele>
        <time>2022-07-31T13:38:13Z</time>
      </trkpt>
      <trkpt lat="47.81246" lon="7.03777">
        <ele>725.45</ele>
        <time>2022-07-31T13:38:14Z</time>
      </trkpt>
      <trkpt lat="47.81241" lon="7.03776">
        <ele>725.93</ele>
        <time>2022-07-31T13:38:15Z</time>
      </trkpt>
      <trkpt lat="47.81237" lon="7.03777">
        <ele>725.93</ele>
        <time>2022-07-31T13:38:16Z</time>
      </trkpt>
      <trkpt lat="47.81233" lon="7.03778">
        <ele>725.93</ele>
        <time>2022-07-31T13:38:17Z</time>
      </trkpt>
      <trkpt lat="47.81229" lon="7.0378">
        <ele>725.93</ele>
        <time>2022-07-31T13:38:18Z</time>
      </trkpt>
      <trkpt lat="47.81224" lon="7.03782">
        <ele>726.41</ele>
        <time>2022-07-31T13:38:19Z</time>
      </trkpt>
      <trkpt lat="47.81216" lon="7.03788">
        <ele>726.41</ele>
        <time>2022-07-31T13:38:21Z</time>
      </trkpt>
      <trkpt lat="47.81193" lon="7.03814">
        <ele>726.89</ele>
        <time>2022-07-31T13:38:27Z</time>
      </trkpt>
      <trkpt lat="47.81178" lon="7.0384">
        <ele>726.89</ele>
        <time>2022-07-31T13:38:32Z</time>
      </trkpt>
      <trkpt lat="47.81175" lon="7.03846">
        <ele>726.89</ele>
        <time>2022-07-31T13:38:33Z</time>
      </trkpt>
      <trkpt lat="47.81173" lon="7.03851">
        <ele>726.89</ele>
        <time>2022-07-31T13:38:34Z</time>
      </trkpt>
      <trkpt lat="47.81167" lon="7.03862">
        <ele>726.89</ele>
        <time>2022-07-31T13:38:36Z</time>
      </trkpt>
      <trkpt lat="47.8115" lon="7.03897">
        <ele>727.37</ele>
        <time>2022-07-31T13:38:42Z</time>
      </trkpt>
      <trkpt lat="47.81146" lon="7.03902">
        <ele>727.37</ele>
        <time>2022-07-31T13:38:43Z</time>
      </trkpt>
      <trkpt lat="47.81132" lon="7.0392">
        <ele>727.86</ele>
        <time>2022-07-31T13:38:47Z</time>
      </trkpt>
      <trkpt lat="47.81114" lon="7.03967">
        <ele>728.34</ele>
        <time>2022-07-31T13:38:55Z</time>
      </trkpt>
      <trkpt lat="47.81096" lon="7.04002">
        <ele>728.82</ele>
        <time>2022-07-31T13:39:01Z</time>
      </trkpt>
      <trkpt lat="47.81089" lon="7.04011">
        <ele>728.82</ele>
        <time>2022-07-31T13:39:03Z</time>
      </trkpt>
      <trkpt lat="47.81081" lon="7.04019">
        <ele>728.82</ele>
        <time>2022-07-31T13:39:05Z</time>
      </trkpt>
      <trkpt lat="47.81077" lon="7.04021">
        <ele>728.82</ele>
        <time>2022-07-31T13:39:06Z</time>
      </trkpt>
      <trkpt lat="47.81072" lon="7.04021">
        <ele>728.82</ele>
        <time>2022-07-31T13:39:07Z</time>
      </trkpt>
      <trkpt lat="47.81068" lon="7.0402">
        <ele>728.82</ele>
        <time>2022-07-31T13:39:08Z</time>
      </trkpt>
      <trkpt lat="47.81063" lon="7.04018">
        <ele>729.3</ele>
        <time>2022-07-31T13:39:09Z</time>
      </trkpt>
      <trkpt lat="47.81058" lon="7.04016">
        <ele>729.3</ele>
        <time>2022-07-31T13:39:10Z</time>
      </trkpt>
      <trkpt lat="47.81054" lon="7.04013">
        <ele>728.82</ele>
        <time>2022-07-31T13:39:11Z</time>
      </trkpt>
      <trkpt lat="47.81049" lon="7.0401">
        <ele>729.3</ele>
        <time>2022-07-31T13:39:12Z</time>
      </trkpt>
      <trkpt lat="47.81035" lon="7.04004">
        <ele>729.3</ele>
        <time>2022-07-31T13:39:15Z</time>
      </trkpt>
      <trkpt lat="47.80985" lon="7.04006">
        <ele>730.26</ele>
        <time>2022-07-31T13:39:26Z</time>
      </trkpt>
      <trkpt lat="47.80976" lon="7.04008">
        <ele>730.26</ele>
        <time>2022-07-31T13:39:28Z</time>
      </trkpt>
      <trkpt lat="47.80972" lon="7.04008">
        <ele>730.74</ele>
        <time>2022-07-31T13:39:29Z</time>
      </trkpt>
      <trkpt lat="47.80968" lon="7.04008">
        <ele>730.74</ele>
        <time>2022-07-31T13:39:30Z</time>
      </trkpt>
      <trkpt lat="47.80954" lon="7.04006">
        <ele>731.22</ele>
        <time>2022-07-31T13:39:33Z</time>
      </trkpt>
      <trkpt lat="47.80949" lon="7.04008">
        <ele>731.22</ele>
        <time>2022-07-31T13:39:34Z</time>
      </trkpt>
      <trkpt lat="47.80944" lon="7.0401">
        <ele>731.22</ele>
        <time>2022-07-31T13:39:35Z</time>
      </trkpt>
      <trkpt lat="47.8094" lon="7.04014">
        <ele>731.22</ele>
        <time>2022-07-31T13:39:36Z</time>
      </trkpt>
      <trkpt lat="47.80935" lon="7.04018">
        <ele>731.22</ele>
        <time>2022-07-31T13:39:37Z</time>
      </trkpt>
      <trkpt lat="47.80932" lon="7.04023">
        <ele>731.7</ele>
        <time>2022-07-31T13:39:38Z</time>
      </trkpt>
      <trkpt lat="47.80929" lon="7.04028">
        <ele>731.7</ele>
        <time>2022-07-31T13:39:39Z</time>
      </trkpt>
      <trkpt lat="47.80926" lon="7.04034">
        <ele>731.7</ele>
        <time>2022-07-31T13:39:40Z</time>
      </trkpt>
      <trkpt lat="47.80922" lon="7.04046">
        <ele>731.7</ele>
        <time>2022-07-31T13:39:42Z</time>
      </trkpt>
      <trkpt lat="47.80917" lon="7.04091">
        <ele>732.66</ele>
        <time>2022-07-31T13:39:49Z</time>
      </trkpt>
      <trkpt lat="47.80916" lon="7.04098">
        <ele>733.14</ele>
        <time>2022-07-31T13:39:50Z</time>
      </trkpt>
      <trkpt lat="47.80915" lon="7.04105">
        <ele>733.14</ele>
        <time>2022-07-31T13:39:51Z</time>
      </trkpt>
      <trkpt lat="47.80913" lon="7.04111">
        <ele>733.14</ele>
        <time>2022-07-31T13:39:52Z</time>
      </trkpt>
      <trkpt lat="47.80911" lon="7.04117">
        <ele>733.62</ele>
        <time>2022-07-31T13:39:53Z</time>
      </trkpt>
      <trkpt lat="47.80908" lon="7.04122">
        <ele>733.62</ele>
        <time>2022-07-31T13:39:54Z</time>
      </trkpt>
      <trkpt lat="47.80905" lon="7.04126">
        <ele>734.1</ele>
        <time>2022-07-31T13:39:55Z</time>
      </trkpt>
      <trkpt lat="47.80901" lon="7.04131">
        <ele>734.1</ele>
        <time>2022-07-31T13:39:56Z</time>
      </trkpt>
      <trkpt lat="47.80897" lon="7.04134">
        <ele>734.58</ele>
        <time>2022-07-31T13:39:57Z</time>
      </trkpt>
      <trkpt lat="47.80893" lon="7.04137">
        <ele>734.58</ele>
        <time>2022-07-31T13:39:58Z</time>
      </trkpt>
      <trkpt lat="47.80886" lon="7.04143">
        <ele>735.07</ele>
        <time>2022-07-31T13:40:00Z</time>
      </trkpt>
      <trkpt lat="47.80882" lon="7.04145">
        <ele>735.07</ele>
        <time>2022-07-31T13:40:01Z</time>
      </trkpt>
      <trkpt lat="47.80877" lon="7.04147">
        <ele>735.55</ele>
        <time>2022-07-31T13:40:02Z</time>
      </trkpt>
      <trkpt lat="47.80869" lon="7.04148">
        <ele>736.03</ele>
        <time>2022-07-31T13:40:04Z</time>
      </trkpt>
      <trkpt lat="47.80821" lon="7.0415">
        <ele>738.91</ele>
        <time>2022-07-31T13:40:17Z</time>
      </trkpt>
      <trkpt lat="47.8079" lon="7.04176">
        <ele>742.28</ele>
        <time>2022-07-31T13:40:28Z</time>
      </trkpt>
      <trkpt lat="47.80767" lon="7.04202">
        <ele>745.16</ele>
        <time>2022-07-31T13:40:37Z</time>
      </trkpt>
      <trkpt lat="47.8074" lon="7.04223">
        <ele>748.52</ele>
        <time>2022-07-31T13:40:47Z</time>
      </trkpt>
      <trkpt lat="47.80696" lon="7.04251">
        <ele>751.89</ele>
        <time>2022-07-31T13:41:00Z</time>
      </trkpt>
      <trkpt lat="47.80658" lon="7.04263">
        <ele>753.81</ele>
        <time>2022-07-31T13:41:12Z</time>
      </trkpt>
      <trkpt lat="47.80656" lon="7.0426">
        <ele>753.81</ele>
        <time>2022-07-31T13:41:13Z</time>
      </trkpt>
      <trkpt lat="47.80654" lon="7.04256">
        <ele>754.29</ele>
        <time>2022-07-31T13:41:14Z</time>
      </trkpt>
      <trkpt lat="47.80652" lon="7.04251">
        <ele>754.77</ele>
        <time>2022-07-31T13:41:15Z</time>
      </trkpt>
      <trkpt lat="47.8065" lon="7.04247">
        <ele>754.77</ele>
        <time>2022-07-31T13:41:16Z</time>
      </trkpt>
      <trkpt lat="47.80648" lon="7.04244">
        <ele>755.25</ele>
        <time>2022-07-31T13:41:17Z</time>
      </trkpt>
      <trkpt lat="47.80645" lon="7.04242">
        <ele>755.25</ele>
        <time>2022-07-31T13:41:18Z</time>
      </trkpt>
      <trkpt lat="47.80617" lon="7.04188">
        <ele>758.14</ele>
        <time>2022-07-31T13:41:30Z</time>
      </trkpt>
      <trkpt lat="47.80599" lon="7.04119">
        <ele>761.5</ele>
        <time>2022-07-31T13:41:43Z</time>
      </trkpt>
      <trkpt lat="47.80586" lon="7.04046">
        <ele>763.9</ele>
        <time>2022-07-31T13:41:57Z</time>
      </trkpt>
      <trkpt lat="47.80569" lon="7.03988">
        <ele>767.27</ele>
        <time>2022-07-31T13:42:08Z</time>
      </trkpt>
      <trkpt lat="47.80533" lon="7.03905">
        <ele>770.15</ele>
        <time>2022-07-31T13:42:24Z</time>
      </trkpt>
      <trkpt lat="47.80531" lon="7.03899">
        <ele>770.15</ele>
        <time>2022-07-31T13:42:25Z</time>
      </trkpt>
      <trkpt lat="47.80528" lon="7.03887">
        <ele>770.63</ele>
        <time>2022-07-31T13:42:27Z</time>
      </trkpt>
      <trkpt lat="47.80522" lon="7.03849">
        <ele>771.11</ele>
        <time>2022-07-31T13:42:33Z</time>
      </trkpt>
      <trkpt lat="47.80522" lon="7.03828">
        <ele>771.6</ele>
        <time>2022-07-31T13:42:36Z</time>
      </trkpt>
      <trkpt lat="47.80524" lon="7.03821">
        <ele>771.6</ele>
        <time>2022-07-31T13:42:37Z</time>
      </trkpt>
      <trkpt lat="47.80529" lon="7.03797">
        <ele>772.08</ele>
        <time>2022-07-31T13:42:41Z</time>
      </trkpt>
      <trkpt lat="47.80531" lon="7.03792">
        <ele>772.08</ele>
        <time>2022-07-31T13:42:42Z</time>
      </trkpt>
      <trkpt lat="47.80533" lon="7.03786">
        <ele>772.56</ele>
        <time>2022-07-31T13:42:43Z</time>
      </trkpt>
      <trkpt lat="47.80535" lon="7.03781">
        <ele>773.04</ele>
        <time>2022-07-31T13:42:44Z</time>
      </trkpt>
      <trkpt lat="47.80538" lon="7.03776">
        <ele>772.56</ele>
        <time>2022-07-31T13:42:45Z</time>
      </trkpt>
      <trkpt lat="47.80542" lon="7.03771">
        <ele>772.56</ele>
        <time>2022-07-31T13:42:46Z</time>
      </trkpt>
      <trkpt lat="47.80545" lon="7.03766">
        <ele>772.56</ele>
        <time>2022-07-31T13:42:47Z</time>
      </trkpt>
      <trkpt lat="47.80549" lon="7.03762">
        <ele>772.56</ele>
        <time>2022-07-31T13:42:48Z</time>
      </trkpt>
      <trkpt lat="47.80553" lon="7.03757">
        <ele>772.08</ele>
        <time>2022-07-31T13:42:49Z</time>
      </trkpt>
      <trkpt lat="47.80569" lon="7.03742">
        <ele>772.56</ele>
        <time>2022-07-31T13:42:53Z</time>
      </trkpt>
      <trkpt lat="47.80634" lon="7.03706">
        <ele>774.48</ele>
        <time>2022-07-31T13:43:08Z</time>
      </trkpt>
      <trkpt lat="47.80638" lon="7.03704">
        <ele>774.96</ele>
        <time>2022-07-31T13:43:09Z</time>
      </trkpt>
      <trkpt lat="47.80643" lon="7.03701">
        <ele>774.96</ele>
        <time>2022-07-31T13:43:10Z</time>
      </trkpt>
      <trkpt lat="47.80674" lon="7.03682">
        <ele>774.48</ele>
        <time>2022-07-31T13:43:17Z</time>
      </trkpt>
      <trkpt lat="47.80722" lon="7.03633">
        <ele>775.92</ele>
        <time>2022-07-31T13:43:29Z</time>
      </trkpt>
      <trkpt lat="47.80779" lon="7.03586">
        <ele>777.36</ele>
        <time>2022-07-31T13:43:43Z</time>
      </trkpt>
      <trkpt lat="47.80782" lon="7.03581">
        <ele>777.36</ele>
        <time>2022-07-31T13:43:44Z</time>
      </trkpt>
      <trkpt lat="47.80785" lon="7.03576">
        <ele>777.36</ele>
        <time>2022-07-31T13:43:45Z</time>
      </trkpt>
      <trkpt lat="47.80787" lon="7.0357">
        <ele>777.36</ele>
        <time>2022-07-31T13:43:46Z</time>
      </trkpt>
      <trkpt lat="47.80789" lon="7.03563">
        <ele>777.36</ele>
        <time>2022-07-31T13:43:47Z</time>
      </trkpt>
      <trkpt lat="47.8079" lon="7.03557">
        <ele>777.84</ele>
        <time>2022-07-31T13:43:48Z</time>
      </trkpt>
      <trkpt lat="47.808" lon="7.03513">
        <ele>779.29</ele>
        <time>2022-07-31T13:43:55Z</time>
      </trkpt>
      <trkpt lat="47.80835" lon="7.03434">
        <ele>782.17</ele>
        <time>2022-07-31T13:44:11Z</time>
      </trkpt>
      <trkpt lat="47.80864" lon="7.03377">
        <ele>784.57</ele>
        <time>2022-07-31T13:44:24Z</time>
      </trkpt>
      <trkpt lat="47.8084" lon="7.03319">
        <ele>786.5</ele>
        <time>2022-07-31T13:44:36Z</time>
      </trkpt>
      <trkpt lat="47.80807" lon="7.03279">
        <ele>789.86</ele>
        <time>2022-07-31T13:44:48Z</time>
      </trkpt>
      <trkpt lat="47.80792" lon="7.03214">
        <ele>792.26</ele>
        <time>2022-07-31T13:45:01Z</time>
      </trkpt>
      <trkpt lat="47.80797" lon="7.03193">
        <ele>791.78</ele>
        <time>2022-07-31T13:45:05Z</time>
      </trkpt>
      <trkpt lat="47.80803" lon="7.03181">
        <ele>790.34</ele>
        <time>2022-07-31T13:45:07Z</time>
      </trkpt>
      <trkpt lat="47.80805" lon="7.03174">
        <ele>789.38</ele>
        <time>2022-07-31T13:45:08Z</time>
      </trkpt>
      <trkpt lat="47.80808" lon="7.03159">
        <ele>787.94</ele>
        <time>2022-07-31T13:45:10Z</time>
      </trkpt>
      <trkpt lat="47.80813" lon="7.03144">
        <ele>786.5</ele>
        <time>2022-07-31T13:45:12Z</time>
      </trkpt>
      <trkpt lat="47.80816" lon="7.03138">
        <ele>786.02</ele>
        <time>2022-07-31T13:45:13Z</time>
      </trkpt>
      <trkpt lat="47.80819" lon="7.03131">
        <ele>785.53</ele>
        <time>2022-07-31T13:45:14Z</time>
      </trkpt>
      <trkpt lat="47.80821" lon="7.03122">
        <ele>784.57</ele>
        <time>2022-07-31T13:45:15Z</time>
      </trkpt>
      <trkpt lat="47.80823" lon="7.03114">
        <ele>783.13</ele>
        <time>2022-07-31T13:45:16Z</time>
      </trkpt>
      <trkpt lat="47.80827" lon="7.03106">
        <ele>782.65</ele>
        <time>2022-07-31T13:45:17Z</time>
      </trkpt>
      <trkpt lat="47.80835" lon="7.0309">
        <ele>781.69</ele>
        <time>2022-07-31T13:45:19Z</time>
      </trkpt>
      <trkpt lat="47.80842" lon="7.03075">
        <ele>780.25</ele>
        <time>2022-07-31T13:45:21Z</time>
      </trkpt>
      <trkpt lat="47.80856" lon="7.03045">
        <ele>776.88</ele>
        <time>2022-07-31T13:45:27Z</time>
      </trkpt>
      <trkpt lat="47.80857" lon="7.03033">
        <ele>775.92</ele>
        <time>2022-07-31T13:45:29Z</time>
      </trkpt>
      <trkpt lat="47.80858" lon="7.03018">
        <ele>774.48</ele>
        <time>2022-07-31T13:45:31Z</time>
      </trkpt>
      <trkpt lat="47.80859" lon="7.03011">
        <ele>774</ele>
        <time>2022-07-31T13:45:32Z</time>
      </trkpt>
      <trkpt lat="47.80861" lon="7.03003">
        <ele>773.52</ele>
        <time>2022-07-31T13:45:33Z</time>
      </trkpt>
      <trkpt lat="47.80878" lon="7.02959">
        <ele>770.15</ele>
        <time>2022-07-31T13:45:38Z</time>
      </trkpt>
      <trkpt lat="47.80882" lon="7.0295">
        <ele>770.15</ele>
        <time>2022-07-31T13:45:39Z</time>
      </trkpt>
      <trkpt lat="47.80896" lon="7.02911">
        <ele>767.27</ele>
        <time>2022-07-31T13:45:43Z</time>
      </trkpt>
      <trkpt lat="47.80903" lon="7.02891">
        <ele>766.31</ele>
        <time>2022-07-31T13:45:45Z</time>
      </trkpt>
      <trkpt lat="47.80907" lon="7.02882">
        <ele>765.83</ele>
        <time>2022-07-31T13:45:46Z</time>
      </trkpt>
      <trkpt lat="47.8091" lon="7.02874">
        <ele>765.83</ele>
        <time>2022-07-31T13:45:47Z</time>
      </trkpt>
      <trkpt lat="47.80914" lon="7.02868">
        <ele>765.35</ele>
        <time>2022-07-31T13:45:48Z</time>
      </trkpt>
      <trkpt lat="47.80919" lon="7.02863">
        <ele>765.35</ele>
        <time>2022-07-31T13:45:49Z</time>
      </trkpt>
      <trkpt lat="47.80924" lon="7.02859">
        <ele>765.35</ele>
        <time>2022-07-31T13:45:50Z</time>
      </trkpt>
      <trkpt lat="47.8093" lon="7.02854">
        <ele>765.35</ele>
        <time>2022-07-31T13:45:51Z</time>
      </trkpt>
      <trkpt lat="47.80936" lon="7.0285">
        <ele>764.39</ele>
        <time>2022-07-31T13:45:52Z</time>
      </trkpt>
      <trkpt lat="47.80942" lon="7.02845">
        <ele>764.39</ele>
        <time>2022-07-31T13:45:53Z</time>
      </trkpt>
      <trkpt lat="47.80946" lon="7.0284">
        <ele>763.9</ele>
        <time>2022-07-31T13:45:54Z</time>
      </trkpt>
      <trkpt lat="47.8095" lon="7.02835">
        <ele>763.9</ele>
        <time>2022-07-31T13:45:55Z</time>
      </trkpt>
      <trkpt lat="47.80952" lon="7.02831">
        <ele>763.42</ele>
        <time>2022-07-31T13:45:56Z</time>
      </trkpt>
      <trkpt lat="47.80952" lon="7.02827">
        <ele>762.94</ele>
        <time>2022-07-31T13:45:57Z</time>
      </trkpt>
      <trkpt lat="47.80952" lon="7.02824">
        <ele>762.94</ele>
        <time>2022-07-31T13:45:58Z</time>
      </trkpt>
      <trkpt lat="47.80952" lon="7.02821">
        <ele>762.46</ele>
        <time>2022-07-31T13:45:59Z</time>
      </trkpt>
      <trkpt lat="47.80939" lon="7.02806">
        <ele>759.58</ele>
        <time>2022-07-31T13:46:07Z</time>
      </trkpt>
      <trkpt lat="47.80928" lon="7.02806">
        <ele>755.73</ele>
        <time>2022-07-31T13:46:13Z</time>
      </trkpt>
      <trkpt lat="47.8092" lon="7.02808">
        <ele>754.29</ele>
        <time>2022-07-31T13:46:15Z</time>
      </trkpt>
      <trkpt lat="47.80906" lon="7.0281">
        <ele>752.37</ele>
        <time>2022-07-31T13:46:17Z</time>
      </trkpt>
      <trkpt lat="47.80898" lon="7.02813">
        <ele>751.89</ele>
        <time>2022-07-31T13:46:18Z</time>
      </trkpt>
      <trkpt lat="47.80891" lon="7.02817">
        <ele>750.45</ele>
        <time>2022-07-31T13:46:19Z</time>
      </trkpt>
      <trkpt lat="47.8087" lon="7.02833">
        <ele>747.08</ele>
        <time>2022-07-31T13:46:23Z</time>
      </trkpt>
      <trkpt lat="47.80864" lon="7.02835">
        <ele>745.64</ele>
        <time>2022-07-31T13:46:24Z</time>
      </trkpt>
      <trkpt lat="47.80846" lon="7.02841">
        <ele>742.28</ele>
        <time>2022-07-31T13:46:27Z</time>
      </trkpt>
      <trkpt lat="47.80827" lon="7.02841">
        <ele>737.95</ele>
        <time>2022-07-31T13:46:30Z</time>
      </trkpt>
      <trkpt lat="47.80808" lon="7.0284">
        <ele>734.58</ele>
        <time>2022-07-31T13:46:33Z</time>
      </trkpt>
      <trkpt lat="47.80784" lon="7.02837">
        <ele>731.22</ele>
        <time>2022-07-31T13:46:38Z</time>
      </trkpt>
      <trkpt lat="47.80762" lon="7.02823">
        <ele>728.34</ele>
        <time>2022-07-31T13:46:44Z</time>
      </trkpt>
      <trkpt lat="47.80744" lon="7.02805">
        <ele>725.45</ele>
        <time>2022-07-31T13:46:50Z</time>
      </trkpt>
      <trkpt lat="47.80723" lon="7.02779">
        <ele>722.09</ele>
        <time>2022-07-31T13:46:58Z</time>
      </trkpt>
      <trkpt lat="47.8072" lon="7.02774">
        <ele>721.61</ele>
        <time>2022-07-31T13:46:59Z</time>
      </trkpt>
      <trkpt lat="47.80717" lon="7.02769">
        <ele>720.16</ele>
        <time>2022-07-31T13:47:00Z</time>
      </trkpt>
      <trkpt lat="47.80714" lon="7.02766">
        <ele>719.68</ele>
        <time>2022-07-31T13:47:01Z</time>
      </trkpt>
      <trkpt lat="47.8071" lon="7.02763">
        <ele>718.72</ele>
        <time>2022-07-31T13:47:02Z</time>
      </trkpt>
      <trkpt lat="47.80706" lon="7.02761">
        <ele>718.24</ele>
        <time>2022-07-31T13:47:03Z</time>
      </trkpt>
      <trkpt lat="47.80672" lon="7.0274">
        <ele>714.88</ele>
        <time>2022-07-31T13:47:13Z</time>
      </trkpt>
      <trkpt lat="47.80658" lon="7.02741">
        <ele>712.95</ele>
        <time>2022-07-31T13:47:16Z</time>
      </trkpt>
      <trkpt lat="47.80653" lon="7.02738">
        <ele>712.47</ele>
        <time>2022-07-31T13:47:17Z</time>
      </trkpt>
      <trkpt lat="47.8065" lon="7.02735">
        <ele>711.99</ele>
        <time>2022-07-31T13:47:18Z</time>
      </trkpt>
      <trkpt lat="47.80649" lon="7.0273">
        <ele>711.51</ele>
        <time>2022-07-31T13:47:19Z</time>
      </trkpt>
      <trkpt lat="47.8065" lon="7.02725">
        <ele>711.51</ele>
        <time>2022-07-31T13:47:20Z</time>
      </trkpt>
      <trkpt lat="47.80652" lon="7.02721">
        <ele>710.55</ele>
        <time>2022-07-31T13:47:21Z</time>
      </trkpt>
      <trkpt lat="47.80655" lon="7.02719">
        <ele>710.55</ele>
        <time>2022-07-31T13:47:22Z</time>
      </trkpt>
      <trkpt lat="47.8066" lon="7.02719">
        <ele>710.55</ele>
        <time>2022-07-31T13:47:23Z</time>
      </trkpt>
      <trkpt lat="47.80664" lon="7.02718">
        <ele>710.55</ele>
        <time>2022-07-31T13:47:24Z</time>
      </trkpt>
      <trkpt lat="47.80668" lon="7.02718">
        <ele>710.07</ele>
        <time>2022-07-31T13:47:25Z</time>
      </trkpt>
      <trkpt lat="47.80721" lon="7.02722">
        <ele>708.63</ele>
        <time>2022-07-31T13:47:37Z</time>
      </trkpt>
      <trkpt lat="47.80726" lon="7.02723">
        <ele>708.63</ele>
        <time>2022-07-31T13:47:38Z</time>
      </trkpt>
      <trkpt lat="47.8073" lon="7.02725">
        <ele>708.63</ele>
        <time>2022-07-31T13:47:39Z</time>
      </trkpt>
      <trkpt lat="47.80744" lon="7.02729">
        <ele>707.67</ele>
        <time>2022-07-31T13:47:43Z</time>
      </trkpt>
      <trkpt lat="47.80747" lon="7.02726">
        <ele>707.19</ele>
        <time>2022-07-31T13:47:44Z</time>
      </trkpt>
      <trkpt lat="47.8075" lon="7.02722">
        <ele>706.71</ele>
        <time>2022-07-31T13:47:45Z</time>
      </trkpt>
      <trkpt lat="47.80751" lon="7.02717">
        <ele>706.23</ele>
        <time>2022-07-31T13:47:46Z</time>
      </trkpt>
      <trkpt lat="47.80751" lon="7.02713">
        <ele>706.23</ele>
        <time>2022-07-31T13:47:47Z</time>
      </trkpt>
      <trkpt lat="47.80749" lon="7.0271">
        <ele>705.75</ele>
        <time>2022-07-31T13:47:48Z</time>
      </trkpt>
      <trkpt lat="47.80748" lon="7.02709">
        <ele>705.75</ele>
        <time>2022-07-31T13:47:49Z</time>
      </trkpt>
      <trkpt lat="47.80746" lon="7.02709">
        <ele>705.26</ele>
        <time>2022-07-31T13:47:50Z</time>
      </trkpt>
      <trkpt lat="47.80743" lon="7.02709">
        <ele>704.78</ele>
        <time>2022-07-31T13:47:51Z</time>
      </trkpt>
      <trkpt lat="47.8074" lon="7.02708">
        <ele>704.3</ele>
        <time>2022-07-31T13:47:52Z</time>
      </trkpt>
      <trkpt lat="47.80736" lon="7.02707">
        <ele>704.3</ele>
        <time>2022-07-31T13:47:53Z</time>
      </trkpt>
      <trkpt lat="47.80732" lon="7.02705">
        <ele>703.82</ele>
        <time>2022-07-31T13:47:54Z</time>
      </trkpt>
      <trkpt lat="47.80688" lon="7.02681">
        <ele>699.98</ele>
        <time>2022-07-31T13:48:02Z</time>
      </trkpt>
      <trkpt lat="47.80667" lon="7.02675">
        <ele>698.53</ele>
        <time>2022-07-31T13:48:05Z</time>
      </trkpt>
      <trkpt lat="47.80651" lon="7.02672">
        <ele>696.61</ele>
        <time>2022-07-31T13:48:07Z</time>
      </trkpt>
      <trkpt lat="47.80644" lon="7.02673">
        <ele>695.65</ele>
        <time>2022-07-31T13:48:08Z</time>
      </trkpt>
      <trkpt lat="47.80636" lon="7.02676">
        <ele>695.17</ele>
        <time>2022-07-31T13:48:09Z</time>
      </trkpt>
      <trkpt lat="47.80628" lon="7.02679">
        <ele>694.21</ele>
        <time>2022-07-31T13:48:10Z</time>
      </trkpt>
      <trkpt lat="47.8062" lon="7.02683">
        <ele>693.25</ele>
        <time>2022-07-31T13:48:11Z</time>
      </trkpt>
      <trkpt lat="47.80613" lon="7.02688">
        <ele>692.77</ele>
        <time>2022-07-31T13:48:12Z</time>
      </trkpt>
      <trkpt lat="47.80605" lon="7.02694">
        <ele>692.29</ele>
        <time>2022-07-31T13:48:13Z</time>
      </trkpt>
      <trkpt lat="47.80598" lon="7.02701">
        <ele>691.33</ele>
        <time>2022-07-31T13:48:14Z</time>
      </trkpt>
      <trkpt lat="47.80584" lon="7.02713">
        <ele>689.88</ele>
        <time>2022-07-31T13:48:16Z</time>
      </trkpt>
      <trkpt lat="47.80556" lon="7.02734">
        <ele>686.52</ele>
        <time>2022-07-31T13:48:20Z</time>
      </trkpt>
      <trkpt lat="47.80551" lon="7.02739">
        <ele>686.52</ele>
        <time>2022-07-31T13:48:21Z</time>
      </trkpt>
      <trkpt lat="47.80544" lon="7.02746">
        <ele>686.04</ele>
        <time>2022-07-31T13:48:22Z</time>
      </trkpt>
      <trkpt lat="47.8053" lon="7.02765">
        <ele>683.15</ele>
        <time>2022-07-31T13:48:25Z</time>
      </trkpt>
      <trkpt lat="47.80524" lon="7.02764">
        <ele>681.71</ele>
        <time>2022-07-31T13:48:27Z</time>
      </trkpt>
      <trkpt lat="47.80523" lon="7.02759">
        <ele>681.71</ele>
        <time>2022-07-31T13:48:28Z</time>
      </trkpt>
      <trkpt lat="47.80525" lon="7.02753">
        <ele>681.23</ele>
        <time>2022-07-31T13:48:29Z</time>
      </trkpt>
      <trkpt lat="47.80528" lon="7.02747">
        <ele>680.75</ele>
        <time>2022-07-31T13:48:30Z</time>
      </trkpt>
      <trkpt lat="47.80531" lon="7.02741">
        <ele>679.79</ele>
        <time>2022-07-31T13:48:31Z</time>
      </trkpt>
      <trkpt lat="47.80534" lon="7.02734">
        <ele>679.31</ele>
        <time>2022-07-31T13:48:32Z</time>
      </trkpt>
      <trkpt lat="47.80536" lon="7.02726">
        <ele>678.83</ele>
        <time>2022-07-31T13:48:33Z</time>
      </trkpt>
      <trkpt lat="47.80538" lon="7.02718">
        <ele>677.87</ele>
        <time>2022-07-31T13:48:34Z</time>
      </trkpt>
      <trkpt lat="47.80539" lon="7.02709">
        <ele>677.39</ele>
        <time>2022-07-31T13:48:35Z</time>
      </trkpt>
      <trkpt lat="47.80541" lon="7.027">
        <ele>676.42</ele>
        <time>2022-07-31T13:48:36Z</time>
      </trkpt>
      <trkpt lat="47.80544" lon="7.02691">
        <ele>675.46</ele>
        <time>2022-07-31T13:48:37Z</time>
      </trkpt>
      <trkpt lat="47.80557" lon="7.02667">
        <ele>673.54</ele>
        <time>2022-07-31T13:48:40Z</time>
      </trkpt>
      <trkpt lat="47.80558" lon="7.02659">
        <ele>672.58</ele>
        <time>2022-07-31T13:48:41Z</time>
      </trkpt>
      <trkpt lat="47.8056" lon="7.02651">
        <ele>672.1</ele>
        <time>2022-07-31T13:48:42Z</time>
      </trkpt>
      <trkpt lat="47.80562" lon="7.02644">
        <ele>672.1</ele>
        <time>2022-07-31T13:48:43Z</time>
      </trkpt>
      <trkpt lat="47.80565" lon="7.02637">
        <ele>671.14</ele>
        <time>2022-07-31T13:48:44Z</time>
      </trkpt>
      <trkpt lat="47.8057" lon="7.02632">
        <ele>670.66</ele>
        <time>2022-07-31T13:48:45Z</time>
      </trkpt>
      <trkpt lat="47.80574" lon="7.02627">
        <ele>670.18</ele>
        <time>2022-07-31T13:48:46Z</time>
      </trkpt>
      <trkpt lat="47.80579" lon="7.02622">
        <ele>669.7</ele>
        <time>2022-07-31T13:48:47Z</time>
      </trkpt>
      <trkpt lat="47.80592" lon="7.02607">
        <ele>667.77</ele>
        <time>2022-07-31T13:48:50Z</time>
      </trkpt>
      <trkpt lat="47.80595" lon="7.02601">
        <ele>666.81</ele>
        <time>2022-07-31T13:48:51Z</time>
      </trkpt>
      <trkpt lat="47.80596" lon="7.02594">
        <ele>666.33</ele>
        <time>2022-07-31T13:48:52Z</time>
      </trkpt>
      <trkpt lat="47.80594" lon="7.0259">
        <ele>665.85</ele>
        <time>2022-07-31T13:48:53Z</time>
      </trkpt>
      <trkpt lat="47.80591" lon="7.02589">
        <ele>664.89</ele>
        <time>2022-07-31T13:48:54Z</time>
      </trkpt>
      <trkpt lat="47.80587" lon="7.02589">
        <ele>664.89</ele>
        <time>2022-07-31T13:48:55Z</time>
      </trkpt>
      <trkpt lat="47.80582" lon="7.02591">
        <ele>664.41</ele>
        <time>2022-07-31T13:48:56Z</time>
      </trkpt>
      <trkpt lat="47.80576" lon="7.02594">
        <ele>663.45</ele>
        <time>2022-07-31T13:48:57Z</time>
      </trkpt>
      <trkpt lat="47.8057" lon="7.02599">
        <ele>662.97</ele>
        <time>2022-07-31T13:48:58Z</time>
      </trkpt>
      <trkpt lat="47.8055" lon="7.02618">
        <ele>660.56</ele>
        <time>2022-07-31T13:49:02Z</time>
      </trkpt>
      <trkpt lat="47.8052" lon="7.02641">
        <ele>658.16</ele>
        <time>2022-07-31T13:49:07Z</time>
      </trkpt>
      <trkpt lat="47.80503" lon="7.02654">
        <ele>656.72</ele>
        <time>2022-07-31T13:49:10Z</time>
      </trkpt>
      <trkpt lat="47.80498" lon="7.02661">
        <ele>655.76</ele>
        <time>2022-07-31T13:49:11Z</time>
      </trkpt>
      <trkpt lat="47.80481" lon="7.0268">
        <ele>653.83</ele>
        <time>2022-07-31T13:49:14Z</time>
      </trkpt>
      <trkpt lat="47.80475" lon="7.02685">
        <ele>652.87</ele>
        <time>2022-07-31T13:49:15Z</time>
      </trkpt>
      <trkpt lat="47.80468" lon="7.02688">
        <ele>651.91</ele>
        <time>2022-07-31T13:49:16Z</time>
      </trkpt>
      <trkpt lat="47.80446" lon="7.02693">
        <ele>648.07</ele>
        <time>2022-07-31T13:49:19Z</time>
      </trkpt>
      <trkpt lat="47.80437" lon="7.02692">
        <ele>647.1</ele>
        <time>2022-07-31T13:49:20Z</time>
      </trkpt>
      <trkpt lat="47.80419" lon="7.02687">
        <ele>645.18</ele>
        <time>2022-07-31T13:49:22Z</time>
      </trkpt>
      <trkpt lat="47.8041" lon="7.02682">
        <ele>644.22</ele>
        <time>2022-07-31T13:49:23Z</time>
      </trkpt>
      <trkpt lat="47.80401" lon="7.02674">
        <ele>642.78</ele>
        <time>2022-07-31T13:49:24Z</time>
      </trkpt>
      <trkpt lat="47.80393" lon="7.02665">
        <ele>641.34</ele>
        <time>2022-07-31T13:49:25Z</time>
      </trkpt>
      <trkpt lat="47.80389" lon="7.02658">
        <ele>640.38</ele>
        <time>2022-07-31T13:49:26Z</time>
      </trkpt>
      <trkpt lat="47.8038" lon="7.02644">
        <ele>638.93</ele>
        <time>2022-07-31T13:49:27Z</time>
      </trkpt>
      <trkpt lat="47.80375" lon="7.02632">
        <ele>637.97</ele>
        <time>2022-07-31T13:49:28Z</time>
      </trkpt>
      <trkpt lat="47.8037" lon="7.02622">
        <ele>636.53</ele>
        <time>2022-07-31T13:49:29Z</time>
      </trkpt>
      <trkpt lat="47.80365" lon="7.02611">
        <ele>635.57</ele>
        <time>2022-07-31T13:49:30Z</time>
      </trkpt>
      <trkpt lat="47.80348" lon="7.0256">
        <ele>632.2</ele>
        <time>2022-07-31T13:49:35Z</time>
      </trkpt>
      <trkpt lat="47.8033" lon="7.02526">
        <ele>629.32</ele>
        <time>2022-07-31T13:49:39Z</time>
      </trkpt>
      <trkpt lat="47.80326" lon="7.02522">
        <ele>629.32</ele>
        <time>2022-07-31T13:49:40Z</time>
      </trkpt>
      <trkpt lat="47.80312" lon="7.02508">
        <ele>626.92</ele>
        <time>2022-07-31T13:49:43Z</time>
      </trkpt>
      <trkpt lat="47.80283" lon="7.0249">
        <ele>623.55</ele>
        <time>2022-07-31T13:49:49Z</time>
      </trkpt>
      <trkpt lat="47.80259" lon="7.02478">
        <ele>620.19</ele>
        <time>2022-07-31T13:49:53Z</time>
      </trkpt>
      <trkpt lat="47.80232" lon="7.02461">
        <ele>616.34</ele>
        <time>2022-07-31T13:49:57Z</time>
      </trkpt>
      <trkpt lat="47.80204" lon="7.02447">
        <ele>612.5</ele>
        <time>2022-07-31T13:50:01Z</time>
      </trkpt>
      <trkpt lat="47.80191" lon="7.02442">
        <ele>611.54</ele>
        <time>2022-07-31T13:50:03Z</time>
      </trkpt>
      <trkpt lat="47.80128" lon="7.02419">
        <ele>607.69</ele>
        <time>2022-07-31T13:50:11Z</time>
      </trkpt>
      <trkpt lat="47.80113" lon="7.02416">
        <ele>606.73</ele>
        <time>2022-07-31T13:50:13Z</time>
      </trkpt>
      <trkpt lat="47.80081" lon="7.02411">
        <ele>604.33</ele>
        <time>2022-07-31T13:50:18Z</time>
      </trkpt>
      <trkpt lat="47.80075" lon="7.02412">
        <ele>604.33</ele>
        <time>2022-07-31T13:50:19Z</time>
      </trkpt>
      <trkpt lat="47.80069" lon="7.02415">
        <ele>603.85</ele>
        <time>2022-07-31T13:50:20Z</time>
      </trkpt>
      <trkpt lat="47.80063" lon="7.02419">
        <ele>603.85</ele>
        <time>2022-07-31T13:50:21Z</time>
      </trkpt>
      <trkpt lat="47.80058" lon="7.02424">
        <ele>603.36</ele>
        <time>2022-07-31T13:50:22Z</time>
      </trkpt>
      <trkpt lat="47.80053" lon="7.0243">
        <ele>603.36</ele>
        <time>2022-07-31T13:50:23Z</time>
      </trkpt>
      <trkpt lat="47.80048" lon="7.02436">
        <ele>603.36</ele>
        <time>2022-07-31T13:50:24Z</time>
      </trkpt>
      <trkpt lat="47.80044" lon="7.02443">
        <ele>603.36</ele>
        <time>2022-07-31T13:50:25Z</time>
      </trkpt>
      <trkpt lat="47.80041" lon="7.0245">
        <ele>602.88</ele>
        <time>2022-07-31T13:50:26Z</time>
      </trkpt>
      <trkpt lat="47.80034" lon="7.02463">
        <ele>602.88</ele>
        <time>2022-07-31T13:50:28Z</time>
      </trkpt>
      <trkpt lat="47.8003" lon="7.02468">
        <ele>602.88</ele>
        <time>2022-07-31T13:50:29Z</time>
      </trkpt>
      <trkpt lat="47.80025" lon="7.02473">
        <ele>602.88</ele>
        <time>2022-07-31T13:50:30Z</time>
      </trkpt>
      <trkpt lat="47.79991" lon="7.02495">
        <ele>599.04</ele>
        <time>2022-07-31T13:50:36Z</time>
      </trkpt>
      <trkpt lat="47.79943" lon="7.02526">
        <ele>596.15</ele>
        <time>2022-07-31T13:50:44Z</time>
      </trkpt>
      <trkpt lat="47.79923" lon="7.0255">
        <ele>592.79</ele>
        <time>2022-07-31T13:50:48Z</time>
      </trkpt>
      <trkpt lat="47.79897" lon="7.02578">
        <ele>589.43</ele>
        <time>2022-07-31T13:50:53Z</time>
      </trkpt>
      <trkpt lat="47.7985" lon="7.02614">
        <ele>590.39</ele>
        <time>2022-07-31T13:51:02Z</time>
      </trkpt>
      <trkpt lat="47.7984" lon="7.02623">
        <ele>589.43</ele>
        <time>2022-07-31T13:51:05Z</time>
      </trkpt>
      <trkpt lat="47.79837" lon="7.02627">
        <ele>589.91</ele>
        <time>2022-07-31T13:51:06Z</time>
      </trkpt>
      <trkpt lat="47.79835" lon="7.02632">
        <ele>589.91</ele>
        <time>2022-07-31T13:51:07Z</time>
      </trkpt>
      <trkpt lat="47.7983" lon="7.02641">
        <ele>590.39</ele>
        <time>2022-07-31T13:51:09Z</time>
      </trkpt>
      <trkpt lat="47.79828" lon="7.02646">
        <ele>590.39</ele>
        <time>2022-07-31T13:51:10Z</time>
      </trkpt>
      <trkpt lat="47.79826" lon="7.02651">
        <ele>590.87</ele>
        <time>2022-07-31T13:51:11Z</time>
      </trkpt>
      <trkpt lat="47.79819" lon="7.02702">
        <ele>592.79</ele>
        <time>2022-07-31T13:51:22Z</time>
      </trkpt>
      <trkpt lat="47.79819" lon="7.02707">
        <ele>593.27</ele>
        <time>2022-07-31T13:51:23Z</time>
      </trkpt>
      <trkpt lat="47.79812" lon="7.02746">
        <ele>596.15</ele>
        <time>2022-07-31T13:51:33Z</time>
      </trkpt>
      <trkpt lat="47.798" lon="7.02763">
        <ele>595.67</ele>
        <time>2022-07-31T13:51:38Z</time>
      </trkpt>
      <trkpt lat="47.79796" lon="7.02765">
        <ele>595.67</ele>
        <time>2022-07-31T13:51:39Z</time>
      </trkpt>
      <trkpt lat="47.79792" lon="7.02766">
        <ele>595.67</ele>
        <time>2022-07-31T13:51:40Z</time>
      </trkpt>
      <trkpt lat="47.79783" lon="7.02767">
        <ele>595.19</ele>
        <time>2022-07-31T13:51:42Z</time>
      </trkpt>
      <trkpt lat="47.79746" lon="7.02775">
        <ele>594.23</ele>
        <time>2022-07-31T13:51:50Z</time>
      </trkpt>
      <trkpt lat="47.79727" lon="7.02787">
        <ele>594.23</ele>
        <time>2022-07-31T13:51:55Z</time>
      </trkpt>
      <trkpt lat="47.79693" lon="7.02808">
        <ele>592.79</ele>
        <time>2022-07-31T13:52:03Z</time>
      </trkpt>
      <trkpt lat="47.79684" lon="7.02812">
        <ele>592.31</ele>
        <time>2022-07-31T13:52:05Z</time>
      </trkpt>
      <trkpt lat="47.79656" lon="7.02821">
        <ele>590.39</ele>
        <time>2022-07-31T13:52:11Z</time>
      </trkpt>
      <trkpt lat="47.79607" lon="7.02856">
        <ele>587.5</ele>
        <time>2022-07-31T13:52:23Z</time>
      </trkpt>
      <trkpt lat="47.79584" lon="7.02884">
        <ele>584.14</ele>
        <time>2022-07-31T13:52:29Z</time>
      </trkpt>
      <trkpt lat="47.79567" lon="7.02918">
        <ele>581.25</ele>
        <time>2022-07-31T13:52:35Z</time>
      </trkpt>
      <trkpt lat="47.79564" lon="7.02923">
        <ele>580.77</ele>
        <time>2022-07-31T13:52:36Z</time>
      </trkpt>
      <trkpt lat="47.79561" lon="7.02927">
        <ele>580.29</ele>
        <time>2022-07-31T13:52:37Z</time>
      </trkpt>
      <trkpt lat="47.79553" lon="7.02936">
        <ele>579.33</ele>
        <time>2022-07-31T13:52:40Z</time>
      </trkpt>
      <trkpt lat="47.79546" lon="7.02944">
        <ele>577.89</ele>
        <time>2022-07-31T13:52:43Z</time>
      </trkpt>
      <trkpt lat="47.79543" lon="7.02951">
        <ele>577.41</ele>
        <time>2022-07-31T13:52:45Z</time>
      </trkpt>
      <trkpt lat="47.79543" lon="7.02954">
        <ele>576.93</ele>
        <time>2022-07-31T13:52:46Z</time>
      </trkpt>
      <trkpt lat="47.79544" lon="7.02957">
        <ele>576.93</ele>
        <time>2022-07-31T13:52:47Z</time>
      </trkpt>
      <trkpt lat="47.79546" lon="7.0296">
        <ele>576.93</ele>
        <time>2022-07-31T13:52:48Z</time>
      </trkpt>
      <trkpt lat="47.79549" lon="7.02961">
        <ele>576.93</ele>
        <time>2022-07-31T13:52:49Z</time>
      </trkpt>
      <trkpt lat="47.79552" lon="7.02961">
        <ele>576.93</ele>
        <time>2022-07-31T13:52:50Z</time>
      </trkpt>
      <trkpt lat="47.79556" lon="7.02961">
        <ele>576.93</ele>
        <time>2022-07-31T13:52:51Z</time>
      </trkpt>
      <trkpt lat="47.79604" lon="7.02929">
        <ele>578.85</ele>
        <time>2022-07-31T13:53:05Z</time>
      </trkpt>
      <trkpt lat="47.79625" lon="7.02911">
        <ele>579.81</ele>
        <time>2022-07-31T13:53:17Z</time>
      </trkpt>
      <trkpt lat="47.79625" lon="7.0291">
        <ele>579.81</ele>
        <time>2022-07-31T13:53:30Z</time>
      </trkpt>
      <trkpt lat="47.79628" lon="7.02911">
        <ele>578.85</ele>
        <time>2022-07-31T13:53:42Z</time>
      </trkpt>
      <trkpt lat="47.79631" lon="7.02911">
        <ele>578.85</ele>
        <time>2022-07-31T13:54:00Z</time>
      </trkpt>
      <trkpt lat="47.79634" lon="7.02912">
        <ele>579.33</ele>
        <time>2022-07-31T13:54:37Z</time>
      </trkpt>
      <trkpt lat="47.79636" lon="7.02912">
        <ele>579.33</ele>
        <time>2022-07-31T13:55:15Z</time>
      </trkpt>
      <trkpt lat="47.79637" lon="7.02909">
        <ele>579.33</ele>
        <time>2022-07-31T13:55:59Z</time>
      </trkpt>
      <trkpt lat="47.79637" lon="7.0291">
        <ele>578.85</ele>
        <time>2022-07-31T13:56:41Z</time>
      </trkpt>
      <trkpt lat="47.79636" lon="7.02909">
        <ele>578.85</ele>
        <time>2022-07-31T13:57:25Z</time>
      </trkpt>
      <trkpt lat="47.79636" lon="7.02909">
        <ele>578.37</ele>
        <time>2022-07-31T13:58:05Z</time>
      </trkpt>
      <trkpt lat="47.79636" lon="7.0291">
        <ele>577.89</ele>
        <time>2022-07-31T13:58:42Z</time>
      </trkpt>
      <trkpt lat="47.79634" lon="7.0291">
        <ele>577.89</ele>
        <time>2022-07-31T13:59:11Z</time>
      </trkpt>
      <trkpt lat="47.79632" lon="7.0291">
        <ele>577.89</ele>
        <time>2022-07-31T13:59:16Z</time>
      </trkpt>
      <trkpt lat="47.79628" lon="7.0291">
        <ele>578.37</ele>
        <time>2022-07-31T13:59:31Z</time>
      </trkpt>
      <trkpt lat="47.79627" lon="7.02911">
        <ele>578.37</ele>
        <time>2022-07-31T13:59:35Z</time>
      </trkpt>
      <trkpt lat="47.79625" lon="7.02912">
        <ele>578.37</ele>
        <time>2022-07-31T13:59:36Z</time>
      </trkpt>
      <trkpt lat="47.79622" lon="7.02912">
        <ele>578.37</ele>
        <time>2022-07-31T13:59:37Z</time>
      </trkpt>
      <trkpt lat="47.79619" lon="7.02913">
        <ele>578.37</ele>
        <time>2022-07-31T13:59:38Z</time>
      </trkpt>
      <trkpt lat="47.79617" lon="7.02915">
        <ele>578.37</ele>
        <time>2022-07-31T13:59:39Z</time>
      </trkpt>
      <trkpt lat="47.79614" lon="7.02917">
        <ele>577.89</ele>
        <time>2022-07-31T13:59:40Z</time>
      </trkpt>
      <trkpt lat="47.79607" lon="7.02923">
        <ele>577.89</ele>
        <time>2022-07-31T13:59:42Z</time>
      </trkpt>
      <trkpt lat="47.79603" lon="7.02926">
        <ele>577.41</ele>
        <time>2022-07-31T13:59:43Z</time>
      </trkpt>
      <trkpt lat="47.79598" lon="7.0293">
        <ele>576.93</ele>
        <time>2022-07-31T13:59:44Z</time>
      </trkpt>
      <trkpt lat="47.79594" lon="7.02934">
        <ele>576.93</ele>
        <time>2022-07-31T13:59:45Z</time>
      </trkpt>
      <trkpt lat="47.79589" lon="7.02938">
        <ele>576.93</ele>
        <time>2022-07-31T13:59:46Z</time>
      </trkpt>
      <trkpt lat="47.79584" lon="7.02942">
        <ele>576.45</ele>
        <time>2022-07-31T13:59:47Z</time>
      </trkpt>
      <trkpt lat="47.7958" lon="7.02945">
        <ele>575.97</ele>
        <time>2022-07-31T13:59:48Z</time>
      </trkpt>
      <trkpt lat="47.79576" lon="7.02949">
        <ele>575.97</ele>
        <time>2022-07-31T13:59:49Z</time>
      </trkpt>
      <trkpt lat="47.79571" lon="7.02951">
        <ele>575.49</ele>
        <time>2022-07-31T13:59:50Z</time>
      </trkpt>
      <trkpt lat="47.79567" lon="7.02953">
        <ele>575.49</ele>
        <time>2022-07-31T13:59:51Z</time>
      </trkpt>
      <trkpt lat="47.79527" lon="7.0298">
        <ele>572.12</ele>
        <time>2022-07-31T14:00:03Z</time>
      </trkpt>
      <trkpt lat="47.79518" lon="7.02987">
        <ele>571.64</ele>
        <time>2022-07-31T14:00:07Z</time>
      </trkpt>
      <trkpt lat="47.79516" lon="7.0299">
        <ele>571.64</ele>
        <time>2022-07-31T14:00:08Z</time>
      </trkpt>
      <trkpt lat="47.79515" lon="7.02994">
        <ele>571.64</ele>
        <time>2022-07-31T14:00:09Z</time>
      </trkpt>
      <trkpt lat="47.79513" lon="7.02999">
        <ele>571.64</ele>
        <time>2022-07-31T14:00:10Z</time>
      </trkpt>
      <trkpt lat="47.79512" lon="7.03004">
        <ele>571.16</ele>
        <time>2022-07-31T14:00:11Z</time>
      </trkpt>
      <trkpt lat="47.7951" lon="7.0301">
        <ele>571.16</ele>
        <time>2022-07-31T14:00:12Z</time>
      </trkpt>
      <trkpt lat="47.79508" lon="7.03017">
        <ele>570.68</ele>
        <time>2022-07-31T14:00:13Z</time>
      </trkpt>
      <trkpt lat="47.79507" lon="7.03025">
        <ele>570.2</ele>
        <time>2022-07-31T14:00:14Z</time>
      </trkpt>
      <trkpt lat="47.79505" lon="7.03033">
        <ele>569.72</ele>
        <time>2022-07-31T14:00:15Z</time>
      </trkpt>
      <trkpt lat="47.79502" lon="7.0305">
        <ele>569.24</ele>
        <time>2022-07-31T14:00:17Z</time>
      </trkpt>
      <trkpt lat="47.79495" lon="7.03099">
        <ele>565.87</ele>
        <time>2022-07-31T14:00:23Z</time>
      </trkpt>
      <trkpt lat="47.79492" lon="7.03111">
        <ele>564.43</ele>
        <time>2022-07-31T14:00:25Z</time>
      </trkpt>
      <trkpt lat="47.79489" lon="7.03116">
        <ele>563.95</ele>
        <time>2022-07-31T14:00:26Z</time>
      </trkpt>
      <trkpt lat="47.79486" lon="7.03119">
        <ele>563.47</ele>
        <time>2022-07-31T14:00:27Z</time>
      </trkpt>
      <trkpt lat="47.79482" lon="7.03121">
        <ele>562.99</ele>
        <time>2022-07-31T14:00:28Z</time>
      </trkpt>
      <trkpt lat="47.79477" lon="7.03119">
        <ele>562.51</ele>
        <time>2022-07-31T14:00:29Z</time>
      </trkpt>
      <trkpt lat="47.79472" lon="7.03115">
        <ele>562.51</ele>
        <time>2022-07-31T14:00:30Z</time>
      </trkpt>
      <trkpt lat="47.79468" lon="7.0311">
        <ele>562.03</ele>
        <time>2022-07-31T14:00:31Z</time>
      </trkpt>
      <trkpt lat="47.79465" lon="7.03102">
        <ele>561.55</ele>
        <time>2022-07-31T14:00:32Z</time>
      </trkpt>
      <trkpt lat="47.79461" lon="7.03092">
        <ele>561.55</ele>
        <time>2022-07-31T14:00:33Z</time>
      </trkpt>
      <trkpt lat="47.79456" lon="7.03083">
        <ele>560.59</ele>
        <time>2022-07-31T14:00:34Z</time>
      </trkpt>
      <trkpt lat="47.79451" lon="7.03074">
        <ele>559.62</ele>
        <time>2022-07-31T14:00:35Z</time>
      </trkpt>
      <trkpt lat="47.79428" lon="7.03031">
        <ele>556.26</ele>
        <time>2022-07-31T14:00:40Z</time>
      </trkpt>
      <trkpt lat="47.7942" lon="7.03017">
        <ele>554.34</ele>
        <time>2022-07-31T14:00:43Z</time>
      </trkpt>
      <trkpt lat="47.79413" lon="7.0301">
        <ele>554.34</ele>
        <time>2022-07-31T14:00:46Z</time>
      </trkpt>
      <trkpt lat="47.79411" lon="7.03012">
        <ele>553.86</ele>
        <time>2022-07-31T14:00:55Z</time>
      </trkpt>
      <trkpt lat="47.79409" lon="7.03013">
        <ele>553.38</ele>
        <time>2022-07-31T14:01:12Z</time>
      </trkpt>
      <trkpt lat="47.79407" lon="7.03014">
        <ele>553.38</ele>
        <time>2022-07-31T14:01:13Z</time>
      </trkpt>
      <trkpt lat="47.79403" lon="7.03016">
        <ele>552.9</ele>
        <time>2022-07-31T14:01:14Z</time>
      </trkpt>
      <trkpt lat="47.79398" lon="7.03019">
        <ele>551.93</ele>
        <time>2022-07-31T14:01:15Z</time>
      </trkpt>
      <trkpt lat="47.79394" lon="7.03021">
        <ele>551.45</ele>
        <time>2022-07-31T14:01:16Z</time>
      </trkpt>
      <trkpt lat="47.79391" lon="7.03023">
        <ele>550.97</ele>
        <time>2022-07-31T14:01:17Z</time>
      </trkpt>
      <trkpt lat="47.79389" lon="7.03024">
        <ele>550.49</ele>
        <time>2022-07-31T14:01:18Z</time>
      </trkpt>
      <trkpt lat="47.79387" lon="7.03024">
        <ele>550.49</ele>
        <time>2022-07-31T14:01:19Z</time>
      </trkpt>
      <trkpt lat="47.79386" lon="7.03022">
        <ele>550.01</ele>
        <time>2022-07-31T14:01:20Z</time>
      </trkpt>
      <trkpt lat="47.79386" lon="7.03019">
        <ele>550.01</ele>
        <time>2022-07-31T14:01:21Z</time>
      </trkpt>
      <trkpt lat="47.79386" lon="7.03016">
        <ele>549.53</ele>
        <time>2022-07-31T14:01:22Z</time>
      </trkpt>
      <trkpt lat="47.79386" lon="7.03012">
        <ele>549.53</ele>
        <time>2022-07-31T14:01:23Z</time>
      </trkpt>
      <trkpt lat="47.79388" lon="7.03009">
        <ele>549.05</ele>
        <time>2022-07-31T14:01:24Z</time>
      </trkpt>
      <trkpt lat="47.79389" lon="7.03007">
        <ele>548.57</ele>
        <time>2022-07-31T14:01:25Z</time>
      </trkpt>
      <trkpt lat="47.7939" lon="7.03006">
        <ele>548.57</ele>
        <time>2022-07-31T14:01:26Z</time>
      </trkpt>
      <trkpt lat="47.79391" lon="7.03004">
        <ele>548.09</ele>
        <time>2022-07-31T14:01:39Z</time>
      </trkpt>
      <trkpt lat="47.79387" lon="7.03004">
        <ele>546.65</ele>
        <time>2022-07-31T14:01:52Z</time>
      </trkpt>
      <trkpt lat="47.79386" lon="7.03004">
        <ele>550.01</ele>
        <time>2022-07-31T14:01:54Z</time>
      </trkpt>
      <trkpt lat="47.79385" lon="7.03004">
        <ele>547.61</ele>
        <time>2022-07-31T14:01:56Z</time>
      </trkpt>
    </trkseg>
  </trk>
</gpx>